<?xml version="1.0" encoding="UTF-8" standalone="no" ?>
<gpx xmlns="http://www.topografix.com/GPX/1/1" xmlns:xsi="http://www.w3.org/2001/XMLSchema-instance" xsi:schemaLocation="http://www.topografix.com/GPX/1/1 http://www.topografix.com/GPX/1/1/gpx.xsd" version="1.1" creator="VisuGPX - https://www.visugpx.com">
  <metadata>
    <name>Ski de randonnée Beaufortain 2 jours </name>
  </metadata>
  <trk>
    <name><![CDATA[Ski de randonnée Beaufortain 2 jours _1]]></name>
    <trkseg>
      <trkpt lat="45.59132" lon="6.67087">
        <ele>1413</ele>
        <time>2022-01-01T07:56:57Z</time>
      </trkpt>
      <trkpt lat="45.59139" lon="6.67092">
        <ele>1413</ele>
        <time>2022-01-01T07:57:03Z</time>
      </trkpt>
      <trkpt lat="45.59147" lon="6.6709">
        <ele>1413</ele>
        <time>2022-01-01T07:57:11Z</time>
      </trkpt>
      <trkpt lat="45.59157" lon="6.6709">
        <ele>1413.6</ele>
        <time>2022-01-01T07:57:19Z</time>
      </trkpt>
      <trkpt lat="45.5917" lon="6.67094">
        <ele>1413.8</ele>
        <time>2022-01-01T07:57:31Z</time>
      </trkpt>
      <trkpt lat="45.59174" lon="6.67096">
        <ele>1414</ele>
        <time>2022-01-01T07:57:34Z</time>
      </trkpt>
      <trkpt lat="45.59185" lon="6.67098">
        <ele>1414.6</ele>
        <time>2022-01-01T07:57:43Z</time>
      </trkpt>
      <trkpt lat="45.59188" lon="6.67095">
        <ele>1414.6</ele>
        <time>2022-01-01T07:57:46Z</time>
      </trkpt>
      <trkpt lat="45.59192" lon="6.67092">
        <ele>1414.8</ele>
        <time>2022-01-01T07:57:50Z</time>
      </trkpt>
      <trkpt lat="45.59198" lon="6.67094">
        <ele>1415</ele>
        <time>2022-01-01T07:57:55Z</time>
      </trkpt>
      <trkpt lat="45.59198" lon="6.67094">
        <ele>1415</ele>
        <time>2022-01-01T07:57:56Z</time>
      </trkpt>
      <trkpt lat="45.59196" lon="6.67089">
        <ele>1414.8</ele>
        <time>2022-01-01T07:58:04Z</time>
      </trkpt>
      <trkpt lat="45.59197" lon="6.67089">
        <ele>1414.6</ele>
        <time>2022-01-01T07:58:10Z</time>
      </trkpt>
      <trkpt lat="45.59197" lon="6.67089">
        <ele>1414.4</ele>
        <time>2022-01-01T07:58:14Z</time>
      </trkpt>
      <trkpt lat="45.59195" lon="6.67086">
        <ele>1415</ele>
        <time>2022-01-01T07:58:29Z</time>
      </trkpt>
      <trkpt lat="45.592" lon="6.67081">
        <ele>1415.2</ele>
        <time>2022-01-01T07:58:59Z</time>
      </trkpt>
      <trkpt lat="45.59213" lon="6.67079">
        <ele>1415</ele>
        <time>2022-01-01T07:59:07Z</time>
      </trkpt>
      <trkpt lat="45.59221" lon="6.67075">
        <ele>1415.2</ele>
        <time>2022-01-01T07:59:14Z</time>
      </trkpt>
      <trkpt lat="45.59223" lon="6.67075">
        <ele>1415.2</ele>
        <time>2022-01-01T07:59:15Z</time>
      </trkpt>
      <trkpt lat="45.59228" lon="6.67076">
        <ele>1415.2</ele>
        <time>2022-01-01T07:59:19Z</time>
      </trkpt>
      <trkpt lat="45.59231" lon="6.67075">
        <ele>1415.2</ele>
        <time>2022-01-01T07:59:21Z</time>
      </trkpt>
      <trkpt lat="45.59233" lon="6.67073">
        <ele>1415.2</ele>
        <time>2022-01-01T07:59:23Z</time>
      </trkpt>
      <trkpt lat="45.59234" lon="6.67073">
        <ele>1415.2</ele>
        <time>2022-01-01T07:59:24Z</time>
      </trkpt>
      <trkpt lat="45.59246" lon="6.67074">
        <ele>1415.4</ele>
        <time>2022-01-01T07:59:32Z</time>
      </trkpt>
      <trkpt lat="45.59256" lon="6.67071">
        <ele>1415.4</ele>
        <time>2022-01-01T07:59:40Z</time>
      </trkpt>
      <trkpt lat="45.59262" lon="6.67072">
        <ele>1415.4</ele>
        <time>2022-01-01T07:59:43Z</time>
      </trkpt>
      <trkpt lat="45.59264" lon="6.67072">
        <ele>1415.4</ele>
        <time>2022-01-01T07:59:45Z</time>
      </trkpt>
      <trkpt lat="45.59277" lon="6.67075">
        <ele>1415.6</ele>
        <time>2022-01-01T07:59:53Z</time>
      </trkpt>
      <trkpt lat="45.59284" lon="6.67069">
        <ele>1415.6</ele>
        <time>2022-01-01T07:59:59Z</time>
      </trkpt>
      <trkpt lat="45.59295" lon="6.67068">
        <ele>1415.6</ele>
        <time>2022-01-01T08:00:07Z</time>
      </trkpt>
      <trkpt lat="45.59308" lon="6.67071">
        <ele>1415.8</ele>
        <time>2022-01-01T08:00:15Z</time>
      </trkpt>
      <trkpt lat="45.59313" lon="6.67072">
        <ele>1415.8</ele>
        <time>2022-01-01T08:00:18Z</time>
      </trkpt>
      <trkpt lat="45.59319" lon="6.67071">
        <ele>1415.8</ele>
        <time>2022-01-01T08:00:21Z</time>
      </trkpt>
      <trkpt lat="45.59327" lon="6.67073">
        <ele>1416</ele>
        <time>2022-01-01T08:00:27Z</time>
      </trkpt>
      <trkpt lat="45.59328" lon="6.67073">
        <ele>1416</ele>
        <time>2022-01-01T08:00:28Z</time>
      </trkpt>
      <trkpt lat="45.59335" lon="6.67077">
        <ele>1416</ele>
        <time>2022-01-01T08:00:34Z</time>
      </trkpt>
      <trkpt lat="45.59338" lon="6.67079">
        <ele>1416.2</ele>
        <time>2022-01-01T08:00:36Z</time>
      </trkpt>
      <trkpt lat="45.59349" lon="6.67082">
        <ele>1416.2</ele>
        <time>2022-01-01T08:00:43Z</time>
      </trkpt>
      <trkpt lat="45.5936" lon="6.67082">
        <ele>1416.6</ele>
        <time>2022-01-01T08:00:50Z</time>
      </trkpt>
      <trkpt lat="45.59369" lon="6.6708">
        <ele>1416.6</ele>
        <time>2022-01-01T08:00:58Z</time>
      </trkpt>
      <trkpt lat="45.59373" lon="6.6708">
        <ele>1416.6</ele>
        <time>2022-01-01T08:01:05Z</time>
      </trkpt>
      <trkpt lat="45.59379" lon="6.67077">
        <ele>1416.8</ele>
        <time>2022-01-01T08:01:11Z</time>
      </trkpt>
      <trkpt lat="45.59385" lon="6.67071">
        <ele>1417.2</ele>
        <time>2022-01-01T08:01:17Z</time>
      </trkpt>
      <trkpt lat="45.59395" lon="6.67068">
        <ele>1417.6</ele>
        <time>2022-01-01T08:01:24Z</time>
      </trkpt>
      <trkpt lat="45.59396" lon="6.67067">
        <ele>1417.6</ele>
        <time>2022-01-01T08:01:25Z</time>
      </trkpt>
      <trkpt lat="45.59404" lon="6.67062">
        <ele>1418.2</ele>
        <time>2022-01-01T08:01:31Z</time>
      </trkpt>
      <trkpt lat="45.59405" lon="6.6706">
        <ele>1418.2</ele>
        <time>2022-01-01T08:01:32Z</time>
      </trkpt>
      <trkpt lat="45.59411" lon="6.67056">
        <ele>1418.6</ele>
        <time>2022-01-01T08:01:37Z</time>
      </trkpt>
      <trkpt lat="45.59416" lon="6.67051">
        <ele>1419.2</ele>
        <time>2022-01-01T08:01:42Z</time>
      </trkpt>
      <trkpt lat="45.59419" lon="6.67048">
        <ele>1419.4</ele>
        <time>2022-01-01T08:01:44Z</time>
      </trkpt>
      <trkpt lat="45.59431" lon="6.67039">
        <ele>1420.4</ele>
        <time>2022-01-01T08:01:54Z</time>
      </trkpt>
      <trkpt lat="45.59432" lon="6.67038">
        <ele>1420.4</ele>
        <time>2022-01-01T08:01:55Z</time>
      </trkpt>
      <trkpt lat="45.5944" lon="6.67034">
        <ele>1420.8</ele>
        <time>2022-01-01T08:02:01Z</time>
      </trkpt>
      <trkpt lat="45.59442" lon="6.67033">
        <ele>1421</ele>
        <time>2022-01-01T08:02:03Z</time>
      </trkpt>
      <trkpt lat="45.59446" lon="6.67034">
        <ele>1421.4</ele>
        <time>2022-01-01T08:02:06Z</time>
      </trkpt>
      <trkpt lat="45.59455" lon="6.67032">
        <ele>1422</ele>
        <time>2022-01-01T08:02:13Z</time>
      </trkpt>
      <trkpt lat="45.59461" lon="6.67031">
        <ele>1422.4</ele>
        <time>2022-01-01T08:02:17Z</time>
      </trkpt>
      <trkpt lat="45.59467" lon="6.67028">
        <ele>1422.8</ele>
        <time>2022-01-01T08:02:22Z</time>
      </trkpt>
      <trkpt lat="45.59475" lon="6.67022">
        <ele>1423.4</ele>
        <time>2022-01-01T08:02:28Z</time>
      </trkpt>
      <trkpt lat="45.59478" lon="6.67017">
        <ele>1423.6</ele>
        <time>2022-01-01T08:02:31Z</time>
      </trkpt>
      <trkpt lat="45.59481" lon="6.67013">
        <ele>1423.8</ele>
        <time>2022-01-01T08:02:34Z</time>
      </trkpt>
      <trkpt lat="45.59487" lon="6.67012">
        <ele>1424.2</ele>
        <time>2022-01-01T08:02:39Z</time>
      </trkpt>
      <trkpt lat="45.59491" lon="6.67008">
        <ele>1424.4</ele>
        <time>2022-01-01T08:02:43Z</time>
      </trkpt>
      <trkpt lat="45.59495" lon="6.67005">
        <ele>1424.8</ele>
        <time>2022-01-01T08:02:46Z</time>
      </trkpt>
      <trkpt lat="45.59506" lon="6.67002">
        <ele>1425.6</ele>
        <time>2022-01-01T08:02:54Z</time>
      </trkpt>
      <trkpt lat="45.59516" lon="6.66998">
        <ele>1426.4</ele>
        <time>2022-01-01T08:03:02Z</time>
      </trkpt>
      <trkpt lat="45.5952" lon="6.66997">
        <ele>1426.6</ele>
        <time>2022-01-01T08:03:05Z</time>
      </trkpt>
      <trkpt lat="45.59526" lon="6.66997">
        <ele>1427</ele>
        <time>2022-01-01T08:03:10Z</time>
      </trkpt>
      <trkpt lat="45.59536" lon="6.66999">
        <ele>1427.6</ele>
        <time>2022-01-01T08:03:18Z</time>
      </trkpt>
      <trkpt lat="45.59538" lon="6.67">
        <ele>1427.6</ele>
        <time>2022-01-01T08:03:19Z</time>
      </trkpt>
      <trkpt lat="45.59551" lon="6.67004">
        <ele>1428.6</ele>
        <time>2022-01-01T08:03:29Z</time>
      </trkpt>
      <trkpt lat="45.59562" lon="6.67003">
        <ele>1429.6</ele>
        <time>2022-01-01T08:03:37Z</time>
      </trkpt>
      <trkpt lat="45.59563" lon="6.67003">
        <ele>1429.6</ele>
        <time>2022-01-01T08:03:38Z</time>
      </trkpt>
      <trkpt lat="45.5957" lon="6.67002">
        <ele>1430</ele>
        <time>2022-01-01T08:03:43Z</time>
      </trkpt>
      <trkpt lat="45.59571" lon="6.67002">
        <ele>1430.2</ele>
        <time>2022-01-01T08:03:44Z</time>
      </trkpt>
      <trkpt lat="45.59581" lon="6.66999">
        <ele>1430.6</ele>
        <time>2022-01-01T08:03:51Z</time>
      </trkpt>
      <trkpt lat="45.59588" lon="6.67">
        <ele>1431.4</ele>
        <time>2022-01-01T08:03:58Z</time>
      </trkpt>
      <trkpt lat="45.5959" lon="6.66999">
        <ele>1431.4</ele>
        <time>2022-01-01T08:03:59Z</time>
      </trkpt>
      <trkpt lat="45.59595" lon="6.67001">
        <ele>1431.8</ele>
        <time>2022-01-01T08:04:02Z</time>
      </trkpt>
      <trkpt lat="45.59601" lon="6.67003">
        <ele>1432</ele>
        <time>2022-01-01T08:04:07Z</time>
      </trkpt>
      <trkpt lat="45.59606" lon="6.67005">
        <ele>1432.8</ele>
        <time>2022-01-01T08:04:12Z</time>
      </trkpt>
      <trkpt lat="45.59607" lon="6.67006">
        <ele>1432.8</ele>
        <time>2022-01-01T08:04:13Z</time>
      </trkpt>
      <trkpt lat="45.59617" lon="6.67008">
        <ele>1433.6</ele>
        <time>2022-01-01T08:04:22Z</time>
      </trkpt>
      <trkpt lat="45.59619" lon="6.67009">
        <ele>1433.8</ele>
        <time>2022-01-01T08:04:23Z</time>
      </trkpt>
      <trkpt lat="45.59629" lon="6.67014">
        <ele>1434.8</ele>
        <time>2022-01-01T08:04:30Z</time>
      </trkpt>
      <trkpt lat="45.5963" lon="6.67014">
        <ele>1435</ele>
        <time>2022-01-01T08:04:31Z</time>
      </trkpt>
      <trkpt lat="45.59639" lon="6.67011">
        <ele>1435.8</ele>
        <time>2022-01-01T08:04:39Z</time>
      </trkpt>
      <trkpt lat="45.5964" lon="6.6701">
        <ele>1436</ele>
        <time>2022-01-01T08:04:40Z</time>
      </trkpt>
      <trkpt lat="45.59642" lon="6.67001">
        <ele>1436.2</ele>
        <time>2022-01-01T08:04:44Z</time>
      </trkpt>
      <trkpt lat="45.59642" lon="6.67001">
        <ele>1436.2</ele>
        <time>2022-01-01T08:04:45Z</time>
      </trkpt>
      <trkpt lat="45.59643" lon="6.66999">
        <ele>1436.4</ele>
        <time>2022-01-01T08:04:49Z</time>
      </trkpt>
      <trkpt lat="45.59643" lon="6.66997">
        <ele>1436</ele>
        <time>2022-01-01T08:05:02Z</time>
      </trkpt>
      <trkpt lat="45.59643" lon="6.66997">
        <ele>1435.8</ele>
        <time>2022-01-01T08:05:14Z</time>
      </trkpt>
      <trkpt lat="45.59644" lon="6.66993">
        <ele>1437</ele>
        <time>2022-01-01T08:05:31Z</time>
      </trkpt>
      <trkpt lat="45.59651" lon="6.66984">
        <ele>1437.8</ele>
        <time>2022-01-01T08:05:39Z</time>
      </trkpt>
      <trkpt lat="45.59652" lon="6.66984">
        <ele>1438.2</ele>
        <time>2022-01-01T08:05:40Z</time>
      </trkpt>
      <trkpt lat="45.59654" lon="6.66982">
        <ele>1438.8</ele>
        <time>2022-01-01T08:05:43Z</time>
      </trkpt>
      <trkpt lat="45.59654" lon="6.6698">
        <ele>1439.2</ele>
        <time>2022-01-01T08:05:45Z</time>
      </trkpt>
      <trkpt lat="45.59655" lon="6.66978">
        <ele>1439.8</ele>
        <time>2022-01-01T08:05:47Z</time>
      </trkpt>
      <trkpt lat="45.59655" lon="6.66978">
        <ele>1440.4</ele>
        <time>2022-01-01T08:05:48Z</time>
      </trkpt>
      <trkpt lat="45.59657" lon="6.66977">
        <ele>1441.6</ele>
        <time>2022-01-01T08:05:51Z</time>
      </trkpt>
      <trkpt lat="45.59658" lon="6.66975">
        <ele>1442.4</ele>
        <time>2022-01-01T08:05:54Z</time>
      </trkpt>
      <trkpt lat="45.59658" lon="6.66974">
        <ele>1442.6</ele>
        <time>2022-01-01T08:05:55Z</time>
      </trkpt>
      <trkpt lat="45.5966" lon="6.66971">
        <ele>1443.2</ele>
        <time>2022-01-01T08:05:58Z</time>
      </trkpt>
      <trkpt lat="45.59662" lon="6.6697">
        <ele>1443.8</ele>
        <time>2022-01-01T08:06:00Z</time>
      </trkpt>
      <trkpt lat="45.59663" lon="6.66969">
        <ele>1444</ele>
        <time>2022-01-01T08:06:01Z</time>
      </trkpt>
      <trkpt lat="45.59665" lon="6.66969">
        <ele>1444.8</ele>
        <time>2022-01-01T08:06:04Z</time>
      </trkpt>
      <trkpt lat="45.59666" lon="6.66966">
        <ele>1445.6</ele>
        <time>2022-01-01T08:06:08Z</time>
      </trkpt>
      <trkpt lat="45.59665" lon="6.66964">
        <ele>1446</ele>
        <time>2022-01-01T08:06:10Z</time>
      </trkpt>
      <trkpt lat="45.59666" lon="6.66959">
        <ele>1447</ele>
        <time>2022-01-01T08:06:14Z</time>
      </trkpt>
      <trkpt lat="45.59667" lon="6.66955">
        <ele>1447.8</ele>
        <time>2022-01-01T08:06:17Z</time>
      </trkpt>
      <trkpt lat="45.59668" lon="6.66953">
        <ele>1448.2</ele>
        <time>2022-01-01T08:06:20Z</time>
      </trkpt>
      <trkpt lat="45.59671" lon="6.66953">
        <ele>1449.2</ele>
        <time>2022-01-01T08:06:24Z</time>
      </trkpt>
      <trkpt lat="45.59676" lon="6.66952">
        <ele>1450.4</ele>
        <time>2022-01-01T08:06:29Z</time>
      </trkpt>
      <trkpt lat="45.59678" lon="6.6695">
        <ele>1451</ele>
        <time>2022-01-01T08:06:31Z</time>
      </trkpt>
      <trkpt lat="45.59681" lon="6.6695">
        <ele>1451.6</ele>
        <time>2022-01-01T08:06:33Z</time>
      </trkpt>
      <trkpt lat="45.59682" lon="6.66949">
        <ele>1452.8</ele>
        <time>2022-01-01T08:06:36Z</time>
      </trkpt>
      <trkpt lat="45.59683" lon="6.66944">
        <ele>1453.4</ele>
        <time>2022-01-01T08:06:40Z</time>
      </trkpt>
      <trkpt lat="45.59683" lon="6.66943">
        <ele>1453.8</ele>
        <time>2022-01-01T08:06:41Z</time>
      </trkpt>
      <trkpt lat="45.59686" lon="6.66939">
        <ele>1455</ele>
        <time>2022-01-01T08:06:45Z</time>
      </trkpt>
      <trkpt lat="45.59686" lon="6.6694">
        <ele>1455.8</ele>
        <time>2022-01-01T08:06:47Z</time>
      </trkpt>
      <trkpt lat="45.59686" lon="6.6694">
        <ele>1456.2</ele>
        <time>2022-01-01T08:06:48Z</time>
      </trkpt>
      <trkpt lat="45.59689" lon="6.66937">
        <ele>1457.2</ele>
        <time>2022-01-01T08:06:53Z</time>
      </trkpt>
      <trkpt lat="45.5969" lon="6.66936">
        <ele>1457.4</ele>
        <time>2022-01-01T08:06:54Z</time>
      </trkpt>
      <trkpt lat="45.59691" lon="6.66929">
        <ele>1458.4</ele>
        <time>2022-01-01T08:06:59Z</time>
      </trkpt>
      <trkpt lat="45.59693" lon="6.66927">
        <ele>1458.6</ele>
        <time>2022-01-01T08:07:01Z</time>
      </trkpt>
      <trkpt lat="45.59695" lon="6.66922">
        <ele>1459.4</ele>
        <time>2022-01-01T08:07:06Z</time>
      </trkpt>
      <trkpt lat="45.59698" lon="6.66922">
        <ele>1460.6</ele>
        <time>2022-01-01T08:07:10Z</time>
      </trkpt>
      <trkpt lat="45.597" lon="6.66922">
        <ele>1461</ele>
        <time>2022-01-01T08:07:12Z</time>
      </trkpt>
      <trkpt lat="45.59702" lon="6.66922">
        <ele>1461.8</ele>
        <time>2022-01-01T08:07:15Z</time>
      </trkpt>
      <trkpt lat="45.59703" lon="6.6692">
        <ele>1462.4</ele>
        <time>2022-01-01T08:07:19Z</time>
      </trkpt>
      <trkpt lat="45.59704" lon="6.66919">
        <ele>1462.8</ele>
        <time>2022-01-01T08:07:21Z</time>
      </trkpt>
      <trkpt lat="45.59705" lon="6.66916">
        <ele>1464</ele>
        <time>2022-01-01T08:07:25Z</time>
      </trkpt>
      <trkpt lat="45.59707" lon="6.66913">
        <ele>1464.4</ele>
        <time>2022-01-01T08:07:28Z</time>
      </trkpt>
      <trkpt lat="45.59706" lon="6.66909">
        <ele>1465.2</ele>
        <time>2022-01-01T08:07:30Z</time>
      </trkpt>
      <trkpt lat="45.59709" lon="6.66903">
        <ele>1466.2</ele>
        <time>2022-01-01T08:07:36Z</time>
      </trkpt>
      <trkpt lat="45.59709" lon="6.66902">
        <ele>1466.4</ele>
        <time>2022-01-01T08:07:37Z</time>
      </trkpt>
      <trkpt lat="45.59711" lon="6.66895">
        <ele>1467.4</ele>
        <time>2022-01-01T08:07:42Z</time>
      </trkpt>
      <trkpt lat="45.59713" lon="6.6689">
        <ele>1468.6</ele>
        <time>2022-01-01T08:07:46Z</time>
      </trkpt>
      <trkpt lat="45.59714" lon="6.66888">
        <ele>1469</ele>
        <time>2022-01-01T08:07:48Z</time>
      </trkpt>
      <trkpt lat="45.59716" lon="6.66885">
        <ele>1469.6</ele>
        <time>2022-01-01T08:07:52Z</time>
      </trkpt>
      <trkpt lat="45.59717" lon="6.66883">
        <ele>1470</ele>
        <time>2022-01-01T08:07:54Z</time>
      </trkpt>
      <trkpt lat="45.59721" lon="6.66879">
        <ele>1470.6</ele>
        <time>2022-01-01T08:07:58Z</time>
      </trkpt>
      <trkpt lat="45.59723" lon="6.66878">
        <ele>1471</ele>
        <time>2022-01-01T08:08:00Z</time>
      </trkpt>
      <trkpt lat="45.59725" lon="6.66878">
        <ele>1471</ele>
        <time>2022-01-01T08:08:01Z</time>
      </trkpt>
      <trkpt lat="45.59726" lon="6.66878">
        <ele>1471.4</ele>
        <time>2022-01-01T08:08:02Z</time>
      </trkpt>
      <trkpt lat="45.59727" lon="6.66876">
        <ele>1471.8</ele>
        <time>2022-01-01T08:08:05Z</time>
      </trkpt>
      <trkpt lat="45.59728" lon="6.66876">
        <ele>1472.4</ele>
        <time>2022-01-01T08:08:06Z</time>
      </trkpt>
      <trkpt lat="45.59733" lon="6.66877">
        <ele>1473</ele>
        <time>2022-01-01T08:08:10Z</time>
      </trkpt>
      <trkpt lat="45.59736" lon="6.66879">
        <ele>1473.2</ele>
        <time>2022-01-01T08:08:12Z</time>
      </trkpt>
      <trkpt lat="45.59738" lon="6.66892">
        <ele>1474</ele>
        <time>2022-01-01T08:08:19Z</time>
      </trkpt>
      <trkpt lat="45.59739" lon="6.66894">
        <ele>1474.2</ele>
        <time>2022-01-01T08:08:21Z</time>
      </trkpt>
      <trkpt lat="45.5974" lon="6.66905">
        <ele>1475</ele>
        <time>2022-01-01T08:08:27Z</time>
      </trkpt>
      <trkpt lat="45.59741" lon="6.6691">
        <ele>1475.2</ele>
        <time>2022-01-01T08:08:29Z</time>
      </trkpt>
      <trkpt lat="45.59741" lon="6.66914">
        <ele>1475.8</ele>
        <time>2022-01-01T08:08:32Z</time>
      </trkpt>
      <trkpt lat="45.59741" lon="6.66917">
        <ele>1476.2</ele>
        <time>2022-01-01T08:08:34Z</time>
      </trkpt>
      <trkpt lat="45.5974" lon="6.66921">
        <ele>1476.2</ele>
        <time>2022-01-01T08:08:36Z</time>
      </trkpt>
      <trkpt lat="45.5974" lon="6.66926">
        <ele>1476.4</ele>
        <time>2022-01-01T08:08:39Z</time>
      </trkpt>
      <trkpt lat="45.59741" lon="6.66929">
        <ele>1476.8</ele>
        <time>2022-01-01T08:08:41Z</time>
      </trkpt>
      <trkpt lat="45.59742" lon="6.66938">
        <ele>1477.4</ele>
        <time>2022-01-01T08:08:46Z</time>
      </trkpt>
      <trkpt lat="45.59745" lon="6.66943">
        <ele>1477.8</ele>
        <time>2022-01-01T08:08:50Z</time>
      </trkpt>
      <trkpt lat="45.59752" lon="6.66948">
        <ele>1478.4</ele>
        <time>2022-01-01T08:08:57Z</time>
      </trkpt>
      <trkpt lat="45.59761" lon="6.6695">
        <ele>1479.4</ele>
        <time>2022-01-01T08:09:04Z</time>
      </trkpt>
      <trkpt lat="45.59764" lon="6.66947">
        <ele>1479.8</ele>
        <time>2022-01-01T08:09:08Z</time>
      </trkpt>
      <trkpt lat="45.59766" lon="6.66943">
        <ele>1480.6</ele>
        <time>2022-01-01T08:09:11Z</time>
      </trkpt>
      <trkpt lat="45.59768" lon="6.66937">
        <ele>1481.8</ele>
        <time>2022-01-01T08:09:16Z</time>
      </trkpt>
      <trkpt lat="45.59769" lon="6.66931">
        <ele>1483</ele>
        <time>2022-01-01T08:09:20Z</time>
      </trkpt>
      <trkpt lat="45.59769" lon="6.66929">
        <ele>1483.4</ele>
        <time>2022-01-01T08:09:21Z</time>
      </trkpt>
      <trkpt lat="45.5977" lon="6.66927">
        <ele>1483.8</ele>
        <time>2022-01-01T08:09:23Z</time>
      </trkpt>
      <trkpt lat="45.5977" lon="6.66926">
        <ele>1484</ele>
        <time>2022-01-01T08:09:24Z</time>
      </trkpt>
      <trkpt lat="45.59772" lon="6.66921">
        <ele>1485.2</ele>
        <time>2022-01-01T08:09:28Z</time>
      </trkpt>
      <trkpt lat="45.59772" lon="6.6692">
        <ele>1485.4</ele>
        <time>2022-01-01T08:09:29Z</time>
      </trkpt>
      <trkpt lat="45.59773" lon="6.66917">
        <ele>1486.4</ele>
        <time>2022-01-01T08:09:32Z</time>
      </trkpt>
      <trkpt lat="45.59774" lon="6.66913">
        <ele>1487</ele>
        <time>2022-01-01T08:09:35Z</time>
      </trkpt>
      <trkpt lat="45.59774" lon="6.66911">
        <ele>1487.4</ele>
        <time>2022-01-01T08:09:36Z</time>
      </trkpt>
      <trkpt lat="45.59777" lon="6.66904">
        <ele>1488.6</ele>
        <time>2022-01-01T08:09:42Z</time>
      </trkpt>
      <trkpt lat="45.59777" lon="6.66901">
        <ele>1488.8</ele>
        <time>2022-01-01T08:09:44Z</time>
      </trkpt>
      <trkpt lat="45.59776" lon="6.66898">
        <ele>1489.6</ele>
        <time>2022-01-01T08:09:46Z</time>
      </trkpt>
      <trkpt lat="45.5978" lon="6.66891">
        <ele>1490.6</ele>
        <time>2022-01-01T08:09:52Z</time>
      </trkpt>
      <trkpt lat="45.59783" lon="6.66886">
        <ele>1491.8</ele>
        <time>2022-01-01T08:09:56Z</time>
      </trkpt>
      <trkpt lat="45.59785" lon="6.66883">
        <ele>1493</ele>
        <time>2022-01-01T08:10:01Z</time>
      </trkpt>
      <trkpt lat="45.59787" lon="6.66878">
        <ele>1494.2</ele>
        <time>2022-01-01T08:10:07Z</time>
      </trkpt>
      <trkpt lat="45.59788" lon="6.66878">
        <ele>1494.6</ele>
        <time>2022-01-01T08:10:08Z</time>
      </trkpt>
      <trkpt lat="45.59789" lon="6.66877">
        <ele>1495.4</ele>
        <time>2022-01-01T08:10:11Z</time>
      </trkpt>
      <trkpt lat="45.59791" lon="6.66875">
        <ele>1496</ele>
        <time>2022-01-01T08:10:14Z</time>
      </trkpt>
      <trkpt lat="45.59792" lon="6.66873">
        <ele>1496.6</ele>
        <time>2022-01-01T08:10:17Z</time>
      </trkpt>
      <trkpt lat="45.59795" lon="6.66869">
        <ele>1497.4</ele>
        <time>2022-01-01T08:10:21Z</time>
      </trkpt>
      <trkpt lat="45.59796" lon="6.66868">
        <ele>1497.6</ele>
        <time>2022-01-01T08:10:22Z</time>
      </trkpt>
      <trkpt lat="45.598" lon="6.66864">
        <ele>1498.4</ele>
        <time>2022-01-01T08:10:27Z</time>
      </trkpt>
      <trkpt lat="45.59801" lon="6.66862">
        <ele>1498.6</ele>
        <time>2022-01-01T08:10:28Z</time>
      </trkpt>
      <trkpt lat="45.59803" lon="6.66857">
        <ele>1499.8</ele>
        <time>2022-01-01T08:10:33Z</time>
      </trkpt>
      <trkpt lat="45.59803" lon="6.66854">
        <ele>1500.6</ele>
        <time>2022-01-01T08:10:36Z</time>
      </trkpt>
      <trkpt lat="45.59804" lon="6.66853">
        <ele>1501</ele>
        <time>2022-01-01T08:10:37Z</time>
      </trkpt>
      <trkpt lat="45.59807" lon="6.66848">
        <ele>1502.2</ele>
        <time>2022-01-01T08:10:42Z</time>
      </trkpt>
      <trkpt lat="45.59808" lon="6.66846">
        <ele>1502.6</ele>
        <time>2022-01-01T08:10:43Z</time>
      </trkpt>
      <trkpt lat="45.5981" lon="6.66842">
        <ele>1503.6</ele>
        <time>2022-01-01T08:10:47Z</time>
      </trkpt>
      <trkpt lat="45.59811" lon="6.66841">
        <ele>1504</ele>
        <time>2022-01-01T08:10:49Z</time>
      </trkpt>
      <trkpt lat="45.59813" lon="6.66838">
        <ele>1505</ele>
        <time>2022-01-01T08:10:52Z</time>
      </trkpt>
      <trkpt lat="45.59815" lon="6.66836">
        <ele>1506</ele>
        <time>2022-01-01T08:10:56Z</time>
      </trkpt>
      <trkpt lat="45.59816" lon="6.66836">
        <ele>1506.2</ele>
        <time>2022-01-01T08:10:57Z</time>
      </trkpt>
      <trkpt lat="45.59819" lon="6.66833">
        <ele>1507.4</ele>
        <time>2022-01-01T08:11:01Z</time>
      </trkpt>
      <trkpt lat="45.59821" lon="6.66829">
        <ele>1508.6</ele>
        <time>2022-01-01T08:11:05Z</time>
      </trkpt>
      <trkpt lat="45.59826" lon="6.66823">
        <ele>1509.6</ele>
        <time>2022-01-01T08:11:11Z</time>
      </trkpt>
      <trkpt lat="45.59827" lon="6.6682">
        <ele>1510</ele>
        <time>2022-01-01T08:11:13Z</time>
      </trkpt>
      <trkpt lat="45.59829" lon="6.66815">
        <ele>1511</ele>
        <time>2022-01-01T08:11:17Z</time>
      </trkpt>
      <trkpt lat="45.59828" lon="6.66808">
        <ele>1511.8</ele>
        <time>2022-01-01T08:11:20Z</time>
      </trkpt>
      <trkpt lat="45.59827" lon="6.66807">
        <ele>1512</ele>
        <time>2022-01-01T08:11:22Z</time>
      </trkpt>
      <trkpt lat="45.59828" lon="6.668">
        <ele>1513</ele>
        <time>2022-01-01T08:11:27Z</time>
      </trkpt>
      <trkpt lat="45.59829" lon="6.66798">
        <ele>1513.2</ele>
        <time>2022-01-01T08:11:28Z</time>
      </trkpt>
      <trkpt lat="45.5983" lon="6.6679">
        <ele>1514.2</ele>
        <time>2022-01-01T08:11:33Z</time>
      </trkpt>
      <trkpt lat="45.5983" lon="6.66789">
        <ele>1514.6</ele>
        <time>2022-01-01T08:11:34Z</time>
      </trkpt>
      <trkpt lat="45.59831" lon="6.66786">
        <ele>1515.4</ele>
        <time>2022-01-01T08:11:37Z</time>
      </trkpt>
      <trkpt lat="45.59832" lon="6.66783">
        <ele>1516.4</ele>
        <time>2022-01-01T08:11:41Z</time>
      </trkpt>
      <trkpt lat="45.59834" lon="6.66783">
        <ele>1516.6</ele>
        <time>2022-01-01T08:11:42Z</time>
      </trkpt>
      <trkpt lat="45.59838" lon="6.6678">
        <ele>1517.4</ele>
        <time>2022-01-01T08:11:47Z</time>
      </trkpt>
      <trkpt lat="45.59839" lon="6.6678">
        <ele>1517.6</ele>
        <time>2022-01-01T08:11:48Z</time>
      </trkpt>
      <trkpt lat="45.59842" lon="6.66778">
        <ele>1519</ele>
        <time>2022-01-01T08:11:52Z</time>
      </trkpt>
      <trkpt lat="45.59844" lon="6.66777">
        <ele>1519.2</ele>
        <time>2022-01-01T08:11:54Z</time>
      </trkpt>
      <trkpt lat="45.59845" lon="6.66777">
        <ele>1519.6</ele>
        <time>2022-01-01T08:11:56Z</time>
      </trkpt>
      <trkpt lat="45.59847" lon="6.66777">
        <ele>1520</ele>
        <time>2022-01-01T08:11:58Z</time>
      </trkpt>
      <trkpt lat="45.59848" lon="6.66775">
        <ele>1520.8</ele>
        <time>2022-01-01T08:12:01Z</time>
      </trkpt>
      <trkpt lat="45.59849" lon="6.66774">
        <ele>1521.4</ele>
        <time>2022-01-01T08:12:02Z</time>
      </trkpt>
      <trkpt lat="45.59849" lon="6.66773">
        <ele>1522.6</ele>
        <time>2022-01-01T08:12:05Z</time>
      </trkpt>
      <trkpt lat="45.59848" lon="6.66773">
        <ele>1522.8</ele>
        <time>2022-01-01T08:12:08Z</time>
      </trkpt>
      <trkpt lat="45.5985" lon="6.66768">
        <ele>1523</ele>
        <time>2022-01-01T08:12:20Z</time>
      </trkpt>
      <trkpt lat="45.5985" lon="6.66764">
        <ele>1523.6</ele>
        <time>2022-01-01T08:12:22Z</time>
      </trkpt>
      <trkpt lat="45.5985" lon="6.66755">
        <ele>1524.8</ele>
        <time>2022-01-01T08:12:26Z</time>
      </trkpt>
      <trkpt lat="45.5985" lon="6.66753">
        <ele>1525.2</ele>
        <time>2022-01-01T08:12:28Z</time>
      </trkpt>
      <trkpt lat="45.5985" lon="6.66749">
        <ele>1525.8</ele>
        <time>2022-01-01T08:12:30Z</time>
      </trkpt>
      <trkpt lat="45.59851" lon="6.66745">
        <ele>1527</ele>
        <time>2022-01-01T08:12:34Z</time>
      </trkpt>
      <trkpt lat="45.59851" lon="6.66742">
        <ele>1527.6</ele>
        <time>2022-01-01T08:12:36Z</time>
      </trkpt>
      <trkpt lat="45.59852" lon="6.6674">
        <ele>1528</ele>
        <time>2022-01-01T08:12:38Z</time>
      </trkpt>
      <trkpt lat="45.59853" lon="6.66738">
        <ele>1528.4</ele>
        <time>2022-01-01T08:12:40Z</time>
      </trkpt>
      <trkpt lat="45.59853" lon="6.66735">
        <ele>1529</ele>
        <time>2022-01-01T08:12:43Z</time>
      </trkpt>
      <trkpt lat="45.59853" lon="6.66734">
        <ele>1529.4</ele>
        <time>2022-01-01T08:12:44Z</time>
      </trkpt>
      <trkpt lat="45.59851" lon="6.66731">
        <ele>1530.4</ele>
        <time>2022-01-01T08:12:49Z</time>
      </trkpt>
      <trkpt lat="45.59858" lon="6.66732">
        <ele>1531.6</ele>
        <time>2022-01-01T08:12:54Z</time>
      </trkpt>
      <trkpt lat="45.5986" lon="6.66734">
        <ele>1532</ele>
        <time>2022-01-01T08:12:56Z</time>
      </trkpt>
      <trkpt lat="45.59863" lon="6.66735">
        <ele>1532.8</ele>
        <time>2022-01-01T08:12:59Z</time>
      </trkpt>
      <trkpt lat="45.59866" lon="6.66736">
        <ele>1533</ele>
        <time>2022-01-01T08:13:01Z</time>
      </trkpt>
      <trkpt lat="45.59867" lon="6.66737">
        <ele>1533.8</ele>
        <time>2022-01-01T08:13:03Z</time>
      </trkpt>
      <trkpt lat="45.59868" lon="6.66737">
        <ele>1534</ele>
        <time>2022-01-01T08:13:04Z</time>
      </trkpt>
      <trkpt lat="45.5987" lon="6.66738">
        <ele>1534.4</ele>
        <time>2022-01-01T08:13:06Z</time>
      </trkpt>
      <trkpt lat="45.5987" lon="6.66738">
        <ele>1534.8</ele>
        <time>2022-01-01T08:13:07Z</time>
      </trkpt>
      <trkpt lat="45.59871" lon="6.66737">
        <ele>1536</ele>
        <time>2022-01-01T08:13:11Z</time>
      </trkpt>
      <trkpt lat="45.59871" lon="6.66732">
        <ele>1537</ele>
        <time>2022-01-01T08:13:14Z</time>
      </trkpt>
      <trkpt lat="45.59871" lon="6.6673">
        <ele>1537.6</ele>
        <time>2022-01-01T08:13:16Z</time>
      </trkpt>
      <trkpt lat="45.59871" lon="6.66729">
        <ele>1538</ele>
        <time>2022-01-01T08:13:17Z</time>
      </trkpt>
      <trkpt lat="45.59871" lon="6.66727">
        <ele>1538.2</ele>
        <time>2022-01-01T08:13:18Z</time>
      </trkpt>
      <trkpt lat="45.59871" lon="6.66722">
        <ele>1539.2</ele>
        <time>2022-01-01T08:13:22Z</time>
      </trkpt>
      <trkpt lat="45.59871" lon="6.66718">
        <ele>1540</ele>
        <time>2022-01-01T08:13:25Z</time>
      </trkpt>
      <trkpt lat="45.59871" lon="6.66715">
        <ele>1540.6</ele>
        <time>2022-01-01T08:13:27Z</time>
      </trkpt>
      <trkpt lat="45.59872" lon="6.66708">
        <ele>1541.6</ele>
        <time>2022-01-01T08:13:33Z</time>
      </trkpt>
      <trkpt lat="45.59873" lon="6.66707">
        <ele>1541.8</ele>
        <time>2022-01-01T08:13:34Z</time>
      </trkpt>
      <trkpt lat="45.59872" lon="6.66696">
        <ele>1542.6</ele>
        <time>2022-01-01T08:13:39Z</time>
      </trkpt>
      <trkpt lat="45.59872" lon="6.66692">
        <ele>1543.2</ele>
        <time>2022-01-01T08:13:42Z</time>
      </trkpt>
      <trkpt lat="45.59871" lon="6.66685">
        <ele>1543.8</ele>
        <time>2022-01-01T08:13:46Z</time>
      </trkpt>
      <trkpt lat="45.5987" lon="6.66681">
        <ele>1544.4</ele>
        <time>2022-01-01T08:13:49Z</time>
      </trkpt>
      <trkpt lat="45.59871" lon="6.6668">
        <ele>1544.8</ele>
        <time>2022-01-01T08:13:51Z</time>
      </trkpt>
      <trkpt lat="45.59871" lon="6.66672">
        <ele>1545.8</ele>
        <time>2022-01-01T08:13:56Z</time>
      </trkpt>
      <trkpt lat="45.59873" lon="6.66665">
        <ele>1546.8</ele>
        <time>2022-01-01T08:14:02Z</time>
      </trkpt>
      <trkpt lat="45.59873" lon="6.66664">
        <ele>1547</ele>
        <time>2022-01-01T08:14:03Z</time>
      </trkpt>
      <trkpt lat="45.59873" lon="6.66662">
        <ele>1547.4</ele>
        <time>2022-01-01T08:14:04Z</time>
      </trkpt>
      <trkpt lat="45.59873" lon="6.6666">
        <ele>1548</ele>
        <time>2022-01-01T08:14:06Z</time>
      </trkpt>
      <trkpt lat="45.59873" lon="6.66656">
        <ele>1549.2</ele>
        <time>2022-01-01T08:14:10Z</time>
      </trkpt>
      <trkpt lat="45.59872" lon="6.66655">
        <ele>1549.2</ele>
        <time>2022-01-01T08:14:11Z</time>
      </trkpt>
      <trkpt lat="45.59873" lon="6.66651">
        <ele>1550.4</ele>
        <time>2022-01-01T08:14:16Z</time>
      </trkpt>
      <trkpt lat="45.59873" lon="6.6665">
        <ele>1550.8</ele>
        <time>2022-01-01T08:14:17Z</time>
      </trkpt>
      <trkpt lat="45.59872" lon="6.66647">
        <ele>1551.6</ele>
        <time>2022-01-01T08:14:20Z</time>
      </trkpt>
      <trkpt lat="45.59872" lon="6.6664">
        <ele>1552.6</ele>
        <time>2022-01-01T08:14:24Z</time>
      </trkpt>
      <trkpt lat="45.59872" lon="6.66636">
        <ele>1553.2</ele>
        <time>2022-01-01T08:14:27Z</time>
      </trkpt>
      <trkpt lat="45.59872" lon="6.66633">
        <ele>1553.8</ele>
        <time>2022-01-01T08:14:29Z</time>
      </trkpt>
      <trkpt lat="45.59871" lon="6.6663">
        <ele>1554.8</ele>
        <time>2022-01-01T08:14:32Z</time>
      </trkpt>
      <trkpt lat="45.59871" lon="6.6663">
        <ele>1555.2</ele>
        <time>2022-01-01T08:14:34Z</time>
      </trkpt>
      <trkpt lat="45.5987" lon="6.66628">
        <ele>1556</ele>
        <time>2022-01-01T08:14:37Z</time>
      </trkpt>
      <trkpt lat="45.5987" lon="6.66622">
        <ele>1556.8</ele>
        <time>2022-01-01T08:14:41Z</time>
      </trkpt>
      <trkpt lat="45.59871" lon="6.66619">
        <ele>1557</ele>
        <time>2022-01-01T08:14:43Z</time>
      </trkpt>
      <trkpt lat="45.59873" lon="6.66614">
        <ele>1558.2</ele>
        <time>2022-01-01T08:14:47Z</time>
      </trkpt>
      <trkpt lat="45.59874" lon="6.66613">
        <ele>1558.4</ele>
        <time>2022-01-01T08:14:49Z</time>
      </trkpt>
      <trkpt lat="45.59874" lon="6.66609">
        <ele>1559.4</ele>
        <time>2022-01-01T08:14:52Z</time>
      </trkpt>
      <trkpt lat="45.59875" lon="6.66605">
        <ele>1560.4</ele>
        <time>2022-01-01T08:14:56Z</time>
      </trkpt>
      <trkpt lat="45.59875" lon="6.66604">
        <ele>1560.8</ele>
        <time>2022-01-01T08:14:57Z</time>
      </trkpt>
      <trkpt lat="45.59874" lon="6.66599">
        <ele>1561.8</ele>
        <time>2022-01-01T08:15:01Z</time>
      </trkpt>
      <trkpt lat="45.59874" lon="6.66595">
        <ele>1562.6</ele>
        <time>2022-01-01T08:15:05Z</time>
      </trkpt>
      <trkpt lat="45.59874" lon="6.66592">
        <ele>1563</ele>
        <time>2022-01-01T08:15:07Z</time>
      </trkpt>
      <trkpt lat="45.59874" lon="6.66585">
        <ele>1564.2</ele>
        <time>2022-01-01T08:15:11Z</time>
      </trkpt>
      <trkpt lat="45.59875" lon="6.66582">
        <ele>1564.6</ele>
        <time>2022-01-01T08:15:14Z</time>
      </trkpt>
      <trkpt lat="45.59876" lon="6.66579">
        <ele>1565.4</ele>
        <time>2022-01-01T08:15:17Z</time>
      </trkpt>
      <trkpt lat="45.59877" lon="6.66573">
        <ele>1566.2</ele>
        <time>2022-01-01T08:15:20Z</time>
      </trkpt>
      <trkpt lat="45.59878" lon="6.66571">
        <ele>1566.8</ele>
        <time>2022-01-01T08:15:23Z</time>
      </trkpt>
      <trkpt lat="45.59879" lon="6.66567">
        <ele>1567.8</ele>
        <time>2022-01-01T08:15:26Z</time>
      </trkpt>
      <trkpt lat="45.59879" lon="6.66566">
        <ele>1568.4</ele>
        <time>2022-01-01T08:15:28Z</time>
      </trkpt>
      <trkpt lat="45.5988" lon="6.66564">
        <ele>1569</ele>
        <time>2022-01-01T08:15:30Z</time>
      </trkpt>
      <trkpt lat="45.5988" lon="6.66558">
        <ele>1570</ele>
        <time>2022-01-01T08:15:35Z</time>
      </trkpt>
      <trkpt lat="45.59881" lon="6.66553">
        <ele>1571</ele>
        <time>2022-01-01T08:15:39Z</time>
      </trkpt>
      <trkpt lat="45.59882" lon="6.6655">
        <ele>1572</ele>
        <time>2022-01-01T08:15:42Z</time>
      </trkpt>
      <trkpt lat="45.59882" lon="6.66545">
        <ele>1572.4</ele>
        <time>2022-01-01T08:15:44Z</time>
      </trkpt>
      <trkpt lat="45.5988" lon="6.66539">
        <ele>1573.6</ele>
        <time>2022-01-01T08:15:48Z</time>
      </trkpt>
      <trkpt lat="45.59878" lon="6.66537">
        <ele>1574.6</ele>
        <time>2022-01-01T08:15:51Z</time>
      </trkpt>
      <trkpt lat="45.59878" lon="6.66533">
        <ele>1575.2</ele>
        <time>2022-01-01T08:15:55Z</time>
      </trkpt>
      <trkpt lat="45.59877" lon="6.66531">
        <ele>1575.8</ele>
        <time>2022-01-01T08:15:58Z</time>
      </trkpt>
      <trkpt lat="45.59876" lon="6.66532">
        <ele>1576</ele>
        <time>2022-01-01T08:16:03Z</time>
      </trkpt>
      <trkpt lat="45.59878" lon="6.66526">
        <ele>1576.6</ele>
        <time>2022-01-01T08:16:08Z</time>
      </trkpt>
      <trkpt lat="45.59879" lon="6.66525">
        <ele>1577</ele>
        <time>2022-01-01T08:16:09Z</time>
      </trkpt>
      <trkpt lat="45.5988" lon="6.66521">
        <ele>1578</ele>
        <time>2022-01-01T08:16:14Z</time>
      </trkpt>
      <trkpt lat="45.59879" lon="6.6652">
        <ele>1578.2</ele>
        <time>2022-01-01T08:16:15Z</time>
      </trkpt>
      <trkpt lat="45.59879" lon="6.66516">
        <ele>1579.2</ele>
        <time>2022-01-01T08:16:18Z</time>
      </trkpt>
      <trkpt lat="45.5988" lon="6.66513">
        <ele>1580</ele>
        <time>2022-01-01T08:16:21Z</time>
      </trkpt>
      <trkpt lat="45.59881" lon="6.66512">
        <ele>1580.2</ele>
        <time>2022-01-01T08:16:23Z</time>
      </trkpt>
      <trkpt lat="45.59883" lon="6.66509">
        <ele>1581.4</ele>
        <time>2022-01-01T08:16:26Z</time>
      </trkpt>
      <trkpt lat="45.59886" lon="6.66506">
        <ele>1582.4</ele>
        <time>2022-01-01T08:16:32Z</time>
      </trkpt>
      <trkpt lat="45.59886" lon="6.66506">
        <ele>1582.8</ele>
        <time>2022-01-01T08:16:33Z</time>
      </trkpt>
      <trkpt lat="45.59888" lon="6.66503">
        <ele>1584</ele>
        <time>2022-01-01T08:16:37Z</time>
      </trkpt>
      <trkpt lat="45.59888" lon="6.66502">
        <ele>1584.2</ele>
        <time>2022-01-01T08:16:38Z</time>
      </trkpt>
      <trkpt lat="45.59887" lon="6.66498">
        <ele>1585.2</ele>
        <time>2022-01-01T08:16:42Z</time>
      </trkpt>
      <trkpt lat="45.59888" lon="6.66496">
        <ele>1586</ele>
        <time>2022-01-01T08:16:45Z</time>
      </trkpt>
      <trkpt lat="45.59888" lon="6.66495">
        <ele>1586.4</ele>
        <time>2022-01-01T08:16:46Z</time>
      </trkpt>
      <trkpt lat="45.59889" lon="6.66494">
        <ele>1587.4</ele>
        <time>2022-01-01T08:16:49Z</time>
      </trkpt>
      <trkpt lat="45.59891" lon="6.66492">
        <ele>1588.4</ele>
        <time>2022-01-01T08:16:53Z</time>
      </trkpt>
      <trkpt lat="45.59893" lon="6.66491">
        <ele>1589.6</ele>
        <time>2022-01-01T08:16:57Z</time>
      </trkpt>
      <trkpt lat="45.59895" lon="6.66491">
        <ele>1589.8</ele>
        <time>2022-01-01T08:17:01Z</time>
      </trkpt>
      <trkpt lat="45.59897" lon="6.66487">
        <ele>1589.8</ele>
        <time>2022-01-01T08:17:08Z</time>
      </trkpt>
      <trkpt lat="45.59896" lon="6.66489">
        <ele>1589.8</ele>
        <time>2022-01-01T08:17:12Z</time>
      </trkpt>
      <trkpt lat="45.59896" lon="6.66489">
        <ele>1590</ele>
        <time>2022-01-01T08:17:25Z</time>
      </trkpt>
      <trkpt lat="45.59896" lon="6.66489">
        <ele>1590.6</ele>
        <time>2022-01-01T08:17:33Z</time>
      </trkpt>
      <trkpt lat="45.59899" lon="6.6649">
        <ele>1591.8</ele>
        <time>2022-01-01T08:17:50Z</time>
      </trkpt>
      <trkpt lat="45.59899" lon="6.6649">
        <ele>1592.8</ele>
        <time>2022-01-01T08:17:55Z</time>
      </trkpt>
      <trkpt lat="45.59905" lon="6.66484">
        <ele>1593.8</ele>
        <time>2022-01-01T08:18:54Z</time>
      </trkpt>
      <trkpt lat="45.59905" lon="6.66484">
        <ele>1595</ele>
        <time>2022-01-01T08:18:58Z</time>
      </trkpt>
      <trkpt lat="45.59904" lon="6.66484">
        <ele>1596</ele>
        <time>2022-01-01T08:19:03Z</time>
      </trkpt>
      <trkpt lat="45.59904" lon="6.66478">
        <ele>1597</ele>
        <time>2022-01-01T08:19:14Z</time>
      </trkpt>
      <trkpt lat="45.59908" lon="6.66477">
        <ele>1598</ele>
        <time>2022-01-01T08:19:27Z</time>
      </trkpt>
      <trkpt lat="45.59908" lon="6.66476">
        <ele>1599.2</ele>
        <time>2022-01-01T08:19:35Z</time>
      </trkpt>
      <trkpt lat="45.59909" lon="6.66471">
        <ele>1600.4</ele>
        <time>2022-01-01T08:19:49Z</time>
      </trkpt>
      <trkpt lat="45.59908" lon="6.66469">
        <ele>1601.4</ele>
        <time>2022-01-01T08:19:53Z</time>
      </trkpt>
      <trkpt lat="45.59909" lon="6.66461">
        <ele>1602.2</ele>
        <time>2022-01-01T08:19:57Z</time>
      </trkpt>
      <trkpt lat="45.5991" lon="6.66456">
        <ele>1602.4</ele>
        <time>2022-01-01T08:20:00Z</time>
      </trkpt>
      <trkpt lat="45.59911" lon="6.66452">
        <ele>1603.4</ele>
        <time>2022-01-01T08:20:03Z</time>
      </trkpt>
      <trkpt lat="45.59911" lon="6.66452">
        <ele>1603.6</ele>
        <time>2022-01-01T08:20:04Z</time>
      </trkpt>
      <trkpt lat="45.59914" lon="6.66451">
        <ele>1604.8</ele>
        <time>2022-01-01T08:20:09Z</time>
      </trkpt>
      <trkpt lat="45.59915" lon="6.66453">
        <ele>1605</ele>
        <time>2022-01-01T08:20:16Z</time>
      </trkpt>
      <trkpt lat="45.59916" lon="6.66453">
        <ele>1605</ele>
        <time>2022-01-01T08:20:23Z</time>
      </trkpt>
      <trkpt lat="45.59917" lon="6.66455">
        <ele>1605.8</ele>
        <time>2022-01-01T08:20:45Z</time>
      </trkpt>
      <trkpt lat="45.59919" lon="6.66456">
        <ele>1606.8</ele>
        <time>2022-01-01T08:21:02Z</time>
      </trkpt>
      <trkpt lat="45.59922" lon="6.6646">
        <ele>1607.8</ele>
        <time>2022-01-01T08:21:07Z</time>
      </trkpt>
      <trkpt lat="45.59926" lon="6.66465">
        <ele>1609</ele>
        <time>2022-01-01T08:21:12Z</time>
      </trkpt>
      <trkpt lat="45.59927" lon="6.66465">
        <ele>1609.2</ele>
        <time>2022-01-01T08:21:13Z</time>
      </trkpt>
      <trkpt lat="45.59929" lon="6.66466">
        <ele>1610.2</ele>
        <time>2022-01-01T08:21:16Z</time>
      </trkpt>
      <trkpt lat="45.59932" lon="6.66467">
        <ele>1611.2</ele>
        <time>2022-01-01T08:21:20Z</time>
      </trkpt>
      <trkpt lat="45.59935" lon="6.6647">
        <ele>1612.2</ele>
        <time>2022-01-01T08:21:24Z</time>
      </trkpt>
      <trkpt lat="45.59936" lon="6.66473">
        <ele>1612.6</ele>
        <time>2022-01-01T08:21:27Z</time>
      </trkpt>
      <trkpt lat="45.59936" lon="6.66476">
        <ele>1613.4</ele>
        <time>2022-01-01T08:21:30Z</time>
      </trkpt>
      <trkpt lat="45.59938" lon="6.66478">
        <ele>1614</ele>
        <time>2022-01-01T08:21:33Z</time>
      </trkpt>
      <trkpt lat="45.59939" lon="6.66481">
        <ele>1614.2</ele>
        <time>2022-01-01T08:21:38Z</time>
      </trkpt>
      <trkpt lat="45.59941" lon="6.66481">
        <ele>1614.2</ele>
        <time>2022-01-01T08:21:45Z</time>
      </trkpt>
      <trkpt lat="45.59943" lon="6.66479">
        <ele>1614.2</ele>
        <time>2022-01-01T08:21:57Z</time>
      </trkpt>
      <trkpt lat="45.59942" lon="6.66481">
        <ele>1614.2</ele>
        <time>2022-01-01T08:22:10Z</time>
      </trkpt>
      <trkpt lat="45.5994" lon="6.66481">
        <ele>1614.4</ele>
        <time>2022-01-01T08:22:37Z</time>
      </trkpt>
      <trkpt lat="45.5994" lon="6.66481">
        <ele>1615.6</ele>
        <time>2022-01-01T08:22:42Z</time>
      </trkpt>
      <trkpt lat="45.59941" lon="6.66481">
        <ele>1616.8</ele>
        <time>2022-01-01T08:22:48Z</time>
      </trkpt>
      <trkpt lat="45.59944" lon="6.66483">
        <ele>1618.2</ele>
        <time>2022-01-01T08:22:56Z</time>
      </trkpt>
      <trkpt lat="45.59945" lon="6.66483">
        <ele>1619.2</ele>
        <time>2022-01-01T08:23:01Z</time>
      </trkpt>
      <trkpt lat="45.59947" lon="6.66481">
        <ele>1620.4</ele>
        <time>2022-01-01T08:23:12Z</time>
      </trkpt>
      <trkpt lat="45.59947" lon="6.66479">
        <ele>1621.4</ele>
        <time>2022-01-01T08:23:21Z</time>
      </trkpt>
      <trkpt lat="45.5995" lon="6.66474">
        <ele>1622.4</ele>
        <time>2022-01-01T08:23:27Z</time>
      </trkpt>
      <trkpt lat="45.59951" lon="6.66473">
        <ele>1622.4</ele>
        <time>2022-01-01T08:23:28Z</time>
      </trkpt>
      <trkpt lat="45.59953" lon="6.66472">
        <ele>1623.6</ele>
        <time>2022-01-01T08:23:33Z</time>
      </trkpt>
      <trkpt lat="45.59953" lon="6.66472">
        <ele>1623.6</ele>
        <time>2022-01-01T08:23:35Z</time>
      </trkpt>
      <trkpt lat="45.59957" lon="6.66473">
        <ele>1624.6</ele>
        <time>2022-01-01T08:23:42Z</time>
      </trkpt>
      <trkpt lat="45.59959" lon="6.66473">
        <ele>1625.6</ele>
        <time>2022-01-01T08:23:45Z</time>
      </trkpt>
      <trkpt lat="45.59959" lon="6.66473">
        <ele>1625.8</ele>
        <time>2022-01-01T08:23:46Z</time>
      </trkpt>
      <trkpt lat="45.5996" lon="6.6647">
        <ele>1627</ele>
        <time>2022-01-01T08:23:51Z</time>
      </trkpt>
      <trkpt lat="45.59961" lon="6.66465">
        <ele>1628.2</ele>
        <time>2022-01-01T08:23:57Z</time>
      </trkpt>
      <trkpt lat="45.59959" lon="6.66462">
        <ele>1629.4</ele>
        <time>2022-01-01T08:24:01Z</time>
      </trkpt>
      <trkpt lat="45.5996" lon="6.66457">
        <ele>1630</ele>
        <time>2022-01-01T08:24:04Z</time>
      </trkpt>
      <trkpt lat="45.59959" lon="6.66453">
        <ele>1630.4</ele>
        <time>2022-01-01T08:24:06Z</time>
      </trkpt>
      <trkpt lat="45.59959" lon="6.66447">
        <ele>1631.2</ele>
        <time>2022-01-01T08:24:10Z</time>
      </trkpt>
      <trkpt lat="45.5996" lon="6.66445">
        <ele>1631.6</ele>
        <time>2022-01-01T08:24:12Z</time>
      </trkpt>
      <trkpt lat="45.5996" lon="6.66441">
        <ele>1632.6</ele>
        <time>2022-01-01T08:24:17Z</time>
      </trkpt>
      <trkpt lat="45.59962" lon="6.66436">
        <ele>1633.6</ele>
        <time>2022-01-01T08:24:20Z</time>
      </trkpt>
      <trkpt lat="45.59964" lon="6.66434">
        <ele>1634</ele>
        <time>2022-01-01T08:24:22Z</time>
      </trkpt>
      <trkpt lat="45.59965" lon="6.66433">
        <ele>1634.8</ele>
        <time>2022-01-01T08:24:24Z</time>
      </trkpt>
      <trkpt lat="45.59966" lon="6.6643">
        <ele>1635.8</ele>
        <time>2022-01-01T08:24:27Z</time>
      </trkpt>
      <trkpt lat="45.59966" lon="6.66426">
        <ele>1637</ele>
        <time>2022-01-01T08:24:31Z</time>
      </trkpt>
      <trkpt lat="45.59967" lon="6.66424">
        <ele>1637.6</ele>
        <time>2022-01-01T08:24:34Z</time>
      </trkpt>
      <trkpt lat="45.59967" lon="6.66422">
        <ele>1638.2</ele>
        <time>2022-01-01T08:24:36Z</time>
      </trkpt>
      <trkpt lat="45.59966" lon="6.66412">
        <ele>1639.2</ele>
        <time>2022-01-01T08:24:41Z</time>
      </trkpt>
      <trkpt lat="45.59967" lon="6.66411">
        <ele>1639.4</ele>
        <time>2022-01-01T08:24:42Z</time>
      </trkpt>
      <trkpt lat="45.59968" lon="6.66406">
        <ele>1640</ele>
        <time>2022-01-01T08:24:47Z</time>
      </trkpt>
      <trkpt lat="45.59968" lon="6.66402">
        <ele>1640.4</ele>
        <time>2022-01-01T08:24:49Z</time>
      </trkpt>
      <trkpt lat="45.5997" lon="6.66399">
        <ele>1641.4</ele>
        <time>2022-01-01T08:24:52Z</time>
      </trkpt>
      <trkpt lat="45.5997" lon="6.66398">
        <ele>1641.6</ele>
        <time>2022-01-01T08:24:53Z</time>
      </trkpt>
      <trkpt lat="45.59974" lon="6.66396">
        <ele>1642.6</ele>
        <time>2022-01-01T08:24:57Z</time>
      </trkpt>
      <trkpt lat="45.59974" lon="6.66395">
        <ele>1642.8</ele>
        <time>2022-01-01T08:24:58Z</time>
      </trkpt>
      <trkpt lat="45.59977" lon="6.66394">
        <ele>1643.8</ele>
        <time>2022-01-01T08:25:02Z</time>
      </trkpt>
      <trkpt lat="45.59979" lon="6.66394">
        <ele>1644.4</ele>
        <time>2022-01-01T08:25:04Z</time>
      </trkpt>
      <trkpt lat="45.59979" lon="6.66393">
        <ele>1645</ele>
        <time>2022-01-01T08:25:06Z</time>
      </trkpt>
      <trkpt lat="45.59981" lon="6.66385">
        <ele>1645.8</ele>
        <time>2022-01-01T08:25:11Z</time>
      </trkpt>
      <trkpt lat="45.5998" lon="6.66384">
        <ele>1646</ele>
        <time>2022-01-01T08:25:14Z</time>
      </trkpt>
      <trkpt lat="45.5998" lon="6.66381">
        <ele>1646.6</ele>
        <time>2022-01-01T08:25:17Z</time>
      </trkpt>
      <trkpt lat="45.5998" lon="6.66378">
        <ele>1647.2</ele>
        <time>2022-01-01T08:25:20Z</time>
      </trkpt>
      <trkpt lat="45.59981" lon="6.66374">
        <ele>1647.4</ele>
        <time>2022-01-01T08:25:23Z</time>
      </trkpt>
      <trkpt lat="45.59982" lon="6.66368">
        <ele>1648.2</ele>
        <time>2022-01-01T08:25:27Z</time>
      </trkpt>
      <trkpt lat="45.59982" lon="6.66364">
        <ele>1648.8</ele>
        <time>2022-01-01T08:25:29Z</time>
      </trkpt>
      <trkpt lat="45.59983" lon="6.6636">
        <ele>1649.4</ele>
        <time>2022-01-01T08:25:32Z</time>
      </trkpt>
      <trkpt lat="45.59984" lon="6.66356">
        <ele>1650</ele>
        <time>2022-01-01T08:25:35Z</time>
      </trkpt>
      <trkpt lat="45.59984" lon="6.66353">
        <ele>1650.4</ele>
        <time>2022-01-01T08:25:37Z</time>
      </trkpt>
      <trkpt lat="45.59984" lon="6.6635">
        <ele>1651</ele>
        <time>2022-01-01T08:25:41Z</time>
      </trkpt>
      <trkpt lat="45.59985" lon="6.66347">
        <ele>1651.4</ele>
        <time>2022-01-01T08:25:43Z</time>
      </trkpt>
      <trkpt lat="45.59987" lon="6.66345">
        <ele>1652.6</ele>
        <time>2022-01-01T08:25:47Z</time>
      </trkpt>
      <trkpt lat="45.59991" lon="6.66345">
        <ele>1653.2</ele>
        <time>2022-01-01T08:25:52Z</time>
      </trkpt>
      <trkpt lat="45.59993" lon="6.66346">
        <ele>1653.8</ele>
        <time>2022-01-01T08:25:54Z</time>
      </trkpt>
      <trkpt lat="45.59995" lon="6.66348">
        <ele>1655</ele>
        <time>2022-01-01T08:25:58Z</time>
      </trkpt>
      <trkpt lat="45.59996" lon="6.66348">
        <ele>1655.4</ele>
        <time>2022-01-01T08:25:59Z</time>
      </trkpt>
      <trkpt lat="45.59996" lon="6.66345">
        <ele>1656</ele>
        <time>2022-01-01T08:26:02Z</time>
      </trkpt>
      <trkpt lat="45.59996" lon="6.66341">
        <ele>1657.4</ele>
        <time>2022-01-01T08:26:06Z</time>
      </trkpt>
      <trkpt lat="45.59997" lon="6.66333">
        <ele>1658.2</ele>
        <time>2022-01-01T08:26:12Z</time>
      </trkpt>
      <trkpt lat="45.59997" lon="6.66331">
        <ele>1658.4</ele>
        <time>2022-01-01T08:26:13Z</time>
      </trkpt>
      <trkpt lat="45.59996" lon="6.66324">
        <ele>1659</ele>
        <time>2022-01-01T08:26:19Z</time>
      </trkpt>
      <trkpt lat="45.59995" lon="6.66318">
        <ele>1659.4</ele>
        <time>2022-01-01T08:26:24Z</time>
      </trkpt>
      <trkpt lat="45.59996" lon="6.66314">
        <ele>1659.8</ele>
        <time>2022-01-01T08:26:26Z</time>
      </trkpt>
      <trkpt lat="45.59998" lon="6.66301">
        <ele>1660.2</ele>
        <time>2022-01-01T08:26:32Z</time>
      </trkpt>
      <trkpt lat="45.59997" lon="6.66295">
        <ele>1660.4</ele>
        <time>2022-01-01T08:26:35Z</time>
      </trkpt>
      <trkpt lat="45.59997" lon="6.66291">
        <ele>1660.6</ele>
        <time>2022-01-01T08:26:37Z</time>
      </trkpt>
      <trkpt lat="45.59997" lon="6.66286">
        <ele>1661</ele>
        <time>2022-01-01T08:26:39Z</time>
      </trkpt>
      <trkpt lat="45.59997" lon="6.66286">
        <ele>1661.2</ele>
        <time>2022-01-01T08:26:40Z</time>
      </trkpt>
      <trkpt lat="45.59998" lon="6.66284">
        <ele>1661.4</ele>
        <time>2022-01-01T08:26:41Z</time>
      </trkpt>
      <trkpt lat="45.59999" lon="6.66281">
        <ele>1661.6</ele>
        <time>2022-01-01T08:26:44Z</time>
      </trkpt>
      <trkpt lat="45.6" lon="6.66278">
        <ele>1661.6</ele>
        <time>2022-01-01T08:26:46Z</time>
      </trkpt>
      <trkpt lat="45.60001" lon="6.66274">
        <ele>1662.2</ele>
        <time>2022-01-01T08:26:50Z</time>
      </trkpt>
      <trkpt lat="45.60001" lon="6.66271">
        <ele>1662.8</ele>
        <time>2022-01-01T08:26:52Z</time>
      </trkpt>
      <trkpt lat="45.60002" lon="6.66268">
        <ele>1663.8</ele>
        <time>2022-01-01T08:26:57Z</time>
      </trkpt>
      <trkpt lat="45.60005" lon="6.66263">
        <ele>1665</ele>
        <time>2022-01-01T08:27:03Z</time>
      </trkpt>
      <trkpt lat="45.60006" lon="6.66262">
        <ele>1665.4</ele>
        <time>2022-01-01T08:27:05Z</time>
      </trkpt>
      <trkpt lat="45.60007" lon="6.6626">
        <ele>1666</ele>
        <time>2022-01-01T08:27:07Z</time>
      </trkpt>
      <trkpt lat="45.60008" lon="6.66255">
        <ele>1667</ele>
        <time>2022-01-01T08:27:11Z</time>
      </trkpt>
      <trkpt lat="45.60011" lon="6.66252">
        <ele>1667.8</ele>
        <time>2022-01-01T08:27:15Z</time>
      </trkpt>
      <trkpt lat="45.60012" lon="6.66251">
        <ele>1668</ele>
        <time>2022-01-01T08:27:16Z</time>
      </trkpt>
      <trkpt lat="45.60013" lon="6.66249">
        <ele>1668.8</ele>
        <time>2022-01-01T08:27:18Z</time>
      </trkpt>
      <trkpt lat="45.60014" lon="6.66247">
        <ele>1669.2</ele>
        <time>2022-01-01T08:27:20Z</time>
      </trkpt>
      <trkpt lat="45.60014" lon="6.66246">
        <ele>1669.2</ele>
        <time>2022-01-01T08:27:21Z</time>
      </trkpt>
      <trkpt lat="45.60016" lon="6.66244">
        <ele>1670.2</ele>
        <time>2022-01-01T08:27:25Z</time>
      </trkpt>
      <trkpt lat="45.60017" lon="6.66242">
        <ele>1670.6</ele>
        <time>2022-01-01T08:27:27Z</time>
      </trkpt>
      <trkpt lat="45.60019" lon="6.6624">
        <ele>1671.4</ele>
        <time>2022-01-01T08:27:31Z</time>
      </trkpt>
      <trkpt lat="45.60021" lon="6.66237">
        <ele>1672.4</ele>
        <time>2022-01-01T08:27:35Z</time>
      </trkpt>
      <trkpt lat="45.60021" lon="6.66237">
        <ele>1672.8</ele>
        <time>2022-01-01T08:27:36Z</time>
      </trkpt>
      <trkpt lat="45.60025" lon="6.66234">
        <ele>1673.8</ele>
        <time>2022-01-01T08:27:42Z</time>
      </trkpt>
      <trkpt lat="45.60029" lon="6.66233">
        <ele>1675</ele>
        <time>2022-01-01T08:27:49Z</time>
      </trkpt>
      <trkpt lat="45.60029" lon="6.6623">
        <ele>1675.2</ele>
        <time>2022-01-01T08:27:51Z</time>
      </trkpt>
      <trkpt lat="45.60029" lon="6.66225">
        <ele>1676.2</ele>
        <time>2022-01-01T08:27:55Z</time>
      </trkpt>
      <trkpt lat="45.6003" lon="6.66222">
        <ele>1677</ele>
        <time>2022-01-01T08:27:58Z</time>
      </trkpt>
      <trkpt lat="45.6003" lon="6.6622">
        <ele>1677.2</ele>
        <time>2022-01-01T08:27:59Z</time>
      </trkpt>
      <trkpt lat="45.60033" lon="6.66213">
        <ele>1678.4</ele>
        <time>2022-01-01T08:28:05Z</time>
      </trkpt>
      <trkpt lat="45.60034" lon="6.6621">
        <ele>1678.8</ele>
        <time>2022-01-01T08:28:08Z</time>
      </trkpt>
      <trkpt lat="45.60034" lon="6.66208">
        <ele>1679.6</ele>
        <time>2022-01-01T08:28:11Z</time>
      </trkpt>
      <trkpt lat="45.60034" lon="6.66202">
        <ele>1680.6</ele>
        <time>2022-01-01T08:28:15Z</time>
      </trkpt>
      <trkpt lat="45.60034" lon="6.66199">
        <ele>1681</ele>
        <time>2022-01-01T08:28:17Z</time>
      </trkpt>
      <trkpt lat="45.60032" lon="6.66192">
        <ele>1681.6</ele>
        <time>2022-01-01T08:28:24Z</time>
      </trkpt>
      <trkpt lat="45.60032" lon="6.66191">
        <ele>1681.8</ele>
        <time>2022-01-01T08:28:25Z</time>
      </trkpt>
      <trkpt lat="45.60031" lon="6.66185">
        <ele>1682.8</ele>
        <time>2022-01-01T08:28:31Z</time>
      </trkpt>
      <trkpt lat="45.60031" lon="6.66182">
        <ele>1682.8</ele>
        <time>2022-01-01T08:28:32Z</time>
      </trkpt>
      <trkpt lat="45.60033" lon="6.66177">
        <ele>1683.6</ele>
        <time>2022-01-01T08:28:40Z</time>
      </trkpt>
      <trkpt lat="45.60035" lon="6.66178">
        <ele>1683.8</ele>
        <time>2022-01-01T08:28:43Z</time>
      </trkpt>
      <trkpt lat="45.60038" lon="6.66179">
        <ele>1684.4</ele>
        <time>2022-01-01T08:28:47Z</time>
      </trkpt>
      <trkpt lat="45.60038" lon="6.6618">
        <ele>1684.8</ele>
        <time>2022-01-01T08:29:12Z</time>
      </trkpt>
      <trkpt lat="45.60043" lon="6.66186">
        <ele>1686</ele>
        <time>2022-01-01T08:29:56Z</time>
      </trkpt>
      <trkpt lat="45.60046" lon="6.66189">
        <ele>1686.4</ele>
        <time>2022-01-01T08:29:59Z</time>
      </trkpt>
      <trkpt lat="45.60053" lon="6.66199">
        <ele>1687</ele>
        <time>2022-01-01T08:30:08Z</time>
      </trkpt>
      <trkpt lat="45.60054" lon="6.66201">
        <ele>1687.2</ele>
        <time>2022-01-01T08:30:09Z</time>
      </trkpt>
      <trkpt lat="45.60057" lon="6.66209">
        <ele>1688</ele>
        <time>2022-01-01T08:30:15Z</time>
      </trkpt>
      <trkpt lat="45.60058" lon="6.66211">
        <ele>1688.4</ele>
        <time>2022-01-01T08:30:17Z</time>
      </trkpt>
      <trkpt lat="45.60058" lon="6.66212">
        <ele>1688.6</ele>
        <time>2022-01-01T08:30:18Z</time>
      </trkpt>
      <trkpt lat="45.60062" lon="6.66216">
        <ele>1689.2</ele>
        <time>2022-01-01T08:30:22Z</time>
      </trkpt>
      <trkpt lat="45.60062" lon="6.66217">
        <ele>1689.2</ele>
        <time>2022-01-01T08:30:23Z</time>
      </trkpt>
      <trkpt lat="45.60064" lon="6.66219">
        <ele>1689.6</ele>
        <time>2022-01-01T08:30:25Z</time>
      </trkpt>
      <trkpt lat="45.60066" lon="6.66221">
        <ele>1690</ele>
        <time>2022-01-01T08:30:27Z</time>
      </trkpt>
      <trkpt lat="45.60066" lon="6.66222">
        <ele>1690.2</ele>
        <time>2022-01-01T08:30:28Z</time>
      </trkpt>
      <trkpt lat="45.60068" lon="6.66224">
        <ele>1690.4</ele>
        <time>2022-01-01T08:30:30Z</time>
      </trkpt>
      <trkpt lat="45.6007" lon="6.66228">
        <ele>1691.2</ele>
        <time>2022-01-01T08:30:34Z</time>
      </trkpt>
      <trkpt lat="45.60071" lon="6.6623">
        <ele>1692</ele>
        <time>2022-01-01T08:30:37Z</time>
      </trkpt>
      <trkpt lat="45.60072" lon="6.66231">
        <ele>1692.4</ele>
        <time>2022-01-01T08:30:38Z</time>
      </trkpt>
      <trkpt lat="45.60075" lon="6.66234">
        <ele>1693.6</ele>
        <time>2022-01-01T08:30:43Z</time>
      </trkpt>
      <trkpt lat="45.60076" lon="6.66234">
        <ele>1693.8</ele>
        <time>2022-01-01T08:30:44Z</time>
      </trkpt>
      <trkpt lat="45.60076" lon="6.66232">
        <ele>1694.8</ele>
        <time>2022-01-01T08:30:48Z</time>
      </trkpt>
      <trkpt lat="45.60076" lon="6.66232">
        <ele>1695.2</ele>
        <time>2022-01-01T08:30:50Z</time>
      </trkpt>
      <trkpt lat="45.60076" lon="6.66231">
        <ele>1695.8</ele>
        <time>2022-01-01T08:31:02Z</time>
      </trkpt>
      <trkpt lat="45.60077" lon="6.66226">
        <ele>1696.2</ele>
        <time>2022-01-01T08:31:05Z</time>
      </trkpt>
      <trkpt lat="45.60079" lon="6.66221">
        <ele>1696.8</ele>
        <time>2022-01-01T08:31:11Z</time>
      </trkpt>
      <trkpt lat="45.60078" lon="6.66221">
        <ele>1697</ele>
        <time>2022-01-01T08:31:20Z</time>
      </trkpt>
      <trkpt lat="45.60079" lon="6.66217">
        <ele>1697.6</ele>
        <time>2022-01-01T08:31:25Z</time>
      </trkpt>
      <trkpt lat="45.60079" lon="6.66212">
        <ele>1698</ele>
        <time>2022-01-01T08:31:27Z</time>
      </trkpt>
      <trkpt lat="45.60079" lon="6.66207">
        <ele>1698.4</ele>
        <time>2022-01-01T08:31:29Z</time>
      </trkpt>
      <trkpt lat="45.6008" lon="6.66203">
        <ele>1698.8</ele>
        <time>2022-01-01T08:31:31Z</time>
      </trkpt>
      <trkpt lat="45.6008" lon="6.66197">
        <ele>1699.2</ele>
        <time>2022-01-01T08:31:34Z</time>
      </trkpt>
      <trkpt lat="45.6008" lon="6.66194">
        <ele>1699.6</ele>
        <time>2022-01-01T08:31:37Z</time>
      </trkpt>
      <trkpt lat="45.60081" lon="6.66189">
        <ele>1700.4</ele>
        <time>2022-01-01T08:31:40Z</time>
      </trkpt>
      <trkpt lat="45.60082" lon="6.66187">
        <ele>1701</ele>
        <time>2022-01-01T08:31:43Z</time>
      </trkpt>
      <trkpt lat="45.60083" lon="6.66185">
        <ele>1701.4</ele>
        <time>2022-01-01T08:31:45Z</time>
      </trkpt>
      <trkpt lat="45.60084" lon="6.66181">
        <ele>1702.6</ele>
        <time>2022-01-01T08:31:49Z</time>
      </trkpt>
      <trkpt lat="45.60084" lon="6.6618">
        <ele>1702.8</ele>
        <time>2022-01-01T08:31:50Z</time>
      </trkpt>
      <trkpt lat="45.60084" lon="6.66176">
        <ele>1703.2</ele>
        <time>2022-01-01T08:31:53Z</time>
      </trkpt>
      <trkpt lat="45.60084" lon="6.66173">
        <ele>1703.6</ele>
        <time>2022-01-01T08:31:55Z</time>
      </trkpt>
      <trkpt lat="45.60084" lon="6.66171">
        <ele>1704.4</ele>
        <time>2022-01-01T08:31:58Z</time>
      </trkpt>
      <trkpt lat="45.60085" lon="6.66172">
        <ele>1704.6</ele>
        <time>2022-01-01T08:32:01Z</time>
      </trkpt>
      <trkpt lat="45.60088" lon="6.66179">
        <ele>1704.6</ele>
        <time>2022-01-01T08:32:10Z</time>
      </trkpt>
      <trkpt lat="45.60089" lon="6.66169">
        <ele>1705.8</ele>
        <time>2022-01-01T08:32:22Z</time>
      </trkpt>
      <trkpt lat="45.6009" lon="6.66167">
        <ele>1706.2</ele>
        <time>2022-01-01T08:32:23Z</time>
      </trkpt>
      <trkpt lat="45.6009" lon="6.66163">
        <ele>1706.8</ele>
        <time>2022-01-01T08:32:25Z</time>
      </trkpt>
      <trkpt lat="45.6009" lon="6.66161">
        <ele>1707</ele>
        <time>2022-01-01T08:32:26Z</time>
      </trkpt>
      <trkpt lat="45.6009" lon="6.66155">
        <ele>1708</ele>
        <time>2022-01-01T08:32:30Z</time>
      </trkpt>
      <trkpt lat="45.6009" lon="6.66154">
        <ele>1708.2</ele>
        <time>2022-01-01T08:32:31Z</time>
      </trkpt>
      <trkpt lat="45.6009" lon="6.66147">
        <ele>1709.4</ele>
        <time>2022-01-01T08:32:36Z</time>
      </trkpt>
      <trkpt lat="45.60089" lon="6.66142">
        <ele>1710.4</ele>
        <time>2022-01-01T08:32:40Z</time>
      </trkpt>
      <trkpt lat="45.60088" lon="6.66136">
        <ele>1711.6</ele>
        <time>2022-01-01T08:32:45Z</time>
      </trkpt>
      <trkpt lat="45.60088" lon="6.66132">
        <ele>1711.8</ele>
        <time>2022-01-01T08:32:48Z</time>
      </trkpt>
      <trkpt lat="45.60087" lon="6.66128">
        <ele>1712.8</ele>
        <time>2022-01-01T08:32:51Z</time>
      </trkpt>
      <trkpt lat="45.60086" lon="6.66123">
        <ele>1713.6</ele>
        <time>2022-01-01T08:32:55Z</time>
      </trkpt>
      <trkpt lat="45.60086" lon="6.66121">
        <ele>1713.8</ele>
        <time>2022-01-01T08:32:56Z</time>
      </trkpt>
      <trkpt lat="45.60086" lon="6.6612">
        <ele>1714</ele>
        <time>2022-01-01T08:32:57Z</time>
      </trkpt>
      <trkpt lat="45.60088" lon="6.66113">
        <ele>1714.8</ele>
        <time>2022-01-01T08:33:02Z</time>
      </trkpt>
      <trkpt lat="45.60088" lon="6.66111">
        <ele>1715</ele>
        <time>2022-01-01T08:33:03Z</time>
      </trkpt>
      <trkpt lat="45.60088" lon="6.66106">
        <ele>1716.2</ele>
        <time>2022-01-01T08:33:08Z</time>
      </trkpt>
      <trkpt lat="45.60088" lon="6.66102">
        <ele>1716.4</ele>
        <time>2022-01-01T08:33:10Z</time>
      </trkpt>
      <trkpt lat="45.60088" lon="6.66098">
        <ele>1717.2</ele>
        <time>2022-01-01T08:33:14Z</time>
      </trkpt>
      <trkpt lat="45.60087" lon="6.66092">
        <ele>1718</ele>
        <time>2022-01-01T08:33:18Z</time>
      </trkpt>
      <trkpt lat="45.60087" lon="6.66089">
        <ele>1718.4</ele>
        <time>2022-01-01T08:33:20Z</time>
      </trkpt>
      <trkpt lat="45.60087" lon="6.66082">
        <ele>1719.4</ele>
        <time>2022-01-01T08:33:25Z</time>
      </trkpt>
      <trkpt lat="45.60087" lon="6.6608">
        <ele>1719.6</ele>
        <time>2022-01-01T08:33:26Z</time>
      </trkpt>
      <trkpt lat="45.60087" lon="6.66077">
        <ele>1720.2</ele>
        <time>2022-01-01T08:33:29Z</time>
      </trkpt>
      <trkpt lat="45.60087" lon="6.66074">
        <ele>1720.6</ele>
        <time>2022-01-01T08:33:31Z</time>
      </trkpt>
      <trkpt lat="45.60087" lon="6.66068">
        <ele>1721</ele>
        <time>2022-01-01T08:33:34Z</time>
      </trkpt>
      <trkpt lat="45.60086" lon="6.66066">
        <ele>1721.2</ele>
        <time>2022-01-01T08:33:36Z</time>
      </trkpt>
      <trkpt lat="45.60086" lon="6.66061">
        <ele>1721.6</ele>
        <time>2022-01-01T08:33:39Z</time>
      </trkpt>
      <trkpt lat="45.60086" lon="6.66059">
        <ele>1721.8</ele>
        <time>2022-01-01T08:33:40Z</time>
      </trkpt>
      <trkpt lat="45.60087" lon="6.66053">
        <ele>1722.8</ele>
        <time>2022-01-01T08:33:45Z</time>
      </trkpt>
      <trkpt lat="45.60087" lon="6.66051">
        <ele>1723.2</ele>
        <time>2022-01-01T08:33:47Z</time>
      </trkpt>
      <trkpt lat="45.60087" lon="6.66048">
        <ele>1724</ele>
        <time>2022-01-01T08:33:50Z</time>
      </trkpt>
      <trkpt lat="45.60087" lon="6.66044">
        <ele>1724.6</ele>
        <time>2022-01-01T08:33:53Z</time>
      </trkpt>
      <trkpt lat="45.60088" lon="6.66042">
        <ele>1725</ele>
        <time>2022-01-01T08:33:55Z</time>
      </trkpt>
      <trkpt lat="45.60088" lon="6.66041">
        <ele>1725.6</ele>
        <time>2022-01-01T08:33:58Z</time>
      </trkpt>
      <trkpt lat="45.60089" lon="6.6604">
        <ele>1726</ele>
        <time>2022-01-01T08:34:02Z</time>
      </trkpt>
      <trkpt lat="45.60091" lon="6.66041">
        <ele>1726.2</ele>
        <time>2022-01-01T08:34:04Z</time>
      </trkpt>
      <trkpt lat="45.60094" lon="6.66043">
        <ele>1727</ele>
        <time>2022-01-01T08:34:09Z</time>
      </trkpt>
      <trkpt lat="45.60095" lon="6.66043">
        <ele>1727.2</ele>
        <time>2022-01-01T08:34:10Z</time>
      </trkpt>
      <trkpt lat="45.60097" lon="6.66045">
        <ele>1728</ele>
        <time>2022-01-01T08:34:14Z</time>
      </trkpt>
      <trkpt lat="45.60099" lon="6.66048">
        <ele>1729.2</ele>
        <time>2022-01-01T08:34:18Z</time>
      </trkpt>
      <trkpt lat="45.60099" lon="6.66047">
        <ele>1730</ele>
        <time>2022-01-01T08:34:24Z</time>
      </trkpt>
      <trkpt lat="45.60098" lon="6.66044">
        <ele>1730.4</ele>
        <time>2022-01-01T08:34:27Z</time>
      </trkpt>
      <trkpt lat="45.60097" lon="6.66037">
        <ele>1730.8</ele>
        <time>2022-01-01T08:34:31Z</time>
      </trkpt>
      <trkpt lat="45.60097" lon="6.66027">
        <ele>1731.6</ele>
        <time>2022-01-01T08:34:37Z</time>
      </trkpt>
      <trkpt lat="45.60097" lon="6.66025">
        <ele>1731.6</ele>
        <time>2022-01-01T08:34:38Z</time>
      </trkpt>
      <trkpt lat="45.60097" lon="6.66016">
        <ele>1732.6</ele>
        <time>2022-01-01T08:34:45Z</time>
      </trkpt>
      <trkpt lat="45.60097" lon="6.66015">
        <ele>1732.6</ele>
        <time>2022-01-01T08:34:46Z</time>
      </trkpt>
      <trkpt lat="45.60093" lon="6.66007">
        <ele>1733.4</ele>
        <time>2022-01-01T08:34:52Z</time>
      </trkpt>
      <trkpt lat="45.60091" lon="6.66004">
        <ele>1733.6</ele>
        <time>2022-01-01T08:34:55Z</time>
      </trkpt>
      <trkpt lat="45.60087" lon="6.65998">
        <ele>1734.2</ele>
        <time>2022-01-01T08:35:00Z</time>
      </trkpt>
      <trkpt lat="45.60087" lon="6.65997">
        <ele>1734.4</ele>
        <time>2022-01-01T08:35:01Z</time>
      </trkpt>
      <trkpt lat="45.60085" lon="6.65993">
        <ele>1734.6</ele>
        <time>2022-01-01T08:35:04Z</time>
      </trkpt>
      <trkpt lat="45.60084" lon="6.65993">
        <ele>1734.8</ele>
        <time>2022-01-01T08:35:05Z</time>
      </trkpt>
      <trkpt lat="45.60082" lon="6.65989">
        <ele>1735.4</ele>
        <time>2022-01-01T08:35:08Z</time>
      </trkpt>
      <trkpt lat="45.60077" lon="6.65983">
        <ele>1735.8</ele>
        <time>2022-01-01T08:35:14Z</time>
      </trkpt>
      <trkpt lat="45.60075" lon="6.65979">
        <ele>1736.4</ele>
        <time>2022-01-01T08:35:17Z</time>
      </trkpt>
      <trkpt lat="45.60072" lon="6.65973">
        <ele>1737</ele>
        <time>2022-01-01T08:35:21Z</time>
      </trkpt>
      <trkpt lat="45.60072" lon="6.65967">
        <ele>1737.2</ele>
        <time>2022-01-01T08:35:24Z</time>
      </trkpt>
      <trkpt lat="45.60071" lon="6.65965">
        <ele>1737.2</ele>
        <time>2022-01-01T08:35:25Z</time>
      </trkpt>
      <trkpt lat="45.60071" lon="6.65959">
        <ele>1738</ele>
        <time>2022-01-01T08:35:29Z</time>
      </trkpt>
      <trkpt lat="45.6007" lon="6.65955">
        <ele>1738.4</ele>
        <time>2022-01-01T08:35:31Z</time>
      </trkpt>
      <trkpt lat="45.60067" lon="6.65943">
        <ele>1739.2</ele>
        <time>2022-01-01T08:35:38Z</time>
      </trkpt>
      <trkpt lat="45.60068" lon="6.65942">
        <ele>1739.2</ele>
        <time>2022-01-01T08:35:39Z</time>
      </trkpt>
      <trkpt lat="45.60068" lon="6.6594">
        <ele>1739.4</ele>
        <time>2022-01-01T08:35:40Z</time>
      </trkpt>
      <trkpt lat="45.60067" lon="6.65939">
        <ele>1739.8</ele>
        <time>2022-01-01T08:35:41Z</time>
      </trkpt>
      <trkpt lat="45.60067" lon="6.65935">
        <ele>1740.2</ele>
        <time>2022-01-01T08:35:43Z</time>
      </trkpt>
      <trkpt lat="45.60067" lon="6.6593">
        <ele>1740.4</ele>
        <time>2022-01-01T08:35:46Z</time>
      </trkpt>
      <trkpt lat="45.60066" lon="6.65926">
        <ele>1740.8</ele>
        <time>2022-01-01T08:35:49Z</time>
      </trkpt>
      <trkpt lat="45.60064" lon="6.65924">
        <ele>1741</ele>
        <time>2022-01-01T08:35:51Z</time>
      </trkpt>
      <trkpt lat="45.60064" lon="6.65921">
        <ele>1741.2</ele>
        <time>2022-01-01T08:35:54Z</time>
      </trkpt>
      <trkpt lat="45.60063" lon="6.65916">
        <ele>1741.4</ele>
        <time>2022-01-01T08:35:56Z</time>
      </trkpt>
      <trkpt lat="45.60061" lon="6.65911">
        <ele>1742</ele>
        <time>2022-01-01T08:35:59Z</time>
      </trkpt>
      <trkpt lat="45.60059" lon="6.65906">
        <ele>1742.4</ele>
        <time>2022-01-01T08:36:02Z</time>
      </trkpt>
      <trkpt lat="45.60058" lon="6.65897">
        <ele>1743.2</ele>
        <time>2022-01-01T08:36:08Z</time>
      </trkpt>
      <trkpt lat="45.60059" lon="6.65894">
        <ele>1743.6</ele>
        <time>2022-01-01T08:36:10Z</time>
      </trkpt>
      <trkpt lat="45.6006" lon="6.65893">
        <ele>1743.8</ele>
        <time>2022-01-01T08:36:11Z</time>
      </trkpt>
      <trkpt lat="45.60063" lon="6.65891">
        <ele>1744</ele>
        <time>2022-01-01T08:36:14Z</time>
      </trkpt>
      <trkpt lat="45.60064" lon="6.65891">
        <ele>1744.2</ele>
        <time>2022-01-01T08:36:15Z</time>
      </trkpt>
      <trkpt lat="45.60068" lon="6.6589">
        <ele>1744.8</ele>
        <time>2022-01-01T08:36:17Z</time>
      </trkpt>
      <trkpt lat="45.60074" lon="6.65896">
        <ele>1745.6</ele>
        <time>2022-01-01T08:36:23Z</time>
      </trkpt>
      <trkpt lat="45.60079" lon="6.659">
        <ele>1745.8</ele>
        <time>2022-01-01T08:36:27Z</time>
      </trkpt>
      <trkpt lat="45.60082" lon="6.65904">
        <ele>1746.4</ele>
        <time>2022-01-01T08:36:31Z</time>
      </trkpt>
      <trkpt lat="45.60085" lon="6.65908">
        <ele>1747</ele>
        <time>2022-01-01T08:36:34Z</time>
      </trkpt>
      <trkpt lat="45.60086" lon="6.6591">
        <ele>1747.2</ele>
        <time>2022-01-01T08:36:36Z</time>
      </trkpt>
      <trkpt lat="45.60089" lon="6.65913">
        <ele>1747.6</ele>
        <time>2022-01-01T08:36:39Z</time>
      </trkpt>
      <trkpt lat="45.60092" lon="6.65917">
        <ele>1748</ele>
        <time>2022-01-01T08:36:42Z</time>
      </trkpt>
      <trkpt lat="45.60095" lon="6.65923">
        <ele>1748.6</ele>
        <time>2022-01-01T08:36:47Z</time>
      </trkpt>
      <trkpt lat="45.60099" lon="6.65927">
        <ele>1749</ele>
        <time>2022-01-01T08:36:51Z</time>
      </trkpt>
      <trkpt lat="45.60101" lon="6.65926">
        <ele>1749.2</ele>
        <time>2022-01-01T08:36:53Z</time>
      </trkpt>
      <trkpt lat="45.60102" lon="6.65926">
        <ele>1749.4</ele>
        <time>2022-01-01T08:36:54Z</time>
      </trkpt>
      <trkpt lat="45.60102" lon="6.65925">
        <ele>1749.8</ele>
        <time>2022-01-01T08:36:56Z</time>
      </trkpt>
      <trkpt lat="45.60103" lon="6.65923">
        <ele>1750</ele>
        <time>2022-01-01T08:36:57Z</time>
      </trkpt>
      <trkpt lat="45.60102" lon="6.65922">
        <ele>1750.2</ele>
        <time>2022-01-01T08:36:58Z</time>
      </trkpt>
      <trkpt lat="45.60102" lon="6.6592">
        <ele>1750.2</ele>
        <time>2022-01-01T08:36:59Z</time>
      </trkpt>
      <trkpt lat="45.60098" lon="6.65912">
        <ele>1751</ele>
        <time>2022-01-01T08:37:04Z</time>
      </trkpt>
      <trkpt lat="45.60097" lon="6.65911">
        <ele>1751.4</ele>
        <time>2022-01-01T08:37:05Z</time>
      </trkpt>
      <trkpt lat="45.60091" lon="6.65899">
        <ele>1752.2</ele>
        <time>2022-01-01T08:37:13Z</time>
      </trkpt>
      <trkpt lat="45.60089" lon="6.65883">
        <ele>1753.2</ele>
        <time>2022-01-01T08:37:22Z</time>
      </trkpt>
      <trkpt lat="45.60088" lon="6.65881">
        <ele>1753.4</ele>
        <time>2022-01-01T08:37:23Z</time>
      </trkpt>
      <trkpt lat="45.60088" lon="6.65871">
        <ele>1754.2</ele>
        <time>2022-01-01T08:37:29Z</time>
      </trkpt>
      <trkpt lat="45.60088" lon="6.65869">
        <ele>1754.2</ele>
        <time>2022-01-01T08:37:30Z</time>
      </trkpt>
      <trkpt lat="45.60089" lon="6.65868">
        <ele>1754.4</ele>
        <time>2022-01-01T08:37:31Z</time>
      </trkpt>
      <trkpt lat="45.60089" lon="6.65863">
        <ele>1754.8</ele>
        <time>2022-01-01T08:37:38Z</time>
      </trkpt>
      <trkpt lat="45.6009" lon="6.6586">
        <ele>1754.8</ele>
        <time>2022-01-01T08:37:47Z</time>
      </trkpt>
      <trkpt lat="45.6009" lon="6.6587">
        <ele>1754.4</ele>
        <time>2022-01-01T08:38:30Z</time>
      </trkpt>
      <trkpt lat="45.60091" lon="6.65873">
        <ele>1754.2</ele>
        <time>2022-01-01T08:38:33Z</time>
      </trkpt>
      <trkpt lat="45.60091" lon="6.65875">
        <ele>1754</ele>
        <time>2022-01-01T08:38:36Z</time>
      </trkpt>
      <trkpt lat="45.60092" lon="6.65872">
        <ele>1754.8</ele>
        <time>2022-01-01T08:38:43Z</time>
      </trkpt>
      <trkpt lat="45.60093" lon="6.65866">
        <ele>1754.8</ele>
        <time>2022-01-01T08:38:50Z</time>
      </trkpt>
      <trkpt lat="45.60093" lon="6.65865">
        <ele>1754.8</ele>
        <time>2022-01-01T08:38:57Z</time>
      </trkpt>
      <trkpt lat="45.60094" lon="6.65849">
        <ele>1754.8</ele>
        <time>2022-01-01T08:39:06Z</time>
      </trkpt>
      <trkpt lat="45.60096" lon="6.65838">
        <ele>1754.8</ele>
        <time>2022-01-01T08:39:16Z</time>
      </trkpt>
      <trkpt lat="45.60099" lon="6.65829">
        <ele>1754.8</ele>
        <time>2022-01-01T08:39:25Z</time>
      </trkpt>
      <trkpt lat="45.60103" lon="6.65821">
        <ele>1754.8</ele>
        <time>2022-01-01T08:39:33Z</time>
      </trkpt>
      <trkpt lat="45.60104" lon="6.65811">
        <ele>1766.8</ele>
        <time>2022-01-01T08:39:41Z</time>
      </trkpt>
      <trkpt lat="45.60107" lon="6.65804">
        <ele>1767.8</ele>
        <time>2022-01-01T08:39:50Z</time>
      </trkpt>
      <trkpt lat="45.60107" lon="6.65803">
        <ele>1768</ele>
        <time>2022-01-01T08:39:51Z</time>
      </trkpt>
      <trkpt lat="45.60108" lon="6.65796">
        <ele>1769</ele>
        <time>2022-01-01T08:39:58Z</time>
      </trkpt>
      <trkpt lat="45.60109" lon="6.65795">
        <ele>1769.2</ele>
        <time>2022-01-01T08:39:59Z</time>
      </trkpt>
      <trkpt lat="45.6011" lon="6.65792">
        <ele>1770.2</ele>
        <time>2022-01-01T08:40:04Z</time>
      </trkpt>
      <trkpt lat="45.60111" lon="6.65788">
        <ele>1770.8</ele>
        <time>2022-01-01T08:40:07Z</time>
      </trkpt>
      <trkpt lat="45.60111" lon="6.65786">
        <ele>1771.2</ele>
        <time>2022-01-01T08:40:09Z</time>
      </trkpt>
      <trkpt lat="45.60111" lon="6.65779">
        <ele>1772</ele>
        <time>2022-01-01T08:40:15Z</time>
      </trkpt>
      <trkpt lat="45.60111" lon="6.65776">
        <ele>1772.2</ele>
        <time>2022-01-01T08:40:18Z</time>
      </trkpt>
      <trkpt lat="45.60111" lon="6.65774">
        <ele>1772.4</ele>
        <time>2022-01-01T08:40:19Z</time>
      </trkpt>
      <trkpt lat="45.60111" lon="6.65767">
        <ele>1772.8</ele>
        <time>2022-01-01T08:40:25Z</time>
      </trkpt>
      <trkpt lat="45.60111" lon="6.65767">
        <ele>1772.8</ele>
        <time>2022-01-01T08:40:26Z</time>
      </trkpt>
      <trkpt lat="45.60112" lon="6.65755">
        <ele>1773.2</ele>
        <time>2022-01-01T08:40:33Z</time>
      </trkpt>
      <trkpt lat="45.60114" lon="6.65753">
        <ele>1773.8</ele>
        <time>2022-01-01T08:40:36Z</time>
      </trkpt>
      <trkpt lat="45.60114" lon="6.65751">
        <ele>1774.4</ele>
        <time>2022-01-01T08:40:38Z</time>
      </trkpt>
      <trkpt lat="45.60115" lon="6.65746">
        <ele>1775.4</ele>
        <time>2022-01-01T08:40:42Z</time>
      </trkpt>
      <trkpt lat="45.60118" lon="6.65743">
        <ele>1776</ele>
        <time>2022-01-01T08:40:45Z</time>
      </trkpt>
      <trkpt lat="45.60119" lon="6.6574">
        <ele>1776.6</ele>
        <time>2022-01-01T08:40:48Z</time>
      </trkpt>
      <trkpt lat="45.60122" lon="6.65734">
        <ele>1777.6</ele>
        <time>2022-01-01T08:40:53Z</time>
      </trkpt>
      <trkpt lat="45.60123" lon="6.65733">
        <ele>1778.6</ele>
        <time>2022-01-01T08:40:55Z</time>
      </trkpt>
      <trkpt lat="45.60124" lon="6.65732">
        <ele>1778.8</ele>
        <time>2022-01-01T08:40:56Z</time>
      </trkpt>
      <trkpt lat="45.60126" lon="6.65728">
        <ele>1780</ele>
        <time>2022-01-01T08:41:01Z</time>
      </trkpt>
      <trkpt lat="45.60129" lon="6.65724">
        <ele>1781</ele>
        <time>2022-01-01T08:41:06Z</time>
      </trkpt>
      <trkpt lat="45.6013" lon="6.6572">
        <ele>1782</ele>
        <time>2022-01-01T08:41:10Z</time>
      </trkpt>
      <trkpt lat="45.60131" lon="6.6572">
        <ele>1782.6</ele>
        <time>2022-01-01T08:41:11Z</time>
      </trkpt>
      <trkpt lat="45.60132" lon="6.65717">
        <ele>1783.4</ele>
        <time>2022-01-01T08:41:14Z</time>
      </trkpt>
      <trkpt lat="45.60135" lon="6.65711">
        <ele>1784.4</ele>
        <time>2022-01-01T08:41:19Z</time>
      </trkpt>
      <trkpt lat="45.60135" lon="6.65708">
        <ele>1785.2</ele>
        <time>2022-01-01T08:41:22Z</time>
      </trkpt>
      <trkpt lat="45.60136" lon="6.65707">
        <ele>1785.6</ele>
        <time>2022-01-01T08:41:23Z</time>
      </trkpt>
      <trkpt lat="45.60137" lon="6.65701">
        <ele>1786.6</ele>
        <time>2022-01-01T08:41:28Z</time>
      </trkpt>
      <trkpt lat="45.60138" lon="6.65697">
        <ele>1787.4</ele>
        <time>2022-01-01T08:41:32Z</time>
      </trkpt>
      <trkpt lat="45.60138" lon="6.65695">
        <ele>1787.8</ele>
        <time>2022-01-01T08:41:34Z</time>
      </trkpt>
      <trkpt lat="45.60143" lon="6.6569">
        <ele>1789</ele>
        <time>2022-01-01T08:41:40Z</time>
      </trkpt>
      <trkpt lat="45.60144" lon="6.6569">
        <ele>1789.2</ele>
        <time>2022-01-01T08:41:41Z</time>
      </trkpt>
      <trkpt lat="45.60146" lon="6.65688">
        <ele>1790.2</ele>
        <time>2022-01-01T08:41:44Z</time>
      </trkpt>
      <trkpt lat="45.60149" lon="6.65686">
        <ele>1791.2</ele>
        <time>2022-01-01T08:41:48Z</time>
      </trkpt>
      <trkpt lat="45.60152" lon="6.65685">
        <ele>1792.2</ele>
        <time>2022-01-01T08:41:52Z</time>
      </trkpt>
      <trkpt lat="45.60157" lon="6.65683">
        <ele>1793.4</ele>
        <time>2022-01-01T08:41:57Z</time>
      </trkpt>
      <trkpt lat="45.60161" lon="6.65682">
        <ele>1794.4</ele>
        <time>2022-01-01T08:42:01Z</time>
      </trkpt>
      <trkpt lat="45.60163" lon="6.65682">
        <ele>1795</ele>
        <time>2022-01-01T08:42:03Z</time>
      </trkpt>
      <trkpt lat="45.60165" lon="6.65682">
        <ele>1795.6</ele>
        <time>2022-01-01T08:42:05Z</time>
      </trkpt>
      <trkpt lat="45.60169" lon="6.6568">
        <ele>1796.8</ele>
        <time>2022-01-01T08:42:10Z</time>
      </trkpt>
      <trkpt lat="45.6017" lon="6.65679">
        <ele>1797</ele>
        <time>2022-01-01T08:42:11Z</time>
      </trkpt>
      <trkpt lat="45.60173" lon="6.65678">
        <ele>1798.4</ele>
        <time>2022-01-01T08:42:15Z</time>
      </trkpt>
      <trkpt lat="45.60176" lon="6.65676">
        <ele>1799.4</ele>
        <time>2022-01-01T08:42:19Z</time>
      </trkpt>
      <trkpt lat="45.60179" lon="6.65675">
        <ele>1800.6</ele>
        <time>2022-01-01T08:42:23Z</time>
      </trkpt>
      <trkpt lat="45.60181" lon="6.65672">
        <ele>1802</ele>
        <time>2022-01-01T08:42:27Z</time>
      </trkpt>
      <trkpt lat="45.60182" lon="6.65671">
        <ele>1802.4</ele>
        <time>2022-01-01T08:42:28Z</time>
      </trkpt>
      <trkpt lat="45.60184" lon="6.6567">
        <ele>1803</ele>
        <time>2022-01-01T08:42:31Z</time>
      </trkpt>
      <trkpt lat="45.60186" lon="6.65668">
        <ele>1804.2</ele>
        <time>2022-01-01T08:42:35Z</time>
      </trkpt>
      <trkpt lat="45.60189" lon="6.65668">
        <ele>1805</ele>
        <time>2022-01-01T08:42:38Z</time>
      </trkpt>
      <trkpt lat="45.60189" lon="6.65668">
        <ele>1805.2</ele>
        <time>2022-01-01T08:42:39Z</time>
      </trkpt>
      <trkpt lat="45.60191" lon="6.65666">
        <ele>1806.4</ele>
        <time>2022-01-01T08:42:43Z</time>
      </trkpt>
      <trkpt lat="45.60193" lon="6.65664">
        <ele>1807.2</ele>
        <time>2022-01-01T08:42:47Z</time>
      </trkpt>
      <trkpt lat="45.60194" lon="6.65664">
        <ele>1807.8</ele>
        <time>2022-01-01T08:42:48Z</time>
      </trkpt>
      <trkpt lat="45.60196" lon="6.65661">
        <ele>1808.8</ele>
        <time>2022-01-01T08:42:52Z</time>
      </trkpt>
      <trkpt lat="45.60197" lon="6.6566">
        <ele>1809.4</ele>
        <time>2022-01-01T08:42:54Z</time>
      </trkpt>
      <trkpt lat="45.60199" lon="6.65658">
        <ele>1810</ele>
        <time>2022-01-01T08:42:57Z</time>
      </trkpt>
      <trkpt lat="45.60201" lon="6.65655">
        <ele>1811</ele>
        <time>2022-01-01T08:43:01Z</time>
      </trkpt>
      <trkpt lat="45.60201" lon="6.65654">
        <ele>1811.4</ele>
        <time>2022-01-01T08:43:02Z</time>
      </trkpt>
      <trkpt lat="45.60202" lon="6.65653">
        <ele>1812</ele>
        <time>2022-01-01T08:43:04Z</time>
      </trkpt>
      <trkpt lat="45.60205" lon="6.65648">
        <ele>1813.2</ele>
        <time>2022-01-01T08:43:10Z</time>
      </trkpt>
      <trkpt lat="45.60205" lon="6.65648">
        <ele>1813.6</ele>
        <time>2022-01-01T08:43:11Z</time>
      </trkpt>
      <trkpt lat="45.60207" lon="6.65651">
        <ele>1813.8</ele>
        <time>2022-01-01T08:43:14Z</time>
      </trkpt>
      <trkpt lat="45.60209" lon="6.65653">
        <ele>1814.2</ele>
        <time>2022-01-01T08:43:17Z</time>
      </trkpt>
      <trkpt lat="45.6021" lon="6.65654">
        <ele>1814.4</ele>
        <time>2022-01-01T08:43:18Z</time>
      </trkpt>
      <trkpt lat="45.60214" lon="6.65656">
        <ele>1815.4</ele>
        <time>2022-01-01T08:43:26Z</time>
      </trkpt>
      <trkpt lat="45.60214" lon="6.65658">
        <ele>1815.6</ele>
        <time>2022-01-01T08:43:36Z</time>
      </trkpt>
      <trkpt lat="45.60213" lon="6.65656">
        <ele>1816.6</ele>
        <time>2022-01-01T08:44:27Z</time>
      </trkpt>
      <trkpt lat="45.60214" lon="6.65655">
        <ele>1817.8</ele>
        <time>2022-01-01T08:44:32Z</time>
      </trkpt>
      <trkpt lat="45.60215" lon="6.6565">
        <ele>1818.2</ele>
        <time>2022-01-01T08:44:35Z</time>
      </trkpt>
      <trkpt lat="45.60217" lon="6.65644">
        <ele>1818.8</ele>
        <time>2022-01-01T08:44:40Z</time>
      </trkpt>
      <trkpt lat="45.60217" lon="6.65642">
        <ele>1819</ele>
        <time>2022-01-01T08:44:42Z</time>
      </trkpt>
      <trkpt lat="45.6022" lon="6.65641">
        <ele>1819.4</ele>
        <time>2022-01-01T08:44:48Z</time>
      </trkpt>
      <trkpt lat="45.6022" lon="6.65642">
        <ele>1819.4</ele>
        <time>2022-01-01T08:44:53Z</time>
      </trkpt>
      <trkpt lat="45.60221" lon="6.65643">
        <ele>1819.4</ele>
        <time>2022-01-01T08:44:59Z</time>
      </trkpt>
      <trkpt lat="45.60221" lon="6.65643">
        <ele>1819.8</ele>
        <time>2022-01-01T08:45:11Z</time>
      </trkpt>
      <trkpt lat="45.60224" lon="6.65651">
        <ele>1820.4</ele>
        <time>2022-01-01T08:45:16Z</time>
      </trkpt>
      <trkpt lat="45.60225" lon="6.65656">
        <ele>1821</ele>
        <time>2022-01-01T08:45:19Z</time>
      </trkpt>
      <trkpt lat="45.60227" lon="6.65662">
        <ele>1821.4</ele>
        <time>2022-01-01T08:45:23Z</time>
      </trkpt>
      <trkpt lat="45.60228" lon="6.65664">
        <ele>1822</ele>
        <time>2022-01-01T08:45:26Z</time>
      </trkpt>
      <trkpt lat="45.60229" lon="6.65667">
        <ele>1822.2</ele>
        <time>2022-01-01T08:45:29Z</time>
      </trkpt>
      <trkpt lat="45.60234" lon="6.65669">
        <ele>1823</ele>
        <time>2022-01-01T08:45:34Z</time>
      </trkpt>
      <trkpt lat="45.60235" lon="6.6567">
        <ele>1823.6</ele>
        <time>2022-01-01T08:45:36Z</time>
      </trkpt>
      <trkpt lat="45.60235" lon="6.65672">
        <ele>1824.2</ele>
        <time>2022-01-01T08:45:38Z</time>
      </trkpt>
      <trkpt lat="45.60236" lon="6.65674">
        <ele>1824.8</ele>
        <time>2022-01-01T08:45:41Z</time>
      </trkpt>
      <trkpt lat="45.60237" lon="6.65676">
        <ele>1825.2</ele>
        <time>2022-01-01T08:45:43Z</time>
      </trkpt>
      <trkpt lat="45.60241" lon="6.65679">
        <ele>1826.2</ele>
        <time>2022-01-01T08:45:48Z</time>
      </trkpt>
      <trkpt lat="45.6024" lon="6.65679">
        <ele>1826.4</ele>
        <time>2022-01-01T08:45:49Z</time>
      </trkpt>
      <trkpt lat="45.60243" lon="6.65683">
        <ele>1827.2</ele>
        <time>2022-01-01T08:45:53Z</time>
      </trkpt>
      <trkpt lat="45.60244" lon="6.65683">
        <ele>1828.4</ele>
        <time>2022-01-01T08:45:57Z</time>
      </trkpt>
      <trkpt lat="45.60245" lon="6.65678">
        <ele>1829.6</ele>
        <time>2022-01-01T08:46:03Z</time>
      </trkpt>
      <trkpt lat="45.60246" lon="6.65677">
        <ele>1829.8</ele>
        <time>2022-01-01T08:46:04Z</time>
      </trkpt>
      <trkpt lat="45.60247" lon="6.65673">
        <ele>1830.6</ele>
        <time>2022-01-01T08:46:08Z</time>
      </trkpt>
      <trkpt lat="45.60247" lon="6.65671">
        <ele>1831.2</ele>
        <time>2022-01-01T08:46:11Z</time>
      </trkpt>
      <trkpt lat="45.60248" lon="6.6567">
        <ele>1831.8</ele>
        <time>2022-01-01T08:46:13Z</time>
      </trkpt>
      <trkpt lat="45.60248" lon="6.65667">
        <ele>1833</ele>
        <time>2022-01-01T08:46:17Z</time>
      </trkpt>
      <trkpt lat="45.60249" lon="6.65667">
        <ele>1833.2</ele>
        <time>2022-01-01T08:46:18Z</time>
      </trkpt>
      <trkpt lat="45.60251" lon="6.65664">
        <ele>1834.2</ele>
        <time>2022-01-01T08:46:22Z</time>
      </trkpt>
      <trkpt lat="45.60251" lon="6.65662">
        <ele>1834.8</ele>
        <time>2022-01-01T08:46:24Z</time>
      </trkpt>
      <trkpt lat="45.60251" lon="6.6566">
        <ele>1835.2</ele>
        <time>2022-01-01T08:46:26Z</time>
      </trkpt>
      <trkpt lat="45.60255" lon="6.65654">
        <ele>1836.4</ele>
        <time>2022-01-01T08:46:32Z</time>
      </trkpt>
      <trkpt lat="45.60256" lon="6.65652">
        <ele>1836.6</ele>
        <time>2022-01-01T08:46:34Z</time>
      </trkpt>
      <trkpt lat="45.60257" lon="6.65649">
        <ele>1837.4</ele>
        <time>2022-01-01T08:46:37Z</time>
      </trkpt>
      <trkpt lat="45.60258" lon="6.65649">
        <ele>1837.6</ele>
        <time>2022-01-01T08:46:38Z</time>
      </trkpt>
      <trkpt lat="45.60259" lon="6.65648">
        <ele>1837.6</ele>
        <time>2022-01-01T08:46:39Z</time>
      </trkpt>
      <trkpt lat="45.60261" lon="6.65645">
        <ele>1838.4</ele>
        <time>2022-01-01T08:46:42Z</time>
      </trkpt>
      <trkpt lat="45.60263" lon="6.65643">
        <ele>1839.4</ele>
        <time>2022-01-01T08:46:45Z</time>
      </trkpt>
      <trkpt lat="45.60265" lon="6.65643">
        <ele>1839.6</ele>
        <time>2022-01-01T08:46:46Z</time>
      </trkpt>
      <trkpt lat="45.60268" lon="6.6564">
        <ele>1840.4</ele>
        <time>2022-01-01T08:46:51Z</time>
      </trkpt>
      <trkpt lat="45.60269" lon="6.65639">
        <ele>1840.8</ele>
        <time>2022-01-01T08:46:52Z</time>
      </trkpt>
      <trkpt lat="45.6027" lon="6.65639">
        <ele>1841.2</ele>
        <time>2022-01-01T08:46:54Z</time>
      </trkpt>
      <trkpt lat="45.60272" lon="6.65637">
        <ele>1841.8</ele>
        <time>2022-01-01T08:46:56Z</time>
      </trkpt>
      <trkpt lat="45.60272" lon="6.65637">
        <ele>1842</ele>
        <time>2022-01-01T08:46:57Z</time>
      </trkpt>
      <trkpt lat="45.60274" lon="6.65636">
        <ele>1842.6</ele>
        <time>2022-01-01T08:46:59Z</time>
      </trkpt>
      <trkpt lat="45.60275" lon="6.65634">
        <ele>1843.2</ele>
        <time>2022-01-01T08:47:01Z</time>
      </trkpt>
      <trkpt lat="45.60278" lon="6.65631">
        <ele>1844.2</ele>
        <time>2022-01-01T08:47:06Z</time>
      </trkpt>
      <trkpt lat="45.60279" lon="6.65629">
        <ele>1844.6</ele>
        <time>2022-01-01T08:47:08Z</time>
      </trkpt>
      <trkpt lat="45.6028" lon="6.65627">
        <ele>1845.2</ele>
        <time>2022-01-01T08:47:10Z</time>
      </trkpt>
      <trkpt lat="45.60282" lon="6.65625">
        <ele>1846</ele>
        <time>2022-01-01T08:47:14Z</time>
      </trkpt>
      <trkpt lat="45.60282" lon="6.65624">
        <ele>1846.4</ele>
        <time>2022-01-01T08:47:15Z</time>
      </trkpt>
      <trkpt lat="45.60284" lon="6.6562">
        <ele>1847.4</ele>
        <time>2022-01-01T08:47:20Z</time>
      </trkpt>
      <trkpt lat="45.60284" lon="6.65619">
        <ele>1847.6</ele>
        <time>2022-01-01T08:47:21Z</time>
      </trkpt>
      <trkpt lat="45.60287" lon="6.65618">
        <ele>1848.2</ele>
        <time>2022-01-01T08:47:24Z</time>
      </trkpt>
      <trkpt lat="45.60288" lon="6.65617">
        <ele>1848.8</ele>
        <time>2022-01-01T08:47:26Z</time>
      </trkpt>
      <trkpt lat="45.60288" lon="6.65617">
        <ele>1849.2</ele>
        <time>2022-01-01T08:47:27Z</time>
      </trkpt>
      <trkpt lat="45.60288" lon="6.65614">
        <ele>1850</ele>
        <time>2022-01-01T08:47:30Z</time>
      </trkpt>
      <trkpt lat="45.60289" lon="6.65612">
        <ele>1850.4</ele>
        <time>2022-01-01T08:47:32Z</time>
      </trkpt>
      <trkpt lat="45.6029" lon="6.6561">
        <ele>1851</ele>
        <time>2022-01-01T08:47:34Z</time>
      </trkpt>
      <trkpt lat="45.6029" lon="6.65609">
        <ele>1851.2</ele>
        <time>2022-01-01T08:47:35Z</time>
      </trkpt>
      <trkpt lat="45.60291" lon="6.65607">
        <ele>1852</ele>
        <time>2022-01-01T08:47:39Z</time>
      </trkpt>
      <trkpt lat="45.60297" lon="6.65602">
        <ele>1853</ele>
        <time>2022-01-01T08:47:44Z</time>
      </trkpt>
      <trkpt lat="45.60298" lon="6.65601">
        <ele>1853.4</ele>
        <time>2022-01-01T08:47:45Z</time>
      </trkpt>
      <trkpt lat="45.60298" lon="6.656">
        <ele>1853.8</ele>
        <time>2022-01-01T08:47:47Z</time>
      </trkpt>
      <trkpt lat="45.603" lon="6.65599">
        <ele>1854.2</ele>
        <time>2022-01-01T08:47:49Z</time>
      </trkpt>
      <trkpt lat="45.60302" lon="6.65598">
        <ele>1854.6</ele>
        <time>2022-01-01T08:47:51Z</time>
      </trkpt>
      <trkpt lat="45.60305" lon="6.65596">
        <ele>1855.4</ele>
        <time>2022-01-01T08:47:53Z</time>
      </trkpt>
      <trkpt lat="45.60308" lon="6.65595">
        <ele>1856.4</ele>
        <time>2022-01-01T08:47:58Z</time>
      </trkpt>
      <trkpt lat="45.60312" lon="6.65591">
        <ele>1857.4</ele>
        <time>2022-01-01T08:48:03Z</time>
      </trkpt>
      <trkpt lat="45.60312" lon="6.65591">
        <ele>1857.8</ele>
        <time>2022-01-01T08:48:05Z</time>
      </trkpt>
      <trkpt lat="45.60314" lon="6.65591">
        <ele>1858.6</ele>
        <time>2022-01-01T08:48:08Z</time>
      </trkpt>
      <trkpt lat="45.60316" lon="6.65587">
        <ele>1859.6</ele>
        <time>2022-01-01T08:48:13Z</time>
      </trkpt>
      <trkpt lat="45.60319" lon="6.65584">
        <ele>1860.6</ele>
        <time>2022-01-01T08:48:17Z</time>
      </trkpt>
      <trkpt lat="45.60322" lon="6.65582">
        <ele>1861.4</ele>
        <time>2022-01-01T08:48:19Z</time>
      </trkpt>
      <trkpt lat="45.60323" lon="6.65583">
        <ele>1861.8</ele>
        <time>2022-01-01T08:48:21Z</time>
      </trkpt>
      <trkpt lat="45.60326" lon="6.65581">
        <ele>1862.6</ele>
        <time>2022-01-01T08:48:25Z</time>
      </trkpt>
      <trkpt lat="45.60327" lon="6.65581">
        <ele>1863</ele>
        <time>2022-01-01T08:48:27Z</time>
      </trkpt>
      <trkpt lat="45.60327" lon="6.65576">
        <ele>1863.8</ele>
        <time>2022-01-01T08:48:31Z</time>
      </trkpt>
      <trkpt lat="45.60328" lon="6.65576">
        <ele>1864.2</ele>
        <time>2022-01-01T08:48:32Z</time>
      </trkpt>
      <trkpt lat="45.60332" lon="6.65573">
        <ele>1865</ele>
        <time>2022-01-01T08:48:36Z</time>
      </trkpt>
      <trkpt lat="45.60333" lon="6.65573">
        <ele>1865.2</ele>
        <time>2022-01-01T08:48:37Z</time>
      </trkpt>
      <trkpt lat="45.60333" lon="6.65572">
        <ele>1865.4</ele>
        <time>2022-01-01T08:48:38Z</time>
      </trkpt>
      <trkpt lat="45.60334" lon="6.65572">
        <ele>1865.8</ele>
        <time>2022-01-01T08:48:40Z</time>
      </trkpt>
      <trkpt lat="45.60333" lon="6.65571">
        <ele>1866.2</ele>
        <time>2022-01-01T08:48:42Z</time>
      </trkpt>
      <trkpt lat="45.60335" lon="6.6557">
        <ele>1866.4</ele>
        <time>2022-01-01T08:48:44Z</time>
      </trkpt>
      <trkpt lat="45.60337" lon="6.65568">
        <ele>1867.6</ele>
        <time>2022-01-01T08:48:48Z</time>
      </trkpt>
      <trkpt lat="45.60338" lon="6.65567">
        <ele>1867.8</ele>
        <time>2022-01-01T08:48:49Z</time>
      </trkpt>
      <trkpt lat="45.60341" lon="6.65565">
        <ele>1868.6</ele>
        <time>2022-01-01T08:48:54Z</time>
      </trkpt>
      <trkpt lat="45.60344" lon="6.65564">
        <ele>1868.8</ele>
        <time>2022-01-01T08:48:55Z</time>
      </trkpt>
      <trkpt lat="45.60347" lon="6.65563">
        <ele>1869.8</ele>
        <time>2022-01-01T08:48:58Z</time>
      </trkpt>
      <trkpt lat="45.60352" lon="6.6556">
        <ele>1870.2</ele>
        <time>2022-01-01T08:49:02Z</time>
      </trkpt>
      <trkpt lat="45.60354" lon="6.65559">
        <ele>1871</ele>
        <time>2022-01-01T08:49:06Z</time>
      </trkpt>
      <trkpt lat="45.60356" lon="6.65559">
        <ele>1871.2</ele>
        <time>2022-01-01T08:49:08Z</time>
      </trkpt>
      <trkpt lat="45.60357" lon="6.65558">
        <ele>1872.2</ele>
        <time>2022-01-01T08:49:11Z</time>
      </trkpt>
      <trkpt lat="45.60358" lon="6.65555">
        <ele>1873</ele>
        <time>2022-01-01T08:49:14Z</time>
      </trkpt>
      <trkpt lat="45.60359" lon="6.65555">
        <ele>1873.2</ele>
        <time>2022-01-01T08:49:16Z</time>
      </trkpt>
      <trkpt lat="45.6036" lon="6.65554">
        <ele>1873.4</ele>
        <time>2022-01-01T08:49:17Z</time>
      </trkpt>
      <trkpt lat="45.60361" lon="6.65552">
        <ele>1873.8</ele>
        <time>2022-01-01T08:49:19Z</time>
      </trkpt>
      <trkpt lat="45.60364" lon="6.6555">
        <ele>1874.4</ele>
        <time>2022-01-01T08:49:22Z</time>
      </trkpt>
      <trkpt lat="45.60369" lon="6.65547">
        <ele>1875.4</ele>
        <time>2022-01-01T08:49:26Z</time>
      </trkpt>
      <trkpt lat="45.60369" lon="6.65546">
        <ele>1875.6</ele>
        <time>2022-01-01T08:49:27Z</time>
      </trkpt>
      <trkpt lat="45.6037" lon="6.65545">
        <ele>1876</ele>
        <time>2022-01-01T08:49:29Z</time>
      </trkpt>
      <trkpt lat="45.60371" lon="6.65543">
        <ele>1876.8</ele>
        <time>2022-01-01T08:49:32Z</time>
      </trkpt>
      <trkpt lat="45.60371" lon="6.65543">
        <ele>1877.2</ele>
        <time>2022-01-01T08:49:33Z</time>
      </trkpt>
      <trkpt lat="45.60373" lon="6.65542">
        <ele>1877.6</ele>
        <time>2022-01-01T08:49:35Z</time>
      </trkpt>
      <trkpt lat="45.60374" lon="6.65541">
        <ele>1878</ele>
        <time>2022-01-01T08:49:36Z</time>
      </trkpt>
      <trkpt lat="45.60376" lon="6.6554">
        <ele>1878.8</ele>
        <time>2022-01-01T08:49:39Z</time>
      </trkpt>
      <trkpt lat="45.60376" lon="6.65539">
        <ele>1879</ele>
        <time>2022-01-01T08:49:40Z</time>
      </trkpt>
      <trkpt lat="45.6038" lon="6.65539">
        <ele>1879.8</ele>
        <time>2022-01-01T08:49:46Z</time>
      </trkpt>
      <trkpt lat="45.60381" lon="6.65539">
        <ele>1880</ele>
        <time>2022-01-01T08:49:48Z</time>
      </trkpt>
      <trkpt lat="45.60382" lon="6.6554">
        <ele>1880.4</ele>
        <time>2022-01-01T08:49:56Z</time>
      </trkpt>
      <trkpt lat="45.60383" lon="6.65549">
        <ele>1880.4</ele>
        <time>2022-01-01T08:50:02Z</time>
      </trkpt>
      <trkpt lat="45.60382" lon="6.6555">
        <ele>1880.4</ele>
        <time>2022-01-01T08:50:03Z</time>
      </trkpt>
      <trkpt lat="45.60383" lon="6.65554">
        <ele>1880.6</ele>
        <time>2022-01-01T08:50:06Z</time>
      </trkpt>
      <trkpt lat="45.60383" lon="6.65555">
        <ele>1880.6</ele>
        <time>2022-01-01T08:50:07Z</time>
      </trkpt>
      <trkpt lat="45.60384" lon="6.65555">
        <ele>1881.4</ele>
        <time>2022-01-01T08:50:09Z</time>
      </trkpt>
      <trkpt lat="45.60387" lon="6.65552">
        <ele>1882.6</ele>
        <time>2022-01-01T08:50:13Z</time>
      </trkpt>
      <trkpt lat="45.6039" lon="6.65553">
        <ele>1883.6</ele>
        <time>2022-01-01T08:50:17Z</time>
      </trkpt>
      <trkpt lat="45.60391" lon="6.65553">
        <ele>1884</ele>
        <time>2022-01-01T08:50:19Z</time>
      </trkpt>
      <trkpt lat="45.60395" lon="6.65552">
        <ele>1884.8</ele>
        <time>2022-01-01T08:50:24Z</time>
      </trkpt>
      <trkpt lat="45.60397" lon="6.65551">
        <ele>1885.2</ele>
        <time>2022-01-01T08:50:27Z</time>
      </trkpt>
      <trkpt lat="45.60399" lon="6.65549">
        <ele>1885.8</ele>
        <time>2022-01-01T08:50:30Z</time>
      </trkpt>
      <trkpt lat="45.60402" lon="6.65548">
        <ele>1886.2</ele>
        <time>2022-01-01T08:50:32Z</time>
      </trkpt>
      <trkpt lat="45.60403" lon="6.65548">
        <ele>1886.6</ele>
        <time>2022-01-01T08:50:34Z</time>
      </trkpt>
      <trkpt lat="45.60404" lon="6.65547">
        <ele>1887</ele>
        <time>2022-01-01T08:50:36Z</time>
      </trkpt>
      <trkpt lat="45.60409" lon="6.65543">
        <ele>1888</ele>
        <time>2022-01-01T08:50:42Z</time>
      </trkpt>
      <trkpt lat="45.60411" lon="6.65542">
        <ele>1888.4</ele>
        <time>2022-01-01T08:50:44Z</time>
      </trkpt>
      <trkpt lat="45.60415" lon="6.6554">
        <ele>1889.2</ele>
        <time>2022-01-01T08:50:50Z</time>
      </trkpt>
      <trkpt lat="45.60418" lon="6.65538">
        <ele>1889.8</ele>
        <time>2022-01-01T08:50:53Z</time>
      </trkpt>
      <trkpt lat="45.60422" lon="6.65534">
        <ele>1890.2</ele>
        <time>2022-01-01T08:50:59Z</time>
      </trkpt>
      <trkpt lat="45.60423" lon="6.65534">
        <ele>1890.4</ele>
        <time>2022-01-01T08:51:00Z</time>
      </trkpt>
      <trkpt lat="45.60427" lon="6.65532">
        <ele>1890.8</ele>
        <time>2022-01-01T08:51:05Z</time>
      </trkpt>
      <trkpt lat="45.60432" lon="6.6553">
        <ele>1891.6</ele>
        <time>2022-01-01T08:51:09Z</time>
      </trkpt>
      <trkpt lat="45.60437" lon="6.65529">
        <ele>1892.8</ele>
        <time>2022-01-01T08:51:14Z</time>
      </trkpt>
      <trkpt lat="45.60439" lon="6.65529">
        <ele>1893.2</ele>
        <time>2022-01-01T08:51:16Z</time>
      </trkpt>
      <trkpt lat="45.60441" lon="6.65529">
        <ele>1893.4</ele>
        <time>2022-01-01T08:51:20Z</time>
      </trkpt>
      <trkpt lat="45.60442" lon="6.65527">
        <ele>1893.2</ele>
        <time>2022-01-01T08:51:29Z</time>
      </trkpt>
      <trkpt lat="45.60441" lon="6.65527">
        <ele>1894</ele>
        <time>2022-01-01T08:51:35Z</time>
      </trkpt>
      <trkpt lat="45.60443" lon="6.65528">
        <ele>1894.6</ele>
        <time>2022-01-01T08:51:59Z</time>
      </trkpt>
      <trkpt lat="45.60445" lon="6.65529">
        <ele>1895</ele>
        <time>2022-01-01T08:52:01Z</time>
      </trkpt>
      <trkpt lat="45.6045" lon="6.65529">
        <ele>1896.2</ele>
        <time>2022-01-01T08:52:06Z</time>
      </trkpt>
      <trkpt lat="45.60455" lon="6.65529">
        <ele>1897.2</ele>
        <time>2022-01-01T08:52:11Z</time>
      </trkpt>
      <trkpt lat="45.60457" lon="6.65529">
        <ele>1897.8</ele>
        <time>2022-01-01T08:52:13Z</time>
      </trkpt>
      <trkpt lat="45.60458" lon="6.65529">
        <ele>1898.2</ele>
        <time>2022-01-01T08:52:14Z</time>
      </trkpt>
      <trkpt lat="45.60459" lon="6.6553">
        <ele>1898.4</ele>
        <time>2022-01-01T08:52:15Z</time>
      </trkpt>
      <trkpt lat="45.60461" lon="6.65532">
        <ele>1899.8</ele>
        <time>2022-01-01T08:52:20Z</time>
      </trkpt>
      <trkpt lat="45.60463" lon="6.65533">
        <ele>1900</ele>
        <time>2022-01-01T08:52:21Z</time>
      </trkpt>
      <trkpt lat="45.60468" lon="6.65535">
        <ele>1900.8</ele>
        <time>2022-01-01T08:52:27Z</time>
      </trkpt>
      <trkpt lat="45.6047" lon="6.65536">
        <ele>1902</ele>
        <time>2022-01-01T08:52:30Z</time>
      </trkpt>
      <trkpt lat="45.60473" lon="6.65536">
        <ele>1903.4</ele>
        <time>2022-01-01T08:52:34Z</time>
      </trkpt>
      <trkpt lat="45.60476" lon="6.65536">
        <ele>1903.8</ele>
        <time>2022-01-01T08:52:37Z</time>
      </trkpt>
      <trkpt lat="45.60478" lon="6.65537">
        <ele>1904</ele>
        <time>2022-01-01T08:52:39Z</time>
      </trkpt>
      <trkpt lat="45.60479" lon="6.65541">
        <ele>1904.4</ele>
        <time>2022-01-01T08:52:42Z</time>
      </trkpt>
      <trkpt lat="45.60479" lon="6.65542">
        <ele>1904.4</ele>
        <time>2022-01-01T08:52:43Z</time>
      </trkpt>
      <trkpt lat="45.60477" lon="6.65547">
        <ele>1905.2</ele>
        <time>2022-01-01T08:52:47Z</time>
      </trkpt>
      <trkpt lat="45.60477" lon="6.6555">
        <ele>1905.6</ele>
        <time>2022-01-01T08:52:49Z</time>
      </trkpt>
      <trkpt lat="45.60477" lon="6.65551">
        <ele>1905.8</ele>
        <time>2022-01-01T08:52:50Z</time>
      </trkpt>
      <trkpt lat="45.60476" lon="6.65555">
        <ele>1906.2</ele>
        <time>2022-01-01T08:52:53Z</time>
      </trkpt>
      <trkpt lat="45.60475" lon="6.65558">
        <ele>1906.6</ele>
        <time>2022-01-01T08:52:55Z</time>
      </trkpt>
      <trkpt lat="45.60475" lon="6.65559">
        <ele>1906.8</ele>
        <time>2022-01-01T08:52:56Z</time>
      </trkpt>
      <trkpt lat="45.60475" lon="6.65559">
        <ele>1907</ele>
        <time>2022-01-01T08:52:57Z</time>
      </trkpt>
      <trkpt lat="45.60475" lon="6.65563">
        <ele>1907.8</ele>
        <time>2022-01-01T08:53:00Z</time>
      </trkpt>
      <trkpt lat="45.60475" lon="6.65565">
        <ele>1908</ele>
        <time>2022-01-01T08:53:01Z</time>
      </trkpt>
      <trkpt lat="45.60473" lon="6.65571">
        <ele>1908.6</ele>
        <time>2022-01-01T08:53:05Z</time>
      </trkpt>
      <trkpt lat="45.60473" lon="6.65572">
        <ele>1908.8</ele>
        <time>2022-01-01T08:53:06Z</time>
      </trkpt>
      <trkpt lat="45.60473" lon="6.65574">
        <ele>1909</ele>
        <time>2022-01-01T08:53:12Z</time>
      </trkpt>
      <trkpt lat="45.60471" lon="6.65576">
        <ele>1909</ele>
        <time>2022-01-01T08:53:25Z</time>
      </trkpt>
      <trkpt lat="45.60468" lon="6.65584">
        <ele>1909.8</ele>
        <time>2022-01-01T08:53:30Z</time>
      </trkpt>
      <trkpt lat="45.60464" lon="6.65589">
        <ele>1910.6</ele>
        <time>2022-01-01T08:53:34Z</time>
      </trkpt>
      <trkpt lat="45.60463" lon="6.65591">
        <ele>1911.2</ele>
        <time>2022-01-01T08:53:36Z</time>
      </trkpt>
      <trkpt lat="45.60463" lon="6.65592">
        <ele>1911.4</ele>
        <time>2022-01-01T08:53:37Z</time>
      </trkpt>
      <trkpt lat="45.60462" lon="6.65595">
        <ele>1911.8</ele>
        <time>2022-01-01T08:53:39Z</time>
      </trkpt>
      <trkpt lat="45.6046" lon="6.65598">
        <ele>1912.4</ele>
        <time>2022-01-01T08:53:42Z</time>
      </trkpt>
      <trkpt lat="45.60457" lon="6.65601">
        <ele>1912.8</ele>
        <time>2022-01-01T08:53:45Z</time>
      </trkpt>
      <trkpt lat="45.60454" lon="6.65605">
        <ele>1913.6</ele>
        <time>2022-01-01T08:53:49Z</time>
      </trkpt>
      <trkpt lat="45.60453" lon="6.65607">
        <ele>1914</ele>
        <time>2022-01-01T08:53:51Z</time>
      </trkpt>
      <trkpt lat="45.6045" lon="6.6561">
        <ele>1914.8</ele>
        <time>2022-01-01T08:53:54Z</time>
      </trkpt>
      <trkpt lat="45.60448" lon="6.65613">
        <ele>1915.4</ele>
        <time>2022-01-01T08:53:58Z</time>
      </trkpt>
      <trkpt lat="45.60447" lon="6.65615">
        <ele>1915.8</ele>
        <time>2022-01-01T08:54:00Z</time>
      </trkpt>
      <trkpt lat="45.60444" lon="6.65618">
        <ele>1916.6</ele>
        <time>2022-01-01T08:54:05Z</time>
      </trkpt>
      <trkpt lat="45.60443" lon="6.6562">
        <ele>1917</ele>
        <time>2022-01-01T08:54:07Z</time>
      </trkpt>
      <trkpt lat="45.60443" lon="6.65622">
        <ele>1917.4</ele>
        <time>2022-01-01T08:54:09Z</time>
      </trkpt>
      <trkpt lat="45.60442" lon="6.65624">
        <ele>1918.2</ele>
        <time>2022-01-01T08:54:11Z</time>
      </trkpt>
      <trkpt lat="45.60442" lon="6.65625">
        <ele>1918.4</ele>
        <time>2022-01-01T08:54:12Z</time>
      </trkpt>
      <trkpt lat="45.60444" lon="6.65627">
        <ele>1919.4</ele>
        <time>2022-01-01T08:54:16Z</time>
      </trkpt>
      <trkpt lat="45.60447" lon="6.65628">
        <ele>1920</ele>
        <time>2022-01-01T08:54:19Z</time>
      </trkpt>
      <trkpt lat="45.60449" lon="6.65628">
        <ele>1920.6</ele>
        <time>2022-01-01T08:54:21Z</time>
      </trkpt>
      <trkpt lat="45.60453" lon="6.65628">
        <ele>1921.2</ele>
        <time>2022-01-01T08:54:25Z</time>
      </trkpt>
      <trkpt lat="45.60456" lon="6.65628">
        <ele>1922</ele>
        <time>2022-01-01T08:54:28Z</time>
      </trkpt>
      <trkpt lat="45.6046" lon="6.65629">
        <ele>1923.2</ele>
        <time>2022-01-01T08:54:33Z</time>
      </trkpt>
      <trkpt lat="45.6046" lon="6.65631">
        <ele>1923.2</ele>
        <time>2022-01-01T08:54:34Z</time>
      </trkpt>
      <trkpt lat="45.6046" lon="6.65632">
        <ele>1923.4</ele>
        <time>2022-01-01T08:54:35Z</time>
      </trkpt>
      <trkpt lat="45.60461" lon="6.6564">
        <ele>1924.2</ele>
        <time>2022-01-01T08:54:41Z</time>
      </trkpt>
      <trkpt lat="45.60461" lon="6.65642">
        <ele>1924.4</ele>
        <time>2022-01-01T08:54:42Z</time>
      </trkpt>
      <trkpt lat="45.60461" lon="6.65645">
        <ele>1925.4</ele>
        <time>2022-01-01T08:54:45Z</time>
      </trkpt>
      <trkpt lat="45.60462" lon="6.65649">
        <ele>1926.8</ele>
        <time>2022-01-01T08:54:51Z</time>
      </trkpt>
      <trkpt lat="45.60464" lon="6.65647">
        <ele>1928.2</ele>
        <time>2022-01-01T08:54:55Z</time>
      </trkpt>
      <trkpt lat="45.60467" lon="6.65646">
        <ele>1929.2</ele>
        <time>2022-01-01T08:54:58Z</time>
      </trkpt>
      <trkpt lat="45.60476" lon="6.65652">
        <ele>1928.4</ele>
        <time>2022-01-01T08:55:06Z</time>
      </trkpt>
      <trkpt lat="45.60478" lon="6.65653">
        <ele>1928.2</ele>
        <time>2022-01-01T08:55:08Z</time>
      </trkpt>
      <trkpt lat="45.60485" lon="6.6566">
        <ele>1928.8</ele>
        <time>2022-01-01T08:55:16Z</time>
      </trkpt>
      <trkpt lat="45.60487" lon="6.65664">
        <ele>1929.4</ele>
        <time>2022-01-01T08:55:21Z</time>
      </trkpt>
      <trkpt lat="45.60489" lon="6.65666">
        <ele>1930</ele>
        <time>2022-01-01T08:55:24Z</time>
      </trkpt>
      <trkpt lat="45.6049" lon="6.65667">
        <ele>1930.4</ele>
        <time>2022-01-01T08:55:26Z</time>
      </trkpt>
      <trkpt lat="45.60493" lon="6.65669">
        <ele>1931.6</ele>
        <time>2022-01-01T08:55:30Z</time>
      </trkpt>
      <trkpt lat="45.60496" lon="6.65673">
        <ele>1932.6</ele>
        <time>2022-01-01T08:55:36Z</time>
      </trkpt>
      <trkpt lat="45.60497" lon="6.65674">
        <ele>1933.4</ele>
        <time>2022-01-01T08:55:38Z</time>
      </trkpt>
      <trkpt lat="45.60498" lon="6.65675">
        <ele>1933.6</ele>
        <time>2022-01-01T08:55:39Z</time>
      </trkpt>
      <trkpt lat="45.60501" lon="6.65678">
        <ele>1934.8</ele>
        <time>2022-01-01T08:55:45Z</time>
      </trkpt>
      <trkpt lat="45.60502" lon="6.65679">
        <ele>1935.4</ele>
        <time>2022-01-01T08:55:48Z</time>
      </trkpt>
      <trkpt lat="45.60503" lon="6.65679">
        <ele>1935.8</ele>
        <time>2022-01-01T08:55:50Z</time>
      </trkpt>
      <trkpt lat="45.60506" lon="6.65681">
        <ele>1936.8</ele>
        <time>2022-01-01T08:55:54Z</time>
      </trkpt>
      <trkpt lat="45.60508" lon="6.65682">
        <ele>1937.4</ele>
        <time>2022-01-01T08:55:57Z</time>
      </trkpt>
      <trkpt lat="45.60509" lon="6.65682">
        <ele>1937.8</ele>
        <time>2022-01-01T08:55:59Z</time>
      </trkpt>
      <trkpt lat="45.60512" lon="6.65682">
        <ele>1939</ele>
        <time>2022-01-01T08:56:03Z</time>
      </trkpt>
      <trkpt lat="45.60513" lon="6.65681">
        <ele>1939.2</ele>
        <time>2022-01-01T08:56:04Z</time>
      </trkpt>
      <trkpt lat="45.60517" lon="6.65681">
        <ele>1940.2</ele>
        <time>2022-01-01T08:56:08Z</time>
      </trkpt>
      <trkpt lat="45.60518" lon="6.65681">
        <ele>1940.2</ele>
        <time>2022-01-01T08:56:10Z</time>
      </trkpt>
      <trkpt lat="45.60521" lon="6.65682">
        <ele>1941.2</ele>
        <time>2022-01-01T08:56:13Z</time>
      </trkpt>
      <trkpt lat="45.60524" lon="6.65684">
        <ele>1942.2</ele>
        <time>2022-01-01T08:56:18Z</time>
      </trkpt>
      <trkpt lat="45.60524" lon="6.65684">
        <ele>1942.4</ele>
        <time>2022-01-01T08:56:19Z</time>
      </trkpt>
      <trkpt lat="45.60531" lon="6.65686">
        <ele>1943.6</ele>
        <time>2022-01-01T08:56:27Z</time>
      </trkpt>
      <trkpt lat="45.60534" lon="6.65686">
        <ele>1944.8</ele>
        <time>2022-01-01T08:56:30Z</time>
      </trkpt>
      <trkpt lat="45.60536" lon="6.65687">
        <ele>1944.8</ele>
        <time>2022-01-01T08:56:33Z</time>
      </trkpt>
      <trkpt lat="45.60538" lon="6.65687">
        <ele>1945.8</ele>
        <time>2022-01-01T08:56:37Z</time>
      </trkpt>
      <trkpt lat="45.6054" lon="6.65688">
        <ele>1946.2</ele>
        <time>2022-01-01T08:56:39Z</time>
      </trkpt>
      <trkpt lat="45.60541" lon="6.65688">
        <ele>1947</ele>
        <time>2022-01-01T08:56:41Z</time>
      </trkpt>
      <trkpt lat="45.60543" lon="6.65689">
        <ele>1947.2</ele>
        <time>2022-01-01T08:56:44Z</time>
      </trkpt>
      <trkpt lat="45.60544" lon="6.6569">
        <ele>1948.2</ele>
        <time>2022-01-01T08:56:46Z</time>
      </trkpt>
      <trkpt lat="45.60545" lon="6.65693">
        <ele>1949.4</ele>
        <time>2022-01-01T08:56:52Z</time>
      </trkpt>
      <trkpt lat="45.60546" lon="6.65693">
        <ele>1949.6</ele>
        <time>2022-01-01T08:56:54Z</time>
      </trkpt>
      <trkpt lat="45.60546" lon="6.65697">
        <ele>1950.4</ele>
        <time>2022-01-01T08:57:00Z</time>
      </trkpt>
      <trkpt lat="45.60546" lon="6.65697">
        <ele>1950.4</ele>
        <time>2022-01-01T08:57:01Z</time>
      </trkpt>
      <trkpt lat="45.60545" lon="6.65701">
        <ele>1951</ele>
        <time>2022-01-01T08:57:06Z</time>
      </trkpt>
      <trkpt lat="45.60544" lon="6.65703">
        <ele>1951.6</ele>
        <time>2022-01-01T08:57:09Z</time>
      </trkpt>
      <trkpt lat="45.60544" lon="6.65704">
        <ele>1952</ele>
        <time>2022-01-01T08:57:10Z</time>
      </trkpt>
      <trkpt lat="45.60542" lon="6.65707">
        <ele>1952.6</ele>
        <time>2022-01-01T08:57:13Z</time>
      </trkpt>
      <trkpt lat="45.60541" lon="6.65708">
        <ele>1952.8</ele>
        <time>2022-01-01T08:57:14Z</time>
      </trkpt>
      <trkpt lat="45.60539" lon="6.65713">
        <ele>1954</ele>
        <time>2022-01-01T08:57:19Z</time>
      </trkpt>
      <trkpt lat="45.60538" lon="6.65717">
        <ele>1955</ele>
        <time>2022-01-01T08:57:23Z</time>
      </trkpt>
      <trkpt lat="45.60538" lon="6.65718">
        <ele>1955.2</ele>
        <time>2022-01-01T08:57:24Z</time>
      </trkpt>
      <trkpt lat="45.60536" lon="6.65721">
        <ele>1956.2</ele>
        <time>2022-01-01T08:57:28Z</time>
      </trkpt>
      <trkpt lat="45.60536" lon="6.65724">
        <ele>1957.4</ele>
        <time>2022-01-01T08:57:31Z</time>
      </trkpt>
      <trkpt lat="45.60535" lon="6.65728">
        <ele>1958.4</ele>
        <time>2022-01-01T08:57:35Z</time>
      </trkpt>
      <trkpt lat="45.60534" lon="6.65731">
        <ele>1958.8</ele>
        <time>2022-01-01T08:57:38Z</time>
      </trkpt>
      <trkpt lat="45.60533" lon="6.65733">
        <ele>1959.6</ele>
        <time>2022-01-01T08:57:40Z</time>
      </trkpt>
      <trkpt lat="45.60533" lon="6.65734">
        <ele>1959.6</ele>
        <time>2022-01-01T08:57:41Z</time>
      </trkpt>
      <trkpt lat="45.60531" lon="6.65738">
        <ele>1960.6</ele>
        <time>2022-01-01T08:57:45Z</time>
      </trkpt>
      <trkpt lat="45.6053" lon="6.6574">
        <ele>1961.6</ele>
        <time>2022-01-01T08:57:48Z</time>
      </trkpt>
      <trkpt lat="45.6053" lon="6.65741">
        <ele>1961.8</ele>
        <time>2022-01-01T08:57:49Z</time>
      </trkpt>
      <trkpt lat="45.60529" lon="6.65742">
        <ele>1961.8</ele>
        <time>2022-01-01T08:57:50Z</time>
      </trkpt>
      <trkpt lat="45.60527" lon="6.65747">
        <ele>1963</ele>
        <time>2022-01-01T08:57:55Z</time>
      </trkpt>
      <trkpt lat="45.60526" lon="6.65749">
        <ele>1963.4</ele>
        <time>2022-01-01T08:57:57Z</time>
      </trkpt>
      <trkpt lat="45.60526" lon="6.6575">
        <ele>1963.8</ele>
        <time>2022-01-01T08:57:58Z</time>
      </trkpt>
      <trkpt lat="45.60524" lon="6.65753">
        <ele>1964.2</ele>
        <time>2022-01-01T08:58:00Z</time>
      </trkpt>
      <trkpt lat="45.60526" lon="6.65757">
        <ele>1965.2</ele>
        <time>2022-01-01T08:58:04Z</time>
      </trkpt>
      <trkpt lat="45.60525" lon="6.65757">
        <ele>1965.6</ele>
        <time>2022-01-01T08:58:05Z</time>
      </trkpt>
      <trkpt lat="45.60524" lon="6.65762">
        <ele>1966.4</ele>
        <time>2022-01-01T08:58:09Z</time>
      </trkpt>
      <trkpt lat="45.60524" lon="6.6577">
        <ele>1967.4</ele>
        <time>2022-01-01T08:58:15Z</time>
      </trkpt>
      <trkpt lat="45.60525" lon="6.65771">
        <ele>1967.4</ele>
        <time>2022-01-01T08:58:16Z</time>
      </trkpt>
      <trkpt lat="45.60526" lon="6.65777">
        <ele>1968.6</ele>
        <time>2022-01-01T08:58:22Z</time>
      </trkpt>
      <trkpt lat="45.60527" lon="6.65778">
        <ele>1969</ele>
        <time>2022-01-01T08:58:23Z</time>
      </trkpt>
      <trkpt lat="45.60528" lon="6.6578">
        <ele>1969.6</ele>
        <time>2022-01-01T08:58:26Z</time>
      </trkpt>
      <trkpt lat="45.60528" lon="6.65784">
        <ele>1970.4</ele>
        <time>2022-01-01T08:58:30Z</time>
      </trkpt>
      <trkpt lat="45.60529" lon="6.65785">
        <ele>1970.8</ele>
        <time>2022-01-01T08:58:31Z</time>
      </trkpt>
      <trkpt lat="45.6053" lon="6.65789">
        <ele>1971.8</ele>
        <time>2022-01-01T08:58:35Z</time>
      </trkpt>
      <trkpt lat="45.6053" lon="6.65792">
        <ele>1972.8</ele>
        <time>2022-01-01T08:58:38Z</time>
      </trkpt>
      <trkpt lat="45.60529" lon="6.65793">
        <ele>1973</ele>
        <time>2022-01-01T08:58:39Z</time>
      </trkpt>
      <trkpt lat="45.60532" lon="6.65797">
        <ele>1974</ele>
        <time>2022-01-01T08:58:44Z</time>
      </trkpt>
      <trkpt lat="45.60533" lon="6.65802">
        <ele>1975.2</ele>
        <time>2022-01-01T08:58:48Z</time>
      </trkpt>
      <trkpt lat="45.60535" lon="6.65804">
        <ele>1975.6</ele>
        <time>2022-01-01T08:58:50Z</time>
      </trkpt>
      <trkpt lat="45.60536" lon="6.65805">
        <ele>1976.4</ele>
        <time>2022-01-01T08:58:53Z</time>
      </trkpt>
      <trkpt lat="45.60537" lon="6.65811">
        <ele>1977.6</ele>
        <time>2022-01-01T08:58:59Z</time>
      </trkpt>
      <trkpt lat="45.60538" lon="6.65815">
        <ele>1978.6</ele>
        <time>2022-01-01T08:59:03Z</time>
      </trkpt>
      <trkpt lat="45.6054" lon="6.65819">
        <ele>1979.4</ele>
        <time>2022-01-01T08:59:08Z</time>
      </trkpt>
      <trkpt lat="45.6054" lon="6.6582">
        <ele>1979.8</ele>
        <time>2022-01-01T08:59:09Z</time>
      </trkpt>
      <trkpt lat="45.60542" lon="6.65824">
        <ele>1980.8</ele>
        <time>2022-01-01T08:59:13Z</time>
      </trkpt>
      <trkpt lat="45.60544" lon="6.65827">
        <ele>1982</ele>
        <time>2022-01-01T08:59:17Z</time>
      </trkpt>
      <trkpt lat="45.60544" lon="6.65828">
        <ele>1982.2</ele>
        <time>2022-01-01T08:59:18Z</time>
      </trkpt>
      <trkpt lat="45.60546" lon="6.65831">
        <ele>1983</ele>
        <time>2022-01-01T08:59:22Z</time>
      </trkpt>
      <trkpt lat="45.60547" lon="6.65834">
        <ele>1984.2</ele>
        <time>2022-01-01T08:59:26Z</time>
      </trkpt>
      <trkpt lat="45.6055" lon="6.65839">
        <ele>1985.2</ele>
        <time>2022-01-01T08:59:32Z</time>
      </trkpt>
      <trkpt lat="45.60552" lon="6.65842">
        <ele>1986.4</ele>
        <time>2022-01-01T08:59:37Z</time>
      </trkpt>
      <trkpt lat="45.60555" lon="6.65846">
        <ele>1987.4</ele>
        <time>2022-01-01T08:59:41Z</time>
      </trkpt>
      <trkpt lat="45.60557" lon="6.65851">
        <ele>1988.6</ele>
        <time>2022-01-01T08:59:47Z</time>
      </trkpt>
      <trkpt lat="45.60559" lon="6.65854">
        <ele>1989.2</ele>
        <time>2022-01-01T08:59:50Z</time>
      </trkpt>
      <trkpt lat="45.6056" lon="6.65856">
        <ele>1990</ele>
        <time>2022-01-01T08:59:53Z</time>
      </trkpt>
      <trkpt lat="45.60561" lon="6.65859">
        <ele>1991</ele>
        <time>2022-01-01T08:59:56Z</time>
      </trkpt>
      <trkpt lat="45.60565" lon="6.65865">
        <ele>1991.6</ele>
        <time>2022-01-01T09:00:02Z</time>
      </trkpt>
      <trkpt lat="45.60565" lon="6.65866">
        <ele>1992</ele>
        <time>2022-01-01T09:00:03Z</time>
      </trkpt>
      <trkpt lat="45.60566" lon="6.65867">
        <ele>1992.6</ele>
        <time>2022-01-01T09:00:05Z</time>
      </trkpt>
      <trkpt lat="45.60567" lon="6.65869">
        <ele>1993</ele>
        <time>2022-01-01T09:00:07Z</time>
      </trkpt>
      <trkpt lat="45.6057" lon="6.65873">
        <ele>1993.8</ele>
        <time>2022-01-01T09:00:12Z</time>
      </trkpt>
      <trkpt lat="45.60571" lon="6.65875">
        <ele>1994.2</ele>
        <time>2022-01-01T09:00:14Z</time>
      </trkpt>
      <trkpt lat="45.60576" lon="6.6588">
        <ele>1995.2</ele>
        <time>2022-01-01T09:00:21Z</time>
      </trkpt>
      <trkpt lat="45.60579" lon="6.65885">
        <ele>1996.2</ele>
        <time>2022-01-01T09:00:27Z</time>
      </trkpt>
      <trkpt lat="45.60585" lon="6.65889">
        <ele>1997.4</ele>
        <time>2022-01-01T09:00:34Z</time>
      </trkpt>
      <trkpt lat="45.60586" lon="6.6589">
        <ele>1997.8</ele>
        <time>2022-01-01T09:00:36Z</time>
      </trkpt>
      <trkpt lat="45.60588" lon="6.65893">
        <ele>1998.4</ele>
        <time>2022-01-01T09:00:39Z</time>
      </trkpt>
      <trkpt lat="45.60593" lon="6.65899">
        <ele>1999.8</ele>
        <time>2022-01-01T09:00:46Z</time>
      </trkpt>
      <trkpt lat="45.60594" lon="6.65899">
        <ele>2000.2</ele>
        <time>2022-01-01T09:00:47Z</time>
      </trkpt>
      <trkpt lat="45.60596" lon="6.65901">
        <ele>2001.2</ele>
        <time>2022-01-01T09:00:50Z</time>
      </trkpt>
      <trkpt lat="45.60598" lon="6.65903">
        <ele>2001.8</ele>
        <time>2022-01-01T09:00:53Z</time>
      </trkpt>
      <trkpt lat="45.606" lon="6.65905">
        <ele>2001.8</ele>
        <time>2022-01-01T09:00:55Z</time>
      </trkpt>
      <trkpt lat="45.606" lon="6.65905">
        <ele>2002.2</ele>
        <time>2022-01-01T09:00:56Z</time>
      </trkpt>
      <trkpt lat="45.60604" lon="6.6591">
        <ele>2003.2</ele>
        <time>2022-01-01T09:01:02Z</time>
      </trkpt>
      <trkpt lat="45.60606" lon="6.65912">
        <ele>2004.4</ele>
        <time>2022-01-01T09:01:06Z</time>
      </trkpt>
      <trkpt lat="45.60609" lon="6.65915">
        <ele>2005.4</ele>
        <time>2022-01-01T09:01:11Z</time>
      </trkpt>
      <trkpt lat="45.60609" lon="6.65915">
        <ele>2005.6</ele>
        <time>2022-01-01T09:01:12Z</time>
      </trkpt>
      <trkpt lat="45.6061" lon="6.65917">
        <ele>2006.6</ele>
        <time>2022-01-01T09:01:14Z</time>
      </trkpt>
      <trkpt lat="45.60613" lon="6.6592">
        <ele>2007.6</ele>
        <time>2022-01-01T09:01:19Z</time>
      </trkpt>
      <trkpt lat="45.60614" lon="6.6592">
        <ele>2007.8</ele>
        <time>2022-01-01T09:01:20Z</time>
      </trkpt>
      <trkpt lat="45.60615" lon="6.65923">
        <ele>2009.2</ele>
        <time>2022-01-01T09:01:24Z</time>
      </trkpt>
      <trkpt lat="45.60617" lon="6.65925">
        <ele>2010</ele>
        <time>2022-01-01T09:01:27Z</time>
      </trkpt>
      <trkpt lat="45.60618" lon="6.65926">
        <ele>2010.2</ele>
        <time>2022-01-01T09:01:28Z</time>
      </trkpt>
      <trkpt lat="45.6062" lon="6.65928">
        <ele>2011.2</ele>
        <time>2022-01-01T09:01:33Z</time>
      </trkpt>
      <trkpt lat="45.60621" lon="6.65928">
        <ele>2011.4</ele>
        <time>2022-01-01T09:01:34Z</time>
      </trkpt>
      <trkpt lat="45.60622" lon="6.6593">
        <ele>2012.4</ele>
        <time>2022-01-01T09:01:37Z</time>
      </trkpt>
      <trkpt lat="45.60624" lon="6.65931">
        <ele>2013.4</ele>
        <time>2022-01-01T09:01:41Z</time>
      </trkpt>
      <trkpt lat="45.60624" lon="6.65931">
        <ele>2013.8</ele>
        <time>2022-01-01T09:01:42Z</time>
      </trkpt>
      <trkpt lat="45.60625" lon="6.65931">
        <ele>2014.4</ele>
        <time>2022-01-01T09:01:44Z</time>
      </trkpt>
      <trkpt lat="45.60629" lon="6.65931">
        <ele>2015.6</ele>
        <time>2022-01-01T09:01:48Z</time>
      </trkpt>
      <trkpt lat="45.60629" lon="6.65931">
        <ele>2015.8</ele>
        <time>2022-01-01T09:01:49Z</time>
      </trkpt>
      <trkpt lat="45.60631" lon="6.65932">
        <ele>2016.6</ele>
        <time>2022-01-01T09:01:52Z</time>
      </trkpt>
      <trkpt lat="45.60634" lon="6.65933">
        <ele>2017.6</ele>
        <time>2022-01-01T09:01:56Z</time>
      </trkpt>
      <trkpt lat="45.60636" lon="6.65933">
        <ele>2018.2</ele>
        <time>2022-01-01T09:01:59Z</time>
      </trkpt>
      <trkpt lat="45.60637" lon="6.65933">
        <ele>2019</ele>
        <time>2022-01-01T09:02:01Z</time>
      </trkpt>
      <trkpt lat="45.6064" lon="6.65934">
        <ele>2020</ele>
        <time>2022-01-01T09:02:05Z</time>
      </trkpt>
      <trkpt lat="45.60642" lon="6.65935">
        <ele>2020.8</ele>
        <time>2022-01-01T09:02:08Z</time>
      </trkpt>
      <trkpt lat="45.60643" lon="6.65935">
        <ele>2021</ele>
        <time>2022-01-01T09:02:09Z</time>
      </trkpt>
      <trkpt lat="45.60646" lon="6.65935">
        <ele>2022.2</ele>
        <time>2022-01-01T09:02:14Z</time>
      </trkpt>
      <trkpt lat="45.60646" lon="6.65936">
        <ele>2022.4</ele>
        <time>2022-01-01T09:02:15Z</time>
      </trkpt>
      <trkpt lat="45.60648" lon="6.65938">
        <ele>2023.2</ele>
        <time>2022-01-01T09:02:19Z</time>
      </trkpt>
      <trkpt lat="45.60651" lon="6.65938">
        <ele>2024.2</ele>
        <time>2022-01-01T09:02:23Z</time>
      </trkpt>
      <trkpt lat="45.60653" lon="6.65939">
        <ele>2025.2</ele>
        <time>2022-01-01T09:02:27Z</time>
      </trkpt>
      <trkpt lat="45.60654" lon="6.6594">
        <ele>2026</ele>
        <time>2022-01-01T09:02:29Z</time>
      </trkpt>
      <trkpt lat="45.60655" lon="6.6594">
        <ele>2026.4</ele>
        <time>2022-01-01T09:02:31Z</time>
      </trkpt>
      <trkpt lat="45.60657" lon="6.65941">
        <ele>2027.4</ele>
        <time>2022-01-01T09:02:36Z</time>
      </trkpt>
      <trkpt lat="45.60659" lon="6.65941">
        <ele>2027.8</ele>
        <time>2022-01-01T09:02:38Z</time>
      </trkpt>
      <trkpt lat="45.60662" lon="6.65942">
        <ele>2028.6</ele>
        <time>2022-01-01T09:02:42Z</time>
      </trkpt>
      <trkpt lat="45.60665" lon="6.65942">
        <ele>2029.6</ele>
        <time>2022-01-01T09:02:47Z</time>
      </trkpt>
      <trkpt lat="45.60667" lon="6.65942">
        <ele>2030.4</ele>
        <time>2022-01-01T09:02:51Z</time>
      </trkpt>
      <trkpt lat="45.60668" lon="6.65942">
        <ele>2030.8</ele>
        <time>2022-01-01T09:02:52Z</time>
      </trkpt>
      <trkpt lat="45.60672" lon="6.6594">
        <ele>2032</ele>
        <time>2022-01-01T09:02:57Z</time>
      </trkpt>
      <trkpt lat="45.60673" lon="6.65939">
        <ele>2032.4</ele>
        <time>2022-01-01T09:02:59Z</time>
      </trkpt>
      <trkpt lat="45.60674" lon="6.65938">
        <ele>2033</ele>
        <time>2022-01-01T09:03:02Z</time>
      </trkpt>
      <trkpt lat="45.60674" lon="6.65939">
        <ele>2033.2</ele>
        <time>2022-01-01T09:03:06Z</time>
      </trkpt>
      <trkpt lat="45.60676" lon="6.6594">
        <ele>2033.4</ele>
        <time>2022-01-01T09:03:25Z</time>
      </trkpt>
      <trkpt lat="45.60681" lon="6.65941">
        <ele>2034.2</ele>
        <time>2022-01-01T09:03:30Z</time>
      </trkpt>
      <trkpt lat="45.60685" lon="6.65942">
        <ele>2035</ele>
        <time>2022-01-01T09:03:34Z</time>
      </trkpt>
      <trkpt lat="45.60688" lon="6.65942">
        <ele>2035.4</ele>
        <time>2022-01-01T09:03:37Z</time>
      </trkpt>
      <trkpt lat="45.60696" lon="6.65943">
        <ele>2036.4</ele>
        <time>2022-01-01T09:03:45Z</time>
      </trkpt>
      <trkpt lat="45.60697" lon="6.65943">
        <ele>2036.8</ele>
        <time>2022-01-01T09:03:46Z</time>
      </trkpt>
      <trkpt lat="45.60701" lon="6.65941">
        <ele>2037.6</ele>
        <time>2022-01-01T09:03:51Z</time>
      </trkpt>
      <trkpt lat="45.60705" lon="6.6594">
        <ele>2038.2</ele>
        <time>2022-01-01T09:03:55Z</time>
      </trkpt>
      <trkpt lat="45.60709" lon="6.65938">
        <ele>2038.8</ele>
        <time>2022-01-01T09:03:59Z</time>
      </trkpt>
      <trkpt lat="45.60716" lon="6.65938">
        <ele>2039.8</ele>
        <time>2022-01-01T09:04:06Z</time>
      </trkpt>
      <trkpt lat="45.60719" lon="6.65937">
        <ele>2040.2</ele>
        <time>2022-01-01T09:04:09Z</time>
      </trkpt>
      <trkpt lat="45.60726" lon="6.65937">
        <ele>2040.8</ele>
        <time>2022-01-01T09:04:15Z</time>
      </trkpt>
      <trkpt lat="45.60728" lon="6.65937">
        <ele>2041</ele>
        <time>2022-01-01T09:04:17Z</time>
      </trkpt>
      <trkpt lat="45.60729" lon="6.65937">
        <ele>2041.2</ele>
        <time>2022-01-01T09:04:19Z</time>
      </trkpt>
      <trkpt lat="45.60733" lon="6.65938">
        <ele>2042</ele>
        <time>2022-01-01T09:04:23Z</time>
      </trkpt>
      <trkpt lat="45.60738" lon="6.65939">
        <ele>2042.8</ele>
        <time>2022-01-01T09:04:28Z</time>
      </trkpt>
      <trkpt lat="45.60739" lon="6.65938">
        <ele>2043</ele>
        <time>2022-01-01T09:04:29Z</time>
      </trkpt>
      <trkpt lat="45.60745" lon="6.65939">
        <ele>2044.2</ele>
        <time>2022-01-01T09:04:36Z</time>
      </trkpt>
      <trkpt lat="45.60745" lon="6.65939">
        <ele>2044.6</ele>
        <time>2022-01-01T09:04:37Z</time>
      </trkpt>
      <trkpt lat="45.60748" lon="6.65939">
        <ele>2045.4</ele>
        <time>2022-01-01T09:04:40Z</time>
      </trkpt>
      <trkpt lat="45.60753" lon="6.65938">
        <ele>2046.4</ele>
        <time>2022-01-01T09:04:46Z</time>
      </trkpt>
      <trkpt lat="45.60755" lon="6.65938">
        <ele>2046.6</ele>
        <time>2022-01-01T09:04:47Z</time>
      </trkpt>
      <trkpt lat="45.60761" lon="6.65938">
        <ele>2047.4</ele>
        <time>2022-01-01T09:04:54Z</time>
      </trkpt>
      <trkpt lat="45.60763" lon="6.65938">
        <ele>2048</ele>
        <time>2022-01-01T09:04:57Z</time>
      </trkpt>
      <trkpt lat="45.60765" lon="6.65937">
        <ele>2048.4</ele>
        <time>2022-01-01T09:04:58Z</time>
      </trkpt>
      <trkpt lat="45.60765" lon="6.65936">
        <ele>2048.6</ele>
        <time>2022-01-01T09:04:59Z</time>
      </trkpt>
      <trkpt lat="45.60769" lon="6.65934">
        <ele>2049.8</ele>
        <time>2022-01-01T09:05:05Z</time>
      </trkpt>
      <trkpt lat="45.60772" lon="6.65931">
        <ele>2051</ele>
        <time>2022-01-01T09:05:09Z</time>
      </trkpt>
      <trkpt lat="45.60775" lon="6.65929">
        <ele>2052.2</ele>
        <time>2022-01-01T09:05:13Z</time>
      </trkpt>
      <trkpt lat="45.60777" lon="6.65928">
        <ele>2053</ele>
        <time>2022-01-01T09:05:16Z</time>
      </trkpt>
      <trkpt lat="45.60778" lon="6.65927">
        <ele>2053.4</ele>
        <time>2022-01-01T09:05:18Z</time>
      </trkpt>
      <trkpt lat="45.60781" lon="6.65925">
        <ele>2054.4</ele>
        <time>2022-01-01T09:05:22Z</time>
      </trkpt>
      <trkpt lat="45.60784" lon="6.65922">
        <ele>2055.6</ele>
        <time>2022-01-01T09:05:27Z</time>
      </trkpt>
      <trkpt lat="45.60787" lon="6.65921">
        <ele>2056.6</ele>
        <time>2022-01-01T09:05:31Z</time>
      </trkpt>
      <trkpt lat="45.6079" lon="6.65921">
        <ele>2057.8</ele>
        <time>2022-01-01T09:05:35Z</time>
      </trkpt>
      <trkpt lat="45.60792" lon="6.65921">
        <ele>2058.2</ele>
        <time>2022-01-01T09:05:38Z</time>
      </trkpt>
      <trkpt lat="45.60794" lon="6.65921">
        <ele>2058.8</ele>
        <time>2022-01-01T09:05:41Z</time>
      </trkpt>
      <trkpt lat="45.60798" lon="6.65921">
        <ele>2060</ele>
        <time>2022-01-01T09:05:46Z</time>
      </trkpt>
      <trkpt lat="45.608" lon="6.65921">
        <ele>2060.6</ele>
        <time>2022-01-01T09:05:50Z</time>
      </trkpt>
      <trkpt lat="45.60802" lon="6.65921">
        <ele>2060.8</ele>
        <time>2022-01-01T09:05:51Z</time>
      </trkpt>
      <trkpt lat="45.60804" lon="6.65921">
        <ele>2061</ele>
        <time>2022-01-01T09:05:53Z</time>
      </trkpt>
      <trkpt lat="45.60808" lon="6.65921">
        <ele>2062.2</ele>
        <time>2022-01-01T09:05:58Z</time>
      </trkpt>
      <trkpt lat="45.60809" lon="6.65922">
        <ele>2062.4</ele>
        <time>2022-01-01T09:05:59Z</time>
      </trkpt>
      <trkpt lat="45.60813" lon="6.65923">
        <ele>2063.2</ele>
        <time>2022-01-01T09:06:04Z</time>
      </trkpt>
      <trkpt lat="45.60816" lon="6.65922">
        <ele>2064.2</ele>
        <time>2022-01-01T09:06:08Z</time>
      </trkpt>
      <trkpt lat="45.60817" lon="6.65921">
        <ele>2064.4</ele>
        <time>2022-01-01T09:06:09Z</time>
      </trkpt>
      <trkpt lat="45.60822" lon="6.6592">
        <ele>2065.6</ele>
        <time>2022-01-01T09:06:14Z</time>
      </trkpt>
      <trkpt lat="45.60827" lon="6.6592">
        <ele>2066.8</ele>
        <time>2022-01-01T09:06:20Z</time>
      </trkpt>
      <trkpt lat="45.60827" lon="6.6592">
        <ele>2067</ele>
        <time>2022-01-01T09:06:21Z</time>
      </trkpt>
      <trkpt lat="45.60831" lon="6.65919">
        <ele>2067.8</ele>
        <time>2022-01-01T09:06:26Z</time>
      </trkpt>
      <trkpt lat="45.60836" lon="6.65919">
        <ele>2069</ele>
        <time>2022-01-01T09:06:31Z</time>
      </trkpt>
      <trkpt lat="45.60838" lon="6.65919">
        <ele>2069.8</ele>
        <time>2022-01-01T09:06:34Z</time>
      </trkpt>
      <trkpt lat="45.60839" lon="6.65919">
        <ele>2070.2</ele>
        <time>2022-01-01T09:06:36Z</time>
      </trkpt>
      <trkpt lat="45.60843" lon="6.65918">
        <ele>2071.4</ele>
        <time>2022-01-01T09:06:41Z</time>
      </trkpt>
      <trkpt lat="45.60845" lon="6.65918">
        <ele>2072.8</ele>
        <time>2022-01-01T09:06:45Z</time>
      </trkpt>
      <trkpt lat="45.60849" lon="6.65917">
        <ele>2073.8</ele>
        <time>2022-01-01T09:06:51Z</time>
      </trkpt>
      <trkpt lat="45.6085" lon="6.65916">
        <ele>2074.6</ele>
        <time>2022-01-01T09:06:54Z</time>
      </trkpt>
      <trkpt lat="45.60853" lon="6.65917">
        <ele>2075</ele>
        <time>2022-01-01T09:06:56Z</time>
      </trkpt>
      <trkpt lat="45.60857" lon="6.65917">
        <ele>2076.2</ele>
        <time>2022-01-01T09:07:01Z</time>
      </trkpt>
      <trkpt lat="45.60859" lon="6.65917">
        <ele>2076.8</ele>
        <time>2022-01-01T09:07:04Z</time>
      </trkpt>
      <trkpt lat="45.60862" lon="6.65918">
        <ele>2077.4</ele>
        <time>2022-01-01T09:07:07Z</time>
      </trkpt>
      <trkpt lat="45.60865" lon="6.65918">
        <ele>2078.2</ele>
        <time>2022-01-01T09:07:11Z</time>
      </trkpt>
      <trkpt lat="45.60867" lon="6.65918">
        <ele>2078.6</ele>
        <time>2022-01-01T09:07:13Z</time>
      </trkpt>
      <trkpt lat="45.60871" lon="6.65918">
        <ele>2079.8</ele>
        <time>2022-01-01T09:07:18Z</time>
      </trkpt>
      <trkpt lat="45.60873" lon="6.65919">
        <ele>2080.4</ele>
        <time>2022-01-01T09:07:21Z</time>
      </trkpt>
      <trkpt lat="45.60875" lon="6.6592">
        <ele>2081</ele>
        <time>2022-01-01T09:07:23Z</time>
      </trkpt>
      <trkpt lat="45.60878" lon="6.6592">
        <ele>2082.2</ele>
        <time>2022-01-01T09:07:27Z</time>
      </trkpt>
      <trkpt lat="45.60881" lon="6.6592">
        <ele>2082.8</ele>
        <time>2022-01-01T09:07:30Z</time>
      </trkpt>
      <trkpt lat="45.60883" lon="6.65919">
        <ele>2083.2</ele>
        <time>2022-01-01T09:07:32Z</time>
      </trkpt>
      <trkpt lat="45.60886" lon="6.6592">
        <ele>2084.2</ele>
        <time>2022-01-01T09:07:37Z</time>
      </trkpt>
      <trkpt lat="45.60889" lon="6.6592">
        <ele>2085</ele>
        <time>2022-01-01T09:07:40Z</time>
      </trkpt>
      <trkpt lat="45.60891" lon="6.6592">
        <ele>2085.4</ele>
        <time>2022-01-01T09:07:43Z</time>
      </trkpt>
      <trkpt lat="45.60895" lon="6.6592">
        <ele>2086.2</ele>
        <time>2022-01-01T09:07:47Z</time>
      </trkpt>
      <trkpt lat="45.60895" lon="6.6592">
        <ele>2086.4</ele>
        <time>2022-01-01T09:07:48Z</time>
      </trkpt>
      <trkpt lat="45.60901" lon="6.65923">
        <ele>2087.6</ele>
        <time>2022-01-01T09:07:54Z</time>
      </trkpt>
      <trkpt lat="45.60904" lon="6.65925">
        <ele>2088.6</ele>
        <time>2022-01-01T09:07:59Z</time>
      </trkpt>
      <trkpt lat="45.60905" lon="6.65925">
        <ele>2089</ele>
        <time>2022-01-01T09:08:00Z</time>
      </trkpt>
      <trkpt lat="45.6091" lon="6.65925">
        <ele>2090</ele>
        <time>2022-01-01T09:08:06Z</time>
      </trkpt>
      <trkpt lat="45.6091" lon="6.65925">
        <ele>2090.6</ele>
        <time>2022-01-01T09:08:07Z</time>
      </trkpt>
      <trkpt lat="45.60912" lon="6.65925">
        <ele>2091</ele>
        <time>2022-01-01T09:08:09Z</time>
      </trkpt>
      <trkpt lat="45.60917" lon="6.65926">
        <ele>2092.2</ele>
        <time>2022-01-01T09:08:14Z</time>
      </trkpt>
      <trkpt lat="45.6092" lon="6.65926">
        <ele>2093.2</ele>
        <time>2022-01-01T09:08:19Z</time>
      </trkpt>
      <trkpt lat="45.60923" lon="6.65926">
        <ele>2094.4</ele>
        <time>2022-01-01T09:08:23Z</time>
      </trkpt>
      <trkpt lat="45.60927" lon="6.65925">
        <ele>2095.4</ele>
        <time>2022-01-01T09:08:28Z</time>
      </trkpt>
      <trkpt lat="45.60928" lon="6.65925">
        <ele>2095.8</ele>
        <time>2022-01-01T09:08:29Z</time>
      </trkpt>
      <trkpt lat="45.6093" lon="6.65927">
        <ele>2096.4</ele>
        <time>2022-01-01T09:08:32Z</time>
      </trkpt>
      <trkpt lat="45.60932" lon="6.65929">
        <ele>2096.6</ele>
        <time>2022-01-01T09:08:34Z</time>
      </trkpt>
      <trkpt lat="45.60934" lon="6.65932">
        <ele>2097</ele>
        <time>2022-01-01T09:08:37Z</time>
      </trkpt>
      <trkpt lat="45.60938" lon="6.65935">
        <ele>2097.6</ele>
        <time>2022-01-01T09:08:42Z</time>
      </trkpt>
      <trkpt lat="45.60939" lon="6.65935">
        <ele>2098.2</ele>
        <time>2022-01-01T09:08:44Z</time>
      </trkpt>
      <trkpt lat="45.60941" lon="6.65935">
        <ele>2098.6</ele>
        <time>2022-01-01T09:08:46Z</time>
      </trkpt>
      <trkpt lat="45.60942" lon="6.65936">
        <ele>2098.6</ele>
        <time>2022-01-01T09:08:48Z</time>
      </trkpt>
      <trkpt lat="45.60944" lon="6.65938">
        <ele>2098.8</ele>
        <time>2022-01-01T09:08:50Z</time>
      </trkpt>
      <trkpt lat="45.60944" lon="6.65939">
        <ele>2098.8</ele>
        <time>2022-01-01T09:08:51Z</time>
      </trkpt>
      <trkpt lat="45.6095" lon="6.6595">
        <ele>2098.6</ele>
        <time>2022-01-01T09:08:59Z</time>
      </trkpt>
      <trkpt lat="45.60957" lon="6.65955">
        <ele>2099.6</ele>
        <time>2022-01-01T09:09:07Z</time>
      </trkpt>
      <trkpt lat="45.60957" lon="6.65956">
        <ele>2099.8</ele>
        <time>2022-01-01T09:09:08Z</time>
      </trkpt>
      <trkpt lat="45.60963" lon="6.65958">
        <ele>2101</ele>
        <time>2022-01-01T09:09:15Z</time>
      </trkpt>
      <trkpt lat="45.60964" lon="6.65958">
        <ele>2101.4</ele>
        <time>2022-01-01T09:09:16Z</time>
      </trkpt>
      <trkpt lat="45.60967" lon="6.6596">
        <ele>2102.2</ele>
        <time>2022-01-01T09:09:20Z</time>
      </trkpt>
      <trkpt lat="45.60969" lon="6.65961">
        <ele>2102.6</ele>
        <time>2022-01-01T09:09:22Z</time>
      </trkpt>
      <trkpt lat="45.60972" lon="6.65963">
        <ele>2103.4</ele>
        <time>2022-01-01T09:09:26Z</time>
      </trkpt>
      <trkpt lat="45.60975" lon="6.65967">
        <ele>2104.4</ele>
        <time>2022-01-01T09:09:31Z</time>
      </trkpt>
      <trkpt lat="45.60976" lon="6.65969">
        <ele>2105</ele>
        <time>2022-01-01T09:09:33Z</time>
      </trkpt>
      <trkpt lat="45.60977" lon="6.65972">
        <ele>2105.4</ele>
        <time>2022-01-01T09:09:36Z</time>
      </trkpt>
      <trkpt lat="45.60978" lon="6.65979">
        <ele>2105.8</ele>
        <time>2022-01-01T09:09:41Z</time>
      </trkpt>
      <trkpt lat="45.60979" lon="6.65981">
        <ele>2106</ele>
        <time>2022-01-01T09:09:43Z</time>
      </trkpt>
      <trkpt lat="45.60979" lon="6.65983">
        <ele>2106</ele>
        <time>2022-01-01T09:09:44Z</time>
      </trkpt>
      <trkpt lat="45.6098" lon="6.65986">
        <ele>2106.4</ele>
        <time>2022-01-01T09:09:47Z</time>
      </trkpt>
      <trkpt lat="45.60981" lon="6.65988">
        <ele>2106.8</ele>
        <time>2022-01-01T09:09:49Z</time>
      </trkpt>
      <trkpt lat="45.60982" lon="6.6599">
        <ele>2107.2</ele>
        <time>2022-01-01T09:09:51Z</time>
      </trkpt>
      <trkpt lat="45.60982" lon="6.65991">
        <ele>2107.6</ele>
        <time>2022-01-01T09:09:52Z</time>
      </trkpt>
      <trkpt lat="45.60985" lon="6.65997">
        <ele>2109</ele>
        <time>2022-01-01T09:09:57Z</time>
      </trkpt>
      <trkpt lat="45.60985" lon="6.65998">
        <ele>2109.2</ele>
        <time>2022-01-01T09:09:58Z</time>
      </trkpt>
      <trkpt lat="45.60986" lon="6.66003">
        <ele>2110</ele>
        <time>2022-01-01T09:10:02Z</time>
      </trkpt>
      <trkpt lat="45.60988" lon="6.66007">
        <ele>2111</ele>
        <time>2022-01-01T09:10:07Z</time>
      </trkpt>
      <trkpt lat="45.60991" lon="6.66012">
        <ele>2112</ele>
        <time>2022-01-01T09:10:13Z</time>
      </trkpt>
      <trkpt lat="45.60992" lon="6.66014">
        <ele>2112.4</ele>
        <time>2022-01-01T09:10:15Z</time>
      </trkpt>
      <trkpt lat="45.60994" lon="6.66017">
        <ele>2113.2</ele>
        <time>2022-01-01T09:10:18Z</time>
      </trkpt>
      <trkpt lat="45.60996" lon="6.66021">
        <ele>2114.4</ele>
        <time>2022-01-01T09:10:23Z</time>
      </trkpt>
      <trkpt lat="45.60998" lon="6.66027">
        <ele>2115.4</ele>
        <time>2022-01-01T09:10:29Z</time>
      </trkpt>
      <trkpt lat="45.60998" lon="6.66029">
        <ele>2115.8</ele>
        <time>2022-01-01T09:10:31Z</time>
      </trkpt>
      <trkpt lat="45.60999" lon="6.66031">
        <ele>2116.6</ele>
        <time>2022-01-01T09:10:33Z</time>
      </trkpt>
      <trkpt lat="45.61" lon="6.66035">
        <ele>2117.6</ele>
        <time>2022-01-01T09:10:37Z</time>
      </trkpt>
      <trkpt lat="45.61001" lon="6.66037">
        <ele>2118.2</ele>
        <time>2022-01-01T09:10:39Z</time>
      </trkpt>
      <trkpt lat="45.61002" lon="6.66041">
        <ele>2118.8</ele>
        <time>2022-01-01T09:10:42Z</time>
      </trkpt>
      <trkpt lat="45.61001" lon="6.66046">
        <ele>2119.6</ele>
        <time>2022-01-01T09:10:47Z</time>
      </trkpt>
      <trkpt lat="45.61001" lon="6.66047">
        <ele>2119.8</ele>
        <time>2022-01-01T09:10:48Z</time>
      </trkpt>
      <trkpt lat="45.61001" lon="6.66052">
        <ele>2121</ele>
        <time>2022-01-01T09:10:53Z</time>
      </trkpt>
      <trkpt lat="45.61002" lon="6.66053">
        <ele>2121.6</ele>
        <time>2022-01-01T09:10:55Z</time>
      </trkpt>
      <trkpt lat="45.61002" lon="6.66054">
        <ele>2122.2</ele>
        <time>2022-01-01T09:10:57Z</time>
      </trkpt>
      <trkpt lat="45.61004" lon="6.66054">
        <ele>2123.4</ele>
        <time>2022-01-01T09:11:00Z</time>
      </trkpt>
      <trkpt lat="45.61006" lon="6.66055">
        <ele>2124</ele>
        <time>2022-01-01T09:11:02Z</time>
      </trkpt>
      <trkpt lat="45.61007" lon="6.66055">
        <ele>2124.4</ele>
        <time>2022-01-01T09:11:04Z</time>
      </trkpt>
      <trkpt lat="45.61011" lon="6.66055">
        <ele>2125.6</ele>
        <time>2022-01-01T09:11:09Z</time>
      </trkpt>
      <trkpt lat="45.61014" lon="6.66056">
        <ele>2126.6</ele>
        <time>2022-01-01T09:11:14Z</time>
      </trkpt>
      <trkpt lat="45.61015" lon="6.66057">
        <ele>2127</ele>
        <time>2022-01-01T09:11:16Z</time>
      </trkpt>
      <trkpt lat="45.61018" lon="6.66057">
        <ele>2127.6</ele>
        <time>2022-01-01T09:11:20Z</time>
      </trkpt>
      <trkpt lat="45.61019" lon="6.66057">
        <ele>2128.2</ele>
        <time>2022-01-01T09:11:22Z</time>
      </trkpt>
      <trkpt lat="45.61021" lon="6.66058">
        <ele>2128.8</ele>
        <time>2022-01-01T09:11:24Z</time>
      </trkpt>
      <trkpt lat="45.61024" lon="6.66058">
        <ele>2130</ele>
        <time>2022-01-01T09:11:29Z</time>
      </trkpt>
      <trkpt lat="45.61026" lon="6.66058">
        <ele>2130.6</ele>
        <time>2022-01-01T09:11:31Z</time>
      </trkpt>
      <trkpt lat="45.61028" lon="6.66058">
        <ele>2131.2</ele>
        <time>2022-01-01T09:11:34Z</time>
      </trkpt>
      <trkpt lat="45.61028" lon="6.66058">
        <ele>2131.6</ele>
        <time>2022-01-01T09:11:35Z</time>
      </trkpt>
      <trkpt lat="45.6103" lon="6.66057">
        <ele>2132.4</ele>
        <time>2022-01-01T09:11:38Z</time>
      </trkpt>
      <trkpt lat="45.61033" lon="6.66057">
        <ele>2133.4</ele>
        <time>2022-01-01T09:11:43Z</time>
      </trkpt>
      <trkpt lat="45.61035" lon="6.66055">
        <ele>2134.6</ele>
        <time>2022-01-01T09:11:47Z</time>
      </trkpt>
      <trkpt lat="45.61037" lon="6.66055">
        <ele>2135</ele>
        <time>2022-01-01T09:11:49Z</time>
      </trkpt>
      <trkpt lat="45.61039" lon="6.66054">
        <ele>2135.6</ele>
        <time>2022-01-01T09:11:52Z</time>
      </trkpt>
      <trkpt lat="45.61042" lon="6.66052">
        <ele>2136.8</ele>
        <time>2022-01-01T09:11:57Z</time>
      </trkpt>
      <trkpt lat="45.61043" lon="6.66052">
        <ele>2137.2</ele>
        <time>2022-01-01T09:11:59Z</time>
      </trkpt>
      <trkpt lat="45.61044" lon="6.66051">
        <ele>2137.2</ele>
        <time>2022-01-01T09:12:00Z</time>
      </trkpt>
      <trkpt lat="45.61045" lon="6.66051">
        <ele>2137.8</ele>
        <time>2022-01-01T09:12:02Z</time>
      </trkpt>
      <trkpt lat="45.61046" lon="6.66051">
        <ele>2138.4</ele>
        <time>2022-01-01T09:12:05Z</time>
      </trkpt>
      <trkpt lat="45.61048" lon="6.6605">
        <ele>2138.8</ele>
        <time>2022-01-01T09:12:08Z</time>
      </trkpt>
      <trkpt lat="45.61049" lon="6.66049">
        <ele>2139.4</ele>
        <time>2022-01-01T09:12:10Z</time>
      </trkpt>
      <trkpt lat="45.6105" lon="6.66049">
        <ele>2139.6</ele>
        <time>2022-01-01T09:12:11Z</time>
      </trkpt>
      <trkpt lat="45.61052" lon="6.66048">
        <ele>2140</ele>
        <time>2022-01-01T09:12:13Z</time>
      </trkpt>
      <trkpt lat="45.61054" lon="6.66046">
        <ele>2141</ele>
        <time>2022-01-01T09:12:17Z</time>
      </trkpt>
      <trkpt lat="45.61055" lon="6.66046">
        <ele>2141</ele>
        <time>2022-01-01T09:12:18Z</time>
      </trkpt>
      <trkpt lat="45.61057" lon="6.66044">
        <ele>2142</ele>
        <time>2022-01-01T09:12:22Z</time>
      </trkpt>
      <trkpt lat="45.61058" lon="6.66044">
        <ele>2142.4</ele>
        <time>2022-01-01T09:12:23Z</time>
      </trkpt>
      <trkpt lat="45.61061" lon="6.66044">
        <ele>2142.8</ele>
        <time>2022-01-01T09:12:26Z</time>
      </trkpt>
      <trkpt lat="45.61061" lon="6.66045">
        <ele>2143</ele>
        <time>2022-01-01T09:12:27Z</time>
      </trkpt>
      <trkpt lat="45.61062" lon="6.66045">
        <ele>2143.4</ele>
        <time>2022-01-01T09:12:28Z</time>
      </trkpt>
      <trkpt lat="45.61064" lon="6.66046">
        <ele>2143.8</ele>
        <time>2022-01-01T09:12:30Z</time>
      </trkpt>
      <trkpt lat="45.61067" lon="6.66047">
        <ele>2144.8</ele>
        <time>2022-01-01T09:12:34Z</time>
      </trkpt>
      <trkpt lat="45.61069" lon="6.66048">
        <ele>2145.6</ele>
        <time>2022-01-01T09:12:37Z</time>
      </trkpt>
      <trkpt lat="45.61069" lon="6.66048">
        <ele>2145.8</ele>
        <time>2022-01-01T09:12:38Z</time>
      </trkpt>
      <trkpt lat="45.61071" lon="6.66047">
        <ele>2146.4</ele>
        <time>2022-01-01T09:12:40Z</time>
      </trkpt>
      <trkpt lat="45.61073" lon="6.66048">
        <ele>2147</ele>
        <time>2022-01-01T09:12:43Z</time>
      </trkpt>
      <trkpt lat="45.61076" lon="6.66049">
        <ele>2148.2</ele>
        <time>2022-01-01T09:12:48Z</time>
      </trkpt>
      <trkpt lat="45.61078" lon="6.6605">
        <ele>2149.2</ele>
        <time>2022-01-01T09:12:52Z</time>
      </trkpt>
      <trkpt lat="45.61079" lon="6.6605">
        <ele>2149.4</ele>
        <time>2022-01-01T09:12:54Z</time>
      </trkpt>
      <trkpt lat="45.61081" lon="6.6605">
        <ele>2150.4</ele>
        <time>2022-01-01T09:12:57Z</time>
      </trkpt>
      <trkpt lat="45.61083" lon="6.66051">
        <ele>2151.6</ele>
        <time>2022-01-01T09:13:01Z</time>
      </trkpt>
      <trkpt lat="45.61084" lon="6.66052">
        <ele>2151.8</ele>
        <time>2022-01-01T09:13:02Z</time>
      </trkpt>
      <trkpt lat="45.61087" lon="6.66052">
        <ele>2152.6</ele>
        <time>2022-01-01T09:13:06Z</time>
      </trkpt>
      <trkpt lat="45.6109" lon="6.66051">
        <ele>2153.8</ele>
        <time>2022-01-01T09:13:10Z</time>
      </trkpt>
      <trkpt lat="45.61096" lon="6.6605">
        <ele>2155</ele>
        <time>2022-01-01T09:13:17Z</time>
      </trkpt>
      <trkpt lat="45.61097" lon="6.6605">
        <ele>2155.6</ele>
        <time>2022-01-01T09:13:19Z</time>
      </trkpt>
      <trkpt lat="45.61099" lon="6.6605">
        <ele>2156</ele>
        <time>2022-01-01T09:13:21Z</time>
      </trkpt>
      <trkpt lat="45.61102" lon="6.6605">
        <ele>2157</ele>
        <time>2022-01-01T09:13:25Z</time>
      </trkpt>
      <trkpt lat="45.61103" lon="6.66049">
        <ele>2157.6</ele>
        <time>2022-01-01T09:13:27Z</time>
      </trkpt>
      <trkpt lat="45.61106" lon="6.6605">
        <ele>2158.2</ele>
        <time>2022-01-01T09:13:30Z</time>
      </trkpt>
      <trkpt lat="45.61108" lon="6.6605">
        <ele>2159</ele>
        <time>2022-01-01T09:13:33Z</time>
      </trkpt>
      <trkpt lat="45.61109" lon="6.66051">
        <ele>2159.2</ele>
        <time>2022-01-01T09:13:34Z</time>
      </trkpt>
      <trkpt lat="45.61113" lon="6.66051">
        <ele>2160.4</ele>
        <time>2022-01-01T09:13:39Z</time>
      </trkpt>
      <trkpt lat="45.61114" lon="6.66051">
        <ele>2160.4</ele>
        <time>2022-01-01T09:13:40Z</time>
      </trkpt>
      <trkpt lat="45.61118" lon="6.6605">
        <ele>2161.6</ele>
        <time>2022-01-01T09:13:45Z</time>
      </trkpt>
      <trkpt lat="45.6112" lon="6.66049">
        <ele>2162.6</ele>
        <time>2022-01-01T09:13:49Z</time>
      </trkpt>
      <trkpt lat="45.61123" lon="6.66049">
        <ele>2163.6</ele>
        <time>2022-01-01T09:13:54Z</time>
      </trkpt>
      <trkpt lat="45.61126" lon="6.6605">
        <ele>2164.6</ele>
        <time>2022-01-01T09:13:58Z</time>
      </trkpt>
      <trkpt lat="45.61129" lon="6.6605">
        <ele>2165.6</ele>
        <time>2022-01-01T09:14:02Z</time>
      </trkpt>
      <trkpt lat="45.61129" lon="6.66051">
        <ele>2165.8</ele>
        <time>2022-01-01T09:14:03Z</time>
      </trkpt>
      <trkpt lat="45.61132" lon="6.66051">
        <ele>2166.8</ele>
        <time>2022-01-01T09:14:07Z</time>
      </trkpt>
      <trkpt lat="45.61137" lon="6.66051">
        <ele>2168.2</ele>
        <time>2022-01-01T09:14:13Z</time>
      </trkpt>
      <trkpt lat="45.61137" lon="6.66051">
        <ele>2168.4</ele>
        <time>2022-01-01T09:14:14Z</time>
      </trkpt>
      <trkpt lat="45.61139" lon="6.66052">
        <ele>2169.4</ele>
        <time>2022-01-01T09:14:17Z</time>
      </trkpt>
      <trkpt lat="45.61141" lon="6.66051">
        <ele>2170.2</ele>
        <time>2022-01-01T09:14:21Z</time>
      </trkpt>
      <trkpt lat="45.61142" lon="6.66051">
        <ele>2170.4</ele>
        <time>2022-01-01T09:14:22Z</time>
      </trkpt>
      <trkpt lat="45.61145" lon="6.66052">
        <ele>2171.6</ele>
        <time>2022-01-01T09:14:27Z</time>
      </trkpt>
      <trkpt lat="45.61148" lon="6.66052">
        <ele>2172.6</ele>
        <time>2022-01-01T09:14:32Z</time>
      </trkpt>
      <trkpt lat="45.61151" lon="6.66053">
        <ele>2174</ele>
        <time>2022-01-01T09:14:36Z</time>
      </trkpt>
      <trkpt lat="45.61155" lon="6.66053">
        <ele>2175</ele>
        <time>2022-01-01T09:14:41Z</time>
      </trkpt>
      <trkpt lat="45.61158" lon="6.66053">
        <ele>2176</ele>
        <time>2022-01-01T09:14:45Z</time>
      </trkpt>
      <trkpt lat="45.61159" lon="6.66054">
        <ele>2176.6</ele>
        <time>2022-01-01T09:14:47Z</time>
      </trkpt>
      <trkpt lat="45.61161" lon="6.66054">
        <ele>2177.2</ele>
        <time>2022-01-01T09:14:50Z</time>
      </trkpt>
      <trkpt lat="45.61165" lon="6.66053">
        <ele>2178.2</ele>
        <time>2022-01-01T09:14:55Z</time>
      </trkpt>
      <trkpt lat="45.61168" lon="6.66052">
        <ele>2179</ele>
        <time>2022-01-01T09:14:59Z</time>
      </trkpt>
      <trkpt lat="45.61169" lon="6.66052">
        <ele>2179.2</ele>
        <time>2022-01-01T09:15:00Z</time>
      </trkpt>
      <trkpt lat="45.61174" lon="6.66051">
        <ele>2180.4</ele>
        <time>2022-01-01T09:15:05Z</time>
      </trkpt>
      <trkpt lat="45.61179" lon="6.66051">
        <ele>2181.4</ele>
        <time>2022-01-01T09:15:11Z</time>
      </trkpt>
      <trkpt lat="45.61185" lon="6.66051">
        <ele>2182.6</ele>
        <time>2022-01-01T09:15:18Z</time>
      </trkpt>
      <trkpt lat="45.61186" lon="6.66051">
        <ele>2182.8</ele>
        <time>2022-01-01T09:15:19Z</time>
      </trkpt>
      <trkpt lat="45.6119" lon="6.66052">
        <ele>2183.8</ele>
        <time>2022-01-01T09:15:23Z</time>
      </trkpt>
      <trkpt lat="45.61191" lon="6.66052">
        <ele>2184.2</ele>
        <time>2022-01-01T09:15:25Z</time>
      </trkpt>
      <trkpt lat="45.61193" lon="6.66052">
        <ele>2185</ele>
        <time>2022-01-01T09:15:28Z</time>
      </trkpt>
      <trkpt lat="45.61197" lon="6.66053">
        <ele>2186.2</ele>
        <time>2022-01-01T09:15:33Z</time>
      </trkpt>
      <trkpt lat="45.612" lon="6.66055">
        <ele>2186.8</ele>
        <time>2022-01-01T09:15:36Z</time>
      </trkpt>
      <trkpt lat="45.61201" lon="6.66055">
        <ele>2187.2</ele>
        <time>2022-01-01T09:15:38Z</time>
      </trkpt>
      <trkpt lat="45.61204" lon="6.66055">
        <ele>2188.6</ele>
        <time>2022-01-01T09:15:41Z</time>
      </trkpt>
      <trkpt lat="45.61208" lon="6.66056">
        <ele>2189.8</ele>
        <time>2022-01-01T09:15:48Z</time>
      </trkpt>
      <trkpt lat="45.61209" lon="6.66056">
        <ele>2190</ele>
        <time>2022-01-01T09:15:49Z</time>
      </trkpt>
      <trkpt lat="45.61209" lon="6.66056">
        <ele>2191</ele>
        <time>2022-01-01T09:15:52Z</time>
      </trkpt>
      <trkpt lat="45.61213" lon="6.66058">
        <ele>2192</ele>
        <time>2022-01-01T09:15:56Z</time>
      </trkpt>
      <trkpt lat="45.61216" lon="6.66058">
        <ele>2193</ele>
        <time>2022-01-01T09:16:01Z</time>
      </trkpt>
      <trkpt lat="45.61219" lon="6.66058">
        <ele>2194.4</ele>
        <time>2022-01-01T09:16:05Z</time>
      </trkpt>
      <trkpt lat="45.61221" lon="6.66058">
        <ele>2195.4</ele>
        <time>2022-01-01T09:16:09Z</time>
      </trkpt>
      <trkpt lat="45.61225" lon="6.66058">
        <ele>2196.6</ele>
        <time>2022-01-01T09:16:15Z</time>
      </trkpt>
      <trkpt lat="45.61226" lon="6.66058">
        <ele>2196.8</ele>
        <time>2022-01-01T09:16:16Z</time>
      </trkpt>
      <trkpt lat="45.61229" lon="6.66058">
        <ele>2197.6</ele>
        <time>2022-01-01T09:16:19Z</time>
      </trkpt>
      <trkpt lat="45.61233" lon="6.66057">
        <ele>2198.6</ele>
        <time>2022-01-01T09:16:25Z</time>
      </trkpt>
      <trkpt lat="45.61243" lon="6.66055">
        <ele>2199.8</ele>
        <time>2022-01-01T09:16:34Z</time>
      </trkpt>
      <trkpt lat="45.61243" lon="6.66055">
        <ele>2200</ele>
        <time>2022-01-01T09:16:35Z</time>
      </trkpt>
      <trkpt lat="45.61248" lon="6.66054">
        <ele>2201</ele>
        <time>2022-01-01T09:16:40Z</time>
      </trkpt>
      <trkpt lat="45.61254" lon="6.66053">
        <ele>2201.8</ele>
        <time>2022-01-01T09:16:46Z</time>
      </trkpt>
      <trkpt lat="45.61262" lon="6.66052">
        <ele>2202.2</ele>
        <time>2022-01-01T09:16:53Z</time>
      </trkpt>
      <trkpt lat="45.61266" lon="6.66052">
        <ele>2202.4</ele>
        <time>2022-01-01T09:16:56Z</time>
      </trkpt>
      <trkpt lat="45.61274" lon="6.66052">
        <ele>2203</ele>
        <time>2022-01-01T09:17:04Z</time>
      </trkpt>
      <trkpt lat="45.61275" lon="6.66053">
        <ele>2203.4</ele>
        <time>2022-01-01T09:17:05Z</time>
      </trkpt>
      <trkpt lat="45.61281" lon="6.66057">
        <ele>2204.4</ele>
        <time>2022-01-01T09:17:12Z</time>
      </trkpt>
      <trkpt lat="45.61286" lon="6.6606">
        <ele>2205.6</ele>
        <time>2022-01-01T09:17:18Z</time>
      </trkpt>
      <trkpt lat="45.61287" lon="6.66061">
        <ele>2205.6</ele>
        <time>2022-01-01T09:17:19Z</time>
      </trkpt>
      <trkpt lat="45.61288" lon="6.66061">
        <ele>2205.8</ele>
        <time>2022-01-01T09:17:20Z</time>
      </trkpt>
      <trkpt lat="45.61291" lon="6.66064">
        <ele>2206.8</ele>
        <time>2022-01-01T09:17:24Z</time>
      </trkpt>
      <trkpt lat="45.61295" lon="6.66067">
        <ele>2207.4</ele>
        <time>2022-01-01T09:17:29Z</time>
      </trkpt>
      <trkpt lat="45.61296" lon="6.66069">
        <ele>2207.8</ele>
        <time>2022-01-01T09:17:31Z</time>
      </trkpt>
      <trkpt lat="45.61298" lon="6.6607">
        <ele>2208.2</ele>
        <time>2022-01-01T09:17:33Z</time>
      </trkpt>
      <trkpt lat="45.613" lon="6.66072">
        <ele>2208.8</ele>
        <time>2022-01-01T09:17:36Z</time>
      </trkpt>
      <trkpt lat="45.61301" lon="6.66072">
        <ele>2209</ele>
        <time>2022-01-01T09:17:37Z</time>
      </trkpt>
      <trkpt lat="45.61305" lon="6.66074">
        <ele>2210.2</ele>
        <time>2022-01-01T09:17:42Z</time>
      </trkpt>
      <trkpt lat="45.61307" lon="6.66075">
        <ele>2210.6</ele>
        <time>2022-01-01T09:17:44Z</time>
      </trkpt>
      <trkpt lat="45.61309" lon="6.66076">
        <ele>2211.2</ele>
        <time>2022-01-01T09:17:47Z</time>
      </trkpt>
      <trkpt lat="45.61314" lon="6.66078">
        <ele>2212.2</ele>
        <time>2022-01-01T09:17:52Z</time>
      </trkpt>
      <trkpt lat="45.61323" lon="6.66083">
        <ele>2212.8</ele>
        <time>2022-01-01T09:18:00Z</time>
      </trkpt>
      <trkpt lat="45.61328" lon="6.66086">
        <ele>2213.2</ele>
        <time>2022-01-01T09:18:05Z</time>
      </trkpt>
      <trkpt lat="45.61329" lon="6.66086">
        <ele>2213.4</ele>
        <time>2022-01-01T09:18:06Z</time>
      </trkpt>
      <trkpt lat="45.61332" lon="6.66087">
        <ele>2213.8</ele>
        <time>2022-01-01T09:18:09Z</time>
      </trkpt>
      <trkpt lat="45.61336" lon="6.66089">
        <ele>2214.6</ele>
        <time>2022-01-01T09:18:14Z</time>
      </trkpt>
      <trkpt lat="45.6134" lon="6.66092">
        <ele>2215.8</ele>
        <time>2022-01-01T09:18:19Z</time>
      </trkpt>
      <trkpt lat="45.61346" lon="6.66096">
        <ele>2216.8</ele>
        <time>2022-01-01T09:18:25Z</time>
      </trkpt>
      <trkpt lat="45.61347" lon="6.66097">
        <ele>2216.8</ele>
        <time>2022-01-01T09:18:26Z</time>
      </trkpt>
      <trkpt lat="45.61353" lon="6.66102">
        <ele>2217.8</ele>
        <time>2022-01-01T09:18:33Z</time>
      </trkpt>
      <trkpt lat="45.61354" lon="6.66102">
        <ele>2218</ele>
        <time>2022-01-01T09:18:34Z</time>
      </trkpt>
      <trkpt lat="45.61358" lon="6.66105">
        <ele>2219</ele>
        <time>2022-01-01T09:18:39Z</time>
      </trkpt>
      <trkpt lat="45.61359" lon="6.66106">
        <ele>2219.2</ele>
        <time>2022-01-01T09:18:40Z</time>
      </trkpt>
      <trkpt lat="45.61362" lon="6.66107">
        <ele>2219.6</ele>
        <time>2022-01-01T09:18:43Z</time>
      </trkpt>
      <trkpt lat="45.61365" lon="6.66109">
        <ele>2220</ele>
        <time>2022-01-01T09:18:45Z</time>
      </trkpt>
      <trkpt lat="45.6137" lon="6.66114">
        <ele>2221.2</ele>
        <time>2022-01-01T09:18:51Z</time>
      </trkpt>
      <trkpt lat="45.61373" lon="6.66117">
        <ele>2222.2</ele>
        <time>2022-01-01T09:18:57Z</time>
      </trkpt>
      <trkpt lat="45.61374" lon="6.66118">
        <ele>2222.6</ele>
        <time>2022-01-01T09:18:58Z</time>
      </trkpt>
      <trkpt lat="45.61376" lon="6.66119">
        <ele>2223.4</ele>
        <time>2022-01-01T09:19:01Z</time>
      </trkpt>
      <trkpt lat="45.6138" lon="6.66122">
        <ele>2224.4</ele>
        <time>2022-01-01T09:19:06Z</time>
      </trkpt>
      <trkpt lat="45.61382" lon="6.66123">
        <ele>2224.6</ele>
        <time>2022-01-01T09:19:08Z</time>
      </trkpt>
      <trkpt lat="45.61384" lon="6.66126">
        <ele>2225.4</ele>
        <time>2022-01-01T09:19:12Z</time>
      </trkpt>
      <trkpt lat="45.61389" lon="6.66128">
        <ele>2226.8</ele>
        <time>2022-01-01T09:19:17Z</time>
      </trkpt>
      <trkpt lat="45.61391" lon="6.6613">
        <ele>2227.8</ele>
        <time>2022-01-01T09:19:21Z</time>
      </trkpt>
      <trkpt lat="45.61392" lon="6.66131">
        <ele>2228</ele>
        <time>2022-01-01T09:19:22Z</time>
      </trkpt>
      <trkpt lat="45.61395" lon="6.66133">
        <ele>2229</ele>
        <time>2022-01-01T09:19:26Z</time>
      </trkpt>
      <trkpt lat="45.61399" lon="6.66135">
        <ele>2229.8</ele>
        <time>2022-01-01T09:19:30Z</time>
      </trkpt>
      <trkpt lat="45.614" lon="6.66136">
        <ele>2230.2</ele>
        <time>2022-01-01T09:19:31Z</time>
      </trkpt>
      <trkpt lat="45.61403" lon="6.66138">
        <ele>2231.4</ele>
        <time>2022-01-01T09:19:36Z</time>
      </trkpt>
      <trkpt lat="45.61405" lon="6.6614">
        <ele>2232.2</ele>
        <time>2022-01-01T09:19:39Z</time>
      </trkpt>
      <trkpt lat="45.61406" lon="6.6614">
        <ele>2232.4</ele>
        <time>2022-01-01T09:19:40Z</time>
      </trkpt>
      <trkpt lat="45.6141" lon="6.66143">
        <ele>2233.8</ele>
        <time>2022-01-01T09:19:45Z</time>
      </trkpt>
      <trkpt lat="45.61412" lon="6.66144">
        <ele>2235</ele>
        <time>2022-01-01T09:19:49Z</time>
      </trkpt>
      <trkpt lat="45.61416" lon="6.66146">
        <ele>2236.4</ele>
        <time>2022-01-01T09:19:54Z</time>
      </trkpt>
      <trkpt lat="45.61418" lon="6.66147">
        <ele>2237.6</ele>
        <time>2022-01-01T09:19:58Z</time>
      </trkpt>
      <trkpt lat="45.61422" lon="6.66148">
        <ele>2238.6</ele>
        <time>2022-01-01T09:20:03Z</time>
      </trkpt>
      <trkpt lat="45.61424" lon="6.66148">
        <ele>2239.2</ele>
        <time>2022-01-01T09:20:05Z</time>
      </trkpt>
      <trkpt lat="45.61425" lon="6.66148">
        <ele>2239.8</ele>
        <time>2022-01-01T09:20:07Z</time>
      </trkpt>
      <trkpt lat="45.61427" lon="6.66146">
        <ele>2240.8</ele>
        <time>2022-01-01T09:20:11Z</time>
      </trkpt>
      <trkpt lat="45.61428" lon="6.66144">
        <ele>2241.4</ele>
        <time>2022-01-01T09:20:13Z</time>
      </trkpt>
      <trkpt lat="45.6143" lon="6.66141">
        <ele>2242</ele>
        <time>2022-01-01T09:20:16Z</time>
      </trkpt>
      <trkpt lat="45.61434" lon="6.66137">
        <ele>2242.6</ele>
        <time>2022-01-01T09:20:21Z</time>
      </trkpt>
      <trkpt lat="45.61436" lon="6.66135">
        <ele>2243</ele>
        <time>2022-01-01T09:20:24Z</time>
      </trkpt>
      <trkpt lat="45.61438" lon="6.66133">
        <ele>2244</ele>
        <time>2022-01-01T09:20:27Z</time>
      </trkpt>
      <trkpt lat="45.61439" lon="6.66131">
        <ele>2245.2</ele>
        <time>2022-01-01T09:20:30Z</time>
      </trkpt>
      <trkpt lat="45.61442" lon="6.66129">
        <ele>2246.4</ele>
        <time>2022-01-01T09:20:35Z</time>
      </trkpt>
      <trkpt lat="45.61444" lon="6.66127">
        <ele>2246.8</ele>
        <time>2022-01-01T09:20:37Z</time>
      </trkpt>
      <trkpt lat="45.61446" lon="6.66125">
        <ele>2247.6</ele>
        <time>2022-01-01T09:20:40Z</time>
      </trkpt>
      <trkpt lat="45.61449" lon="6.66123">
        <ele>2248.6</ele>
        <time>2022-01-01T09:20:44Z</time>
      </trkpt>
      <trkpt lat="45.6145" lon="6.66122">
        <ele>2248.8</ele>
        <time>2022-01-01T09:20:46Z</time>
      </trkpt>
      <trkpt lat="45.61451" lon="6.66121">
        <ele>2249.2</ele>
        <time>2022-01-01T09:20:47Z</time>
      </trkpt>
      <trkpt lat="45.61451" lon="6.66119">
        <ele>2249.6</ele>
        <time>2022-01-01T09:20:49Z</time>
      </trkpt>
      <trkpt lat="45.61453" lon="6.66117">
        <ele>2250.4</ele>
        <time>2022-01-01T09:20:52Z</time>
      </trkpt>
      <trkpt lat="45.61454" lon="6.66116">
        <ele>2250.6</ele>
        <time>2022-01-01T09:20:53Z</time>
      </trkpt>
      <trkpt lat="45.61455" lon="6.66114">
        <ele>2252</ele>
        <time>2022-01-01T09:20:57Z</time>
      </trkpt>
      <trkpt lat="45.61457" lon="6.66111">
        <ele>2253</ele>
        <time>2022-01-01T09:21:01Z</time>
      </trkpt>
      <trkpt lat="45.6146" lon="6.66108">
        <ele>2254</ele>
        <time>2022-01-01T09:21:06Z</time>
      </trkpt>
      <trkpt lat="45.6146" lon="6.66107">
        <ele>2254</ele>
        <time>2022-01-01T09:21:07Z</time>
      </trkpt>
      <trkpt lat="45.61463" lon="6.66104">
        <ele>2255.2</ele>
        <time>2022-01-01T09:21:11Z</time>
      </trkpt>
      <trkpt lat="45.61465" lon="6.66103">
        <ele>2256</ele>
        <time>2022-01-01T09:21:14Z</time>
      </trkpt>
      <trkpt lat="45.61467" lon="6.66102">
        <ele>2256.6</ele>
        <time>2022-01-01T09:21:16Z</time>
      </trkpt>
      <trkpt lat="45.6147" lon="6.66101">
        <ele>2257.6</ele>
        <time>2022-01-01T09:21:20Z</time>
      </trkpt>
      <trkpt lat="45.6147" lon="6.661">
        <ele>2257.8</ele>
        <time>2022-01-01T09:21:21Z</time>
      </trkpt>
      <trkpt lat="45.61473" lon="6.66097">
        <ele>2258.6</ele>
        <time>2022-01-01T09:21:25Z</time>
      </trkpt>
      <trkpt lat="45.61474" lon="6.66095">
        <ele>2259.4</ele>
        <time>2022-01-01T09:21:28Z</time>
      </trkpt>
      <trkpt lat="45.61475" lon="6.66094">
        <ele>2259.6</ele>
        <time>2022-01-01T09:21:29Z</time>
      </trkpt>
      <trkpt lat="45.61477" lon="6.66093">
        <ele>2260</ele>
        <time>2022-01-01T09:21:32Z</time>
      </trkpt>
      <trkpt lat="45.61479" lon="6.66092">
        <ele>2260.8</ele>
        <time>2022-01-01T09:21:35Z</time>
      </trkpt>
      <trkpt lat="45.61481" lon="6.66091">
        <ele>2261.2</ele>
        <time>2022-01-01T09:21:37Z</time>
      </trkpt>
      <trkpt lat="45.61483" lon="6.66089">
        <ele>2262.4</ele>
        <time>2022-01-01T09:21:41Z</time>
      </trkpt>
      <trkpt lat="45.61485" lon="6.66088">
        <ele>2262.8</ele>
        <time>2022-01-01T09:21:43Z</time>
      </trkpt>
      <trkpt lat="45.61487" lon="6.66086">
        <ele>2263.8</ele>
        <time>2022-01-01T09:21:46Z</time>
      </trkpt>
      <trkpt lat="45.6149" lon="6.66085">
        <ele>2264.6</ele>
        <time>2022-01-01T09:21:50Z</time>
      </trkpt>
      <trkpt lat="45.61491" lon="6.66084">
        <ele>2264.8</ele>
        <time>2022-01-01T09:21:51Z</time>
      </trkpt>
      <trkpt lat="45.61495" lon="6.66083">
        <ele>2265.8</ele>
        <time>2022-01-01T09:21:56Z</time>
      </trkpt>
      <trkpt lat="45.61498" lon="6.66082">
        <ele>2266.8</ele>
        <time>2022-01-01T09:21:59Z</time>
      </trkpt>
      <trkpt lat="45.61499" lon="6.66083">
        <ele>2267.2</ele>
        <time>2022-01-01T09:22:00Z</time>
      </trkpt>
      <trkpt lat="45.61504" lon="6.66082">
        <ele>2268</ele>
        <time>2022-01-01T09:22:06Z</time>
      </trkpt>
      <trkpt lat="45.61505" lon="6.66082">
        <ele>2268.2</ele>
        <time>2022-01-01T09:22:07Z</time>
      </trkpt>
      <trkpt lat="45.61512" lon="6.66082">
        <ele>2269.2</ele>
        <time>2022-01-01T09:22:14Z</time>
      </trkpt>
      <trkpt lat="45.61514" lon="6.66082">
        <ele>2269.2</ele>
        <time>2022-01-01T09:22:16Z</time>
      </trkpt>
      <trkpt lat="45.61519" lon="6.66083">
        <ele>2270.4</ele>
        <time>2022-01-01T09:22:21Z</time>
      </trkpt>
      <trkpt lat="45.6152" lon="6.66083">
        <ele>2270.4</ele>
        <time>2022-01-01T09:22:22Z</time>
      </trkpt>
      <trkpt lat="45.61526" lon="6.66085">
        <ele>2271.4</ele>
        <time>2022-01-01T09:22:28Z</time>
      </trkpt>
      <trkpt lat="45.61528" lon="6.66085">
        <ele>2271.8</ele>
        <time>2022-01-01T09:22:31Z</time>
      </trkpt>
      <trkpt lat="45.61533" lon="6.66086">
        <ele>2272.6</ele>
        <time>2022-01-01T09:22:36Z</time>
      </trkpt>
      <trkpt lat="45.61535" lon="6.66087">
        <ele>2272.8</ele>
        <time>2022-01-01T09:22:39Z</time>
      </trkpt>
      <trkpt lat="45.61537" lon="6.66088">
        <ele>2273.6</ele>
        <time>2022-01-01T09:22:41Z</time>
      </trkpt>
      <trkpt lat="45.6154" lon="6.66089">
        <ele>2274.6</ele>
        <time>2022-01-01T09:22:45Z</time>
      </trkpt>
      <trkpt lat="45.61541" lon="6.66089">
        <ele>2275</ele>
        <time>2022-01-01T09:22:46Z</time>
      </trkpt>
      <trkpt lat="45.61543" lon="6.6609">
        <ele>2275.2</ele>
        <time>2022-01-01T09:22:48Z</time>
      </trkpt>
      <trkpt lat="45.61546" lon="6.6609">
        <ele>2276.2</ele>
        <time>2022-01-01T09:22:52Z</time>
      </trkpt>
      <trkpt lat="45.61549" lon="6.66091">
        <ele>2277.4</ele>
        <time>2022-01-01T09:22:56Z</time>
      </trkpt>
      <trkpt lat="45.61552" lon="6.66092">
        <ele>2278.4</ele>
        <time>2022-01-01T09:23:00Z</time>
      </trkpt>
      <trkpt lat="45.61554" lon="6.66093">
        <ele>2279.8</ele>
        <time>2022-01-01T09:23:04Z</time>
      </trkpt>
      <trkpt lat="45.61558" lon="6.66093">
        <ele>2280.8</ele>
        <time>2022-01-01T09:23:08Z</time>
      </trkpt>
      <trkpt lat="45.61558" lon="6.66093">
        <ele>2281.6</ele>
        <time>2022-01-01T09:23:11Z</time>
      </trkpt>
      <trkpt lat="45.61558" lon="6.66093">
        <ele>2281.8</ele>
        <time>2022-01-01T09:23:12Z</time>
      </trkpt>
      <trkpt lat="45.61558" lon="6.66088">
        <ele>2282.6</ele>
        <time>2022-01-01T09:23:17Z</time>
      </trkpt>
      <trkpt lat="45.61558" lon="6.66086">
        <ele>2283</ele>
        <time>2022-01-01T09:23:19Z</time>
      </trkpt>
      <trkpt lat="45.61559" lon="6.66081">
        <ele>2284</ele>
        <time>2022-01-01T09:23:23Z</time>
      </trkpt>
      <trkpt lat="45.61559" lon="6.66077">
        <ele>2284.8</ele>
        <time>2022-01-01T09:23:26Z</time>
      </trkpt>
      <trkpt lat="45.61559" lon="6.66077">
        <ele>2285</ele>
        <time>2022-01-01T09:23:27Z</time>
      </trkpt>
      <trkpt lat="45.6156" lon="6.66071">
        <ele>2286.2</ele>
        <time>2022-01-01T09:23:32Z</time>
      </trkpt>
      <trkpt lat="45.6156" lon="6.66069">
        <ele>2286.6</ele>
        <time>2022-01-01T09:23:34Z</time>
      </trkpt>
      <trkpt lat="45.6156" lon="6.66067">
        <ele>2287.2</ele>
        <time>2022-01-01T09:23:36Z</time>
      </trkpt>
      <trkpt lat="45.61563" lon="6.66062">
        <ele>2288.4</ele>
        <time>2022-01-01T09:23:41Z</time>
      </trkpt>
      <trkpt lat="45.61563" lon="6.66061">
        <ele>2288.6</ele>
        <time>2022-01-01T09:23:43Z</time>
      </trkpt>
      <trkpt lat="45.61565" lon="6.66057">
        <ele>2289.4</ele>
        <time>2022-01-01T09:23:46Z</time>
      </trkpt>
      <trkpt lat="45.61569" lon="6.66053">
        <ele>2290.4</ele>
        <time>2022-01-01T09:23:51Z</time>
      </trkpt>
      <trkpt lat="45.6157" lon="6.66053">
        <ele>2290.8</ele>
        <time>2022-01-01T09:23:52Z</time>
      </trkpt>
      <trkpt lat="45.61573" lon="6.66051">
        <ele>2291.8</ele>
        <time>2022-01-01T09:23:56Z</time>
      </trkpt>
      <trkpt lat="45.61575" lon="6.6605">
        <ele>2292.6</ele>
        <time>2022-01-01T09:23:59Z</time>
      </trkpt>
      <trkpt lat="45.61575" lon="6.66049">
        <ele>2293.2</ele>
        <time>2022-01-01T09:24:01Z</time>
      </trkpt>
      <trkpt lat="45.61579" lon="6.66047">
        <ele>2294.4</ele>
        <time>2022-01-01T09:24:06Z</time>
      </trkpt>
      <trkpt lat="45.6158" lon="6.66046">
        <ele>2294.6</ele>
        <time>2022-01-01T09:24:07Z</time>
      </trkpt>
      <trkpt lat="45.61582" lon="6.66044">
        <ele>2295.6</ele>
        <time>2022-01-01T09:24:10Z</time>
      </trkpt>
      <trkpt lat="45.61584" lon="6.66043">
        <ele>2296.2</ele>
        <time>2022-01-01T09:24:13Z</time>
      </trkpt>
      <trkpt lat="45.61586" lon="6.66041">
        <ele>2296.8</ele>
        <time>2022-01-01T09:24:16Z</time>
      </trkpt>
      <trkpt lat="45.61588" lon="6.66041">
        <ele>2297.8</ele>
        <time>2022-01-01T09:24:20Z</time>
      </trkpt>
      <trkpt lat="45.61589" lon="6.66041">
        <ele>2298.2</ele>
        <time>2022-01-01T09:24:21Z</time>
      </trkpt>
      <trkpt lat="45.61592" lon="6.66049">
        <ele>2299</ele>
        <time>2022-01-01T09:24:29Z</time>
      </trkpt>
      <trkpt lat="45.61592" lon="6.6605">
        <ele>2299.2</ele>
        <time>2022-01-01T09:24:30Z</time>
      </trkpt>
      <trkpt lat="45.61594" lon="6.66053">
        <ele>2300</ele>
        <time>2022-01-01T09:24:33Z</time>
      </trkpt>
      <trkpt lat="45.61596" lon="6.66057">
        <ele>2301</ele>
        <time>2022-01-01T09:24:38Z</time>
      </trkpt>
      <trkpt lat="45.61597" lon="6.66058">
        <ele>2301.4</ele>
        <time>2022-01-01T09:24:39Z</time>
      </trkpt>
      <trkpt lat="45.61599" lon="6.6606">
        <ele>2302.8</ele>
        <time>2022-01-01T09:24:43Z</time>
      </trkpt>
      <trkpt lat="45.61602" lon="6.66063">
        <ele>2303.4</ele>
        <time>2022-01-01T09:24:47Z</time>
      </trkpt>
      <trkpt lat="45.61603" lon="6.66065">
        <ele>2303.8</ele>
        <time>2022-01-01T09:24:50Z</time>
      </trkpt>
      <trkpt lat="45.61605" lon="6.66068">
        <ele>2305.2</ele>
        <time>2022-01-01T09:24:53Z</time>
      </trkpt>
      <trkpt lat="45.61606" lon="6.6607">
        <ele>2306.2</ele>
        <time>2022-01-01T09:24:57Z</time>
      </trkpt>
      <trkpt lat="45.61606" lon="6.66069">
        <ele>2306.6</ele>
        <time>2022-01-01T09:24:58Z</time>
      </trkpt>
      <trkpt lat="45.61607" lon="6.66065">
        <ele>2307.8</ele>
        <time>2022-01-01T09:25:04Z</time>
      </trkpt>
      <trkpt lat="45.61607" lon="6.66064">
        <ele>2308</ele>
        <time>2022-01-01T09:25:05Z</time>
      </trkpt>
      <trkpt lat="45.61608" lon="6.6606">
        <ele>2308.8</ele>
        <time>2022-01-01T09:25:09Z</time>
      </trkpt>
      <trkpt lat="45.6161" lon="6.66056">
        <ele>2310</ele>
        <time>2022-01-01T09:25:14Z</time>
      </trkpt>
      <trkpt lat="45.61611" lon="6.66053">
        <ele>2310.8</ele>
        <time>2022-01-01T09:25:17Z</time>
      </trkpt>
      <trkpt lat="45.61613" lon="6.66051">
        <ele>2311.2</ele>
        <time>2022-01-01T09:25:20Z</time>
      </trkpt>
      <trkpt lat="45.61615" lon="6.66048">
        <ele>2312.2</ele>
        <time>2022-01-01T09:25:24Z</time>
      </trkpt>
      <trkpt lat="45.61615" lon="6.66047">
        <ele>2312.4</ele>
        <time>2022-01-01T09:25:25Z</time>
      </trkpt>
      <trkpt lat="45.61617" lon="6.66044">
        <ele>2313.4</ele>
        <time>2022-01-01T09:25:28Z</time>
      </trkpt>
      <trkpt lat="45.61619" lon="6.66042">
        <ele>2314.4</ele>
        <time>2022-01-01T09:25:32Z</time>
      </trkpt>
      <trkpt lat="45.6162" lon="6.66041">
        <ele>2314.6</ele>
        <time>2022-01-01T09:25:33Z</time>
      </trkpt>
      <trkpt lat="45.61622" lon="6.66038">
        <ele>2315.6</ele>
        <time>2022-01-01T09:25:37Z</time>
      </trkpt>
      <trkpt lat="45.61625" lon="6.66034">
        <ele>2316.6</ele>
        <time>2022-01-01T09:25:42Z</time>
      </trkpt>
      <trkpt lat="45.61625" lon="6.66034">
        <ele>2317</ele>
        <time>2022-01-01T09:25:43Z</time>
      </trkpt>
      <trkpt lat="45.61627" lon="6.66039">
        <ele>2318</ele>
        <time>2022-01-01T09:25:49Z</time>
      </trkpt>
      <trkpt lat="45.61628" lon="6.6604">
        <ele>2318.2</ele>
        <time>2022-01-01T09:25:50Z</time>
      </trkpt>
      <trkpt lat="45.61629" lon="6.66044">
        <ele>2319</ele>
        <time>2022-01-01T09:25:54Z</time>
      </trkpt>
      <trkpt lat="45.61632" lon="6.66047">
        <ele>2319.8</ele>
        <time>2022-01-01T09:25:58Z</time>
      </trkpt>
      <trkpt lat="45.61632" lon="6.66048">
        <ele>2320</ele>
        <time>2022-01-01T09:25:59Z</time>
      </trkpt>
      <trkpt lat="45.61634" lon="6.66052">
        <ele>2321.4</ele>
        <time>2022-01-01T09:26:04Z</time>
      </trkpt>
      <trkpt lat="45.61636" lon="6.66056">
        <ele>2322.2</ele>
        <time>2022-01-01T09:26:08Z</time>
      </trkpt>
      <trkpt lat="45.61638" lon="6.66057">
        <ele>2322.6</ele>
        <time>2022-01-01T09:26:10Z</time>
      </trkpt>
      <trkpt lat="45.6164" lon="6.6606">
        <ele>2323.8</ele>
        <time>2022-01-01T09:26:14Z</time>
      </trkpt>
      <trkpt lat="45.61641" lon="6.66063">
        <ele>2324</ele>
        <time>2022-01-01T09:26:17Z</time>
      </trkpt>
      <trkpt lat="45.61643" lon="6.66065">
        <ele>2325</ele>
        <time>2022-01-01T09:26:20Z</time>
      </trkpt>
      <trkpt lat="45.61647" lon="6.66068">
        <ele>2326</ele>
        <time>2022-01-01T09:26:24Z</time>
      </trkpt>
      <trkpt lat="45.61648" lon="6.66069">
        <ele>2326.6</ele>
        <time>2022-01-01T09:26:26Z</time>
      </trkpt>
      <trkpt lat="45.6165" lon="6.6607">
        <ele>2327.2</ele>
        <time>2022-01-01T09:26:29Z</time>
      </trkpt>
      <trkpt lat="45.61653" lon="6.66072">
        <ele>2328</ele>
        <time>2022-01-01T09:26:33Z</time>
      </trkpt>
      <trkpt lat="45.61653" lon="6.66072">
        <ele>2328.2</ele>
        <time>2022-01-01T09:26:34Z</time>
      </trkpt>
      <trkpt lat="45.61658" lon="6.66072">
        <ele>2329.6</ele>
        <time>2022-01-01T09:26:39Z</time>
      </trkpt>
      <trkpt lat="45.6166" lon="6.66072">
        <ele>2330.4</ele>
        <time>2022-01-01T09:26:43Z</time>
      </trkpt>
      <trkpt lat="45.61661" lon="6.66071">
        <ele>2330.6</ele>
        <time>2022-01-01T09:26:44Z</time>
      </trkpt>
      <trkpt lat="45.61662" lon="6.66071">
        <ele>2331.2</ele>
        <time>2022-01-01T09:26:46Z</time>
      </trkpt>
      <trkpt lat="45.61664" lon="6.6607">
        <ele>2331.8</ele>
        <time>2022-01-01T09:26:48Z</time>
      </trkpt>
      <trkpt lat="45.61666" lon="6.66069">
        <ele>2332.4</ele>
        <time>2022-01-01T09:26:51Z</time>
      </trkpt>
      <trkpt lat="45.61667" lon="6.66069">
        <ele>2333</ele>
        <time>2022-01-01T09:26:53Z</time>
      </trkpt>
      <trkpt lat="45.6167" lon="6.66067">
        <ele>2334.2</ele>
        <time>2022-01-01T09:26:57Z</time>
      </trkpt>
      <trkpt lat="45.61672" lon="6.66067">
        <ele>2334.8</ele>
        <time>2022-01-01T09:26:59Z</time>
      </trkpt>
      <trkpt lat="45.61674" lon="6.66067">
        <ele>2335.2</ele>
        <time>2022-01-01T09:27:01Z</time>
      </trkpt>
      <trkpt lat="45.61678" lon="6.66066">
        <ele>2336.4</ele>
        <time>2022-01-01T09:27:06Z</time>
      </trkpt>
      <trkpt lat="45.61681" lon="6.66065">
        <ele>2337</ele>
        <time>2022-01-01T09:27:09Z</time>
      </trkpt>
      <trkpt lat="45.61683" lon="6.66063">
        <ele>2337.6</ele>
        <time>2022-01-01T09:27:12Z</time>
      </trkpt>
      <trkpt lat="45.61687" lon="6.66061">
        <ele>2338.8</ele>
        <time>2022-01-01T09:27:17Z</time>
      </trkpt>
      <trkpt lat="45.61691" lon="6.66057">
        <ele>2339.8</ele>
        <time>2022-01-01T09:27:22Z</time>
      </trkpt>
      <trkpt lat="45.61695" lon="6.66055">
        <ele>2340.8</ele>
        <time>2022-01-01T09:27:27Z</time>
      </trkpt>
      <trkpt lat="45.61696" lon="6.66055">
        <ele>2341</ele>
        <time>2022-01-01T09:27:28Z</time>
      </trkpt>
      <trkpt lat="45.61702" lon="6.66054">
        <ele>2342</ele>
        <time>2022-01-01T09:27:34Z</time>
      </trkpt>
      <trkpt lat="45.61706" lon="6.66052">
        <ele>2342.6</ele>
        <time>2022-01-01T09:27:37Z</time>
      </trkpt>
      <trkpt lat="45.61709" lon="6.66052">
        <ele>2343</ele>
        <time>2022-01-01T09:27:40Z</time>
      </trkpt>
      <trkpt lat="45.61709" lon="6.66051">
        <ele>2343.2</ele>
        <time>2022-01-01T09:27:41Z</time>
      </trkpt>
      <trkpt lat="45.61712" lon="6.66051">
        <ele>2343.4</ele>
        <time>2022-01-01T09:27:43Z</time>
      </trkpt>
      <trkpt lat="45.61714" lon="6.66051">
        <ele>2343.4</ele>
        <time>2022-01-01T09:27:45Z</time>
      </trkpt>
      <trkpt lat="45.6172" lon="6.66051">
        <ele>2343.6</ele>
        <time>2022-01-01T09:27:50Z</time>
      </trkpt>
      <trkpt lat="45.61727" lon="6.66054">
        <ele>2344.2</ele>
        <time>2022-01-01T09:27:57Z</time>
      </trkpt>
      <trkpt lat="45.61728" lon="6.66054">
        <ele>2344.2</ele>
        <time>2022-01-01T09:27:58Z</time>
      </trkpt>
      <trkpt lat="45.61729" lon="6.66055">
        <ele>2344.2</ele>
        <time>2022-01-01T09:27:59Z</time>
      </trkpt>
      <trkpt lat="45.61739" lon="6.66058">
        <ele>2345</ele>
        <time>2022-01-01T09:28:07Z</time>
      </trkpt>
      <trkpt lat="45.6174" lon="6.66058">
        <ele>2345.2</ele>
        <time>2022-01-01T09:28:08Z</time>
      </trkpt>
      <trkpt lat="45.61747" lon="6.66062">
        <ele>2346.2</ele>
        <time>2022-01-01T09:28:15Z</time>
      </trkpt>
      <trkpt lat="45.61748" lon="6.66062">
        <ele>2346.2</ele>
        <time>2022-01-01T09:28:16Z</time>
      </trkpt>
      <trkpt lat="45.61754" lon="6.66064">
        <ele>2347.2</ele>
        <time>2022-01-01T09:28:22Z</time>
      </trkpt>
      <trkpt lat="45.61757" lon="6.66065">
        <ele>2347.8</ele>
        <time>2022-01-01T09:28:25Z</time>
      </trkpt>
      <trkpt lat="45.61761" lon="6.66066">
        <ele>2348.4</ele>
        <time>2022-01-01T09:28:29Z</time>
      </trkpt>
      <trkpt lat="45.61762" lon="6.66067">
        <ele>2348.4</ele>
        <time>2022-01-01T09:28:30Z</time>
      </trkpt>
      <trkpt lat="45.61764" lon="6.66068">
        <ele>2348.8</ele>
        <time>2022-01-01T09:28:33Z</time>
      </trkpt>
      <trkpt lat="45.61769" lon="6.66069">
        <ele>2349.4</ele>
        <time>2022-01-01T09:28:37Z</time>
      </trkpt>
      <trkpt lat="45.6177" lon="6.66069">
        <ele>2349.4</ele>
        <time>2022-01-01T09:28:38Z</time>
      </trkpt>
      <trkpt lat="45.61774" lon="6.6607">
        <ele>2350.2</ele>
        <time>2022-01-01T09:28:43Z</time>
      </trkpt>
      <trkpt lat="45.61775" lon="6.6607">
        <ele>2350.4</ele>
        <time>2022-01-01T09:28:44Z</time>
      </trkpt>
      <trkpt lat="45.6178" lon="6.66071">
        <ele>2351.6</ele>
        <time>2022-01-01T09:28:50Z</time>
      </trkpt>
      <trkpt lat="45.61781" lon="6.66071">
        <ele>2351.8</ele>
        <time>2022-01-01T09:28:51Z</time>
      </trkpt>
      <trkpt lat="45.61784" lon="6.66071">
        <ele>2352.8</ele>
        <time>2022-01-01T09:28:55Z</time>
      </trkpt>
      <trkpt lat="45.61786" lon="6.66072">
        <ele>2353.6</ele>
        <time>2022-01-01T09:28:58Z</time>
      </trkpt>
      <trkpt lat="45.61787" lon="6.66072">
        <ele>2354</ele>
        <time>2022-01-01T09:29:00Z</time>
      </trkpt>
      <trkpt lat="45.61791" lon="6.66072">
        <ele>2354.4</ele>
        <time>2022-01-01T09:29:03Z</time>
      </trkpt>
      <trkpt lat="45.61792" lon="6.66072">
        <ele>2355</ele>
        <time>2022-01-01T09:29:05Z</time>
      </trkpt>
      <trkpt lat="45.61796" lon="6.66072">
        <ele>2355.6</ele>
        <time>2022-01-01T09:29:09Z</time>
      </trkpt>
      <trkpt lat="45.61799" lon="6.66072">
        <ele>2356.2</ele>
        <time>2022-01-01T09:29:11Z</time>
      </trkpt>
      <trkpt lat="45.61802" lon="6.66071">
        <ele>2357.4</ele>
        <time>2022-01-01T09:29:16Z</time>
      </trkpt>
      <trkpt lat="45.61805" lon="6.6607">
        <ele>2358</ele>
        <time>2022-01-01T09:29:19Z</time>
      </trkpt>
      <trkpt lat="45.61807" lon="6.66069">
        <ele>2358.4</ele>
        <time>2022-01-01T09:29:21Z</time>
      </trkpt>
      <trkpt lat="45.61811" lon="6.66065">
        <ele>2359.6</ele>
        <time>2022-01-01T09:29:26Z</time>
      </trkpt>
      <trkpt lat="45.61815" lon="6.66062">
        <ele>2360.6</ele>
        <time>2022-01-01T09:29:31Z</time>
      </trkpt>
      <trkpt lat="45.61819" lon="6.66061">
        <ele>2361.6</ele>
        <time>2022-01-01T09:29:36Z</time>
      </trkpt>
      <trkpt lat="45.61823" lon="6.66059">
        <ele>2362.8</ele>
        <time>2022-01-01T09:29:40Z</time>
      </trkpt>
      <trkpt lat="45.61826" lon="6.66057">
        <ele>2363</ele>
        <time>2022-01-01T09:29:43Z</time>
      </trkpt>
      <trkpt lat="45.6183" lon="6.66054">
        <ele>2363.8</ele>
        <time>2022-01-01T09:29:48Z</time>
      </trkpt>
      <trkpt lat="45.61832" lon="6.66053">
        <ele>2364.2</ele>
        <time>2022-01-01T09:29:51Z</time>
      </trkpt>
      <trkpt lat="45.61846" lon="6.66047">
        <ele>2364.6</ele>
        <time>2022-01-01T09:30:02Z</time>
      </trkpt>
      <trkpt lat="45.61856" lon="6.66043">
        <ele>2363</ele>
        <time>2022-01-01T09:30:08Z</time>
      </trkpt>
      <trkpt lat="45.61858" lon="6.66042">
        <ele>2362.6</ele>
        <time>2022-01-01T09:30:10Z</time>
      </trkpt>
      <trkpt lat="45.6187" lon="6.66043">
        <ele>2362</ele>
        <time>2022-01-01T09:30:18Z</time>
      </trkpt>
      <trkpt lat="45.61885" lon="6.66044">
        <ele>2361.4</ele>
        <time>2022-01-01T09:30:28Z</time>
      </trkpt>
      <trkpt lat="45.61889" lon="6.66044">
        <ele>2361.6</ele>
        <time>2022-01-01T09:30:32Z</time>
      </trkpt>
      <trkpt lat="45.61894" lon="6.66045">
        <ele>2362.6</ele>
        <time>2022-01-01T09:30:37Z</time>
      </trkpt>
      <trkpt lat="45.61897" lon="6.66045">
        <ele>2363</ele>
        <time>2022-01-01T09:30:40Z</time>
      </trkpt>
      <trkpt lat="45.61902" lon="6.66045">
        <ele>2363.6</ele>
        <time>2022-01-01T09:30:44Z</time>
      </trkpt>
      <trkpt lat="45.61908" lon="6.66046">
        <ele>2364.2</ele>
        <time>2022-01-01T09:30:49Z</time>
      </trkpt>
      <trkpt lat="45.61911" lon="6.66046">
        <ele>2364.8</ele>
        <time>2022-01-01T09:30:52Z</time>
      </trkpt>
      <trkpt lat="45.61918" lon="6.66047">
        <ele>2366</ele>
        <time>2022-01-01T09:30:59Z</time>
      </trkpt>
      <trkpt lat="45.61924" lon="6.66048">
        <ele>2367.2</ele>
        <time>2022-01-01T09:31:06Z</time>
      </trkpt>
      <trkpt lat="45.61928" lon="6.66049">
        <ele>2368</ele>
        <time>2022-01-01T09:31:10Z</time>
      </trkpt>
      <trkpt lat="45.6193" lon="6.6605">
        <ele>2368.2</ele>
        <time>2022-01-01T09:31:12Z</time>
      </trkpt>
      <trkpt lat="45.61937" lon="6.66053">
        <ele>2369</ele>
        <time>2022-01-01T09:31:19Z</time>
      </trkpt>
      <trkpt lat="45.61938" lon="6.66053">
        <ele>2369.4</ele>
        <time>2022-01-01T09:31:21Z</time>
      </trkpt>
      <trkpt lat="45.61943" lon="6.66053">
        <ele>2370.6</ele>
        <time>2022-01-01T09:31:26Z</time>
      </trkpt>
      <trkpt lat="45.61946" lon="6.66054">
        <ele>2371.2</ele>
        <time>2022-01-01T09:31:29Z</time>
      </trkpt>
      <trkpt lat="45.61949" lon="6.66053">
        <ele>2371.8</ele>
        <time>2022-01-01T09:31:32Z</time>
      </trkpt>
      <trkpt lat="45.61953" lon="6.66054">
        <ele>2372.8</ele>
        <time>2022-01-01T09:31:37Z</time>
      </trkpt>
      <trkpt lat="45.61957" lon="6.66053">
        <ele>2373.8</ele>
        <time>2022-01-01T09:31:41Z</time>
      </trkpt>
      <trkpt lat="45.61958" lon="6.66053">
        <ele>2374</ele>
        <time>2022-01-01T09:31:42Z</time>
      </trkpt>
      <trkpt lat="45.61964" lon="6.66054">
        <ele>2375</ele>
        <time>2022-01-01T09:31:49Z</time>
      </trkpt>
      <trkpt lat="45.61967" lon="6.66055">
        <ele>2375.6</ele>
        <time>2022-01-01T09:31:52Z</time>
      </trkpt>
      <trkpt lat="45.61968" lon="6.66056">
        <ele>2376.2</ele>
        <time>2022-01-01T09:31:54Z</time>
      </trkpt>
      <trkpt lat="45.61972" lon="6.66059">
        <ele>2377.4</ele>
        <time>2022-01-01T09:31:59Z</time>
      </trkpt>
      <trkpt lat="45.61972" lon="6.66059">
        <ele>2377.6</ele>
        <time>2022-01-01T09:32:00Z</time>
      </trkpt>
      <trkpt lat="45.61976" lon="6.6606">
        <ele>2378.4</ele>
        <time>2022-01-01T09:32:03Z</time>
      </trkpt>
      <trkpt lat="45.61979" lon="6.66061">
        <ele>2379.4</ele>
        <time>2022-01-01T09:32:08Z</time>
      </trkpt>
      <trkpt lat="45.61979" lon="6.66061">
        <ele>2379.6</ele>
        <time>2022-01-01T09:32:09Z</time>
      </trkpt>
      <trkpt lat="45.61979" lon="6.6606">
        <ele>2380</ele>
        <time>2022-01-01T09:32:16Z</time>
      </trkpt>
      <trkpt lat="45.61979" lon="6.6606">
        <ele>2380.6</ele>
        <time>2022-01-01T09:32:37Z</time>
      </trkpt>
      <trkpt lat="45.61983" lon="6.66061">
        <ele>2381.8</ele>
        <time>2022-01-01T09:32:53Z</time>
      </trkpt>
      <trkpt lat="45.61985" lon="6.66062">
        <ele>2382.2</ele>
        <time>2022-01-01T09:32:55Z</time>
      </trkpt>
      <trkpt lat="45.61988" lon="6.66062">
        <ele>2383</ele>
        <time>2022-01-01T09:32:59Z</time>
      </trkpt>
      <trkpt lat="45.6199" lon="6.66061">
        <ele>2384.2</ele>
        <time>2022-01-01T09:33:03Z</time>
      </trkpt>
      <trkpt lat="45.61993" lon="6.66059">
        <ele>2385.4</ele>
        <time>2022-01-01T09:33:07Z</time>
      </trkpt>
      <trkpt lat="45.61995" lon="6.66058">
        <ele>2386</ele>
        <time>2022-01-01T09:33:10Z</time>
      </trkpt>
      <trkpt lat="45.61996" lon="6.66058">
        <ele>2386.6</ele>
        <time>2022-01-01T09:33:12Z</time>
      </trkpt>
      <trkpt lat="45.61995" lon="6.66058">
        <ele>2386.8</ele>
        <time>2022-01-01T09:33:18Z</time>
      </trkpt>
      <trkpt lat="45.61997" lon="6.66065">
        <ele>2387.2</ele>
        <time>2022-01-01T09:33:25Z</time>
      </trkpt>
      <trkpt lat="45.61998" lon="6.66068">
        <ele>2387.8</ele>
        <time>2022-01-01T09:33:28Z</time>
      </trkpt>
      <trkpt lat="45.62" lon="6.66071">
        <ele>2388.8</ele>
        <time>2022-01-01T09:33:32Z</time>
      </trkpt>
      <trkpt lat="45.62002" lon="6.66074">
        <ele>2390</ele>
        <time>2022-01-01T09:33:37Z</time>
      </trkpt>
      <trkpt lat="45.62003" lon="6.66075">
        <ele>2390.4</ele>
        <time>2022-01-01T09:33:39Z</time>
      </trkpt>
      <trkpt lat="45.62004" lon="6.66076">
        <ele>2391</ele>
        <time>2022-01-01T09:33:42Z</time>
      </trkpt>
      <trkpt lat="45.62004" lon="6.66073">
        <ele>2391.8</ele>
        <time>2022-01-01T09:33:46Z</time>
      </trkpt>
      <trkpt lat="45.62005" lon="6.66071">
        <ele>2392.4</ele>
        <time>2022-01-01T09:33:48Z</time>
      </trkpt>
      <trkpt lat="45.62007" lon="6.66068">
        <ele>2393.2</ele>
        <time>2022-01-01T09:33:53Z</time>
      </trkpt>
      <trkpt lat="45.62008" lon="6.66068">
        <ele>2393.4</ele>
        <time>2022-01-01T09:33:54Z</time>
      </trkpt>
      <trkpt lat="45.6201" lon="6.66072">
        <ele>2394</ele>
        <time>2022-01-01T09:34:00Z</time>
      </trkpt>
      <trkpt lat="45.6201" lon="6.66073">
        <ele>2394.4</ele>
        <time>2022-01-01T09:34:02Z</time>
      </trkpt>
      <trkpt lat="45.62013" lon="6.66075">
        <ele>2395.6</ele>
        <time>2022-01-01T09:34:06Z</time>
      </trkpt>
      <trkpt lat="45.62016" lon="6.66075">
        <ele>2396.4</ele>
        <time>2022-01-01T09:34:09Z</time>
      </trkpt>
      <trkpt lat="45.62016" lon="6.66075">
        <ele>2396.8</ele>
        <time>2022-01-01T09:34:11Z</time>
      </trkpt>
      <trkpt lat="45.62019" lon="6.66073">
        <ele>2397.8</ele>
        <time>2022-01-01T09:34:15Z</time>
      </trkpt>
      <trkpt lat="45.62023" lon="6.66071">
        <ele>2399</ele>
        <time>2022-01-01T09:34:19Z</time>
      </trkpt>
      <trkpt lat="45.62026" lon="6.6607">
        <ele>2399.8</ele>
        <time>2022-01-01T09:34:23Z</time>
      </trkpt>
      <trkpt lat="45.62028" lon="6.66069">
        <ele>2400.2</ele>
        <time>2022-01-01T09:34:25Z</time>
      </trkpt>
      <trkpt lat="45.62031" lon="6.66068">
        <ele>2401</ele>
        <time>2022-01-01T09:34:29Z</time>
      </trkpt>
      <trkpt lat="45.62034" lon="6.66069">
        <ele>2401.2</ele>
        <time>2022-01-01T09:34:31Z</time>
      </trkpt>
      <trkpt lat="45.6204" lon="6.66071">
        <ele>2402.2</ele>
        <time>2022-01-01T09:34:37Z</time>
      </trkpt>
      <trkpt lat="45.62042" lon="6.66072">
        <ele>2402.6</ele>
        <time>2022-01-01T09:34:39Z</time>
      </trkpt>
      <trkpt lat="45.62053" lon="6.66075">
        <ele>2403.4</ele>
        <time>2022-01-01T09:34:49Z</time>
      </trkpt>
      <trkpt lat="45.62054" lon="6.66075">
        <ele>2403.4</ele>
        <time>2022-01-01T09:34:50Z</time>
      </trkpt>
      <trkpt lat="45.62067" lon="6.66076">
        <ele>2404</ele>
        <time>2022-01-01T09:35:00Z</time>
      </trkpt>
      <trkpt lat="45.6207" lon="6.66076">
        <ele>2404.4</ele>
        <time>2022-01-01T09:35:03Z</time>
      </trkpt>
      <trkpt lat="45.62075" lon="6.66075">
        <ele>2405.4</ele>
        <time>2022-01-01T09:35:08Z</time>
      </trkpt>
      <trkpt lat="45.62079" lon="6.66076">
        <ele>2406.4</ele>
        <time>2022-01-01T09:35:12Z</time>
      </trkpt>
      <trkpt lat="45.6208" lon="6.66076">
        <ele>2406.6</ele>
        <time>2022-01-01T09:35:13Z</time>
      </trkpt>
      <trkpt lat="45.62085" lon="6.66077">
        <ele>2407.8</ele>
        <time>2022-01-01T09:35:19Z</time>
      </trkpt>
      <trkpt lat="45.62088" lon="6.66078">
        <ele>2409</ele>
        <time>2022-01-01T09:35:22Z</time>
      </trkpt>
      <trkpt lat="45.62089" lon="6.66078">
        <ele>2409</ele>
        <time>2022-01-01T09:35:23Z</time>
      </trkpt>
      <trkpt lat="45.62093" lon="6.66079">
        <ele>2410</ele>
        <time>2022-01-01T09:35:27Z</time>
      </trkpt>
      <trkpt lat="45.62099" lon="6.66081">
        <ele>2411</ele>
        <time>2022-01-01T09:35:32Z</time>
      </trkpt>
      <trkpt lat="45.62099" lon="6.66081">
        <ele>2411.2</ele>
        <time>2022-01-01T09:35:33Z</time>
      </trkpt>
      <trkpt lat="45.62104" lon="6.66082">
        <ele>2412.6</ele>
        <time>2022-01-01T09:35:39Z</time>
      </trkpt>
      <trkpt lat="45.62108" lon="6.66084">
        <ele>2413.6</ele>
        <time>2022-01-01T09:35:43Z</time>
      </trkpt>
      <trkpt lat="45.62111" lon="6.66085">
        <ele>2414.2</ele>
        <time>2022-01-01T09:35:46Z</time>
      </trkpt>
      <trkpt lat="45.62112" lon="6.66086">
        <ele>2415</ele>
        <time>2022-01-01T09:35:48Z</time>
      </trkpt>
      <trkpt lat="45.62116" lon="6.66087">
        <ele>2416.2</ele>
        <time>2022-01-01T09:35:52Z</time>
      </trkpt>
      <trkpt lat="45.62118" lon="6.66089">
        <ele>2417.2</ele>
        <time>2022-01-01T09:35:56Z</time>
      </trkpt>
      <trkpt lat="45.62119" lon="6.66089">
        <ele>2417.4</ele>
        <time>2022-01-01T09:35:57Z</time>
      </trkpt>
      <trkpt lat="45.62122" lon="6.66091">
        <ele>2418.4</ele>
        <time>2022-01-01T09:36:00Z</time>
      </trkpt>
      <trkpt lat="45.62126" lon="6.66092">
        <ele>2419.4</ele>
        <time>2022-01-01T09:36:04Z</time>
      </trkpt>
      <trkpt lat="45.62128" lon="6.66092">
        <ele>2420</ele>
        <time>2022-01-01T09:36:07Z</time>
      </trkpt>
      <trkpt lat="45.6213" lon="6.66093">
        <ele>2420.6</ele>
        <time>2022-01-01T09:36:09Z</time>
      </trkpt>
      <trkpt lat="45.62132" lon="6.66095">
        <ele>2421.8</ele>
        <time>2022-01-01T09:36:13Z</time>
      </trkpt>
      <trkpt lat="45.62136" lon="6.66097">
        <ele>2423</ele>
        <time>2022-01-01T09:36:18Z</time>
      </trkpt>
      <trkpt lat="45.62136" lon="6.66097">
        <ele>2423.4</ele>
        <time>2022-01-01T09:36:19Z</time>
      </trkpt>
      <trkpt lat="45.62139" lon="6.66098">
        <ele>2424.2</ele>
        <time>2022-01-01T09:36:23Z</time>
      </trkpt>
      <trkpt lat="45.6214" lon="6.66099">
        <ele>2425.2</ele>
        <time>2022-01-01T09:36:26Z</time>
      </trkpt>
      <trkpt lat="45.62143" lon="6.661">
        <ele>2425.8</ele>
        <time>2022-01-01T09:36:28Z</time>
      </trkpt>
      <trkpt lat="45.62146" lon="6.66102">
        <ele>2426.4</ele>
        <time>2022-01-01T09:36:31Z</time>
      </trkpt>
      <trkpt lat="45.62149" lon="6.66103">
        <ele>2427.4</ele>
        <time>2022-01-01T09:36:35Z</time>
      </trkpt>
      <trkpt lat="45.6215" lon="6.66103">
        <ele>2427.6</ele>
        <time>2022-01-01T09:36:36Z</time>
      </trkpt>
      <trkpt lat="45.62151" lon="6.66103">
        <ele>2428.4</ele>
        <time>2022-01-01T09:36:38Z</time>
      </trkpt>
      <trkpt lat="45.62156" lon="6.66104">
        <ele>2429.6</ele>
        <time>2022-01-01T09:36:44Z</time>
      </trkpt>
      <trkpt lat="45.62159" lon="6.66104">
        <ele>2430</ele>
        <time>2022-01-01T09:36:46Z</time>
      </trkpt>
      <trkpt lat="45.62163" lon="6.66106">
        <ele>2430.8</ele>
        <time>2022-01-01T09:36:51Z</time>
      </trkpt>
      <trkpt lat="45.62167" lon="6.66107">
        <ele>2431.6</ele>
        <time>2022-01-01T09:36:56Z</time>
      </trkpt>
      <trkpt lat="45.62168" lon="6.66108">
        <ele>2432</ele>
        <time>2022-01-01T09:36:57Z</time>
      </trkpt>
      <trkpt lat="45.62173" lon="6.66111">
        <ele>2433</ele>
        <time>2022-01-01T09:37:04Z</time>
      </trkpt>
      <trkpt lat="45.62175" lon="6.66111">
        <ele>2433.4</ele>
        <time>2022-01-01T09:37:07Z</time>
      </trkpt>
      <trkpt lat="45.62176" lon="6.66112">
        <ele>2433.6</ele>
        <time>2022-01-01T09:37:13Z</time>
      </trkpt>
      <trkpt lat="45.62176" lon="6.66111">
        <ele>2433.2</ele>
        <time>2022-01-01T09:37:22Z</time>
      </trkpt>
      <trkpt lat="45.62176" lon="6.66114">
        <ele>2432</ele>
        <time>2022-01-01T09:39:54Z</time>
      </trkpt>
      <trkpt lat="45.62176" lon="6.66113">
        <ele>2432</ele>
        <time>2022-01-01T09:39:59Z</time>
      </trkpt>
      <trkpt lat="45.62176" lon="6.66112">
        <ele>2431.6</ele>
        <time>2022-01-01T09:40:53Z</time>
      </trkpt>
      <trkpt lat="45.62176" lon="6.66112">
        <ele>2431.6</ele>
        <time>2022-01-01T09:41:32Z</time>
      </trkpt>
      <trkpt lat="45.62176" lon="6.66112">
        <ele>2431.6</ele>
        <time>2022-01-01T09:42:21Z</time>
      </trkpt>
      <trkpt lat="45.62176" lon="6.66112">
        <ele>2431.6</ele>
        <time>2022-01-01T09:42:45Z</time>
      </trkpt>
      <trkpt lat="45.62176" lon="6.66112">
        <ele>2431.6</ele>
        <time>2022-01-01T09:43:49Z</time>
      </trkpt>
      <trkpt lat="45.62176" lon="6.66112">
        <ele>2431.6</ele>
        <time>2022-01-01T09:44:21Z</time>
      </trkpt>
      <trkpt lat="45.62176" lon="6.66112">
        <ele>2431.6</ele>
        <time>2022-01-01T09:44:47Z</time>
      </trkpt>
      <trkpt lat="45.62175" lon="6.66112">
        <ele>2431.6</ele>
        <time>2022-01-01T09:45:13Z</time>
      </trkpt>
      <trkpt lat="45.62168" lon="6.6611">
        <ele>2431.6</ele>
        <time>2022-01-01T09:45:44Z</time>
      </trkpt>
      <trkpt lat="45.62157" lon="6.66104">
        <ele>2431</ele>
        <time>2022-01-01T09:45:48Z</time>
      </trkpt>
      <trkpt lat="45.62154" lon="6.66104">
        <ele>2430.8</ele>
        <time>2022-01-01T09:45:49Z</time>
      </trkpt>
      <trkpt lat="45.62147" lon="6.66105">
        <ele>2429.6</ele>
        <time>2022-01-01T09:45:51Z</time>
      </trkpt>
      <trkpt lat="45.62144" lon="6.66104">
        <ele>2429</ele>
        <time>2022-01-01T09:45:52Z</time>
      </trkpt>
      <trkpt lat="45.62142" lon="6.66101">
        <ele>2428.2</ele>
        <time>2022-01-01T09:45:53Z</time>
      </trkpt>
      <trkpt lat="45.62141" lon="6.661">
        <ele>2427.2</ele>
        <time>2022-01-01T09:45:54Z</time>
      </trkpt>
      <trkpt lat="45.62139" lon="6.66099">
        <ele>2426.4</ele>
        <time>2022-01-01T09:45:55Z</time>
      </trkpt>
      <trkpt lat="45.62137" lon="6.66101">
        <ele>2426</ele>
        <time>2022-01-01T09:45:56Z</time>
      </trkpt>
      <trkpt lat="45.62134" lon="6.66103">
        <ele>2425.4</ele>
        <time>2022-01-01T09:45:57Z</time>
      </trkpt>
      <trkpt lat="45.6213" lon="6.66103">
        <ele>2424.8</ele>
        <time>2022-01-01T09:45:58Z</time>
      </trkpt>
      <trkpt lat="45.62124" lon="6.66101">
        <ele>2422.2</ele>
        <time>2022-01-01T09:46:00Z</time>
      </trkpt>
      <trkpt lat="45.6212" lon="6.66101">
        <ele>2421</ele>
        <time>2022-01-01T09:46:01Z</time>
      </trkpt>
      <trkpt lat="45.62112" lon="6.66099">
        <ele>2418.8</ele>
        <time>2022-01-01T09:46:03Z</time>
      </trkpt>
      <trkpt lat="45.62109" lon="6.66098">
        <ele>2417.2</ele>
        <time>2022-01-01T09:46:04Z</time>
      </trkpt>
      <trkpt lat="45.62104" lon="6.66098">
        <ele>2415.4</ele>
        <time>2022-01-01T09:46:05Z</time>
      </trkpt>
      <trkpt lat="45.621" lon="6.66097">
        <ele>2414.2</ele>
        <time>2022-01-01T09:46:06Z</time>
      </trkpt>
      <trkpt lat="45.62097" lon="6.66095">
        <ele>2412.8</ele>
        <time>2022-01-01T09:46:07Z</time>
      </trkpt>
      <trkpt lat="45.62094" lon="6.66091">
        <ele>2411.2</ele>
        <time>2022-01-01T09:46:08Z</time>
      </trkpt>
      <trkpt lat="45.62092" lon="6.66088">
        <ele>2410.4</ele>
        <time>2022-01-01T09:46:09Z</time>
      </trkpt>
      <trkpt lat="45.6209" lon="6.66084">
        <ele>2410</ele>
        <time>2022-01-01T09:46:10Z</time>
      </trkpt>
      <trkpt lat="45.62077" lon="6.66071">
        <ele>2408.6</ele>
        <time>2022-01-01T09:46:14Z</time>
      </trkpt>
      <trkpt lat="45.62073" lon="6.6607">
        <ele>2408</ele>
        <time>2022-01-01T09:46:15Z</time>
      </trkpt>
      <trkpt lat="45.6207" lon="6.66073">
        <ele>2407.4</ele>
        <time>2022-01-01T09:46:16Z</time>
      </trkpt>
      <trkpt lat="45.62062" lon="6.66079">
        <ele>2405.8</ele>
        <time>2022-01-01T09:46:18Z</time>
      </trkpt>
      <trkpt lat="45.62057" lon="6.6608">
        <ele>2404.6</ele>
        <time>2022-01-01T09:46:19Z</time>
      </trkpt>
      <trkpt lat="45.6205" lon="6.6608">
        <ele>2403.2</ele>
        <time>2022-01-01T09:46:21Z</time>
      </trkpt>
      <trkpt lat="45.62046" lon="6.6608">
        <ele>2402.4</ele>
        <time>2022-01-01T09:46:22Z</time>
      </trkpt>
      <trkpt lat="45.62042" lon="6.66079">
        <ele>2402</ele>
        <time>2022-01-01T09:46:23Z</time>
      </trkpt>
      <trkpt lat="45.62038" lon="6.66078">
        <ele>2401.8</ele>
        <time>2022-01-01T09:46:24Z</time>
      </trkpt>
      <trkpt lat="45.62031" lon="6.66077">
        <ele>2401.2</ele>
        <time>2022-01-01T09:46:26Z</time>
      </trkpt>
      <trkpt lat="45.62028" lon="6.66076">
        <ele>2400.8</ele>
        <time>2022-01-01T09:46:27Z</time>
      </trkpt>
      <trkpt lat="45.62025" lon="6.66076">
        <ele>2400</ele>
        <time>2022-01-01T09:46:28Z</time>
      </trkpt>
      <trkpt lat="45.62023" lon="6.66075">
        <ele>2399.6</ele>
        <time>2022-01-01T09:46:29Z</time>
      </trkpt>
      <trkpt lat="45.62021" lon="6.66075">
        <ele>2399.2</ele>
        <time>2022-01-01T09:46:30Z</time>
      </trkpt>
      <trkpt lat="45.6202" lon="6.66076">
        <ele>2399</ele>
        <time>2022-01-01T09:46:31Z</time>
      </trkpt>
      <trkpt lat="45.62015" lon="6.66077">
        <ele>2398.6</ele>
        <time>2022-01-01T09:46:33Z</time>
      </trkpt>
      <trkpt lat="45.62014" lon="6.66077">
        <ele>2398</ele>
        <time>2022-01-01T09:46:34Z</time>
      </trkpt>
      <trkpt lat="45.62013" lon="6.66077">
        <ele>2397.2</ele>
        <time>2022-01-01T09:46:35Z</time>
      </trkpt>
      <trkpt lat="45.6201" lon="6.66076">
        <ele>2396</ele>
        <time>2022-01-01T09:46:37Z</time>
      </trkpt>
      <trkpt lat="45.62008" lon="6.66072">
        <ele>2394.6</ele>
        <time>2022-01-01T09:46:39Z</time>
      </trkpt>
      <trkpt lat="45.62006" lon="6.6607">
        <ele>2393.4</ele>
        <time>2022-01-01T09:46:41Z</time>
      </trkpt>
      <trkpt lat="45.62003" lon="6.66073">
        <ele>2392.8</ele>
        <time>2022-01-01T09:46:43Z</time>
      </trkpt>
      <trkpt lat="45.62" lon="6.66074">
        <ele>2391.6</ele>
        <time>2022-01-01T09:46:44Z</time>
      </trkpt>
      <trkpt lat="45.61995" lon="6.66071">
        <ele>2389.6</ele>
        <time>2022-01-01T09:46:46Z</time>
      </trkpt>
      <trkpt lat="45.61993" lon="6.66068">
        <ele>2388.2</ele>
        <time>2022-01-01T09:46:47Z</time>
      </trkpt>
      <trkpt lat="45.61993" lon="6.66066">
        <ele>2387.2</ele>
        <time>2022-01-01T09:46:48Z</time>
      </trkpt>
      <trkpt lat="45.61992" lon="6.66061">
        <ele>2385.2</ele>
        <time>2022-01-01T09:46:50Z</time>
      </trkpt>
      <trkpt lat="45.61992" lon="6.66058">
        <ele>2384</ele>
        <time>2022-01-01T09:46:53Z</time>
      </trkpt>
      <trkpt lat="45.61992" lon="6.66057">
        <ele>2384</ele>
        <time>2022-01-01T09:46:55Z</time>
      </trkpt>
      <trkpt lat="45.61987" lon="6.66057">
        <ele>2382.6</ele>
        <time>2022-01-01T09:47:00Z</time>
      </trkpt>
      <trkpt lat="45.61985" lon="6.66056">
        <ele>2382</ele>
        <time>2022-01-01T09:47:01Z</time>
      </trkpt>
      <trkpt lat="45.61983" lon="6.66054">
        <ele>2381.6</ele>
        <time>2022-01-01T09:47:02Z</time>
      </trkpt>
      <trkpt lat="45.61984" lon="6.6605">
        <ele>2380.2</ele>
        <time>2022-01-01T09:47:04Z</time>
      </trkpt>
      <trkpt lat="45.61984" lon="6.66048">
        <ele>2379.2</ele>
        <time>2022-01-01T09:47:06Z</time>
      </trkpt>
      <trkpt lat="45.61985" lon="6.66045">
        <ele>2378.6</ele>
        <time>2022-01-01T09:47:08Z</time>
      </trkpt>
      <trkpt lat="45.61986" lon="6.66044">
        <ele>2378</ele>
        <time>2022-01-01T09:47:09Z</time>
      </trkpt>
      <trkpt lat="45.61987" lon="6.66044">
        <ele>2377.2</ele>
        <time>2022-01-01T09:47:11Z</time>
      </trkpt>
      <trkpt lat="45.61988" lon="6.66043">
        <ele>2377</ele>
        <time>2022-01-01T09:47:12Z</time>
      </trkpt>
      <trkpt lat="45.61993" lon="6.66038">
        <ele>2375.8</ele>
        <time>2022-01-01T09:47:16Z</time>
      </trkpt>
      <trkpt lat="45.61998" lon="6.66035">
        <ele>2374.2</ele>
        <time>2022-01-01T09:47:18Z</time>
      </trkpt>
      <trkpt lat="45.62002" lon="6.66032">
        <ele>2372.8</ele>
        <time>2022-01-01T09:47:20Z</time>
      </trkpt>
      <trkpt lat="45.62005" lon="6.66028">
        <ele>2370.8</ele>
        <time>2022-01-01T09:47:22Z</time>
      </trkpt>
      <trkpt lat="45.62007" lon="6.66026">
        <ele>2369.8</ele>
        <time>2022-01-01T09:47:23Z</time>
      </trkpt>
      <trkpt lat="45.62012" lon="6.66023">
        <ele>2367.8</ele>
        <time>2022-01-01T09:47:25Z</time>
      </trkpt>
      <trkpt lat="45.62019" lon="6.66017">
        <ele>2365.8</ele>
        <time>2022-01-01T09:47:27Z</time>
      </trkpt>
      <trkpt lat="45.62022" lon="6.66015">
        <ele>2364.4</ele>
        <time>2022-01-01T09:47:28Z</time>
      </trkpt>
      <trkpt lat="45.62025" lon="6.66012">
        <ele>2363.2</ele>
        <time>2022-01-01T09:47:29Z</time>
      </trkpt>
      <trkpt lat="45.62031" lon="6.66006">
        <ele>2361.8</ele>
        <time>2022-01-01T09:47:31Z</time>
      </trkpt>
      <trkpt lat="45.62037" lon="6.66001">
        <ele>2361.4</ele>
        <time>2022-01-01T09:47:33Z</time>
      </trkpt>
      <trkpt lat="45.62043" lon="6.65996">
        <ele>2360.8</ele>
        <time>2022-01-01T09:47:35Z</time>
      </trkpt>
      <trkpt lat="45.62048" lon="6.65991">
        <ele>2360</ele>
        <time>2022-01-01T09:47:37Z</time>
      </trkpt>
      <trkpt lat="45.62051" lon="6.65988">
        <ele>2359.4</ele>
        <time>2022-01-01T09:47:38Z</time>
      </trkpt>
      <trkpt lat="45.62058" lon="6.65984">
        <ele>2357.8</ele>
        <time>2022-01-01T09:47:40Z</time>
      </trkpt>
      <trkpt lat="45.62065" lon="6.65982">
        <ele>2356.8</ele>
        <time>2022-01-01T09:47:42Z</time>
      </trkpt>
      <trkpt lat="45.62072" lon="6.65981">
        <ele>2356.2</ele>
        <time>2022-01-01T09:47:44Z</time>
      </trkpt>
      <trkpt lat="45.62079" lon="6.6598">
        <ele>2355.6</ele>
        <time>2022-01-01T09:47:46Z</time>
      </trkpt>
      <trkpt lat="45.62095" lon="6.65977">
        <ele>2354.6</ele>
        <time>2022-01-01T09:47:50Z</time>
      </trkpt>
      <trkpt lat="45.621" lon="6.65976">
        <ele>2353.4</ele>
        <time>2022-01-01T09:47:51Z</time>
      </trkpt>
      <trkpt lat="45.6211" lon="6.65974">
        <ele>2351.6</ele>
        <time>2022-01-01T09:47:53Z</time>
      </trkpt>
      <trkpt lat="45.62124" lon="6.65972">
        <ele>2350.4</ele>
        <time>2022-01-01T09:47:56Z</time>
      </trkpt>
      <trkpt lat="45.62128" lon="6.65971">
        <ele>2350.4</ele>
        <time>2022-01-01T09:47:57Z</time>
      </trkpt>
      <trkpt lat="45.62128" lon="6.65971">
        <ele>2350.2</ele>
        <time>2022-01-01T09:47:58Z</time>
      </trkpt>
      <trkpt lat="45.62152" lon="6.65967">
        <ele>2349.4</ele>
        <time>2022-01-01T09:48:04Z</time>
      </trkpt>
      <trkpt lat="45.62163" lon="6.65964">
        <ele>2348.4</ele>
        <time>2022-01-01T09:48:07Z</time>
      </trkpt>
      <trkpt lat="45.62175" lon="6.65959">
        <ele>2347.4</ele>
        <time>2022-01-01T09:48:11Z</time>
      </trkpt>
      <trkpt lat="45.62183" lon="6.65957">
        <ele>2346.2</ele>
        <time>2022-01-01T09:48:13Z</time>
      </trkpt>
      <trkpt lat="45.62187" lon="6.65957">
        <ele>2345.8</ele>
        <time>2022-01-01T09:48:14Z</time>
      </trkpt>
      <trkpt lat="45.62201" lon="6.65954">
        <ele>2345.2</ele>
        <time>2022-01-01T09:48:19Z</time>
      </trkpt>
      <trkpt lat="45.62205" lon="6.65953">
        <ele>2344.8</ele>
        <time>2022-01-01T09:48:20Z</time>
      </trkpt>
      <trkpt lat="45.62212" lon="6.65951">
        <ele>2344</ele>
        <time>2022-01-01T09:48:22Z</time>
      </trkpt>
      <trkpt lat="45.62219" lon="6.65949">
        <ele>2343</ele>
        <time>2022-01-01T09:48:24Z</time>
      </trkpt>
      <trkpt lat="45.62233" lon="6.65948">
        <ele>2341.8</ele>
        <time>2022-01-01T09:48:28Z</time>
      </trkpt>
      <trkpt lat="45.62235" lon="6.65948">
        <ele>2341.6</ele>
        <time>2022-01-01T09:48:29Z</time>
      </trkpt>
      <trkpt lat="45.62241" lon="6.6595">
        <ele>2341</ele>
        <time>2022-01-01T09:48:31Z</time>
      </trkpt>
      <trkpt lat="45.62245" lon="6.65953">
        <ele>2340.8</ele>
        <time>2022-01-01T09:48:33Z</time>
      </trkpt>
      <trkpt lat="45.62249" lon="6.65957">
        <ele>2340</ele>
        <time>2022-01-01T09:48:35Z</time>
      </trkpt>
      <trkpt lat="45.62252" lon="6.6596">
        <ele>2339.6</ele>
        <time>2022-01-01T09:48:36Z</time>
      </trkpt>
      <trkpt lat="45.62262" lon="6.65975">
        <ele>2338.4</ele>
        <time>2022-01-01T09:48:40Z</time>
      </trkpt>
      <trkpt lat="45.62267" lon="6.65983">
        <ele>2337</ele>
        <time>2022-01-01T09:48:42Z</time>
      </trkpt>
      <trkpt lat="45.62274" lon="6.65993">
        <ele>2335.8</ele>
        <time>2022-01-01T09:48:45Z</time>
      </trkpt>
      <trkpt lat="45.6228" lon="6.66003">
        <ele>2335.2</ele>
        <time>2022-01-01T09:48:48Z</time>
      </trkpt>
      <trkpt lat="45.62289" lon="6.66012">
        <ele>2334.2</ele>
        <time>2022-01-01T09:48:52Z</time>
      </trkpt>
      <trkpt lat="45.62294" lon="6.66018">
        <ele>2333</ele>
        <time>2022-01-01T09:48:54Z</time>
      </trkpt>
      <trkpt lat="45.62296" lon="6.66021">
        <ele>2332.8</ele>
        <time>2022-01-01T09:48:55Z</time>
      </trkpt>
      <trkpt lat="45.62299" lon="6.6603">
        <ele>2332</ele>
        <time>2022-01-01T09:48:57Z</time>
      </trkpt>
      <trkpt lat="45.62301" lon="6.66035">
        <ele>2331.6</ele>
        <time>2022-01-01T09:48:58Z</time>
      </trkpt>
      <trkpt lat="45.62307" lon="6.6605">
        <ele>2330.6</ele>
        <time>2022-01-01T09:49:01Z</time>
      </trkpt>
      <trkpt lat="45.6231" lon="6.66055">
        <ele>2330.2</ele>
        <time>2022-01-01T09:49:02Z</time>
      </trkpt>
      <trkpt lat="45.62314" lon="6.66066">
        <ele>2329.4</ele>
        <time>2022-01-01T09:49:04Z</time>
      </trkpt>
      <trkpt lat="45.62316" lon="6.66072">
        <ele>2329</ele>
        <time>2022-01-01T09:49:05Z</time>
      </trkpt>
      <trkpt lat="45.62325" lon="6.66086">
        <ele>2327.6</ele>
        <time>2022-01-01T09:49:08Z</time>
      </trkpt>
      <trkpt lat="45.62326" lon="6.66092">
        <ele>2327.2</ele>
        <time>2022-01-01T09:49:09Z</time>
      </trkpt>
      <trkpt lat="45.6233" lon="6.66103">
        <ele>2326.6</ele>
        <time>2022-01-01T09:49:11Z</time>
      </trkpt>
      <trkpt lat="45.62335" lon="6.6611">
        <ele>2325.4</ele>
        <time>2022-01-01T09:49:13Z</time>
      </trkpt>
      <trkpt lat="45.62338" lon="6.66115">
        <ele>2324.6</ele>
        <time>2022-01-01T09:49:15Z</time>
      </trkpt>
      <trkpt lat="45.6234" lon="6.66116">
        <ele>2324.4</ele>
        <time>2022-01-01T09:49:16Z</time>
      </trkpt>
      <trkpt lat="45.62344" lon="6.66114">
        <ele>2324</ele>
        <time>2022-01-01T09:49:17Z</time>
      </trkpt>
      <trkpt lat="45.62347" lon="6.66115">
        <ele>2322.4</ele>
        <time>2022-01-01T09:49:19Z</time>
      </trkpt>
      <trkpt lat="45.62349" lon="6.66115">
        <ele>2321.4</ele>
        <time>2022-01-01T09:49:20Z</time>
      </trkpt>
      <trkpt lat="45.62352" lon="6.66116">
        <ele>2319.8</ele>
        <time>2022-01-01T09:49:21Z</time>
      </trkpt>
      <trkpt lat="45.62353" lon="6.66115">
        <ele>2318</ele>
        <time>2022-01-01T09:49:22Z</time>
      </trkpt>
      <trkpt lat="45.62357" lon="6.66108">
        <ele>2315.4</ele>
        <time>2022-01-01T09:49:24Z</time>
      </trkpt>
      <trkpt lat="45.6236" lon="6.66107">
        <ele>2313.6</ele>
        <time>2022-01-01T09:49:25Z</time>
      </trkpt>
      <trkpt lat="45.62363" lon="6.66108">
        <ele>2312.4</ele>
        <time>2022-01-01T09:49:26Z</time>
      </trkpt>
      <trkpt lat="45.62366" lon="6.66112">
        <ele>2310.2</ele>
        <time>2022-01-01T09:49:27Z</time>
      </trkpt>
      <trkpt lat="45.62368" lon="6.66115">
        <ele>2308.6</ele>
        <time>2022-01-01T09:49:28Z</time>
      </trkpt>
      <trkpt lat="45.62371" lon="6.66116">
        <ele>2307.6</ele>
        <time>2022-01-01T09:49:29Z</time>
      </trkpt>
      <trkpt lat="45.62373" lon="6.66115">
        <ele>2305.8</ele>
        <time>2022-01-01T09:49:31Z</time>
      </trkpt>
      <trkpt lat="45.62376" lon="6.66114">
        <ele>2304</ele>
        <time>2022-01-01T09:49:32Z</time>
      </trkpt>
      <trkpt lat="45.62381" lon="6.66115">
        <ele>2302.6</ele>
        <time>2022-01-01T09:49:33Z</time>
      </trkpt>
      <trkpt lat="45.62384" lon="6.66118">
        <ele>2300.6</ele>
        <time>2022-01-01T09:49:34Z</time>
      </trkpt>
      <trkpt lat="45.62387" lon="6.6612">
        <ele>2298.4</ele>
        <time>2022-01-01T09:49:35Z</time>
      </trkpt>
      <trkpt lat="45.62389" lon="6.66124">
        <ele>2296.8</ele>
        <time>2022-01-01T09:49:36Z</time>
      </trkpt>
      <trkpt lat="45.62394" lon="6.66132">
        <ele>2295.2</ele>
        <time>2022-01-01T09:49:38Z</time>
      </trkpt>
      <trkpt lat="45.62399" lon="6.6614">
        <ele>2294.2</ele>
        <time>2022-01-01T09:49:40Z</time>
      </trkpt>
      <trkpt lat="45.62401" lon="6.66145">
        <ele>2293.6</ele>
        <time>2022-01-01T09:49:41Z</time>
      </trkpt>
      <trkpt lat="45.62407" lon="6.66162">
        <ele>2292.6</ele>
        <time>2022-01-01T09:49:44Z</time>
      </trkpt>
      <trkpt lat="45.62409" lon="6.66168">
        <ele>2291.8</ele>
        <time>2022-01-01T09:49:45Z</time>
      </trkpt>
      <trkpt lat="45.62411" lon="6.66174">
        <ele>2291.6</ele>
        <time>2022-01-01T09:49:46Z</time>
      </trkpt>
      <trkpt lat="45.62416" lon="6.66186">
        <ele>2289.8</ele>
        <time>2022-01-01T09:49:48Z</time>
      </trkpt>
      <trkpt lat="45.62422" lon="6.66195">
        <ele>2288.4</ele>
        <time>2022-01-01T09:49:50Z</time>
      </trkpt>
      <trkpt lat="45.62428" lon="6.66202">
        <ele>2287.6</ele>
        <time>2022-01-01T09:49:52Z</time>
      </trkpt>
      <trkpt lat="45.62431" lon="6.66207">
        <ele>2286.6</ele>
        <time>2022-01-01T09:49:53Z</time>
      </trkpt>
      <trkpt lat="45.62436" lon="6.66218">
        <ele>2285.2</ele>
        <time>2022-01-01T09:49:55Z</time>
      </trkpt>
      <trkpt lat="45.62439" lon="6.66223">
        <ele>2284.2</ele>
        <time>2022-01-01T09:49:56Z</time>
      </trkpt>
      <trkpt lat="45.62444" lon="6.66235">
        <ele>2282.8</ele>
        <time>2022-01-01T09:49:58Z</time>
      </trkpt>
      <trkpt lat="45.62448" lon="6.66246">
        <ele>2281.6</ele>
        <time>2022-01-01T09:50:00Z</time>
      </trkpt>
      <trkpt lat="45.62453" lon="6.66257">
        <ele>2281.2</ele>
        <time>2022-01-01T09:50:02Z</time>
      </trkpt>
      <trkpt lat="45.62457" lon="6.66267">
        <ele>2280.6</ele>
        <time>2022-01-01T09:50:04Z</time>
      </trkpt>
      <trkpt lat="45.6246" lon="6.66272">
        <ele>2280.2</ele>
        <time>2022-01-01T09:50:06Z</time>
      </trkpt>
      <trkpt lat="45.62463" lon="6.6627">
        <ele>2279.8</ele>
        <time>2022-01-01T09:50:07Z</time>
      </trkpt>
      <trkpt lat="45.62465" lon="6.66268">
        <ele>2279.2</ele>
        <time>2022-01-01T09:50:08Z</time>
      </trkpt>
      <trkpt lat="45.62469" lon="6.66269">
        <ele>2278</ele>
        <time>2022-01-01T09:50:09Z</time>
      </trkpt>
      <trkpt lat="45.62472" lon="6.66272">
        <ele>2276.2</ele>
        <time>2022-01-01T09:50:10Z</time>
      </trkpt>
      <trkpt lat="45.62474" lon="6.66276">
        <ele>2274.4</ele>
        <time>2022-01-01T09:50:11Z</time>
      </trkpt>
      <trkpt lat="45.62477" lon="6.6628">
        <ele>2273</ele>
        <time>2022-01-01T09:50:12Z</time>
      </trkpt>
      <trkpt lat="45.62479" lon="6.66282">
        <ele>2272.4</ele>
        <time>2022-01-01T09:50:13Z</time>
      </trkpt>
      <trkpt lat="45.62481" lon="6.66281">
        <ele>2271.8</ele>
        <time>2022-01-01T09:50:14Z</time>
      </trkpt>
      <trkpt lat="45.62486" lon="6.66277">
        <ele>2269.6</ele>
        <time>2022-01-01T09:50:16Z</time>
      </trkpt>
      <trkpt lat="45.62489" lon="6.6628">
        <ele>2268.4</ele>
        <time>2022-01-01T09:50:17Z</time>
      </trkpt>
      <trkpt lat="45.62492" lon="6.66284">
        <ele>2267</ele>
        <time>2022-01-01T09:50:18Z</time>
      </trkpt>
      <trkpt lat="45.62496" lon="6.6629">
        <ele>2264.8</ele>
        <time>2022-01-01T09:50:19Z</time>
      </trkpt>
      <trkpt lat="45.62499" lon="6.66296">
        <ele>2263</ele>
        <time>2022-01-01T09:50:20Z</time>
      </trkpt>
      <trkpt lat="45.62502" lon="6.66302">
        <ele>2261.8</ele>
        <time>2022-01-01T09:50:21Z</time>
      </trkpt>
      <trkpt lat="45.62508" lon="6.66312">
        <ele>2260.8</ele>
        <time>2022-01-01T09:50:23Z</time>
      </trkpt>
      <trkpt lat="45.62512" lon="6.66318">
        <ele>2260.6</ele>
        <time>2022-01-01T09:50:24Z</time>
      </trkpt>
      <trkpt lat="45.62519" lon="6.66328">
        <ele>2259.4</ele>
        <time>2022-01-01T09:50:26Z</time>
      </trkpt>
      <trkpt lat="45.62526" lon="6.66336">
        <ele>2258.8</ele>
        <time>2022-01-01T09:50:28Z</time>
      </trkpt>
      <trkpt lat="45.62533" lon="6.66343">
        <ele>2258.2</ele>
        <time>2022-01-01T09:50:30Z</time>
      </trkpt>
      <trkpt lat="45.62539" lon="6.66348">
        <ele>2256.8</ele>
        <time>2022-01-01T09:50:32Z</time>
      </trkpt>
      <trkpt lat="45.62544" lon="6.66355">
        <ele>2255.6</ele>
        <time>2022-01-01T09:50:34Z</time>
      </trkpt>
      <trkpt lat="45.62546" lon="6.66358">
        <ele>2255</ele>
        <time>2022-01-01T09:50:35Z</time>
      </trkpt>
      <trkpt lat="45.62555" lon="6.66369">
        <ele>2254.4</ele>
        <time>2022-01-01T09:50:38Z</time>
      </trkpt>
      <trkpt lat="45.62559" lon="6.66374">
        <ele>2253.2</ele>
        <time>2022-01-01T09:50:40Z</time>
      </trkpt>
      <trkpt lat="45.62564" lon="6.66379">
        <ele>2252.2</ele>
        <time>2022-01-01T09:50:44Z</time>
      </trkpt>
      <trkpt lat="45.62564" lon="6.66379">
        <ele>2251.8</ele>
        <time>2022-01-01T09:50:45Z</time>
      </trkpt>
      <trkpt lat="45.6256" lon="6.66373">
        <ele>2250.8</ele>
        <time>2022-01-01T09:50:54Z</time>
      </trkpt>
      <trkpt lat="45.62561" lon="6.6637">
        <ele>2250</ele>
        <time>2022-01-01T09:50:55Z</time>
      </trkpt>
      <trkpt lat="45.62564" lon="6.66369">
        <ele>2249</ele>
        <time>2022-01-01T09:50:56Z</time>
      </trkpt>
      <trkpt lat="45.62567" lon="6.66368">
        <ele>2248</ele>
        <time>2022-01-01T09:50:57Z</time>
      </trkpt>
      <trkpt lat="45.62569" lon="6.66366">
        <ele>2246.2</ele>
        <time>2022-01-01T09:50:58Z</time>
      </trkpt>
      <trkpt lat="45.62572" lon="6.66363">
        <ele>2245</ele>
        <time>2022-01-01T09:50:59Z</time>
      </trkpt>
      <trkpt lat="45.62575" lon="6.6636">
        <ele>2243.8</ele>
        <time>2022-01-01T09:51:00Z</time>
      </trkpt>
      <trkpt lat="45.62578" lon="6.66358">
        <ele>2242.2</ele>
        <time>2022-01-01T09:51:01Z</time>
      </trkpt>
      <trkpt lat="45.62581" lon="6.66358">
        <ele>2240.2</ele>
        <time>2022-01-01T09:51:02Z</time>
      </trkpt>
      <trkpt lat="45.62583" lon="6.66357">
        <ele>2238</ele>
        <time>2022-01-01T09:51:03Z</time>
      </trkpt>
      <trkpt lat="45.62583" lon="6.66354">
        <ele>2237</ele>
        <time>2022-01-01T09:51:04Z</time>
      </trkpt>
      <trkpt lat="45.62585" lon="6.66351">
        <ele>2235.4</ele>
        <time>2022-01-01T09:51:05Z</time>
      </trkpt>
      <trkpt lat="45.62587" lon="6.6635">
        <ele>2234</ele>
        <time>2022-01-01T09:51:06Z</time>
      </trkpt>
      <trkpt lat="45.62589" lon="6.6635">
        <ele>2232.8</ele>
        <time>2022-01-01T09:51:07Z</time>
      </trkpt>
      <trkpt lat="45.62592" lon="6.66351">
        <ele>2231.6</ele>
        <time>2022-01-01T09:51:08Z</time>
      </trkpt>
      <trkpt lat="45.62595" lon="6.6635">
        <ele>2230.8</ele>
        <time>2022-01-01T09:51:09Z</time>
      </trkpt>
      <trkpt lat="45.62597" lon="6.66345">
        <ele>2230</ele>
        <time>2022-01-01T09:51:10Z</time>
      </trkpt>
      <trkpt lat="45.62597" lon="6.66337">
        <ele>2228.6</ele>
        <time>2022-01-01T09:51:12Z</time>
      </trkpt>
      <trkpt lat="45.62598" lon="6.6633">
        <ele>2227.8</ele>
        <time>2022-01-01T09:51:14Z</time>
      </trkpt>
      <trkpt lat="45.626" lon="6.6633">
        <ele>2227.6</ele>
        <time>2022-01-01T09:51:15Z</time>
      </trkpt>
      <trkpt lat="45.62603" lon="6.66333">
        <ele>2226.8</ele>
        <time>2022-01-01T09:51:17Z</time>
      </trkpt>
      <trkpt lat="45.62604" lon="6.66334">
        <ele>2226.4</ele>
        <time>2022-01-01T09:51:18Z</time>
      </trkpt>
      <trkpt lat="45.62607" lon="6.66337">
        <ele>2225.8</ele>
        <time>2022-01-01T09:51:21Z</time>
      </trkpt>
      <trkpt lat="45.6261" lon="6.6634">
        <ele>2225.4</ele>
        <time>2022-01-01T09:51:23Z</time>
      </trkpt>
      <trkpt lat="45.62611" lon="6.66339">
        <ele>2225</ele>
        <time>2022-01-01T09:51:24Z</time>
      </trkpt>
      <trkpt lat="45.62613" lon="6.66337">
        <ele>2224.8</ele>
        <time>2022-01-01T09:51:25Z</time>
      </trkpt>
      <trkpt lat="45.62612" lon="6.66332">
        <ele>2224.2</ele>
        <time>2022-01-01T09:51:26Z</time>
      </trkpt>
      <trkpt lat="45.6261" lon="6.66328">
        <ele>2223.2</ele>
        <time>2022-01-01T09:51:27Z</time>
      </trkpt>
      <trkpt lat="45.62609" lon="6.66324">
        <ele>2221.6</ele>
        <time>2022-01-01T09:51:28Z</time>
      </trkpt>
      <trkpt lat="45.62608" lon="6.66321">
        <ele>2220.6</ele>
        <time>2022-01-01T09:51:29Z</time>
      </trkpt>
      <trkpt lat="45.62608" lon="6.66314">
        <ele>2219.4</ele>
        <time>2022-01-01T09:51:31Z</time>
      </trkpt>
      <trkpt lat="45.62612" lon="6.66311">
        <ele>2218.8</ele>
        <time>2022-01-01T09:51:33Z</time>
      </trkpt>
      <trkpt lat="45.62615" lon="6.66313">
        <ele>2218.4</ele>
        <time>2022-01-01T09:51:34Z</time>
      </trkpt>
      <trkpt lat="45.62617" lon="6.66316">
        <ele>2217.2</ele>
        <time>2022-01-01T09:51:35Z</time>
      </trkpt>
      <trkpt lat="45.6262" lon="6.66323">
        <ele>2215.6</ele>
        <time>2022-01-01T09:51:37Z</time>
      </trkpt>
      <trkpt lat="45.62626" lon="6.66333">
        <ele>2214.4</ele>
        <time>2022-01-01T09:51:40Z</time>
      </trkpt>
      <trkpt lat="45.6263" lon="6.66341">
        <ele>2213.8</ele>
        <time>2022-01-01T09:51:43Z</time>
      </trkpt>
      <trkpt lat="45.62632" lon="6.66339">
        <ele>2213.6</ele>
        <time>2022-01-01T09:51:44Z</time>
      </trkpt>
      <trkpt lat="45.62634" lon="6.66336">
        <ele>2213.2</ele>
        <time>2022-01-01T09:51:45Z</time>
      </trkpt>
      <trkpt lat="45.62635" lon="6.66332">
        <ele>2212</ele>
        <time>2022-01-01T09:51:46Z</time>
      </trkpt>
      <trkpt lat="45.62636" lon="6.66328">
        <ele>2211</ele>
        <time>2022-01-01T09:51:47Z</time>
      </trkpt>
      <trkpt lat="45.62638" lon="6.66326">
        <ele>2210.6</ele>
        <time>2022-01-01T09:51:48Z</time>
      </trkpt>
      <trkpt lat="45.62644" lon="6.66329">
        <ele>2209.8</ele>
        <time>2022-01-01T09:51:50Z</time>
      </trkpt>
      <trkpt lat="45.62646" lon="6.66331">
        <ele>2209.2</ele>
        <time>2022-01-01T09:51:51Z</time>
      </trkpt>
      <trkpt lat="45.62657" lon="6.66342">
        <ele>2207.8</ele>
        <time>2022-01-01T09:51:55Z</time>
      </trkpt>
      <trkpt lat="45.6266" lon="6.6634">
        <ele>2207.4</ele>
        <time>2022-01-01T09:51:56Z</time>
      </trkpt>
      <trkpt lat="45.62667" lon="6.66338">
        <ele>2206</ele>
        <time>2022-01-01T09:51:58Z</time>
      </trkpt>
      <trkpt lat="45.62674" lon="6.66342">
        <ele>2203.8</ele>
        <time>2022-01-01T09:52:00Z</time>
      </trkpt>
      <trkpt lat="45.62682" lon="6.66344">
        <ele>2202.6</ele>
        <time>2022-01-01T09:52:02Z</time>
      </trkpt>
      <trkpt lat="45.62687" lon="6.66344">
        <ele>2202.4</ele>
        <time>2022-01-01T09:52:03Z</time>
      </trkpt>
      <trkpt lat="45.62691" lon="6.66346">
        <ele>2201.4</ele>
        <time>2022-01-01T09:52:04Z</time>
      </trkpt>
      <trkpt lat="45.62694" lon="6.66349">
        <ele>2200.4</ele>
        <time>2022-01-01T09:52:05Z</time>
      </trkpt>
      <trkpt lat="45.62696" lon="6.66352">
        <ele>2199.4</ele>
        <time>2022-01-01T09:52:06Z</time>
      </trkpt>
      <trkpt lat="45.62701" lon="6.6636">
        <ele>2198.2</ele>
        <time>2022-01-01T09:52:08Z</time>
      </trkpt>
      <trkpt lat="45.62708" lon="6.66371">
        <ele>2197</ele>
        <time>2022-01-01T09:52:11Z</time>
      </trkpt>
      <trkpt lat="45.62722" lon="6.66364">
        <ele>2194.8</ele>
        <time>2022-01-01T09:52:14Z</time>
      </trkpt>
      <trkpt lat="45.62728" lon="6.66367">
        <ele>2192.8</ele>
        <time>2022-01-01T09:52:16Z</time>
      </trkpt>
      <trkpt lat="45.6273" lon="6.6637">
        <ele>2192.2</ele>
        <time>2022-01-01T09:52:17Z</time>
      </trkpt>
      <trkpt lat="45.6273" lon="6.66372">
        <ele>2191.4</ele>
        <time>2022-01-01T09:52:18Z</time>
      </trkpt>
      <trkpt lat="45.6273" lon="6.66374">
        <ele>2190.8</ele>
        <time>2022-01-01T09:52:19Z</time>
      </trkpt>
      <trkpt lat="45.62729" lon="6.66374">
        <ele>2190.4</ele>
        <time>2022-01-01T09:52:23Z</time>
      </trkpt>
      <trkpt lat="45.62729" lon="6.66373">
        <ele>2190.4</ele>
        <time>2022-01-01T09:52:32Z</time>
      </trkpt>
      <trkpt lat="45.62729" lon="6.66373">
        <ele>2190.2</ele>
        <time>2022-01-01T09:52:35Z</time>
      </trkpt>
      <trkpt lat="45.62732" lon="6.66379">
        <ele>2189</ele>
        <time>2022-01-01T09:53:51Z</time>
      </trkpt>
      <trkpt lat="45.62739" lon="6.66382">
        <ele>2188</ele>
        <time>2022-01-01T09:53:53Z</time>
      </trkpt>
      <trkpt lat="45.62742" lon="6.66379">
        <ele>2187.4</ele>
        <time>2022-01-01T09:53:54Z</time>
      </trkpt>
      <trkpt lat="45.62746" lon="6.66379">
        <ele>2186.4</ele>
        <time>2022-01-01T09:53:55Z</time>
      </trkpt>
      <trkpt lat="45.6275" lon="6.6638">
        <ele>2185.2</ele>
        <time>2022-01-01T09:53:56Z</time>
      </trkpt>
      <trkpt lat="45.62753" lon="6.66384">
        <ele>2183.6</ele>
        <time>2022-01-01T09:53:57Z</time>
      </trkpt>
      <trkpt lat="45.62757" lon="6.66388">
        <ele>2182</ele>
        <time>2022-01-01T09:53:58Z</time>
      </trkpt>
      <trkpt lat="45.62763" lon="6.66386">
        <ele>2180.4</ele>
        <time>2022-01-01T09:54:00Z</time>
      </trkpt>
      <trkpt lat="45.62767" lon="6.66384">
        <ele>2179.2</ele>
        <time>2022-01-01T09:54:01Z</time>
      </trkpt>
      <trkpt lat="45.62771" lon="6.66385">
        <ele>2178</ele>
        <time>2022-01-01T09:54:02Z</time>
      </trkpt>
      <trkpt lat="45.62774" lon="6.66388">
        <ele>2176.6</ele>
        <time>2022-01-01T09:54:03Z</time>
      </trkpt>
      <trkpt lat="45.62777" lon="6.66389">
        <ele>2175.4</ele>
        <time>2022-01-01T09:54:04Z</time>
      </trkpt>
      <trkpt lat="45.62783" lon="6.66384">
        <ele>2174</ele>
        <time>2022-01-01T09:54:06Z</time>
      </trkpt>
      <trkpt lat="45.62787" lon="6.66381">
        <ele>2173.4</ele>
        <time>2022-01-01T09:54:07Z</time>
      </trkpt>
      <trkpt lat="45.62792" lon="6.66381">
        <ele>2172.2</ele>
        <time>2022-01-01T09:54:08Z</time>
      </trkpt>
      <trkpt lat="45.62796" lon="6.66384">
        <ele>2170.8</ele>
        <time>2022-01-01T09:54:09Z</time>
      </trkpt>
      <trkpt lat="45.62799" lon="6.66388">
        <ele>2169.4</ele>
        <time>2022-01-01T09:54:10Z</time>
      </trkpt>
      <trkpt lat="45.62806" lon="6.66398">
        <ele>2168</ele>
        <time>2022-01-01T09:54:12Z</time>
      </trkpt>
      <trkpt lat="45.62816" lon="6.66397">
        <ele>2166.6</ele>
        <time>2022-01-01T09:54:14Z</time>
      </trkpt>
      <trkpt lat="45.62822" lon="6.66396">
        <ele>2165.6</ele>
        <time>2022-01-01T09:54:15Z</time>
      </trkpt>
      <trkpt lat="45.62827" lon="6.66397">
        <ele>2164.2</ele>
        <time>2022-01-01T09:54:16Z</time>
      </trkpt>
      <trkpt lat="45.62831" lon="6.66399">
        <ele>2162.8</ele>
        <time>2022-01-01T09:54:17Z</time>
      </trkpt>
      <trkpt lat="45.62835" lon="6.664">
        <ele>2162</ele>
        <time>2022-01-01T09:54:18Z</time>
      </trkpt>
      <trkpt lat="45.6284" lon="6.66399">
        <ele>2161</ele>
        <time>2022-01-01T09:54:19Z</time>
      </trkpt>
      <trkpt lat="45.62846" lon="6.664">
        <ele>2160.2</ele>
        <time>2022-01-01T09:54:20Z</time>
      </trkpt>
      <trkpt lat="45.6285" lon="6.66403">
        <ele>2159.2</ele>
        <time>2022-01-01T09:54:21Z</time>
      </trkpt>
      <trkpt lat="45.62857" lon="6.66408">
        <ele>2157.8</ele>
        <time>2022-01-01T09:54:23Z</time>
      </trkpt>
      <trkpt lat="45.62863" lon="6.66411">
        <ele>2157</ele>
        <time>2022-01-01T09:54:25Z</time>
      </trkpt>
      <trkpt lat="45.62868" lon="6.66408">
        <ele>2156.4</ele>
        <time>2022-01-01T09:54:27Z</time>
      </trkpt>
      <trkpt lat="45.62871" lon="6.66409">
        <ele>2156.2</ele>
        <time>2022-01-01T09:54:28Z</time>
      </trkpt>
      <trkpt lat="45.62875" lon="6.66414">
        <ele>2155.6</ele>
        <time>2022-01-01T09:54:30Z</time>
      </trkpt>
      <trkpt lat="45.62877" lon="6.66419">
        <ele>2155.4</ele>
        <time>2022-01-01T09:54:31Z</time>
      </trkpt>
      <trkpt lat="45.62883" lon="6.66433">
        <ele>2154</ele>
        <time>2022-01-01T09:54:34Z</time>
      </trkpt>
      <trkpt lat="45.62886" lon="6.66439">
        <ele>2153.4</ele>
        <time>2022-01-01T09:54:35Z</time>
      </trkpt>
      <trkpt lat="45.62889" lon="6.66445">
        <ele>2152.2</ele>
        <time>2022-01-01T09:54:36Z</time>
      </trkpt>
      <trkpt lat="45.62892" lon="6.6645">
        <ele>2150.4</ele>
        <time>2022-01-01T09:54:37Z</time>
      </trkpt>
      <trkpt lat="45.62894" lon="6.66456">
        <ele>2149.2</ele>
        <time>2022-01-01T09:54:38Z</time>
      </trkpt>
      <trkpt lat="45.62895" lon="6.6646">
        <ele>2148.2</ele>
        <time>2022-01-01T09:54:39Z</time>
      </trkpt>
      <trkpt lat="45.62896" lon="6.66464">
        <ele>2147.4</ele>
        <time>2022-01-01T09:54:40Z</time>
      </trkpt>
      <trkpt lat="45.62897" lon="6.66468">
        <ele>2146.4</ele>
        <time>2022-01-01T09:54:41Z</time>
      </trkpt>
      <trkpt lat="45.62899" lon="6.66476">
        <ele>2145.2</ele>
        <time>2022-01-01T09:54:43Z</time>
      </trkpt>
      <trkpt lat="45.629" lon="6.66479">
        <ele>2144.8</ele>
        <time>2022-01-01T09:54:44Z</time>
      </trkpt>
      <trkpt lat="45.62902" lon="6.66481">
        <ele>2144.2</ele>
        <time>2022-01-01T09:54:45Z</time>
      </trkpt>
      <trkpt lat="45.62907" lon="6.66487">
        <ele>2142.8</ele>
        <time>2022-01-01T09:54:48Z</time>
      </trkpt>
      <trkpt lat="45.62909" lon="6.66487">
        <ele>2142.4</ele>
        <time>2022-01-01T09:54:49Z</time>
      </trkpt>
      <trkpt lat="45.62911" lon="6.66485">
        <ele>2141.6</ele>
        <time>2022-01-01T09:54:50Z</time>
      </trkpt>
      <trkpt lat="45.62913" lon="6.6648">
        <ele>2141</ele>
        <time>2022-01-01T09:54:51Z</time>
      </trkpt>
      <trkpt lat="45.62916" lon="6.66478">
        <ele>2139.4</ele>
        <time>2022-01-01T09:54:52Z</time>
      </trkpt>
      <trkpt lat="45.6292" lon="6.66479">
        <ele>2138</ele>
        <time>2022-01-01T09:54:53Z</time>
      </trkpt>
      <trkpt lat="45.62925" lon="6.6648">
        <ele>2135.8</ele>
        <time>2022-01-01T09:54:54Z</time>
      </trkpt>
      <trkpt lat="45.62928" lon="6.6648">
        <ele>2133.6</ele>
        <time>2022-01-01T09:54:55Z</time>
      </trkpt>
      <trkpt lat="45.62931" lon="6.66479">
        <ele>2131.6</ele>
        <time>2022-01-01T09:54:56Z</time>
      </trkpt>
      <trkpt lat="45.62932" lon="6.66474">
        <ele>2129.8</ele>
        <time>2022-01-01T09:54:57Z</time>
      </trkpt>
      <trkpt lat="45.62935" lon="6.66472">
        <ele>2128</ele>
        <time>2022-01-01T09:54:58Z</time>
      </trkpt>
      <trkpt lat="45.62938" lon="6.66474">
        <ele>2125.6</ele>
        <time>2022-01-01T09:54:59Z</time>
      </trkpt>
      <trkpt lat="45.6294" lon="6.66475">
        <ele>2124</ele>
        <time>2022-01-01T09:55:00Z</time>
      </trkpt>
      <trkpt lat="45.62942" lon="6.66477">
        <ele>2122</ele>
        <time>2022-01-01T09:55:01Z</time>
      </trkpt>
      <trkpt lat="45.62944" lon="6.66477">
        <ele>2120.4</ele>
        <time>2022-01-01T09:55:02Z</time>
      </trkpt>
      <trkpt lat="45.62946" lon="6.66473">
        <ele>2119.2</ele>
        <time>2022-01-01T09:55:03Z</time>
      </trkpt>
      <trkpt lat="45.62949" lon="6.66472">
        <ele>2117.4</ele>
        <time>2022-01-01T09:55:04Z</time>
      </trkpt>
      <trkpt lat="45.62952" lon="6.66473">
        <ele>2115.4</ele>
        <time>2022-01-01T09:55:05Z</time>
      </trkpt>
      <trkpt lat="45.62955" lon="6.66476">
        <ele>2113</ele>
        <time>2022-01-01T09:55:06Z</time>
      </trkpt>
      <trkpt lat="45.62958" lon="6.66478">
        <ele>2111.2</ele>
        <time>2022-01-01T09:55:07Z</time>
      </trkpt>
      <trkpt lat="45.62961" lon="6.66476">
        <ele>2109.8</ele>
        <time>2022-01-01T09:55:08Z</time>
      </trkpt>
      <trkpt lat="45.62962" lon="6.66471">
        <ele>2108.4</ele>
        <time>2022-01-01T09:55:09Z</time>
      </trkpt>
      <trkpt lat="45.62963" lon="6.66466">
        <ele>2107.2</ele>
        <time>2022-01-01T09:55:10Z</time>
      </trkpt>
      <trkpt lat="45.62965" lon="6.66462">
        <ele>2106</ele>
        <time>2022-01-01T09:55:11Z</time>
      </trkpt>
      <trkpt lat="45.62969" lon="6.66463">
        <ele>2104.6</ele>
        <time>2022-01-01T09:55:12Z</time>
      </trkpt>
      <trkpt lat="45.62972" lon="6.66465">
        <ele>2103.6</ele>
        <time>2022-01-01T09:55:13Z</time>
      </trkpt>
      <trkpt lat="45.62973" lon="6.66468">
        <ele>2102</ele>
        <time>2022-01-01T09:55:14Z</time>
      </trkpt>
      <trkpt lat="45.62973" lon="6.66468">
        <ele>2101.2</ele>
        <time>2022-01-01T09:55:15Z</time>
      </trkpt>
      <trkpt lat="45.62973" lon="6.66467">
        <ele>2100.6</ele>
        <time>2022-01-01T09:55:16Z</time>
      </trkpt>
      <trkpt lat="45.62972" lon="6.66467">
        <ele>2100</ele>
        <time>2022-01-01T09:55:19Z</time>
      </trkpt>
      <trkpt lat="45.6297" lon="6.66468">
        <ele>2100</ele>
        <time>2022-01-01T09:55:26Z</time>
      </trkpt>
      <trkpt lat="45.6298" lon="6.66479">
        <ele>2099.2</ele>
        <time>2022-01-01T09:55:34Z</time>
      </trkpt>
      <trkpt lat="45.62987" lon="6.66489">
        <ele>2097.8</ele>
        <time>2022-01-01T09:55:36Z</time>
      </trkpt>
      <trkpt lat="45.62993" lon="6.66498">
        <ele>2096.6</ele>
        <time>2022-01-01T09:55:38Z</time>
      </trkpt>
      <trkpt lat="45.62999" lon="6.66509">
        <ele>2095.4</ele>
        <time>2022-01-01T09:55:41Z</time>
      </trkpt>
      <trkpt lat="45.63001" lon="6.66513">
        <ele>2094.8</ele>
        <time>2022-01-01T09:55:43Z</time>
      </trkpt>
      <trkpt lat="45.63006" lon="6.6652">
        <ele>2094.4</ele>
        <time>2022-01-01T09:55:46Z</time>
      </trkpt>
      <trkpt lat="45.6301" lon="6.66528">
        <ele>2093.6</ele>
        <time>2022-01-01T09:55:48Z</time>
      </trkpt>
      <trkpt lat="45.63012" lon="6.66532">
        <ele>2093</ele>
        <time>2022-01-01T09:55:49Z</time>
      </trkpt>
      <trkpt lat="45.63021" lon="6.66549">
        <ele>2091.2</ele>
        <time>2022-01-01T09:55:52Z</time>
      </trkpt>
      <trkpt lat="45.63029" lon="6.66564">
        <ele>2090</ele>
        <time>2022-01-01T09:55:55Z</time>
      </trkpt>
      <trkpt lat="45.6303" lon="6.66569">
        <ele>2089.6</ele>
        <time>2022-01-01T09:55:56Z</time>
      </trkpt>
      <trkpt lat="45.63032" lon="6.66575">
        <ele>2089.2</ele>
        <time>2022-01-01T09:55:57Z</time>
      </trkpt>
      <trkpt lat="45.63037" lon="6.66585">
        <ele>2088.8</ele>
        <time>2022-01-01T09:55:59Z</time>
      </trkpt>
      <trkpt lat="45.63041" lon="6.66593">
        <ele>2088</ele>
        <time>2022-01-01T09:56:01Z</time>
      </trkpt>
      <trkpt lat="45.63042" lon="6.66596">
        <ele>2087.8</ele>
        <time>2022-01-01T09:56:02Z</time>
      </trkpt>
      <trkpt lat="45.63042" lon="6.66597">
        <ele>2087.6</ele>
        <time>2022-01-01T09:56:04Z</time>
      </trkpt>
      <trkpt lat="45.63042" lon="6.66599">
        <ele>2087.6</ele>
        <time>2022-01-01T09:56:09Z</time>
      </trkpt>
      <trkpt lat="45.63044" lon="6.666">
        <ele>2087.4</ele>
        <time>2022-01-01T09:56:17Z</time>
      </trkpt>
      <trkpt lat="45.63039" lon="6.66594">
        <ele>2086.6</ele>
        <time>2022-01-01T09:57:24Z</time>
      </trkpt>
      <trkpt lat="45.63042" lon="6.66601">
        <ele>2086</ele>
        <time>2022-01-01T09:57:27Z</time>
      </trkpt>
      <trkpt lat="45.63042" lon="6.66603">
        <ele>2085.4</ele>
        <time>2022-01-01T09:57:28Z</time>
      </trkpt>
      <trkpt lat="45.63046" lon="6.66602">
        <ele>2084.8</ele>
        <time>2022-01-01T09:57:30Z</time>
      </trkpt>
      <trkpt lat="45.63048" lon="6.66599">
        <ele>2084</ele>
        <time>2022-01-01T09:57:31Z</time>
      </trkpt>
      <trkpt lat="45.63049" lon="6.66596">
        <ele>2082.4</ele>
        <time>2022-01-01T09:57:32Z</time>
      </trkpt>
      <trkpt lat="45.6305" lon="6.66592">
        <ele>2081.4</ele>
        <time>2022-01-01T09:57:33Z</time>
      </trkpt>
      <trkpt lat="45.63053" lon="6.66579">
        <ele>2080.2</ele>
        <time>2022-01-01T09:57:36Z</time>
      </trkpt>
      <trkpt lat="45.63056" lon="6.66575">
        <ele>2079.8</ele>
        <time>2022-01-01T09:57:37Z</time>
      </trkpt>
      <trkpt lat="45.6306" lon="6.66578">
        <ele>2078.8</ele>
        <time>2022-01-01T09:57:39Z</time>
      </trkpt>
      <trkpt lat="45.6306" lon="6.66588">
        <ele>2077.2</ele>
        <time>2022-01-01T09:57:41Z</time>
      </trkpt>
      <trkpt lat="45.63059" lon="6.66598">
        <ele>2075.4</ele>
        <time>2022-01-01T09:57:43Z</time>
      </trkpt>
      <trkpt lat="45.63059" lon="6.66609">
        <ele>2074.4</ele>
        <time>2022-01-01T09:57:45Z</time>
      </trkpt>
      <trkpt lat="45.63061" lon="6.66618">
        <ele>2073.2</ele>
        <time>2022-01-01T09:57:47Z</time>
      </trkpt>
      <trkpt lat="45.63064" lon="6.6663">
        <ele>2072</ele>
        <time>2022-01-01T09:57:50Z</time>
      </trkpt>
      <trkpt lat="45.63067" lon="6.66633">
        <ele>2071.4</ele>
        <time>2022-01-01T09:57:52Z</time>
      </trkpt>
      <trkpt lat="45.63069" lon="6.66632">
        <ele>2070.8</ele>
        <time>2022-01-01T09:57:53Z</time>
      </trkpt>
      <trkpt lat="45.6307" lon="6.66629">
        <ele>2069.2</ele>
        <time>2022-01-01T09:57:54Z</time>
      </trkpt>
      <trkpt lat="45.63071" lon="6.66625">
        <ele>2067.8</ele>
        <time>2022-01-01T09:57:55Z</time>
      </trkpt>
      <trkpt lat="45.63072" lon="6.66616">
        <ele>2066.2</ele>
        <time>2022-01-01T09:57:57Z</time>
      </trkpt>
      <trkpt lat="45.63076" lon="6.66607">
        <ele>2064.8</ele>
        <time>2022-01-01T09:58:00Z</time>
      </trkpt>
      <trkpt lat="45.63079" lon="6.66607">
        <ele>2064.4</ele>
        <time>2022-01-01T09:58:01Z</time>
      </trkpt>
      <trkpt lat="45.63084" lon="6.66612">
        <ele>2063.2</ele>
        <time>2022-01-01T09:58:03Z</time>
      </trkpt>
      <trkpt lat="45.63091" lon="6.66617">
        <ele>2062.2</ele>
        <time>2022-01-01T09:58:05Z</time>
      </trkpt>
      <trkpt lat="45.63096" lon="6.6662">
        <ele>2061.6</ele>
        <time>2022-01-01T09:58:08Z</time>
      </trkpt>
      <trkpt lat="45.63102" lon="6.66619">
        <ele>2061.4</ele>
        <time>2022-01-01T09:58:14Z</time>
      </trkpt>
      <trkpt lat="45.63101" lon="6.66617">
        <ele>2061</ele>
        <time>2022-01-01T09:58:19Z</time>
      </trkpt>
      <trkpt lat="45.63101" lon="6.66617">
        <ele>2061</ele>
        <time>2022-01-01T09:58:20Z</time>
      </trkpt>
      <trkpt lat="45.63101" lon="6.66615">
        <ele>2062</ele>
        <time>2022-01-01T09:58:30Z</time>
      </trkpt>
      <trkpt lat="45.63101" lon="6.66615">
        <ele>2061.4</ele>
        <time>2022-01-01T09:58:34Z</time>
      </trkpt>
      <trkpt lat="45.63102" lon="6.66615">
        <ele>2061</ele>
        <time>2022-01-01T09:58:50Z</time>
      </trkpt>
      <trkpt lat="45.63108" lon="6.6661">
        <ele>2060.4</ele>
        <time>2022-01-01T09:59:06Z</time>
      </trkpt>
      <trkpt lat="45.63113" lon="6.66606">
        <ele>2059.2</ele>
        <time>2022-01-01T09:59:08Z</time>
      </trkpt>
      <trkpt lat="45.63119" lon="6.66606">
        <ele>2058.2</ele>
        <time>2022-01-01T09:59:10Z</time>
      </trkpt>
      <trkpt lat="45.63121" lon="6.66605">
        <ele>2057.8</ele>
        <time>2022-01-01T09:59:11Z</time>
      </trkpt>
      <trkpt lat="45.63126" lon="6.66604">
        <ele>2057.4</ele>
        <time>2022-01-01T09:59:13Z</time>
      </trkpt>
      <trkpt lat="45.6313" lon="6.66602">
        <ele>2057</ele>
        <time>2022-01-01T09:59:16Z</time>
      </trkpt>
      <trkpt lat="45.63131" lon="6.666">
        <ele>2056.6</ele>
        <time>2022-01-01T09:59:17Z</time>
      </trkpt>
      <trkpt lat="45.63137" lon="6.6659">
        <ele>2056</ele>
        <time>2022-01-01T09:59:21Z</time>
      </trkpt>
      <trkpt lat="45.63143" lon="6.66575">
        <ele>2054.6</ele>
        <time>2022-01-01T09:59:23Z</time>
      </trkpt>
      <trkpt lat="45.63145" lon="6.66566">
        <ele>2053.2</ele>
        <time>2022-01-01T09:59:24Z</time>
      </trkpt>
      <trkpt lat="45.63146" lon="6.66559">
        <ele>2051.4</ele>
        <time>2022-01-01T09:59:25Z</time>
      </trkpt>
      <trkpt lat="45.63146" lon="6.66554">
        <ele>2050.2</ele>
        <time>2022-01-01T09:59:26Z</time>
      </trkpt>
      <trkpt lat="45.63148" lon="6.66552">
        <ele>2049.6</ele>
        <time>2022-01-01T09:59:27Z</time>
      </trkpt>
      <trkpt lat="45.63152" lon="6.6655">
        <ele>2049.2</ele>
        <time>2022-01-01T09:59:29Z</time>
      </trkpt>
      <trkpt lat="45.63155" lon="6.6655">
        <ele>2049</ele>
        <time>2022-01-01T09:59:32Z</time>
      </trkpt>
      <trkpt lat="45.63163" lon="6.66546">
        <ele>2048</ele>
        <time>2022-01-01T09:59:36Z</time>
      </trkpt>
      <trkpt lat="45.63165" lon="6.66544">
        <ele>2047.8</ele>
        <time>2022-01-01T09:59:38Z</time>
      </trkpt>
      <trkpt lat="45.63174" lon="6.66532">
        <ele>2047</ele>
        <time>2022-01-01T09:59:42Z</time>
      </trkpt>
      <trkpt lat="45.63178" lon="6.66527">
        <ele>2046.4</ele>
        <time>2022-01-01T09:59:43Z</time>
      </trkpt>
      <trkpt lat="45.63181" lon="6.66517">
        <ele>2046</ele>
        <time>2022-01-01T09:59:46Z</time>
      </trkpt>
      <trkpt lat="45.63181" lon="6.66516">
        <ele>2046</ele>
        <time>2022-01-01T09:59:47Z</time>
      </trkpt>
      <trkpt lat="45.63182" lon="6.66519">
        <ele>2046</ele>
        <time>2022-01-01T09:59:51Z</time>
      </trkpt>
      <trkpt lat="45.63183" lon="6.66518">
        <ele>2046</ele>
        <time>2022-01-01T09:59:53Z</time>
      </trkpt>
      <trkpt lat="45.63184" lon="6.6651">
        <ele>2045.6</ele>
        <time>2022-01-01T09:59:59Z</time>
      </trkpt>
      <trkpt lat="45.63192" lon="6.665">
        <ele>2044.8</ele>
        <time>2022-01-01T10:00:04Z</time>
      </trkpt>
      <trkpt lat="45.63194" lon="6.66498">
        <ele>2044.6</ele>
        <time>2022-01-01T10:00:06Z</time>
      </trkpt>
      <trkpt lat="45.63196" lon="6.665">
        <ele>2044.4</ele>
        <time>2022-01-01T10:00:08Z</time>
      </trkpt>
      <trkpt lat="45.63198" lon="6.66498">
        <ele>2044.4</ele>
        <time>2022-01-01T10:00:14Z</time>
      </trkpt>
      <trkpt lat="45.63199" lon="6.66495">
        <ele>2044.4</ele>
        <time>2022-01-01T10:00:21Z</time>
      </trkpt>
      <trkpt lat="45.632" lon="6.66495">
        <ele>2043.6</ele>
        <time>2022-01-01T10:00:25Z</time>
      </trkpt>
      <trkpt lat="45.632" lon="6.66495">
        <ele>2043.2</ele>
        <time>2022-01-01T10:00:28Z</time>
      </trkpt>
      <trkpt lat="45.632" lon="6.66495">
        <ele>2042.6</ele>
        <time>2022-01-01T10:00:39Z</time>
      </trkpt>
      <trkpt lat="45.63207" lon="6.665">
        <ele>2042.6</ele>
        <time>2022-01-01T10:00:50Z</time>
      </trkpt>
      <trkpt lat="45.6322" lon="6.66514">
        <ele>2041.8</ele>
        <time>2022-01-01T10:00:55Z</time>
      </trkpt>
      <trkpt lat="45.63227" lon="6.66525">
        <ele>2041.4</ele>
        <time>2022-01-01T10:01:00Z</time>
      </trkpt>
      <trkpt lat="45.63228" lon="6.66529">
        <ele>2041.2</ele>
        <time>2022-01-01T10:01:02Z</time>
      </trkpt>
      <trkpt lat="45.63238" lon="6.66545">
        <ele>2040.4</ele>
        <time>2022-01-01T10:01:08Z</time>
      </trkpt>
      <trkpt lat="45.6324" lon="6.66547">
        <ele>2040.2</ele>
        <time>2022-01-01T10:01:09Z</time>
      </trkpt>
      <trkpt lat="45.63253" lon="6.66563">
        <ele>2039.4</ele>
        <time>2022-01-01T10:01:15Z</time>
      </trkpt>
      <trkpt lat="45.63256" lon="6.66567">
        <ele>2039</ele>
        <time>2022-01-01T10:01:16Z</time>
      </trkpt>
      <trkpt lat="45.63263" lon="6.66579">
        <ele>2037.8</ele>
        <time>2022-01-01T10:01:19Z</time>
      </trkpt>
      <trkpt lat="45.63265" lon="6.66584">
        <ele>2037.6</ele>
        <time>2022-01-01T10:01:21Z</time>
      </trkpt>
      <trkpt lat="45.63266" lon="6.66587">
        <ele>2037.4</ele>
        <time>2022-01-01T10:01:22Z</time>
      </trkpt>
      <trkpt lat="45.63264" lon="6.66599">
        <ele>2037.2</ele>
        <time>2022-01-01T10:01:26Z</time>
      </trkpt>
      <trkpt lat="45.63259" lon="6.66614">
        <ele>2036.8</ele>
        <time>2022-01-01T10:01:29Z</time>
      </trkpt>
      <trkpt lat="45.63258" lon="6.6662">
        <ele>2036.4</ele>
        <time>2022-01-01T10:01:30Z</time>
      </trkpt>
      <trkpt lat="45.63257" lon="6.66626">
        <ele>2036</ele>
        <time>2022-01-01T10:01:31Z</time>
      </trkpt>
      <trkpt lat="45.63256" lon="6.66631">
        <ele>2035.4</ele>
        <time>2022-01-01T10:01:32Z</time>
      </trkpt>
      <trkpt lat="45.63255" lon="6.66642">
        <ele>2034.6</ele>
        <time>2022-01-01T10:01:34Z</time>
      </trkpt>
      <trkpt lat="45.63254" lon="6.66647">
        <ele>2034.4</ele>
        <time>2022-01-01T10:01:35Z</time>
      </trkpt>
      <trkpt lat="45.63254" lon="6.6665">
        <ele>2034.2</ele>
        <time>2022-01-01T10:01:36Z</time>
      </trkpt>
      <trkpt lat="45.63253" lon="6.66658">
        <ele>2034</ele>
        <time>2022-01-01T10:01:39Z</time>
      </trkpt>
      <trkpt lat="45.63253" lon="6.66661">
        <ele>2034</ele>
        <time>2022-01-01T10:01:41Z</time>
      </trkpt>
      <trkpt lat="45.63256" lon="6.66662">
        <ele>2034</ele>
        <time>2022-01-01T10:01:43Z</time>
      </trkpt>
      <trkpt lat="45.6326" lon="6.66667">
        <ele>2033</ele>
        <time>2022-01-01T10:01:45Z</time>
      </trkpt>
      <trkpt lat="45.63263" lon="6.66677">
        <ele>2032.4</ele>
        <time>2022-01-01T10:01:47Z</time>
      </trkpt>
      <trkpt lat="45.63263" lon="6.66684">
        <ele>2031.4</ele>
        <time>2022-01-01T10:01:48Z</time>
      </trkpt>
      <trkpt lat="45.63262" lon="6.6669">
        <ele>2031</ele>
        <time>2022-01-01T10:01:49Z</time>
      </trkpt>
      <trkpt lat="45.6326" lon="6.66697">
        <ele>2030.4</ele>
        <time>2022-01-01T10:01:50Z</time>
      </trkpt>
      <trkpt lat="45.63259" lon="6.66704">
        <ele>2029.8</ele>
        <time>2022-01-01T10:01:51Z</time>
      </trkpt>
      <trkpt lat="45.63258" lon="6.6671">
        <ele>2029.4</ele>
        <time>2022-01-01T10:01:52Z</time>
      </trkpt>
      <trkpt lat="45.63257" lon="6.66718">
        <ele>2028.6</ele>
        <time>2022-01-01T10:01:53Z</time>
      </trkpt>
      <trkpt lat="45.63255" lon="6.66726">
        <ele>2028.2</ele>
        <time>2022-01-01T10:01:54Z</time>
      </trkpt>
      <trkpt lat="45.6325" lon="6.66733">
        <ele>2027.6</ele>
        <time>2022-01-01T10:01:55Z</time>
      </trkpt>
      <trkpt lat="45.63246" lon="6.66737">
        <ele>2026.8</ele>
        <time>2022-01-01T10:01:56Z</time>
      </trkpt>
      <trkpt lat="45.63236" lon="6.66747">
        <ele>2025.8</ele>
        <time>2022-01-01T10:01:58Z</time>
      </trkpt>
      <trkpt lat="45.63235" lon="6.66752">
        <ele>2025.4</ele>
        <time>2022-01-01T10:01:59Z</time>
      </trkpt>
      <trkpt lat="45.63233" lon="6.66764">
        <ele>2023.8</ele>
        <time>2022-01-01T10:02:01Z</time>
      </trkpt>
      <trkpt lat="45.63229" lon="6.66771">
        <ele>2023.4</ele>
        <time>2022-01-01T10:02:03Z</time>
      </trkpt>
      <trkpt lat="45.63225" lon="6.66773">
        <ele>2023.2</ele>
        <time>2022-01-01T10:02:04Z</time>
      </trkpt>
      <trkpt lat="45.63221" lon="6.66776">
        <ele>2023</ele>
        <time>2022-01-01T10:02:05Z</time>
      </trkpt>
      <trkpt lat="45.63213" lon="6.66782">
        <ele>2022.6</ele>
        <time>2022-01-01T10:02:07Z</time>
      </trkpt>
      <trkpt lat="45.63209" lon="6.66792">
        <ele>2021.6</ele>
        <time>2022-01-01T10:02:09Z</time>
      </trkpt>
      <trkpt lat="45.63209" lon="6.66803">
        <ele>2020</ele>
        <time>2022-01-01T10:02:11Z</time>
      </trkpt>
      <trkpt lat="45.6321" lon="6.66815">
        <ele>2018.6</ele>
        <time>2022-01-01T10:02:13Z</time>
      </trkpt>
      <trkpt lat="45.63212" lon="6.66823">
        <ele>2018</ele>
        <time>2022-01-01T10:02:14Z</time>
      </trkpt>
      <trkpt lat="45.63213" lon="6.66828">
        <ele>2017.4</ele>
        <time>2022-01-01T10:02:15Z</time>
      </trkpt>
      <trkpt lat="45.63214" lon="6.66833">
        <ele>2017.2</ele>
        <time>2022-01-01T10:02:16Z</time>
      </trkpt>
      <trkpt lat="45.63213" lon="6.66839">
        <ele>2016.8</ele>
        <time>2022-01-01T10:02:17Z</time>
      </trkpt>
      <trkpt lat="45.63211" lon="6.66844">
        <ele>2016.6</ele>
        <time>2022-01-01T10:02:18Z</time>
      </trkpt>
      <trkpt lat="45.63209" lon="6.66849">
        <ele>2016.2</ele>
        <time>2022-01-01T10:02:19Z</time>
      </trkpt>
      <trkpt lat="45.63209" lon="6.66853">
        <ele>2016</ele>
        <time>2022-01-01T10:02:20Z</time>
      </trkpt>
      <trkpt lat="45.63211" lon="6.6686">
        <ele>2014.8</ele>
        <time>2022-01-01T10:02:22Z</time>
      </trkpt>
      <trkpt lat="45.63213" lon="6.66863">
        <ele>2014.4</ele>
        <time>2022-01-01T10:02:23Z</time>
      </trkpt>
      <trkpt lat="45.63222" lon="6.66876">
        <ele>2013.4</ele>
        <time>2022-01-01T10:02:27Z</time>
      </trkpt>
      <trkpt lat="45.63224" lon="6.66878">
        <ele>2013.2</ele>
        <time>2022-01-01T10:02:28Z</time>
      </trkpt>
      <trkpt lat="45.63227" lon="6.66881">
        <ele>2012.8</ele>
        <time>2022-01-01T10:02:30Z</time>
      </trkpt>
      <trkpt lat="45.63228" lon="6.66884">
        <ele>2012.4</ele>
        <time>2022-01-01T10:02:32Z</time>
      </trkpt>
      <trkpt lat="45.63229" lon="6.66886">
        <ele>2012.6</ele>
        <time>2022-01-01T10:02:39Z</time>
      </trkpt>
      <trkpt lat="45.6323" lon="6.66889">
        <ele>2012.4</ele>
        <time>2022-01-01T10:02:44Z</time>
      </trkpt>
      <trkpt lat="45.63235" lon="6.66892">
        <ele>2012</ele>
        <time>2022-01-01T10:03:01Z</time>
      </trkpt>
      <trkpt lat="45.63235" lon="6.66892">
        <ele>2012.2</ele>
        <time>2022-01-01T10:03:19Z</time>
      </trkpt>
      <trkpt lat="45.63233" lon="6.66891">
        <ele>2012.2</ele>
        <time>2022-01-01T10:04:34Z</time>
      </trkpt>
      <trkpt lat="45.63231" lon="6.66889">
        <ele>2011.4</ele>
        <time>2022-01-01T10:05:18Z</time>
      </trkpt>
      <trkpt lat="45.63236" lon="6.66882">
        <ele>2010.8</ele>
        <time>2022-01-01T10:06:29Z</time>
      </trkpt>
      <trkpt lat="45.63242" lon="6.6687">
        <ele>2011</ele>
        <time>2022-01-01T10:06:37Z</time>
      </trkpt>
      <trkpt lat="45.63241" lon="6.66865">
        <ele>2011.4</ele>
        <time>2022-01-01T10:06:40Z</time>
      </trkpt>
      <trkpt lat="45.63243" lon="6.66864">
        <ele>2012</ele>
        <time>2022-01-01T10:06:43Z</time>
      </trkpt>
      <trkpt lat="45.63245" lon="6.66861">
        <ele>2012.4</ele>
        <time>2022-01-01T10:06:46Z</time>
      </trkpt>
      <trkpt lat="45.63248" lon="6.6686">
        <ele>2013</ele>
        <time>2022-01-01T10:06:49Z</time>
      </trkpt>
      <trkpt lat="45.6325" lon="6.66854">
        <ele>2013.4</ele>
        <time>2022-01-01T10:06:53Z</time>
      </trkpt>
      <trkpt lat="45.63251" lon="6.66854">
        <ele>2013.6</ele>
        <time>2022-01-01T10:06:54Z</time>
      </trkpt>
      <trkpt lat="45.63251" lon="6.66852">
        <ele>2014.2</ele>
        <time>2022-01-01T10:06:56Z</time>
      </trkpt>
      <trkpt lat="45.63252" lon="6.6685">
        <ele>2014.2</ele>
        <time>2022-01-01T10:06:57Z</time>
      </trkpt>
      <trkpt lat="45.63254" lon="6.66846">
        <ele>2014.6</ele>
        <time>2022-01-01T10:07:00Z</time>
      </trkpt>
      <trkpt lat="45.63257" lon="6.6684">
        <ele>2015</ele>
        <time>2022-01-01T10:07:05Z</time>
      </trkpt>
      <trkpt lat="45.63258" lon="6.66837">
        <ele>2015.4</ele>
        <time>2022-01-01T10:07:07Z</time>
      </trkpt>
      <trkpt lat="45.63259" lon="6.66835">
        <ele>2015.8</ele>
        <time>2022-01-01T10:07:09Z</time>
      </trkpt>
      <trkpt lat="45.63261" lon="6.66834">
        <ele>2016</ele>
        <time>2022-01-01T10:07:11Z</time>
      </trkpt>
      <trkpt lat="45.63268" lon="6.66833">
        <ele>2016.8</ele>
        <time>2022-01-01T10:07:17Z</time>
      </trkpt>
      <trkpt lat="45.63269" lon="6.66832">
        <ele>2017.6</ele>
        <time>2022-01-01T10:07:19Z</time>
      </trkpt>
      <trkpt lat="45.6327" lon="6.6683">
        <ele>2018.2</ele>
        <time>2022-01-01T10:07:21Z</time>
      </trkpt>
      <trkpt lat="45.63272" lon="6.66827">
        <ele>2019.4</ele>
        <time>2022-01-01T10:07:26Z</time>
      </trkpt>
      <trkpt lat="45.63273" lon="6.66826">
        <ele>2019.6</ele>
        <time>2022-01-01T10:07:27Z</time>
      </trkpt>
      <trkpt lat="45.63275" lon="6.6682">
        <ele>2020.4</ele>
        <time>2022-01-01T10:07:33Z</time>
      </trkpt>
      <trkpt lat="45.63276" lon="6.66819">
        <ele>2020.6</ele>
        <time>2022-01-01T10:07:34Z</time>
      </trkpt>
      <trkpt lat="45.63277" lon="6.66815">
        <ele>2021.6</ele>
        <time>2022-01-01T10:07:38Z</time>
      </trkpt>
      <trkpt lat="45.63278" lon="6.66813">
        <ele>2022</ele>
        <time>2022-01-01T10:07:40Z</time>
      </trkpt>
      <trkpt lat="45.6328" lon="6.66808">
        <ele>2022.8</ele>
        <time>2022-01-01T10:07:44Z</time>
      </trkpt>
      <trkpt lat="45.6328" lon="6.66807">
        <ele>2023</ele>
        <time>2022-01-01T10:07:45Z</time>
      </trkpt>
      <trkpt lat="45.63282" lon="6.66802">
        <ele>2024</ele>
        <time>2022-01-01T10:07:50Z</time>
      </trkpt>
      <trkpt lat="45.63282" lon="6.668">
        <ele>2024.6</ele>
        <time>2022-01-01T10:07:53Z</time>
      </trkpt>
      <trkpt lat="45.63283" lon="6.66798">
        <ele>2025.2</ele>
        <time>2022-01-01T10:07:55Z</time>
      </trkpt>
      <trkpt lat="45.63284" lon="6.66793">
        <ele>2025.8</ele>
        <time>2022-01-01T10:07:59Z</time>
      </trkpt>
      <trkpt lat="45.63284" lon="6.66791">
        <ele>2026.2</ele>
        <time>2022-01-01T10:08:02Z</time>
      </trkpt>
      <trkpt lat="45.63284" lon="6.66786">
        <ele>2027</ele>
        <time>2022-01-01T10:08:07Z</time>
      </trkpt>
      <trkpt lat="45.63284" lon="6.66785">
        <ele>2027.2</ele>
        <time>2022-01-01T10:08:08Z</time>
      </trkpt>
      <trkpt lat="45.63283" lon="6.66777">
        <ele>2028</ele>
        <time>2022-01-01T10:08:14Z</time>
      </trkpt>
      <trkpt lat="45.63282" lon="6.66773">
        <ele>2028.2</ele>
        <time>2022-01-01T10:08:17Z</time>
      </trkpt>
      <trkpt lat="45.63282" lon="6.66771">
        <ele>2028.2</ele>
        <time>2022-01-01T10:08:19Z</time>
      </trkpt>
      <trkpt lat="45.63282" lon="6.66767">
        <ele>2029.2</ele>
        <time>2022-01-01T10:08:23Z</time>
      </trkpt>
      <trkpt lat="45.63282" lon="6.66764">
        <ele>2029.4</ele>
        <time>2022-01-01T10:08:25Z</time>
      </trkpt>
      <trkpt lat="45.63283" lon="6.66757">
        <ele>2030.4</ele>
        <time>2022-01-01T10:08:30Z</time>
      </trkpt>
      <trkpt lat="45.63283" lon="6.66757">
        <ele>2030.6</ele>
        <time>2022-01-01T10:08:31Z</time>
      </trkpt>
      <trkpt lat="45.63281" lon="6.66749">
        <ele>2031.6</ele>
        <time>2022-01-01T10:08:36Z</time>
      </trkpt>
      <trkpt lat="45.63281" lon="6.66748">
        <ele>2031.8</ele>
        <time>2022-01-01T10:08:37Z</time>
      </trkpt>
      <trkpt lat="45.63281" lon="6.66747">
        <ele>2031.8</ele>
        <time>2022-01-01T10:08:38Z</time>
      </trkpt>
      <trkpt lat="45.63283" lon="6.66741">
        <ele>2032.6</ele>
        <time>2022-01-01T10:08:43Z</time>
      </trkpt>
      <trkpt lat="45.63285" lon="6.66735">
        <ele>2033.2</ele>
        <time>2022-01-01T10:08:46Z</time>
      </trkpt>
      <trkpt lat="45.63285" lon="6.66732">
        <ele>2033.6</ele>
        <time>2022-01-01T10:08:49Z</time>
      </trkpt>
      <trkpt lat="45.63284" lon="6.6673">
        <ele>2033.8</ele>
        <time>2022-01-01T10:08:50Z</time>
      </trkpt>
      <trkpt lat="45.63283" lon="6.66727">
        <ele>2034.4</ele>
        <time>2022-01-01T10:08:53Z</time>
      </trkpt>
      <trkpt lat="45.63284" lon="6.66725">
        <ele>2034.6</ele>
        <time>2022-01-01T10:08:54Z</time>
      </trkpt>
      <trkpt lat="45.63284" lon="6.66724">
        <ele>2035</ele>
        <time>2022-01-01T10:08:55Z</time>
      </trkpt>
      <trkpt lat="45.63284" lon="6.66718">
        <ele>2035.8</ele>
        <time>2022-01-01T10:09:00Z</time>
      </trkpt>
      <trkpt lat="45.63285" lon="6.66715">
        <ele>2036</ele>
        <time>2022-01-01T10:09:02Z</time>
      </trkpt>
      <trkpt lat="45.63287" lon="6.66711">
        <ele>2036.8</ele>
        <time>2022-01-01T10:09:06Z</time>
      </trkpt>
      <trkpt lat="45.63288" lon="6.6671">
        <ele>2037.2</ele>
        <time>2022-01-01T10:09:08Z</time>
      </trkpt>
      <trkpt lat="45.63288" lon="6.66708">
        <ele>2037.6</ele>
        <time>2022-01-01T10:09:10Z</time>
      </trkpt>
      <trkpt lat="45.63289" lon="6.66706">
        <ele>2038.2</ele>
        <time>2022-01-01T10:09:12Z</time>
      </trkpt>
      <trkpt lat="45.63289" lon="6.66705">
        <ele>2038.4</ele>
        <time>2022-01-01T10:09:13Z</time>
      </trkpt>
      <trkpt lat="45.6329" lon="6.667">
        <ele>2039</ele>
        <time>2022-01-01T10:09:17Z</time>
      </trkpt>
      <trkpt lat="45.6329" lon="6.66698">
        <ele>2039.6</ele>
        <time>2022-01-01T10:09:19Z</time>
      </trkpt>
      <trkpt lat="45.63291" lon="6.66692">
        <ele>2040.6</ele>
        <time>2022-01-01T10:09:24Z</time>
      </trkpt>
      <trkpt lat="45.63292" lon="6.66686">
        <ele>2041.6</ele>
        <time>2022-01-01T10:09:29Z</time>
      </trkpt>
      <trkpt lat="45.63292" lon="6.66684">
        <ele>2041.8</ele>
        <time>2022-01-01T10:09:31Z</time>
      </trkpt>
      <trkpt lat="45.63293" lon="6.66678">
        <ele>2042.8</ele>
        <time>2022-01-01T10:09:36Z</time>
      </trkpt>
      <trkpt lat="45.63293" lon="6.66677">
        <ele>2043.2</ele>
        <time>2022-01-01T10:09:37Z</time>
      </trkpt>
      <trkpt lat="45.63293" lon="6.66675">
        <ele>2043.6</ele>
        <time>2022-01-01T10:09:39Z</time>
      </trkpt>
      <trkpt lat="45.63293" lon="6.66674">
        <ele>2043.8</ele>
        <time>2022-01-01T10:09:40Z</time>
      </trkpt>
      <trkpt lat="45.63293" lon="6.66667">
        <ele>2044.8</ele>
        <time>2022-01-01T10:09:45Z</time>
      </trkpt>
      <trkpt lat="45.63294" lon="6.66662">
        <ele>2045.8</ele>
        <time>2022-01-01T10:09:49Z</time>
      </trkpt>
      <trkpt lat="45.63293" lon="6.6666">
        <ele>2046</ele>
        <time>2022-01-01T10:09:51Z</time>
      </trkpt>
      <trkpt lat="45.63294" lon="6.66659">
        <ele>2046.4</ele>
        <time>2022-01-01T10:09:53Z</time>
      </trkpt>
      <trkpt lat="45.63294" lon="6.66657">
        <ele>2047</ele>
        <time>2022-01-01T10:09:55Z</time>
      </trkpt>
      <trkpt lat="45.63296" lon="6.66654">
        <ele>2047.2</ele>
        <time>2022-01-01T10:09:57Z</time>
      </trkpt>
      <trkpt lat="45.63296" lon="6.66649">
        <ele>2048</ele>
        <time>2022-01-01T10:10:02Z</time>
      </trkpt>
      <trkpt lat="45.63297" lon="6.66645">
        <ele>2048.8</ele>
        <time>2022-01-01T10:10:05Z</time>
      </trkpt>
      <trkpt lat="45.63297" lon="6.66643">
        <ele>2049</ele>
        <time>2022-01-01T10:10:07Z</time>
      </trkpt>
      <trkpt lat="45.63299" lon="6.66637">
        <ele>2050</ele>
        <time>2022-01-01T10:10:12Z</time>
      </trkpt>
      <trkpt lat="45.63299" lon="6.66634">
        <ele>2050.2</ele>
        <time>2022-01-01T10:10:14Z</time>
      </trkpt>
      <trkpt lat="45.63301" lon="6.66633">
        <ele>2051.2</ele>
        <time>2022-01-01T10:10:19Z</time>
      </trkpt>
      <trkpt lat="45.63302" lon="6.66631">
        <ele>2051.2</ele>
        <time>2022-01-01T10:10:29Z</time>
      </trkpt>
      <trkpt lat="45.63303" lon="6.66625">
        <ele>2052</ele>
        <time>2022-01-01T10:10:35Z</time>
      </trkpt>
      <trkpt lat="45.63302" lon="6.66623">
        <ele>2052.4</ele>
        <time>2022-01-01T10:10:37Z</time>
      </trkpt>
      <trkpt lat="45.63303" lon="6.66618">
        <ele>2053.4</ele>
        <time>2022-01-01T10:10:41Z</time>
      </trkpt>
      <trkpt lat="45.63303" lon="6.66613">
        <ele>2054.4</ele>
        <time>2022-01-01T10:10:46Z</time>
      </trkpt>
      <trkpt lat="45.63303" lon="6.66608">
        <ele>2054.8</ele>
        <time>2022-01-01T10:10:49Z</time>
      </trkpt>
      <trkpt lat="45.63303" lon="6.66606">
        <ele>2054.8</ele>
        <time>2022-01-01T10:10:50Z</time>
      </trkpt>
      <trkpt lat="45.63305" lon="6.66601">
        <ele>2055.2</ele>
        <time>2022-01-01T10:10:54Z</time>
      </trkpt>
      <trkpt lat="45.63305" lon="6.66599">
        <ele>2055.4</ele>
        <time>2022-01-01T10:10:56Z</time>
      </trkpt>
      <trkpt lat="45.63306" lon="6.66593">
        <ele>2056.6</ele>
        <time>2022-01-01T10:11:01Z</time>
      </trkpt>
      <trkpt lat="45.63306" lon="6.66591">
        <ele>2057</ele>
        <time>2022-01-01T10:11:03Z</time>
      </trkpt>
      <trkpt lat="45.63306" lon="6.66587">
        <ele>2057.6</ele>
        <time>2022-01-01T10:11:06Z</time>
      </trkpt>
      <trkpt lat="45.63308" lon="6.6658">
        <ele>2058.4</ele>
        <time>2022-01-01T10:11:12Z</time>
      </trkpt>
      <trkpt lat="45.63308" lon="6.66579">
        <ele>2058.4</ele>
        <time>2022-01-01T10:11:13Z</time>
      </trkpt>
      <trkpt lat="45.63307" lon="6.66575">
        <ele>2058.8</ele>
        <time>2022-01-01T10:11:16Z</time>
      </trkpt>
      <trkpt lat="45.63307" lon="6.66572">
        <ele>2059.8</ele>
        <time>2022-01-01T10:11:20Z</time>
      </trkpt>
      <trkpt lat="45.63307" lon="6.66568">
        <ele>2060.8</ele>
        <time>2022-01-01T10:11:24Z</time>
      </trkpt>
      <trkpt lat="45.63308" lon="6.66561">
        <ele>2062</ele>
        <time>2022-01-01T10:11:30Z</time>
      </trkpt>
      <trkpt lat="45.63309" lon="6.66558">
        <ele>2062.4</ele>
        <time>2022-01-01T10:11:33Z</time>
      </trkpt>
      <trkpt lat="45.63311" lon="6.66548">
        <ele>2063</ele>
        <time>2022-01-01T10:11:40Z</time>
      </trkpt>
      <trkpt lat="45.63313" lon="6.66543">
        <ele>2064.2</ele>
        <time>2022-01-01T10:11:44Z</time>
      </trkpt>
      <trkpt lat="45.63314" lon="6.66538">
        <ele>2064.6</ele>
        <time>2022-01-01T10:11:48Z</time>
      </trkpt>
      <trkpt lat="45.63315" lon="6.66537">
        <ele>2064.8</ele>
        <time>2022-01-01T10:11:50Z</time>
      </trkpt>
      <trkpt lat="45.63315" lon="6.66533">
        <ele>2065</ele>
        <time>2022-01-01T10:11:52Z</time>
      </trkpt>
      <trkpt lat="45.63316" lon="6.66531">
        <ele>2065.2</ele>
        <time>2022-01-01T10:11:54Z</time>
      </trkpt>
      <trkpt lat="45.63316" lon="6.6653">
        <ele>2065.2</ele>
        <time>2022-01-01T10:11:55Z</time>
      </trkpt>
      <trkpt lat="45.63318" lon="6.6652">
        <ele>2066</ele>
        <time>2022-01-01T10:12:03Z</time>
      </trkpt>
      <trkpt lat="45.63318" lon="6.6652">
        <ele>2066.2</ele>
        <time>2022-01-01T10:12:04Z</time>
      </trkpt>
      <trkpt lat="45.63321" lon="6.66508">
        <ele>2067.2</ele>
        <time>2022-01-01T10:12:12Z</time>
      </trkpt>
      <trkpt lat="45.63322" lon="6.665">
        <ele>2067.8</ele>
        <time>2022-01-01T10:12:17Z</time>
      </trkpt>
      <trkpt lat="45.63323" lon="6.66497">
        <ele>2068.4</ele>
        <time>2022-01-01T10:12:19Z</time>
      </trkpt>
      <trkpt lat="45.63323" lon="6.66496">
        <ele>2068.4</ele>
        <time>2022-01-01T10:12:20Z</time>
      </trkpt>
      <trkpt lat="45.63323" lon="6.66493">
        <ele>2068.8</ele>
        <time>2022-01-01T10:12:22Z</time>
      </trkpt>
      <trkpt lat="45.63323" lon="6.6649">
        <ele>2069.4</ele>
        <time>2022-01-01T10:12:24Z</time>
      </trkpt>
      <trkpt lat="45.63324" lon="6.66486">
        <ele>2070.2</ele>
        <time>2022-01-01T10:12:27Z</time>
      </trkpt>
      <trkpt lat="45.63324" lon="6.66485">
        <ele>2070.4</ele>
        <time>2022-01-01T10:12:28Z</time>
      </trkpt>
      <trkpt lat="45.63326" lon="6.66476">
        <ele>2071.4</ele>
        <time>2022-01-01T10:12:35Z</time>
      </trkpt>
      <trkpt lat="45.63327" lon="6.66473">
        <ele>2072.8</ele>
        <time>2022-01-01T10:12:40Z</time>
      </trkpt>
      <trkpt lat="45.63327" lon="6.66471">
        <ele>2073</ele>
        <time>2022-01-01T10:12:41Z</time>
      </trkpt>
      <trkpt lat="45.6333" lon="6.66468">
        <ele>2073.6</ele>
        <time>2022-01-01T10:12:45Z</time>
      </trkpt>
      <trkpt lat="45.63331" lon="6.66466">
        <ele>2073.8</ele>
        <time>2022-01-01T10:12:47Z</time>
      </trkpt>
      <trkpt lat="45.63332" lon="6.66463">
        <ele>2074</ele>
        <time>2022-01-01T10:12:49Z</time>
      </trkpt>
      <trkpt lat="45.63334" lon="6.66461">
        <ele>2074.2</ele>
        <time>2022-01-01T10:12:51Z</time>
      </trkpt>
      <trkpt lat="45.63336" lon="6.66457">
        <ele>2074.8</ele>
        <time>2022-01-01T10:12:55Z</time>
      </trkpt>
      <trkpt lat="45.63337" lon="6.66456">
        <ele>2075</ele>
        <time>2022-01-01T10:12:56Z</time>
      </trkpt>
      <trkpt lat="45.63338" lon="6.66455">
        <ele>2075.2</ele>
        <time>2022-01-01T10:12:57Z</time>
      </trkpt>
      <trkpt lat="45.63339" lon="6.66453">
        <ele>2076</ele>
        <time>2022-01-01T10:13:00Z</time>
      </trkpt>
      <trkpt lat="45.63339" lon="6.66452">
        <ele>2076.4</ele>
        <time>2022-01-01T10:13:01Z</time>
      </trkpt>
      <trkpt lat="45.6334" lon="6.66449">
        <ele>2077</ele>
        <time>2022-01-01T10:13:04Z</time>
      </trkpt>
      <trkpt lat="45.63341" lon="6.66444">
        <ele>2077.8</ele>
        <time>2022-01-01T10:13:08Z</time>
      </trkpt>
      <trkpt lat="45.63343" lon="6.66439">
        <ele>2078</ele>
        <time>2022-01-01T10:13:12Z</time>
      </trkpt>
      <trkpt lat="45.63344" lon="6.66438">
        <ele>2078</ele>
        <time>2022-01-01T10:13:13Z</time>
      </trkpt>
      <trkpt lat="45.63352" lon="6.66432">
        <ele>2079.6</ele>
        <time>2022-01-01T10:13:21Z</time>
      </trkpt>
      <trkpt lat="45.63352" lon="6.66431">
        <ele>2079.8</ele>
        <time>2022-01-01T10:13:22Z</time>
      </trkpt>
      <trkpt lat="45.63353" lon="6.66429">
        <ele>2080.8</ele>
        <time>2022-01-01T10:13:25Z</time>
      </trkpt>
      <trkpt lat="45.63354" lon="6.66426">
        <ele>2081.8</ele>
        <time>2022-01-01T10:13:29Z</time>
      </trkpt>
      <trkpt lat="45.63354" lon="6.66425">
        <ele>2082</ele>
        <time>2022-01-01T10:13:30Z</time>
      </trkpt>
      <trkpt lat="45.63355" lon="6.66419">
        <ele>2083</ele>
        <time>2022-01-01T10:13:35Z</time>
      </trkpt>
      <trkpt lat="45.63355" lon="6.66417">
        <ele>2083.8</ele>
        <time>2022-01-01T10:13:38Z</time>
      </trkpt>
      <trkpt lat="45.63355" lon="6.66415">
        <ele>2084.2</ele>
        <time>2022-01-01T10:13:40Z</time>
      </trkpt>
      <trkpt lat="45.63355" lon="6.66409">
        <ele>2084.6</ele>
        <time>2022-01-01T10:13:44Z</time>
      </trkpt>
      <trkpt lat="45.63356" lon="6.66405">
        <ele>2085.4</ele>
        <time>2022-01-01T10:13:47Z</time>
      </trkpt>
      <trkpt lat="45.63357" lon="6.664">
        <ele>2086</ele>
        <time>2022-01-01T10:13:50Z</time>
      </trkpt>
      <trkpt lat="45.63358" lon="6.66396">
        <ele>2086.4</ele>
        <time>2022-01-01T10:13:53Z</time>
      </trkpt>
      <trkpt lat="45.63358" lon="6.66389">
        <ele>2087.4</ele>
        <time>2022-01-01T10:13:59Z</time>
      </trkpt>
      <trkpt lat="45.63358" lon="6.66388">
        <ele>2087.8</ele>
        <time>2022-01-01T10:14:00Z</time>
      </trkpt>
      <trkpt lat="45.63358" lon="6.66386">
        <ele>2088</ele>
        <time>2022-01-01T10:14:01Z</time>
      </trkpt>
      <trkpt lat="45.63359" lon="6.66382">
        <ele>2088.8</ele>
        <time>2022-01-01T10:14:05Z</time>
      </trkpt>
      <trkpt lat="45.6336" lon="6.66379">
        <ele>2089.6</ele>
        <time>2022-01-01T10:14:08Z</time>
      </trkpt>
      <trkpt lat="45.6336" lon="6.66379">
        <ele>2089.8</ele>
        <time>2022-01-01T10:14:09Z</time>
      </trkpt>
      <trkpt lat="45.63363" lon="6.66375">
        <ele>2091</ele>
        <time>2022-01-01T10:14:13Z</time>
      </trkpt>
      <trkpt lat="45.63363" lon="6.66374">
        <ele>2091.6</ele>
        <time>2022-01-01T10:14:15Z</time>
      </trkpt>
      <trkpt lat="45.63364" lon="6.66371">
        <ele>2092.2</ele>
        <time>2022-01-01T10:14:18Z</time>
      </trkpt>
      <trkpt lat="45.63365" lon="6.66369">
        <ele>2092.8</ele>
        <time>2022-01-01T10:14:21Z</time>
      </trkpt>
      <trkpt lat="45.63366" lon="6.66367">
        <ele>2093.2</ele>
        <time>2022-01-01T10:14:23Z</time>
      </trkpt>
      <trkpt lat="45.63367" lon="6.66364">
        <ele>2094</ele>
        <time>2022-01-01T10:14:26Z</time>
      </trkpt>
      <trkpt lat="45.63368" lon="6.66363">
        <ele>2094.2</ele>
        <time>2022-01-01T10:14:27Z</time>
      </trkpt>
      <trkpt lat="45.6337" lon="6.66361">
        <ele>2095.6</ele>
        <time>2022-01-01T10:14:32Z</time>
      </trkpt>
      <trkpt lat="45.63371" lon="6.66359">
        <ele>2096</ele>
        <time>2022-01-01T10:14:34Z</time>
      </trkpt>
      <trkpt lat="45.63372" lon="6.66358">
        <ele>2096.6</ele>
        <time>2022-01-01T10:14:36Z</time>
      </trkpt>
      <trkpt lat="45.63375" lon="6.66354">
        <ele>2097.6</ele>
        <time>2022-01-01T10:14:40Z</time>
      </trkpt>
      <trkpt lat="45.63376" lon="6.66353">
        <ele>2098</ele>
        <time>2022-01-01T10:14:42Z</time>
      </trkpt>
      <trkpt lat="45.63378" lon="6.66351">
        <ele>2098.8</ele>
        <time>2022-01-01T10:14:45Z</time>
      </trkpt>
      <trkpt lat="45.6338" lon="6.66348">
        <ele>2099.8</ele>
        <time>2022-01-01T10:14:49Z</time>
      </trkpt>
      <trkpt lat="45.63381" lon="6.66347">
        <ele>2100</ele>
        <time>2022-01-01T10:14:50Z</time>
      </trkpt>
      <trkpt lat="45.63384" lon="6.66341">
        <ele>2101</ele>
        <time>2022-01-01T10:14:56Z</time>
      </trkpt>
      <trkpt lat="45.63384" lon="6.66341">
        <ele>2101.2</ele>
        <time>2022-01-01T10:14:57Z</time>
      </trkpt>
      <trkpt lat="45.63387" lon="6.66337">
        <ele>2102</ele>
        <time>2022-01-01T10:15:01Z</time>
      </trkpt>
      <trkpt lat="45.63389" lon="6.66334">
        <ele>2102.6</ele>
        <time>2022-01-01T10:15:04Z</time>
      </trkpt>
      <trkpt lat="45.6339" lon="6.66331">
        <ele>2103.2</ele>
        <time>2022-01-01T10:15:08Z</time>
      </trkpt>
      <trkpt lat="45.63391" lon="6.6633">
        <ele>2103.4</ele>
        <time>2022-01-01T10:15:09Z</time>
      </trkpt>
      <trkpt lat="45.63396" lon="6.66326">
        <ele>2104.2</ele>
        <time>2022-01-01T10:15:14Z</time>
      </trkpt>
      <trkpt lat="45.63399" lon="6.66322">
        <ele>2105.2</ele>
        <time>2022-01-01T10:15:18Z</time>
      </trkpt>
      <trkpt lat="45.63399" lon="6.66322">
        <ele>2105.4</ele>
        <time>2022-01-01T10:15:19Z</time>
      </trkpt>
      <trkpt lat="45.63403" lon="6.66317">
        <ele>2106.2</ele>
        <time>2022-01-01T10:15:25Z</time>
      </trkpt>
      <trkpt lat="45.63405" lon="6.66312">
        <ele>2106.2</ele>
        <time>2022-01-01T10:15:29Z</time>
      </trkpt>
      <trkpt lat="45.63406" lon="6.66309">
        <ele>2106.2</ele>
        <time>2022-01-01T10:15:31Z</time>
      </trkpt>
      <trkpt lat="45.63409" lon="6.66301">
        <ele>2106.4</ele>
        <time>2022-01-01T10:15:38Z</time>
      </trkpt>
      <trkpt lat="45.6341" lon="6.66299">
        <ele>2106.6</ele>
        <time>2022-01-01T10:15:40Z</time>
      </trkpt>
      <trkpt lat="45.63411" lon="6.66297">
        <ele>2107.4</ele>
        <time>2022-01-01T10:15:46Z</time>
      </trkpt>
      <trkpt lat="45.6341" lon="6.66297">
        <ele>2107.4</ele>
        <time>2022-01-01T10:15:53Z</time>
      </trkpt>
      <trkpt lat="45.6341" lon="6.66298">
        <ele>2107.4</ele>
        <time>2022-01-01T10:16:03Z</time>
      </trkpt>
      <trkpt lat="45.63409" lon="6.66297">
        <ele>2107.8</ele>
        <time>2022-01-01T10:18:24Z</time>
      </trkpt>
      <trkpt lat="45.63414" lon="6.66292">
        <ele>2107.8</ele>
        <time>2022-01-01T10:19:26Z</time>
      </trkpt>
      <trkpt lat="45.63424" lon="6.66285">
        <ele>2108.2</ele>
        <time>2022-01-01T10:19:34Z</time>
      </trkpt>
      <trkpt lat="45.63426" lon="6.66285">
        <ele>2108.4</ele>
        <time>2022-01-01T10:19:36Z</time>
      </trkpt>
      <trkpt lat="45.63432" lon="6.66282">
        <ele>2109.4</ele>
        <time>2022-01-01T10:19:43Z</time>
      </trkpt>
      <trkpt lat="45.63434" lon="6.6628">
        <ele>2109.6</ele>
        <time>2022-01-01T10:19:45Z</time>
      </trkpt>
      <trkpt lat="45.63437" lon="6.66277">
        <ele>2110.2</ele>
        <time>2022-01-01T10:19:49Z</time>
      </trkpt>
      <trkpt lat="45.63439" lon="6.66276">
        <ele>2110.4</ele>
        <time>2022-01-01T10:19:51Z</time>
      </trkpt>
      <trkpt lat="45.6344" lon="6.66273">
        <ele>2110.6</ele>
        <time>2022-01-01T10:19:53Z</time>
      </trkpt>
      <trkpt lat="45.6345" lon="6.66268">
        <ele>2111.6</ele>
        <time>2022-01-01T10:20:01Z</time>
      </trkpt>
      <trkpt lat="45.6345" lon="6.66268">
        <ele>2111.6</ele>
        <time>2022-01-01T10:20:02Z</time>
      </trkpt>
      <trkpt lat="45.63456" lon="6.66263">
        <ele>2112.8</ele>
        <time>2022-01-01T10:20:08Z</time>
      </trkpt>
      <trkpt lat="45.63457" lon="6.66262">
        <ele>2112.8</ele>
        <time>2022-01-01T10:20:09Z</time>
      </trkpt>
      <trkpt lat="45.63464" lon="6.66255">
        <ele>2113.8</ele>
        <time>2022-01-01T10:20:18Z</time>
      </trkpt>
      <trkpt lat="45.63465" lon="6.66254">
        <ele>2113.8</ele>
        <time>2022-01-01T10:20:19Z</time>
      </trkpt>
      <trkpt lat="45.63474" lon="6.66247">
        <ele>2114.8</ele>
        <time>2022-01-01T10:20:28Z</time>
      </trkpt>
      <trkpt lat="45.63475" lon="6.66246">
        <ele>2115</ele>
        <time>2022-01-01T10:20:29Z</time>
      </trkpt>
      <trkpt lat="45.63481" lon="6.66236">
        <ele>2115.6</ele>
        <time>2022-01-01T10:20:37Z</time>
      </trkpt>
      <trkpt lat="45.63483" lon="6.66234">
        <ele>2116</ele>
        <time>2022-01-01T10:20:39Z</time>
      </trkpt>
      <trkpt lat="45.63491" lon="6.6623">
        <ele>2117</ele>
        <time>2022-01-01T10:20:46Z</time>
      </trkpt>
      <trkpt lat="45.635" lon="6.66224">
        <ele>2118</ele>
        <time>2022-01-01T10:20:56Z</time>
      </trkpt>
      <trkpt lat="45.63501" lon="6.66223">
        <ele>2118.2</ele>
        <time>2022-01-01T10:20:58Z</time>
      </trkpt>
      <trkpt lat="45.63503" lon="6.66218">
        <ele>2118.8</ele>
        <time>2022-01-01T10:21:02Z</time>
      </trkpt>
      <trkpt lat="45.63503" lon="6.66214">
        <ele>2119</ele>
        <time>2022-01-01T10:21:05Z</time>
      </trkpt>
      <trkpt lat="45.63501" lon="6.66208">
        <ele>2120</ele>
        <time>2022-01-01T10:21:09Z</time>
      </trkpt>
      <trkpt lat="45.63502" lon="6.66208">
        <ele>2120.2</ele>
        <time>2022-01-01T10:21:10Z</time>
      </trkpt>
      <trkpt lat="45.63502" lon="6.66202">
        <ele>2121.4</ele>
        <time>2022-01-01T10:21:15Z</time>
      </trkpt>
      <trkpt lat="45.63502" lon="6.66201">
        <ele>2121.6</ele>
        <time>2022-01-01T10:21:16Z</time>
      </trkpt>
      <trkpt lat="45.63503" lon="6.66198">
        <ele>2122.6</ele>
        <time>2022-01-01T10:21:19Z</time>
      </trkpt>
      <trkpt lat="45.63505" lon="6.66194">
        <ele>2123.8</ele>
        <time>2022-01-01T10:21:24Z</time>
      </trkpt>
      <trkpt lat="45.63507" lon="6.6619">
        <ele>2124.6</ele>
        <time>2022-01-01T10:21:28Z</time>
      </trkpt>
      <trkpt lat="45.63507" lon="6.66189">
        <ele>2124.8</ele>
        <time>2022-01-01T10:21:30Z</time>
      </trkpt>
      <trkpt lat="45.63507" lon="6.66188">
        <ele>2125</ele>
        <time>2022-01-01T10:21:31Z</time>
      </trkpt>
      <trkpt lat="45.63509" lon="6.66183">
        <ele>2126.2</ele>
        <time>2022-01-01T10:21:35Z</time>
      </trkpt>
      <trkpt lat="45.63511" lon="6.66177">
        <ele>2127.2</ele>
        <time>2022-01-01T10:21:40Z</time>
      </trkpt>
      <trkpt lat="45.63512" lon="6.66175">
        <ele>2127.6</ele>
        <time>2022-01-01T10:21:42Z</time>
      </trkpt>
      <trkpt lat="45.63515" lon="6.66172">
        <ele>2128.6</ele>
        <time>2022-01-01T10:21:46Z</time>
      </trkpt>
      <trkpt lat="45.63516" lon="6.6617">
        <ele>2129</ele>
        <time>2022-01-01T10:21:48Z</time>
      </trkpt>
      <trkpt lat="45.63521" lon="6.66166">
        <ele>2129.6</ele>
        <time>2022-01-01T10:21:52Z</time>
      </trkpt>
      <trkpt lat="45.63523" lon="6.66164">
        <ele>2130</ele>
        <time>2022-01-01T10:21:54Z</time>
      </trkpt>
      <trkpt lat="45.63523" lon="6.66163">
        <ele>2130.8</ele>
        <time>2022-01-01T10:21:58Z</time>
      </trkpt>
      <trkpt lat="45.63523" lon="6.66162">
        <ele>2131.2</ele>
        <time>2022-01-01T10:22:00Z</time>
      </trkpt>
      <trkpt lat="45.63525" lon="6.6616">
        <ele>2131.8</ele>
        <time>2022-01-01T10:22:02Z</time>
      </trkpt>
      <trkpt lat="45.63527" lon="6.66156">
        <ele>2133</ele>
        <time>2022-01-01T10:22:06Z</time>
      </trkpt>
      <trkpt lat="45.63528" lon="6.66155">
        <ele>2133.6</ele>
        <time>2022-01-01T10:22:08Z</time>
      </trkpt>
      <trkpt lat="45.6353" lon="6.66149">
        <ele>2134.4</ele>
        <time>2022-01-01T10:22:12Z</time>
      </trkpt>
      <trkpt lat="45.63533" lon="6.66146">
        <ele>2135.2</ele>
        <time>2022-01-01T10:22:16Z</time>
      </trkpt>
      <trkpt lat="45.63533" lon="6.66146">
        <ele>2135.4</ele>
        <time>2022-01-01T10:22:17Z</time>
      </trkpt>
      <trkpt lat="45.63532" lon="6.66147">
        <ele>2136.4</ele>
        <time>2022-01-01T10:22:22Z</time>
      </trkpt>
      <trkpt lat="45.63532" lon="6.6615">
        <ele>2136.6</ele>
        <time>2022-01-01T10:22:36Z</time>
      </trkpt>
      <trkpt lat="45.63535" lon="6.66145">
        <ele>2137.8</ele>
        <time>2022-01-01T10:22:51Z</time>
      </trkpt>
      <trkpt lat="45.6354" lon="6.66142">
        <ele>2139</ele>
        <time>2022-01-01T10:22:55Z</time>
      </trkpt>
      <trkpt lat="45.63544" lon="6.66138">
        <ele>2139.8</ele>
        <time>2022-01-01T10:22:58Z</time>
      </trkpt>
      <trkpt lat="45.63546" lon="6.66138">
        <ele>2140.2</ele>
        <time>2022-01-01T10:23:00Z</time>
      </trkpt>
      <trkpt lat="45.6355" lon="6.66138">
        <ele>2141.4</ele>
        <time>2022-01-01T10:23:05Z</time>
      </trkpt>
      <trkpt lat="45.63552" lon="6.66138">
        <ele>2141.6</ele>
        <time>2022-01-01T10:23:07Z</time>
      </trkpt>
      <trkpt lat="45.63556" lon="6.66137">
        <ele>2142.6</ele>
        <time>2022-01-01T10:23:11Z</time>
      </trkpt>
      <trkpt lat="45.63558" lon="6.66138">
        <ele>2143.8</ele>
        <time>2022-01-01T10:23:15Z</time>
      </trkpt>
      <trkpt lat="45.63559" lon="6.66137">
        <ele>2144.2</ele>
        <time>2022-01-01T10:23:16Z</time>
      </trkpt>
      <trkpt lat="45.63562" lon="6.66137">
        <ele>2144.8</ele>
        <time>2022-01-01T10:23:19Z</time>
      </trkpt>
      <trkpt lat="45.63562" lon="6.66136">
        <ele>2144.8</ele>
        <time>2022-01-01T10:23:20Z</time>
      </trkpt>
      <trkpt lat="45.63563" lon="6.66134">
        <ele>2145</ele>
        <time>2022-01-01T10:23:22Z</time>
      </trkpt>
      <trkpt lat="45.63566" lon="6.66133">
        <ele>2146.2</ele>
        <time>2022-01-01T10:23:26Z</time>
      </trkpt>
      <trkpt lat="45.63569" lon="6.66133">
        <ele>2146.6</ele>
        <time>2022-01-01T10:23:29Z</time>
      </trkpt>
      <trkpt lat="45.63574" lon="6.66133">
        <ele>2147.2</ele>
        <time>2022-01-01T10:23:35Z</time>
      </trkpt>
      <trkpt lat="45.63576" lon="6.66131">
        <ele>2147.8</ele>
        <time>2022-01-01T10:23:38Z</time>
      </trkpt>
      <trkpt lat="45.63587" lon="6.66123">
        <ele>2147.6</ele>
        <time>2022-01-01T10:23:47Z</time>
      </trkpt>
      <trkpt lat="45.63594" lon="6.66122">
        <ele>2146.8</ele>
        <time>2022-01-01T10:23:52Z</time>
      </trkpt>
      <trkpt lat="45.63605" lon="6.66125">
        <ele>2147.6</ele>
        <time>2022-01-01T10:24:01Z</time>
      </trkpt>
      <trkpt lat="45.63613" lon="6.6613">
        <ele>2148.2</ele>
        <time>2022-01-01T10:24:08Z</time>
      </trkpt>
      <trkpt lat="45.63615" lon="6.66132">
        <ele>2148.2</ele>
        <time>2022-01-01T10:24:10Z</time>
      </trkpt>
      <trkpt lat="45.63628" lon="6.66139">
        <ele>2148</ele>
        <time>2022-01-01T10:24:17Z</time>
      </trkpt>
      <trkpt lat="45.63633" lon="6.66143">
        <ele>2146.8</ele>
        <time>2022-01-01T10:24:19Z</time>
      </trkpt>
      <trkpt lat="45.63638" lon="6.66145">
        <ele>2146</ele>
        <time>2022-01-01T10:24:22Z</time>
      </trkpt>
      <trkpt lat="45.63647" lon="6.66149">
        <ele>2147.2</ele>
        <time>2022-01-01T10:24:30Z</time>
      </trkpt>
      <trkpt lat="45.63651" lon="6.66153">
        <ele>2147.8</ele>
        <time>2022-01-01T10:24:34Z</time>
      </trkpt>
      <trkpt lat="45.63653" lon="6.66155">
        <ele>2147.8</ele>
        <time>2022-01-01T10:24:36Z</time>
      </trkpt>
      <trkpt lat="45.63654" lon="6.66155">
        <ele>2148</ele>
        <time>2022-01-01T10:24:37Z</time>
      </trkpt>
      <trkpt lat="45.63652" lon="6.66156">
        <ele>2148.2</ele>
        <time>2022-01-01T10:24:38Z</time>
      </trkpt>
      <trkpt lat="45.63655" lon="6.66157">
        <ele>2149</ele>
        <time>2022-01-01T10:24:42Z</time>
      </trkpt>
      <trkpt lat="45.63657" lon="6.66157">
        <ele>2149.6</ele>
        <time>2022-01-01T10:24:44Z</time>
      </trkpt>
      <trkpt lat="45.63661" lon="6.66157">
        <ele>2150.4</ele>
        <time>2022-01-01T10:24:48Z</time>
      </trkpt>
      <trkpt lat="45.63665" lon="6.6616">
        <ele>2151.4</ele>
        <time>2022-01-01T10:24:52Z</time>
      </trkpt>
      <trkpt lat="45.63666" lon="6.66161">
        <ele>2151.6</ele>
        <time>2022-01-01T10:24:53Z</time>
      </trkpt>
      <trkpt lat="45.63667" lon="6.66163">
        <ele>2151.8</ele>
        <time>2022-01-01T10:24:54Z</time>
      </trkpt>
      <trkpt lat="45.63667" lon="6.66164">
        <ele>2152.2</ele>
        <time>2022-01-01T10:24:55Z</time>
      </trkpt>
      <trkpt lat="45.63667" lon="6.66165">
        <ele>2152.4</ele>
        <time>2022-01-01T10:24:56Z</time>
      </trkpt>
      <trkpt lat="45.63668" lon="6.66166">
        <ele>2152.6</ele>
        <time>2022-01-01T10:24:57Z</time>
      </trkpt>
      <trkpt lat="45.63669" lon="6.66169">
        <ele>2153</ele>
        <time>2022-01-01T10:24:59Z</time>
      </trkpt>
      <trkpt lat="45.6367" lon="6.66172">
        <ele>2153.6</ele>
        <time>2022-01-01T10:25:01Z</time>
      </trkpt>
      <trkpt lat="45.63675" lon="6.66178">
        <ele>2154.8</ele>
        <time>2022-01-01T10:25:07Z</time>
      </trkpt>
      <trkpt lat="45.63678" lon="6.66185">
        <ele>2156</ele>
        <time>2022-01-01T10:25:12Z</time>
      </trkpt>
      <trkpt lat="45.63681" lon="6.66186">
        <ele>2156.6</ele>
        <time>2022-01-01T10:25:15Z</time>
      </trkpt>
      <trkpt lat="45.63682" lon="6.66188">
        <ele>2157</ele>
        <time>2022-01-01T10:25:17Z</time>
      </trkpt>
      <trkpt lat="45.63686" lon="6.66191">
        <ele>2158</ele>
        <time>2022-01-01T10:25:22Z</time>
      </trkpt>
      <trkpt lat="45.63687" lon="6.66192">
        <ele>2158.4</ele>
        <time>2022-01-01T10:25:24Z</time>
      </trkpt>
      <trkpt lat="45.63689" lon="6.66193">
        <ele>2159</ele>
        <time>2022-01-01T10:25:27Z</time>
      </trkpt>
      <trkpt lat="45.63693" lon="6.66196">
        <ele>2160</ele>
        <time>2022-01-01T10:25:32Z</time>
      </trkpt>
      <trkpt lat="45.63695" lon="6.66198">
        <ele>2160.2</ele>
        <time>2022-01-01T10:25:34Z</time>
      </trkpt>
      <trkpt lat="45.63697" lon="6.66202">
        <ele>2160.6</ele>
        <time>2022-01-01T10:25:38Z</time>
      </trkpt>
      <trkpt lat="45.637" lon="6.66205">
        <ele>2161</ele>
        <time>2022-01-01T10:25:41Z</time>
      </trkpt>
      <trkpt lat="45.63701" lon="6.66206">
        <ele>2161.4</ele>
        <time>2022-01-01T10:25:43Z</time>
      </trkpt>
      <trkpt lat="45.63705" lon="6.66212">
        <ele>2162.6</ele>
        <time>2022-01-01T10:25:48Z</time>
      </trkpt>
      <trkpt lat="45.63705" lon="6.66213">
        <ele>2162.8</ele>
        <time>2022-01-01T10:25:50Z</time>
      </trkpt>
      <trkpt lat="45.63708" lon="6.66216">
        <ele>2163.4</ele>
        <time>2022-01-01T10:25:53Z</time>
      </trkpt>
      <trkpt lat="45.63711" lon="6.66216">
        <ele>2163.6</ele>
        <time>2022-01-01T10:25:55Z</time>
      </trkpt>
      <trkpt lat="45.63712" lon="6.66217">
        <ele>2164</ele>
        <time>2022-01-01T10:25:57Z</time>
      </trkpt>
      <trkpt lat="45.63714" lon="6.6622">
        <ele>2165</ele>
        <time>2022-01-01T10:26:00Z</time>
      </trkpt>
      <trkpt lat="45.63717" lon="6.66224">
        <ele>2166</ele>
        <time>2022-01-01T10:26:05Z</time>
      </trkpt>
      <trkpt lat="45.63721" lon="6.66226">
        <ele>2166.6</ele>
        <time>2022-01-01T10:26:09Z</time>
      </trkpt>
      <trkpt lat="45.63722" lon="6.66226">
        <ele>2166.8</ele>
        <time>2022-01-01T10:26:10Z</time>
      </trkpt>
      <trkpt lat="45.63722" lon="6.66228">
        <ele>2167.2</ele>
        <time>2022-01-01T10:26:11Z</time>
      </trkpt>
      <trkpt lat="45.63726" lon="6.66232">
        <ele>2168.2</ele>
        <time>2022-01-01T10:26:16Z</time>
      </trkpt>
      <trkpt lat="45.63726" lon="6.66233">
        <ele>2168.4</ele>
        <time>2022-01-01T10:26:17Z</time>
      </trkpt>
      <trkpt lat="45.63732" lon="6.66236">
        <ele>2169.4</ele>
        <time>2022-01-01T10:26:23Z</time>
      </trkpt>
      <trkpt lat="45.63736" lon="6.66238">
        <ele>2169.8</ele>
        <time>2022-01-01T10:26:26Z</time>
      </trkpt>
      <trkpt lat="45.63737" lon="6.66238">
        <ele>2170.2</ele>
        <time>2022-01-01T10:26:27Z</time>
      </trkpt>
      <trkpt lat="45.63738" lon="6.66239">
        <ele>2170.4</ele>
        <time>2022-01-01T10:26:28Z</time>
      </trkpt>
      <trkpt lat="45.63745" lon="6.66243">
        <ele>2171.6</ele>
        <time>2022-01-01T10:26:36Z</time>
      </trkpt>
      <trkpt lat="45.63746" lon="6.66244">
        <ele>2171.8</ele>
        <time>2022-01-01T10:26:37Z</time>
      </trkpt>
      <trkpt lat="45.6375" lon="6.66246">
        <ele>2172.8</ele>
        <time>2022-01-01T10:26:41Z</time>
      </trkpt>
      <trkpt lat="45.63753" lon="6.66249">
        <ele>2173.8</ele>
        <time>2022-01-01T10:26:45Z</time>
      </trkpt>
      <trkpt lat="45.63753" lon="6.66253">
        <ele>2175</ele>
        <time>2022-01-01T10:26:49Z</time>
      </trkpt>
      <trkpt lat="45.63755" lon="6.66255">
        <ele>2176</ele>
        <time>2022-01-01T10:26:53Z</time>
      </trkpt>
      <trkpt lat="45.63756" lon="6.66256">
        <ele>2176.2</ele>
        <time>2022-01-01T10:26:54Z</time>
      </trkpt>
      <trkpt lat="45.63758" lon="6.66256">
        <ele>2176.8</ele>
        <time>2022-01-01T10:26:56Z</time>
      </trkpt>
      <trkpt lat="45.63759" lon="6.66258">
        <ele>2177.2</ele>
        <time>2022-01-01T10:26:58Z</time>
      </trkpt>
      <trkpt lat="45.63765" lon="6.66259">
        <ele>2178.2</ele>
        <time>2022-01-01T10:27:03Z</time>
      </trkpt>
      <trkpt lat="45.63767" lon="6.66259">
        <ele>2178.6</ele>
        <time>2022-01-01T10:27:04Z</time>
      </trkpt>
      <trkpt lat="45.63772" lon="6.66261">
        <ele>2180</ele>
        <time>2022-01-01T10:27:09Z</time>
      </trkpt>
      <trkpt lat="45.63775" lon="6.66262">
        <ele>2180.4</ele>
        <time>2022-01-01T10:27:12Z</time>
      </trkpt>
      <trkpt lat="45.63778" lon="6.66263">
        <ele>2181</ele>
        <time>2022-01-01T10:27:16Z</time>
      </trkpt>
      <trkpt lat="45.6378" lon="6.66263">
        <ele>2182</ele>
        <time>2022-01-01T10:27:19Z</time>
      </trkpt>
      <trkpt lat="45.63781" lon="6.66263">
        <ele>2182.2</ele>
        <time>2022-01-01T10:27:20Z</time>
      </trkpt>
      <trkpt lat="45.63784" lon="6.66263">
        <ele>2183</ele>
        <time>2022-01-01T10:27:24Z</time>
      </trkpt>
      <trkpt lat="45.63786" lon="6.66262">
        <ele>2183.4</ele>
        <time>2022-01-01T10:27:26Z</time>
      </trkpt>
      <trkpt lat="45.63791" lon="6.6626">
        <ele>2184.2</ele>
        <time>2022-01-01T10:27:30Z</time>
      </trkpt>
      <trkpt lat="45.63796" lon="6.66262">
        <ele>2185.4</ele>
        <time>2022-01-01T10:27:35Z</time>
      </trkpt>
      <trkpt lat="45.63797" lon="6.66262">
        <ele>2185.4</ele>
        <time>2022-01-01T10:27:36Z</time>
      </trkpt>
      <trkpt lat="45.638" lon="6.66263">
        <ele>2185.8</ele>
        <time>2022-01-01T10:27:40Z</time>
      </trkpt>
      <trkpt lat="45.63804" lon="6.66261">
        <ele>2186.4</ele>
        <time>2022-01-01T10:27:44Z</time>
      </trkpt>
      <trkpt lat="45.6381" lon="6.66261">
        <ele>2187.4</ele>
        <time>2022-01-01T10:27:50Z</time>
      </trkpt>
      <trkpt lat="45.63814" lon="6.6626">
        <ele>2188.4</ele>
        <time>2022-01-01T10:27:54Z</time>
      </trkpt>
      <trkpt lat="45.63816" lon="6.6626">
        <ele>2188.8</ele>
        <time>2022-01-01T10:27:56Z</time>
      </trkpt>
      <trkpt lat="45.63818" lon="6.66258">
        <ele>2190</ele>
        <time>2022-01-01T10:28:00Z</time>
      </trkpt>
      <trkpt lat="45.63819" lon="6.66258">
        <ele>2190.2</ele>
        <time>2022-01-01T10:28:01Z</time>
      </trkpt>
      <trkpt lat="45.63824" lon="6.66259">
        <ele>2191</ele>
        <time>2022-01-01T10:28:06Z</time>
      </trkpt>
      <trkpt lat="45.63825" lon="6.66259">
        <ele>2191.2</ele>
        <time>2022-01-01T10:28:07Z</time>
      </trkpt>
      <trkpt lat="45.63831" lon="6.66261">
        <ele>2192.4</ele>
        <time>2022-01-01T10:28:13Z</time>
      </trkpt>
      <trkpt lat="45.63831" lon="6.66262">
        <ele>2192.6</ele>
        <time>2022-01-01T10:28:14Z</time>
      </trkpt>
      <trkpt lat="45.63835" lon="6.66262">
        <ele>2193.4</ele>
        <time>2022-01-01T10:28:17Z</time>
      </trkpt>
      <trkpt lat="45.63838" lon="6.66264">
        <ele>2194</ele>
        <time>2022-01-01T10:28:21Z</time>
      </trkpt>
      <trkpt lat="45.63839" lon="6.66264">
        <ele>2194.4</ele>
        <time>2022-01-01T10:28:22Z</time>
      </trkpt>
      <trkpt lat="45.63846" lon="6.66267">
        <ele>2195.6</ele>
        <time>2022-01-01T10:28:29Z</time>
      </trkpt>
      <trkpt lat="45.63847" lon="6.66267">
        <ele>2195.8</ele>
        <time>2022-01-01T10:28:30Z</time>
      </trkpt>
      <trkpt lat="45.63851" lon="6.66266">
        <ele>2196.6</ele>
        <time>2022-01-01T10:28:34Z</time>
      </trkpt>
      <trkpt lat="45.63853" lon="6.66264">
        <ele>2197.6</ele>
        <time>2022-01-01T10:28:39Z</time>
      </trkpt>
      <trkpt lat="45.63853" lon="6.66263">
        <ele>2197.8</ele>
        <time>2022-01-01T10:28:40Z</time>
      </trkpt>
      <trkpt lat="45.63855" lon="6.6626">
        <ele>2199</ele>
        <time>2022-01-01T10:28:45Z</time>
      </trkpt>
      <trkpt lat="45.63857" lon="6.66253">
        <ele>2200.2</ele>
        <time>2022-01-01T10:28:50Z</time>
      </trkpt>
      <trkpt lat="45.6386" lon="6.6625">
        <ele>2201.2</ele>
        <time>2022-01-01T10:28:53Z</time>
      </trkpt>
      <trkpt lat="45.63861" lon="6.66248">
        <ele>2201.4</ele>
        <time>2022-01-01T10:28:54Z</time>
      </trkpt>
      <trkpt lat="45.63867" lon="6.66249">
        <ele>2202.6</ele>
        <time>2022-01-01T10:28:59Z</time>
      </trkpt>
      <trkpt lat="45.63871" lon="6.6625">
        <ele>2203.6</ele>
        <time>2022-01-01T10:29:04Z</time>
      </trkpt>
      <trkpt lat="45.63876" lon="6.66248">
        <ele>2204.6</ele>
        <time>2022-01-01T10:29:09Z</time>
      </trkpt>
      <trkpt lat="45.63878" lon="6.66246">
        <ele>2205.4</ele>
        <time>2022-01-01T10:29:13Z</time>
      </trkpt>
      <trkpt lat="45.6388" lon="6.66244">
        <ele>2205.8</ele>
        <time>2022-01-01T10:29:15Z</time>
      </trkpt>
      <trkpt lat="45.63885" lon="6.6624">
        <ele>2207</ele>
        <time>2022-01-01T10:29:21Z</time>
      </trkpt>
      <trkpt lat="45.6389" lon="6.66241">
        <ele>2208</ele>
        <time>2022-01-01T10:29:25Z</time>
      </trkpt>
      <trkpt lat="45.63895" lon="6.66243">
        <ele>2208.8</ele>
        <time>2022-01-01T10:29:29Z</time>
      </trkpt>
      <trkpt lat="45.63899" lon="6.66245">
        <ele>2209.2</ele>
        <time>2022-01-01T10:29:33Z</time>
      </trkpt>
      <trkpt lat="45.63901" lon="6.66247">
        <ele>2209.4</ele>
        <time>2022-01-01T10:29:35Z</time>
      </trkpt>
      <trkpt lat="45.63903" lon="6.66248">
        <ele>2209.6</ele>
        <time>2022-01-01T10:29:37Z</time>
      </trkpt>
      <trkpt lat="45.63908" lon="6.66252">
        <ele>2209.8</ele>
        <time>2022-01-01T10:29:41Z</time>
      </trkpt>
      <trkpt lat="45.63912" lon="6.66255">
        <ele>2210.2</ele>
        <time>2022-01-01T10:29:45Z</time>
      </trkpt>
      <trkpt lat="45.63916" lon="6.66257">
        <ele>2210.4</ele>
        <time>2022-01-01T10:29:49Z</time>
      </trkpt>
      <trkpt lat="45.6392" lon="6.66258">
        <ele>2211.2</ele>
        <time>2022-01-01T10:29:55Z</time>
      </trkpt>
      <trkpt lat="45.63925" lon="6.66259">
        <ele>2212</ele>
        <time>2022-01-01T10:30:00Z</time>
      </trkpt>
      <trkpt lat="45.63929" lon="6.66259">
        <ele>2212.4</ele>
        <time>2022-01-01T10:30:04Z</time>
      </trkpt>
      <trkpt lat="45.63936" lon="6.66261">
        <ele>2213.8</ele>
        <time>2022-01-01T10:30:11Z</time>
      </trkpt>
      <trkpt lat="45.6394" lon="6.66261">
        <ele>2214.8</ele>
        <time>2022-01-01T10:30:16Z</time>
      </trkpt>
      <trkpt lat="45.63943" lon="6.66262">
        <ele>2215.6</ele>
        <time>2022-01-01T10:30:20Z</time>
      </trkpt>
      <trkpt lat="45.63943" lon="6.66264">
        <ele>2215.8</ele>
        <time>2022-01-01T10:30:21Z</time>
      </trkpt>
      <trkpt lat="45.63946" lon="6.66266">
        <ele>2216.8</ele>
        <time>2022-01-01T10:30:26Z</time>
      </trkpt>
      <trkpt lat="45.63948" lon="6.66266">
        <ele>2217.2</ele>
        <time>2022-01-01T10:30:28Z</time>
      </trkpt>
      <trkpt lat="45.63954" lon="6.66266">
        <ele>2218</ele>
        <time>2022-01-01T10:30:33Z</time>
      </trkpt>
      <trkpt lat="45.63955" lon="6.66264">
        <ele>2219</ele>
        <time>2022-01-01T10:30:36Z</time>
      </trkpt>
      <trkpt lat="45.63956" lon="6.66264">
        <ele>2219.4</ele>
        <time>2022-01-01T10:30:37Z</time>
      </trkpt>
      <trkpt lat="45.63959" lon="6.66264">
        <ele>2220</ele>
        <time>2022-01-01T10:30:39Z</time>
      </trkpt>
      <trkpt lat="45.63963" lon="6.66262">
        <ele>2221.2</ele>
        <time>2022-01-01T10:30:44Z</time>
      </trkpt>
      <trkpt lat="45.63964" lon="6.66262">
        <ele>2221.6</ele>
        <time>2022-01-01T10:30:45Z</time>
      </trkpt>
      <trkpt lat="45.63965" lon="6.66259">
        <ele>2222.2</ele>
        <time>2022-01-01T10:30:48Z</time>
      </trkpt>
      <trkpt lat="45.63969" lon="6.66262">
        <ele>2223.4</ele>
        <time>2022-01-01T10:30:52Z</time>
      </trkpt>
      <trkpt lat="45.63973" lon="6.66261">
        <ele>2224.4</ele>
        <time>2022-01-01T10:30:57Z</time>
      </trkpt>
      <trkpt lat="45.63975" lon="6.66262">
        <ele>2224.8</ele>
        <time>2022-01-01T10:30:59Z</time>
      </trkpt>
      <trkpt lat="45.63977" lon="6.66262">
        <ele>2225.6</ele>
        <time>2022-01-01T10:31:03Z</time>
      </trkpt>
      <trkpt lat="45.63983" lon="6.66263">
        <ele>2226.4</ele>
        <time>2022-01-01T10:31:07Z</time>
      </trkpt>
      <trkpt lat="45.63983" lon="6.66263">
        <ele>2226.6</ele>
        <time>2022-01-01T10:31:08Z</time>
      </trkpt>
      <trkpt lat="45.63988" lon="6.66263">
        <ele>2227.8</ele>
        <time>2022-01-01T10:31:14Z</time>
      </trkpt>
      <trkpt lat="45.6399" lon="6.66263">
        <ele>2228.8</ele>
        <time>2022-01-01T10:31:17Z</time>
      </trkpt>
      <trkpt lat="45.63994" lon="6.66266">
        <ele>2229.8</ele>
        <time>2022-01-01T10:31:23Z</time>
      </trkpt>
      <trkpt lat="45.63995" lon="6.66267">
        <ele>2230.2</ele>
        <time>2022-01-01T10:31:24Z</time>
      </trkpt>
      <trkpt lat="45.63998" lon="6.66267">
        <ele>2231</ele>
        <time>2022-01-01T10:31:27Z</time>
      </trkpt>
      <trkpt lat="45.64" lon="6.66265">
        <ele>2231.6</ele>
        <time>2022-01-01T10:31:31Z</time>
      </trkpt>
      <trkpt lat="45.64003" lon="6.66265">
        <ele>2232.2</ele>
        <time>2022-01-01T10:31:34Z</time>
      </trkpt>
      <trkpt lat="45.64005" lon="6.66265">
        <ele>2232.6</ele>
        <time>2022-01-01T10:31:36Z</time>
      </trkpt>
      <trkpt lat="45.64007" lon="6.66265">
        <ele>2233.2</ele>
        <time>2022-01-01T10:31:38Z</time>
      </trkpt>
      <trkpt lat="45.64008" lon="6.66265">
        <ele>2233.4</ele>
        <time>2022-01-01T10:31:39Z</time>
      </trkpt>
      <trkpt lat="45.64012" lon="6.66264">
        <ele>2234</ele>
        <time>2022-01-01T10:31:44Z</time>
      </trkpt>
      <trkpt lat="45.64013" lon="6.66265">
        <ele>2234.4</ele>
        <time>2022-01-01T10:31:46Z</time>
      </trkpt>
      <trkpt lat="45.64016" lon="6.66266">
        <ele>2235.4</ele>
        <time>2022-01-01T10:31:50Z</time>
      </trkpt>
      <trkpt lat="45.64015" lon="6.66266">
        <ele>2235.6</ele>
        <time>2022-01-01T10:31:51Z</time>
      </trkpt>
      <trkpt lat="45.64016" lon="6.66265">
        <ele>2235.8</ele>
        <time>2022-01-01T10:32:09Z</time>
      </trkpt>
      <trkpt lat="45.64018" lon="6.66264">
        <ele>2236.6</ele>
        <time>2022-01-01T10:32:13Z</time>
      </trkpt>
      <trkpt lat="45.64021" lon="6.66264">
        <ele>2237</ele>
        <time>2022-01-01T10:32:15Z</time>
      </trkpt>
      <trkpt lat="45.64025" lon="6.66263">
        <ele>2237.6</ele>
        <time>2022-01-01T10:32:18Z</time>
      </trkpt>
      <trkpt lat="45.64032" lon="6.66266">
        <ele>2238.8</ele>
        <time>2022-01-01T10:32:24Z</time>
      </trkpt>
      <trkpt lat="45.64037" lon="6.66268">
        <ele>2239.8</ele>
        <time>2022-01-01T10:32:30Z</time>
      </trkpt>
      <trkpt lat="45.64041" lon="6.66269">
        <ele>2240.4</ele>
        <time>2022-01-01T10:32:34Z</time>
      </trkpt>
      <trkpt lat="45.64044" lon="6.6627">
        <ele>2240.8</ele>
        <time>2022-01-01T10:32:37Z</time>
      </trkpt>
      <trkpt lat="45.64046" lon="6.66272">
        <ele>2242.2</ele>
        <time>2022-01-01T10:32:41Z</time>
      </trkpt>
      <trkpt lat="45.64049" lon="6.66275">
        <ele>2242.8</ele>
        <time>2022-01-01T10:32:44Z</time>
      </trkpt>
      <trkpt lat="45.64052" lon="6.66277">
        <ele>2243.4</ele>
        <time>2022-01-01T10:32:48Z</time>
      </trkpt>
      <trkpt lat="45.64055" lon="6.66278">
        <ele>2243.8</ele>
        <time>2022-01-01T10:32:51Z</time>
      </trkpt>
      <trkpt lat="45.64059" lon="6.66281">
        <ele>2244.6</ele>
        <time>2022-01-01T10:32:55Z</time>
      </trkpt>
      <trkpt lat="45.64064" lon="6.66284">
        <ele>2245.6</ele>
        <time>2022-01-01T10:33:00Z</time>
      </trkpt>
      <trkpt lat="45.64068" lon="6.66286">
        <ele>2246.6</ele>
        <time>2022-01-01T10:33:06Z</time>
      </trkpt>
      <trkpt lat="45.6407" lon="6.66287">
        <ele>2247.4</ele>
        <time>2022-01-01T10:33:08Z</time>
      </trkpt>
      <trkpt lat="45.64071" lon="6.66287">
        <ele>2247.8</ele>
        <time>2022-01-01T10:33:09Z</time>
      </trkpt>
      <trkpt lat="45.64074" lon="6.66288">
        <ele>2248.8</ele>
        <time>2022-01-01T10:33:14Z</time>
      </trkpt>
      <trkpt lat="45.64077" lon="6.66289">
        <ele>2249.4</ele>
        <time>2022-01-01T10:33:17Z</time>
      </trkpt>
      <trkpt lat="45.64078" lon="6.66289">
        <ele>2250</ele>
        <time>2022-01-01T10:33:19Z</time>
      </trkpt>
      <trkpt lat="45.64083" lon="6.6629">
        <ele>2251</ele>
        <time>2022-01-01T10:33:24Z</time>
      </trkpt>
      <trkpt lat="45.64084" lon="6.66291">
        <ele>2251.2</ele>
        <time>2022-01-01T10:33:25Z</time>
      </trkpt>
      <trkpt lat="45.64088" lon="6.66291">
        <ele>2252.2</ele>
        <time>2022-01-01T10:33:30Z</time>
      </trkpt>
      <trkpt lat="45.64091" lon="6.66292">
        <ele>2252.8</ele>
        <time>2022-01-01T10:33:34Z</time>
      </trkpt>
      <trkpt lat="45.64093" lon="6.66293">
        <ele>2253.2</ele>
        <time>2022-01-01T10:33:36Z</time>
      </trkpt>
      <trkpt lat="45.64098" lon="6.6629">
        <ele>2254.2</ele>
        <time>2022-01-01T10:33:42Z</time>
      </trkpt>
      <trkpt lat="45.64099" lon="6.6629">
        <ele>2254.8</ele>
        <time>2022-01-01T10:33:44Z</time>
      </trkpt>
      <trkpt lat="45.64101" lon="6.66289">
        <ele>2255.2</ele>
        <time>2022-01-01T10:33:46Z</time>
      </trkpt>
      <trkpt lat="45.64102" lon="6.66289">
        <ele>2255.4</ele>
        <time>2022-01-01T10:33:47Z</time>
      </trkpt>
      <trkpt lat="45.64103" lon="6.66289">
        <ele>2255.6</ele>
        <time>2022-01-01T10:33:48Z</time>
      </trkpt>
      <trkpt lat="45.64105" lon="6.66288">
        <ele>2256.4</ele>
        <time>2022-01-01T10:33:51Z</time>
      </trkpt>
      <trkpt lat="45.64106" lon="6.66288">
        <ele>2256.6</ele>
        <time>2022-01-01T10:33:52Z</time>
      </trkpt>
      <trkpt lat="45.64107" lon="6.66288">
        <ele>2256.6</ele>
        <time>2022-01-01T10:33:53Z</time>
      </trkpt>
      <trkpt lat="45.64111" lon="6.6629">
        <ele>2257.2</ele>
        <time>2022-01-01T10:33:57Z</time>
      </trkpt>
      <trkpt lat="45.64112" lon="6.6629">
        <ele>2257.6</ele>
        <time>2022-01-01T10:33:59Z</time>
      </trkpt>
      <trkpt lat="45.64115" lon="6.66291">
        <ele>2258.6</ele>
        <time>2022-01-01T10:34:03Z</time>
      </trkpt>
      <trkpt lat="45.64119" lon="6.66293">
        <ele>2259.6</ele>
        <time>2022-01-01T10:34:06Z</time>
      </trkpt>
      <trkpt lat="45.6412" lon="6.66293">
        <ele>2259.8</ele>
        <time>2022-01-01T10:34:07Z</time>
      </trkpt>
      <trkpt lat="45.64127" lon="6.66294">
        <ele>2260.8</ele>
        <time>2022-01-01T10:34:15Z</time>
      </trkpt>
      <trkpt lat="45.6413" lon="6.66293">
        <ele>2262</ele>
        <time>2022-01-01T10:34:19Z</time>
      </trkpt>
      <trkpt lat="45.64134" lon="6.66294">
        <ele>2263</ele>
        <time>2022-01-01T10:34:23Z</time>
      </trkpt>
      <trkpt lat="45.64137" lon="6.66295">
        <ele>2263.6</ele>
        <time>2022-01-01T10:34:26Z</time>
      </trkpt>
      <trkpt lat="45.64139" lon="6.66295">
        <ele>2264</ele>
        <time>2022-01-01T10:34:28Z</time>
      </trkpt>
      <trkpt lat="45.64142" lon="6.66297">
        <ele>2265</ele>
        <time>2022-01-01T10:34:33Z</time>
      </trkpt>
      <trkpt lat="45.6414" lon="6.66296">
        <ele>2265.4</ele>
        <time>2022-01-01T10:34:34Z</time>
      </trkpt>
      <trkpt lat="45.6414" lon="6.66295">
        <ele>2266.2</ele>
        <time>2022-01-01T10:34:37Z</time>
      </trkpt>
      <trkpt lat="45.64141" lon="6.66294">
        <ele>2266.6</ele>
        <time>2022-01-01T10:34:42Z</time>
      </trkpt>
      <trkpt lat="45.64141" lon="6.66294">
        <ele>2267.2</ele>
        <time>2022-01-01T10:34:52Z</time>
      </trkpt>
      <trkpt lat="45.64141" lon="6.66288">
        <ele>2267.6</ele>
        <time>2022-01-01T10:34:55Z</time>
      </trkpt>
      <trkpt lat="45.6414" lon="6.66282">
        <ele>2268.4</ele>
        <time>2022-01-01T10:34:59Z</time>
      </trkpt>
      <trkpt lat="45.64139" lon="6.66276">
        <ele>2269</ele>
        <time>2022-01-01T10:35:03Z</time>
      </trkpt>
      <trkpt lat="45.64139" lon="6.66274">
        <ele>2269.6</ele>
        <time>2022-01-01T10:35:05Z</time>
      </trkpt>
      <trkpt lat="45.64139" lon="6.66273">
        <ele>2269.8</ele>
        <time>2022-01-01T10:35:06Z</time>
      </trkpt>
      <trkpt lat="45.64138" lon="6.66268">
        <ele>2270.4</ele>
        <time>2022-01-01T10:35:10Z</time>
      </trkpt>
      <trkpt lat="45.64138" lon="6.66266">
        <ele>2270.6</ele>
        <time>2022-01-01T10:35:12Z</time>
      </trkpt>
      <trkpt lat="45.64138" lon="6.66264">
        <ele>2270.8</ele>
        <time>2022-01-01T10:35:13Z</time>
      </trkpt>
      <trkpt lat="45.64138" lon="6.66263">
        <ele>2271</ele>
        <time>2022-01-01T10:35:14Z</time>
      </trkpt>
      <trkpt lat="45.64138" lon="6.6626">
        <ele>2271.6</ele>
        <time>2022-01-01T10:35:16Z</time>
      </trkpt>
      <trkpt lat="45.64138" lon="6.6626">
        <ele>2271.8</ele>
        <time>2022-01-01T10:35:17Z</time>
      </trkpt>
      <trkpt lat="45.64138" lon="6.66255">
        <ele>2272.4</ele>
        <time>2022-01-01T10:35:21Z</time>
      </trkpt>
      <trkpt lat="45.64139" lon="6.66254">
        <ele>2272.6</ele>
        <time>2022-01-01T10:35:24Z</time>
      </trkpt>
      <trkpt lat="45.64141" lon="6.66254">
        <ele>2272.8</ele>
        <time>2022-01-01T10:35:26Z</time>
      </trkpt>
      <trkpt lat="45.64146" lon="6.66256">
        <ele>2273.4</ele>
        <time>2022-01-01T10:35:32Z</time>
      </trkpt>
      <trkpt lat="45.64149" lon="6.66255">
        <ele>2273.8</ele>
        <time>2022-01-01T10:35:35Z</time>
      </trkpt>
      <trkpt lat="45.6415" lon="6.66255">
        <ele>2274</ele>
        <time>2022-01-01T10:35:36Z</time>
      </trkpt>
      <trkpt lat="45.64153" lon="6.66255">
        <ele>2275.2</ele>
        <time>2022-01-01T10:35:40Z</time>
      </trkpt>
      <trkpt lat="45.64154" lon="6.66255">
        <ele>2275.2</ele>
        <time>2022-01-01T10:35:41Z</time>
      </trkpt>
      <trkpt lat="45.64155" lon="6.66255">
        <ele>2276.2</ele>
        <time>2022-01-01T10:35:43Z</time>
      </trkpt>
      <trkpt lat="45.6416" lon="6.66257">
        <ele>2277.2</ele>
        <time>2022-01-01T10:35:49Z</time>
      </trkpt>
      <trkpt lat="45.64161" lon="6.66257">
        <ele>2277.4</ele>
        <time>2022-01-01T10:35:50Z</time>
      </trkpt>
      <trkpt lat="45.64163" lon="6.66258">
        <ele>2278.6</ele>
        <time>2022-01-01T10:35:54Z</time>
      </trkpt>
      <trkpt lat="45.64167" lon="6.6626">
        <ele>2279.6</ele>
        <time>2022-01-01T10:35:59Z</time>
      </trkpt>
      <trkpt lat="45.64168" lon="6.6626">
        <ele>2279.8</ele>
        <time>2022-01-01T10:36:00Z</time>
      </trkpt>
      <trkpt lat="45.64173" lon="6.66261">
        <ele>2281</ele>
        <time>2022-01-01T10:36:06Z</time>
      </trkpt>
      <trkpt lat="45.64175" lon="6.66262">
        <ele>2281.4</ele>
        <time>2022-01-01T10:36:08Z</time>
      </trkpt>
      <trkpt lat="45.64176" lon="6.66262">
        <ele>2281.8</ele>
        <time>2022-01-01T10:36:09Z</time>
      </trkpt>
      <trkpt lat="45.64176" lon="6.66262">
        <ele>2282</ele>
        <time>2022-01-01T10:36:10Z</time>
      </trkpt>
      <trkpt lat="45.64181" lon="6.66262">
        <ele>2283.2</ele>
        <time>2022-01-01T10:36:14Z</time>
      </trkpt>
      <trkpt lat="45.64187" lon="6.66264">
        <ele>2284.2</ele>
        <time>2022-01-01T10:36:20Z</time>
      </trkpt>
      <trkpt lat="45.64188" lon="6.66265">
        <ele>2284.4</ele>
        <time>2022-01-01T10:36:21Z</time>
      </trkpt>
      <trkpt lat="45.64192" lon="6.66267">
        <ele>2285.4</ele>
        <time>2022-01-01T10:36:26Z</time>
      </trkpt>
      <trkpt lat="45.64194" lon="6.66268">
        <ele>2285.8</ele>
        <time>2022-01-01T10:36:28Z</time>
      </trkpt>
      <trkpt lat="45.64196" lon="6.6627">
        <ele>2286.4</ele>
        <time>2022-01-01T10:36:31Z</time>
      </trkpt>
      <trkpt lat="45.64197" lon="6.6627">
        <ele>2286.8</ele>
        <time>2022-01-01T10:36:32Z</time>
      </trkpt>
      <trkpt lat="45.642" lon="6.66271">
        <ele>2287.6</ele>
        <time>2022-01-01T10:36:35Z</time>
      </trkpt>
      <trkpt lat="45.64203" lon="6.66273">
        <ele>2288.4</ele>
        <time>2022-01-01T10:36:39Z</time>
      </trkpt>
      <trkpt lat="45.64203" lon="6.66274">
        <ele>2288.8</ele>
        <time>2022-01-01T10:36:40Z</time>
      </trkpt>
      <trkpt lat="45.64206" lon="6.66275">
        <ele>2290</ele>
        <time>2022-01-01T10:36:44Z</time>
      </trkpt>
      <trkpt lat="45.64209" lon="6.66276">
        <ele>2291</ele>
        <time>2022-01-01T10:36:47Z</time>
      </trkpt>
      <trkpt lat="45.6421" lon="6.66277">
        <ele>2291.4</ele>
        <time>2022-01-01T10:36:49Z</time>
      </trkpt>
      <trkpt lat="45.64213" lon="6.66278">
        <ele>2292.2</ele>
        <time>2022-01-01T10:36:52Z</time>
      </trkpt>
      <trkpt lat="45.64216" lon="6.66279">
        <ele>2293.4</ele>
        <time>2022-01-01T10:36:58Z</time>
      </trkpt>
      <trkpt lat="45.64217" lon="6.6628">
        <ele>2293.8</ele>
        <time>2022-01-01T10:37:00Z</time>
      </trkpt>
      <trkpt lat="45.6422" lon="6.66281">
        <ele>2294.6</ele>
        <time>2022-01-01T10:37:03Z</time>
      </trkpt>
      <trkpt lat="45.64221" lon="6.66281">
        <ele>2295.8</ele>
        <time>2022-01-01T10:37:08Z</time>
      </trkpt>
      <trkpt lat="45.6422" lon="6.6628">
        <ele>2296</ele>
        <time>2022-01-01T10:37:10Z</time>
      </trkpt>
      <trkpt lat="45.64219" lon="6.66275">
        <ele>2296.8</ele>
        <time>2022-01-01T10:37:14Z</time>
      </trkpt>
      <trkpt lat="45.64218" lon="6.66272">
        <ele>2297.4</ele>
        <time>2022-01-01T10:37:17Z</time>
      </trkpt>
      <trkpt lat="45.64218" lon="6.66268">
        <ele>2297.8</ele>
        <time>2022-01-01T10:37:20Z</time>
      </trkpt>
      <trkpt lat="45.64218" lon="6.66262">
        <ele>2298.8</ele>
        <time>2022-01-01T10:37:24Z</time>
      </trkpt>
      <trkpt lat="45.64218" lon="6.66261">
        <ele>2299</ele>
        <time>2022-01-01T10:37:25Z</time>
      </trkpt>
      <trkpt lat="45.64219" lon="6.66257">
        <ele>2299.6</ele>
        <time>2022-01-01T10:37:30Z</time>
      </trkpt>
      <trkpt lat="45.64221" lon="6.66254">
        <ele>2300</ele>
        <time>2022-01-01T10:37:33Z</time>
      </trkpt>
      <trkpt lat="45.64222" lon="6.66254">
        <ele>2300.6</ele>
        <time>2022-01-01T10:37:38Z</time>
      </trkpt>
      <trkpt lat="45.64222" lon="6.66255">
        <ele>2300.4</ele>
        <time>2022-01-01T10:37:46Z</time>
      </trkpt>
      <trkpt lat="45.64222" lon="6.66255">
        <ele>2300.4</ele>
        <time>2022-01-01T10:37:51Z</time>
      </trkpt>
      <trkpt lat="45.64222" lon="6.66256">
        <ele>2301</ele>
        <time>2022-01-01T10:38:05Z</time>
      </trkpt>
      <trkpt lat="45.64224" lon="6.66258">
        <ele>2302.2</ele>
        <time>2022-01-01T10:38:09Z</time>
      </trkpt>
      <trkpt lat="45.64227" lon="6.6626">
        <ele>2303.2</ele>
        <time>2022-01-01T10:38:12Z</time>
      </trkpt>
      <trkpt lat="45.64234" lon="6.66265">
        <ele>2304.4</ele>
        <time>2022-01-01T10:38:18Z</time>
      </trkpt>
      <trkpt lat="45.64235" lon="6.66264">
        <ele>2304.4</ele>
        <time>2022-01-01T10:38:19Z</time>
      </trkpt>
      <trkpt lat="45.64237" lon="6.66265">
        <ele>2305.6</ele>
        <time>2022-01-01T10:38:22Z</time>
      </trkpt>
      <trkpt lat="45.64241" lon="6.66266">
        <ele>2306.6</ele>
        <time>2022-01-01T10:38:26Z</time>
      </trkpt>
      <trkpt lat="45.64242" lon="6.66266">
        <ele>2307</ele>
        <time>2022-01-01T10:38:27Z</time>
      </trkpt>
      <trkpt lat="45.64245" lon="6.66266">
        <ele>2307.8</ele>
        <time>2022-01-01T10:38:31Z</time>
      </trkpt>
      <trkpt lat="45.64248" lon="6.66265">
        <ele>2308</ele>
        <time>2022-01-01T10:38:33Z</time>
      </trkpt>
      <trkpt lat="45.6425" lon="6.66265">
        <ele>2308.6</ele>
        <time>2022-01-01T10:38:35Z</time>
      </trkpt>
      <trkpt lat="45.64251" lon="6.66265">
        <ele>2308.8</ele>
        <time>2022-01-01T10:38:36Z</time>
      </trkpt>
      <trkpt lat="45.64256" lon="6.66268">
        <ele>2309.8</ele>
        <time>2022-01-01T10:38:42Z</time>
      </trkpt>
      <trkpt lat="45.64259" lon="6.66269">
        <ele>2310.4</ele>
        <time>2022-01-01T10:38:46Z</time>
      </trkpt>
      <trkpt lat="45.64263" lon="6.66271">
        <ele>2311</ele>
        <time>2022-01-01T10:38:50Z</time>
      </trkpt>
      <trkpt lat="45.6427" lon="6.66272">
        <ele>2312</ele>
        <time>2022-01-01T10:38:57Z</time>
      </trkpt>
      <trkpt lat="45.64271" lon="6.66272">
        <ele>2312.2</ele>
        <time>2022-01-01T10:38:58Z</time>
      </trkpt>
      <trkpt lat="45.64278" lon="6.66274">
        <ele>2313.2</ele>
        <time>2022-01-01T10:39:05Z</time>
      </trkpt>
      <trkpt lat="45.64279" lon="6.66274">
        <ele>2313.4</ele>
        <time>2022-01-01T10:39:06Z</time>
      </trkpt>
      <trkpt lat="45.64285" lon="6.66276">
        <ele>2314</ele>
        <time>2022-01-01T10:39:12Z</time>
      </trkpt>
      <trkpt lat="45.64286" lon="6.66276">
        <ele>2314.2</ele>
        <time>2022-01-01T10:39:13Z</time>
      </trkpt>
      <trkpt lat="45.64294" lon="6.66281">
        <ele>2315.4</ele>
        <time>2022-01-01T10:39:21Z</time>
      </trkpt>
      <trkpt lat="45.64298" lon="6.66283">
        <ele>2316.6</ele>
        <time>2022-01-01T10:39:27Z</time>
      </trkpt>
      <trkpt lat="45.64299" lon="6.66283">
        <ele>2317</ele>
        <time>2022-01-01T10:39:28Z</time>
      </trkpt>
      <trkpt lat="45.64302" lon="6.66283">
        <ele>2317.6</ele>
        <time>2022-01-01T10:39:31Z</time>
      </trkpt>
      <trkpt lat="45.64309" lon="6.66285">
        <ele>2318.8</ele>
        <time>2022-01-01T10:39:38Z</time>
      </trkpt>
      <trkpt lat="45.6431" lon="6.66285">
        <ele>2319</ele>
        <time>2022-01-01T10:39:39Z</time>
      </trkpt>
      <trkpt lat="45.64316" lon="6.66286">
        <ele>2319.8</ele>
        <time>2022-01-01T10:39:45Z</time>
      </trkpt>
      <trkpt lat="45.64319" lon="6.66285">
        <ele>2319.8</ele>
        <time>2022-01-01T10:39:47Z</time>
      </trkpt>
      <trkpt lat="45.64324" lon="6.66285">
        <ele>2320.8</ele>
        <time>2022-01-01T10:39:51Z</time>
      </trkpt>
      <trkpt lat="45.64325" lon="6.66286">
        <ele>2321</ele>
        <time>2022-01-01T10:39:52Z</time>
      </trkpt>
      <trkpt lat="45.64327" lon="6.66286">
        <ele>2321.4</ele>
        <time>2022-01-01T10:39:54Z</time>
      </trkpt>
      <trkpt lat="45.64332" lon="6.66286">
        <ele>2322.2</ele>
        <time>2022-01-01T10:39:59Z</time>
      </trkpt>
      <trkpt lat="45.64336" lon="6.66289">
        <ele>2322.8</ele>
        <time>2022-01-01T10:40:04Z</time>
      </trkpt>
      <trkpt lat="45.64337" lon="6.66289">
        <ele>2323.2</ele>
        <time>2022-01-01T10:40:05Z</time>
      </trkpt>
      <trkpt lat="45.64344" lon="6.66293">
        <ele>2324.2</ele>
        <time>2022-01-01T10:40:12Z</time>
      </trkpt>
      <trkpt lat="45.64345" lon="6.66294">
        <ele>2324.4</ele>
        <time>2022-01-01T10:40:13Z</time>
      </trkpt>
      <trkpt lat="45.64349" lon="6.66298">
        <ele>2325.4</ele>
        <time>2022-01-01T10:40:19Z</time>
      </trkpt>
      <trkpt lat="45.64355" lon="6.66302">
        <ele>2326.4</ele>
        <time>2022-01-01T10:40:25Z</time>
      </trkpt>
      <trkpt lat="45.64359" lon="6.66304">
        <ele>2327.2</ele>
        <time>2022-01-01T10:40:29Z</time>
      </trkpt>
      <trkpt lat="45.64361" lon="6.66305">
        <ele>2327.6</ele>
        <time>2022-01-01T10:40:31Z</time>
      </trkpt>
      <trkpt lat="45.64368" lon="6.66309">
        <ele>2328.6</ele>
        <time>2022-01-01T10:40:38Z</time>
      </trkpt>
      <trkpt lat="45.64369" lon="6.6631">
        <ele>2329</ele>
        <time>2022-01-01T10:40:40Z</time>
      </trkpt>
      <trkpt lat="45.64373" lon="6.66312">
        <ele>2329.6</ele>
        <time>2022-01-01T10:40:44Z</time>
      </trkpt>
      <trkpt lat="45.64374" lon="6.66312">
        <ele>2330</ele>
        <time>2022-01-01T10:40:47Z</time>
      </trkpt>
      <trkpt lat="45.64377" lon="6.66315">
        <ele>2330.6</ele>
        <time>2022-01-01T10:40:58Z</time>
      </trkpt>
      <trkpt lat="45.64378" lon="6.66316">
        <ele>2330.6</ele>
        <time>2022-01-01T10:41:00Z</time>
      </trkpt>
      <trkpt lat="45.64384" lon="6.66319">
        <ele>2331.8</ele>
        <time>2022-01-01T10:41:06Z</time>
      </trkpt>
      <trkpt lat="45.64388" lon="6.6632">
        <ele>2332.2</ele>
        <time>2022-01-01T10:41:10Z</time>
      </trkpt>
      <trkpt lat="45.6439" lon="6.66321">
        <ele>2332.8</ele>
        <time>2022-01-01T10:41:13Z</time>
      </trkpt>
      <trkpt lat="45.64395" lon="6.66322">
        <ele>2333.8</ele>
        <time>2022-01-01T10:41:18Z</time>
      </trkpt>
      <trkpt lat="45.64396" lon="6.66322">
        <ele>2334</ele>
        <time>2022-01-01T10:41:19Z</time>
      </trkpt>
      <trkpt lat="45.64402" lon="6.66326">
        <ele>2335.2</ele>
        <time>2022-01-01T10:41:26Z</time>
      </trkpt>
      <trkpt lat="45.64405" lon="6.66328">
        <ele>2336</ele>
        <time>2022-01-01T10:41:29Z</time>
      </trkpt>
      <trkpt lat="45.64408" lon="6.6633">
        <ele>2336.2</ele>
        <time>2022-01-01T10:41:33Z</time>
      </trkpt>
      <trkpt lat="45.64413" lon="6.66333">
        <ele>2337.2</ele>
        <time>2022-01-01T10:41:39Z</time>
      </trkpt>
      <trkpt lat="45.64417" lon="6.66335">
        <ele>2337.8</ele>
        <time>2022-01-01T10:41:42Z</time>
      </trkpt>
      <trkpt lat="45.64418" lon="6.66336">
        <ele>2338.2</ele>
        <time>2022-01-01T10:41:44Z</time>
      </trkpt>
      <trkpt lat="45.64422" lon="6.66338">
        <ele>2339.2</ele>
        <time>2022-01-01T10:41:49Z</time>
      </trkpt>
      <trkpt lat="45.64423" lon="6.66338">
        <ele>2339.6</ele>
        <time>2022-01-01T10:41:50Z</time>
      </trkpt>
      <trkpt lat="45.64426" lon="6.66339">
        <ele>2340.4</ele>
        <time>2022-01-01T10:41:53Z</time>
      </trkpt>
      <trkpt lat="45.64427" lon="6.6634">
        <ele>2340.8</ele>
        <time>2022-01-01T10:41:56Z</time>
      </trkpt>
      <trkpt lat="45.64429" lon="6.66341">
        <ele>2341.4</ele>
        <time>2022-01-01T10:41:58Z</time>
      </trkpt>
      <trkpt lat="45.64432" lon="6.66344">
        <ele>2342.6</ele>
        <time>2022-01-01T10:42:03Z</time>
      </trkpt>
      <trkpt lat="45.64435" lon="6.66345">
        <ele>2343</ele>
        <time>2022-01-01T10:42:05Z</time>
      </trkpt>
      <trkpt lat="45.64437" lon="6.66346">
        <ele>2343.6</ele>
        <time>2022-01-01T10:42:07Z</time>
      </trkpt>
      <trkpt lat="45.64441" lon="6.66347">
        <ele>2344.6</ele>
        <time>2022-01-01T10:42:12Z</time>
      </trkpt>
      <trkpt lat="45.64441" lon="6.66348">
        <ele>2344.8</ele>
        <time>2022-01-01T10:42:13Z</time>
      </trkpt>
      <trkpt lat="45.64442" lon="6.66351">
        <ele>2345.8</ele>
        <time>2022-01-01T10:42:16Z</time>
      </trkpt>
      <trkpt lat="45.64443" lon="6.66354">
        <ele>2346.4</ele>
        <time>2022-01-01T10:42:19Z</time>
      </trkpt>
      <trkpt lat="45.64444" lon="6.66358">
        <ele>2347</ele>
        <time>2022-01-01T10:42:23Z</time>
      </trkpt>
      <trkpt lat="45.64445" lon="6.66365">
        <ele>2347.8</ele>
        <time>2022-01-01T10:42:28Z</time>
      </trkpt>
      <trkpt lat="45.64444" lon="6.66367">
        <ele>2348</ele>
        <time>2022-01-01T10:42:30Z</time>
      </trkpt>
      <trkpt lat="45.64443" lon="6.66368">
        <ele>2348.4</ele>
        <time>2022-01-01T10:42:31Z</time>
      </trkpt>
      <trkpt lat="45.64442" lon="6.66371">
        <ele>2349.4</ele>
        <time>2022-01-01T10:42:34Z</time>
      </trkpt>
      <trkpt lat="45.64441" lon="6.66372">
        <ele>2349.8</ele>
        <time>2022-01-01T10:42:35Z</time>
      </trkpt>
      <trkpt lat="45.64439" lon="6.66374">
        <ele>2350.8</ele>
        <time>2022-01-01T10:42:39Z</time>
      </trkpt>
      <trkpt lat="45.6444" lon="6.66374">
        <ele>2351.6</ele>
        <time>2022-01-01T10:42:42Z</time>
      </trkpt>
      <trkpt lat="45.6444" lon="6.66374">
        <ele>2351.8</ele>
        <time>2022-01-01T10:42:43Z</time>
      </trkpt>
      <trkpt lat="45.6444" lon="6.66375">
        <ele>2352</ele>
        <time>2022-01-01T10:42:49Z</time>
      </trkpt>
      <trkpt lat="45.6444" lon="6.66375">
        <ele>2352.2</ele>
        <time>2022-01-01T10:42:50Z</time>
      </trkpt>
      <trkpt lat="45.64441" lon="6.66375">
        <ele>2353</ele>
        <time>2022-01-01T10:43:08Z</time>
      </trkpt>
      <trkpt lat="45.64444" lon="6.66376">
        <ele>2353.4</ele>
        <time>2022-01-01T10:43:11Z</time>
      </trkpt>
      <trkpt lat="45.64447" lon="6.66378">
        <ele>2354</ele>
        <time>2022-01-01T10:43:14Z</time>
      </trkpt>
      <trkpt lat="45.64449" lon="6.66379">
        <ele>2354.4</ele>
        <time>2022-01-01T10:43:16Z</time>
      </trkpt>
      <trkpt lat="45.64451" lon="6.66379">
        <ele>2354.8</ele>
        <time>2022-01-01T10:43:18Z</time>
      </trkpt>
      <trkpt lat="45.64452" lon="6.6638">
        <ele>2355.2</ele>
        <time>2022-01-01T10:43:20Z</time>
      </trkpt>
      <trkpt lat="45.64457" lon="6.66381">
        <ele>2356.2</ele>
        <time>2022-01-01T10:43:25Z</time>
      </trkpt>
      <trkpt lat="45.64458" lon="6.66382">
        <ele>2356.2</ele>
        <time>2022-01-01T10:43:26Z</time>
      </trkpt>
      <trkpt lat="45.64459" lon="6.66389">
        <ele>2357.4</ele>
        <time>2022-01-01T10:43:32Z</time>
      </trkpt>
      <trkpt lat="45.64456" lon="6.66394">
        <ele>2358.6</ele>
        <time>2022-01-01T10:43:37Z</time>
      </trkpt>
      <trkpt lat="45.64458" lon="6.66394">
        <ele>2359.2</ele>
        <time>2022-01-01T10:43:40Z</time>
      </trkpt>
      <trkpt lat="45.64459" lon="6.66394">
        <ele>2359.6</ele>
        <time>2022-01-01T10:43:41Z</time>
      </trkpt>
      <trkpt lat="45.64461" lon="6.66397">
        <ele>2360.8</ele>
        <time>2022-01-01T10:43:45Z</time>
      </trkpt>
      <trkpt lat="45.64462" lon="6.66399">
        <ele>2361.6</ele>
        <time>2022-01-01T10:43:48Z</time>
      </trkpt>
      <trkpt lat="45.64463" lon="6.66399">
        <ele>2361.8</ele>
        <time>2022-01-01T10:43:49Z</time>
      </trkpt>
      <trkpt lat="45.64464" lon="6.66398">
        <ele>2362.4</ele>
        <time>2022-01-01T10:43:54Z</time>
      </trkpt>
      <trkpt lat="45.64466" lon="6.66403">
        <ele>2362.8</ele>
        <time>2022-01-01T10:44:01Z</time>
      </trkpt>
      <trkpt lat="45.64466" lon="6.66404">
        <ele>2363</ele>
        <time>2022-01-01T10:44:02Z</time>
      </trkpt>
      <trkpt lat="45.64468" lon="6.66408">
        <ele>2364</ele>
        <time>2022-01-01T10:44:06Z</time>
      </trkpt>
      <trkpt lat="45.64472" lon="6.66411">
        <ele>2365.2</ele>
        <time>2022-01-01T10:44:12Z</time>
      </trkpt>
      <trkpt lat="45.64475" lon="6.66414">
        <ele>2366.2</ele>
        <time>2022-01-01T10:44:17Z</time>
      </trkpt>
      <trkpt lat="45.64475" lon="6.66415">
        <ele>2366.6</ele>
        <time>2022-01-01T10:44:18Z</time>
      </trkpt>
      <trkpt lat="45.64477" lon="6.66417">
        <ele>2367.4</ele>
        <time>2022-01-01T10:44:21Z</time>
      </trkpt>
      <trkpt lat="45.64479" lon="6.66419">
        <ele>2368.4</ele>
        <time>2022-01-01T10:44:25Z</time>
      </trkpt>
      <trkpt lat="45.64479" lon="6.66421">
        <ele>2368.6</ele>
        <time>2022-01-01T10:44:26Z</time>
      </trkpt>
      <trkpt lat="45.64482" lon="6.66425">
        <ele>2369.6</ele>
        <time>2022-01-01T10:44:31Z</time>
      </trkpt>
      <trkpt lat="45.64484" lon="6.66426">
        <ele>2370.2</ele>
        <time>2022-01-01T10:44:35Z</time>
      </trkpt>
      <trkpt lat="45.64486" lon="6.66428">
        <ele>2370.8</ele>
        <time>2022-01-01T10:44:37Z</time>
      </trkpt>
      <trkpt lat="45.64491" lon="6.66434">
        <ele>2371.8</ele>
        <time>2022-01-01T10:44:44Z</time>
      </trkpt>
      <trkpt lat="45.64493" lon="6.66438">
        <ele>2372.8</ele>
        <time>2022-01-01T10:44:49Z</time>
      </trkpt>
      <trkpt lat="45.64494" lon="6.6644">
        <ele>2373.4</ele>
        <time>2022-01-01T10:44:51Z</time>
      </trkpt>
      <trkpt lat="45.64496" lon="6.66441">
        <ele>2373.8</ele>
        <time>2022-01-01T10:44:53Z</time>
      </trkpt>
      <trkpt lat="45.64499" lon="6.66445">
        <ele>2375</ele>
        <time>2022-01-01T10:44:59Z</time>
      </trkpt>
      <trkpt lat="45.645" lon="6.66446">
        <ele>2375.2</ele>
        <time>2022-01-01T10:45:00Z</time>
      </trkpt>
      <trkpt lat="45.64501" lon="6.66449">
        <ele>2376.2</ele>
        <time>2022-01-01T10:45:03Z</time>
      </trkpt>
      <trkpt lat="45.64504" lon="6.66455">
        <ele>2377.4</ele>
        <time>2022-01-01T10:45:09Z</time>
      </trkpt>
      <trkpt lat="45.64507" lon="6.66459">
        <ele>2378.4</ele>
        <time>2022-01-01T10:45:14Z</time>
      </trkpt>
      <trkpt lat="45.64508" lon="6.66463">
        <ele>2379.2</ele>
        <time>2022-01-01T10:45:17Z</time>
      </trkpt>
      <trkpt lat="45.64509" lon="6.66465">
        <ele>2379.6</ele>
        <time>2022-01-01T10:45:19Z</time>
      </trkpt>
      <trkpt lat="45.64512" lon="6.66469">
        <ele>2380.6</ele>
        <time>2022-01-01T10:45:23Z</time>
      </trkpt>
      <trkpt lat="45.64513" lon="6.66471">
        <ele>2381</ele>
        <time>2022-01-01T10:45:25Z</time>
      </trkpt>
      <trkpt lat="45.64516" lon="6.66477">
        <ele>2381.6</ele>
        <time>2022-01-01T10:45:29Z</time>
      </trkpt>
      <trkpt lat="45.64517" lon="6.66481">
        <ele>2382.2</ele>
        <time>2022-01-01T10:45:32Z</time>
      </trkpt>
      <trkpt lat="45.64517" lon="6.66482">
        <ele>2382.4</ele>
        <time>2022-01-01T10:45:33Z</time>
      </trkpt>
      <trkpt lat="45.64517" lon="6.66483">
        <ele>2382.6</ele>
        <time>2022-01-01T10:45:34Z</time>
      </trkpt>
      <trkpt lat="45.64518" lon="6.66484">
        <ele>2383</ele>
        <time>2022-01-01T10:45:35Z</time>
      </trkpt>
      <trkpt lat="45.6452" lon="6.66488">
        <ele>2383.6</ele>
        <time>2022-01-01T10:45:38Z</time>
      </trkpt>
      <trkpt lat="45.6452" lon="6.66488">
        <ele>2383.8</ele>
        <time>2022-01-01T10:45:39Z</time>
      </trkpt>
      <trkpt lat="45.64523" lon="6.66496">
        <ele>2385</ele>
        <time>2022-01-01T10:45:46Z</time>
      </trkpt>
      <trkpt lat="45.64524" lon="6.66497">
        <ele>2385.2</ele>
        <time>2022-01-01T10:45:47Z</time>
      </trkpt>
      <trkpt lat="45.64525" lon="6.66504">
        <ele>2386.4</ele>
        <time>2022-01-01T10:45:53Z</time>
      </trkpt>
      <trkpt lat="45.64526" lon="6.66507">
        <ele>2387</ele>
        <time>2022-01-01T10:45:55Z</time>
      </trkpt>
      <trkpt lat="45.64526" lon="6.66508">
        <ele>2387.2</ele>
        <time>2022-01-01T10:45:56Z</time>
      </trkpt>
      <trkpt lat="45.64525" lon="6.66511">
        <ele>2387.6</ele>
        <time>2022-01-01T10:45:58Z</time>
      </trkpt>
      <trkpt lat="45.64525" lon="6.66512">
        <ele>2387.8</ele>
        <time>2022-01-01T10:45:59Z</time>
      </trkpt>
      <trkpt lat="45.64524" lon="6.66519">
        <ele>2388.8</ele>
        <time>2022-01-01T10:46:03Z</time>
      </trkpt>
      <trkpt lat="45.64523" lon="6.66524">
        <ele>2389.8</ele>
        <time>2022-01-01T10:46:07Z</time>
      </trkpt>
      <trkpt lat="45.64523" lon="6.66527">
        <ele>2390.4</ele>
        <time>2022-01-01T10:46:09Z</time>
      </trkpt>
      <trkpt lat="45.64523" lon="6.66529">
        <ele>2390.6</ele>
        <time>2022-01-01T10:46:10Z</time>
      </trkpt>
      <trkpt lat="45.64523" lon="6.66531">
        <ele>2390.8</ele>
        <time>2022-01-01T10:46:12Z</time>
      </trkpt>
      <trkpt lat="45.64523" lon="6.66537">
        <ele>2391.8</ele>
        <time>2022-01-01T10:46:17Z</time>
      </trkpt>
      <trkpt lat="45.64522" lon="6.66539">
        <ele>2392</ele>
        <time>2022-01-01T10:46:18Z</time>
      </trkpt>
      <trkpt lat="45.64522" lon="6.66543">
        <ele>2393</ele>
        <time>2022-01-01T10:46:22Z</time>
      </trkpt>
      <trkpt lat="45.64522" lon="6.66545">
        <ele>2393.4</ele>
        <time>2022-01-01T10:46:24Z</time>
      </trkpt>
      <trkpt lat="45.64521" lon="6.66549">
        <ele>2394</ele>
        <time>2022-01-01T10:46:27Z</time>
      </trkpt>
      <trkpt lat="45.64519" lon="6.66554">
        <ele>2395.2</ele>
        <time>2022-01-01T10:46:31Z</time>
      </trkpt>
      <trkpt lat="45.64518" lon="6.66558">
        <ele>2396.2</ele>
        <time>2022-01-01T10:46:35Z</time>
      </trkpt>
      <trkpt lat="45.64518" lon="6.66559">
        <ele>2396.8</ele>
        <time>2022-01-01T10:46:38Z</time>
      </trkpt>
      <trkpt lat="45.64516" lon="6.66554">
        <ele>2397.2</ele>
        <time>2022-01-01T10:46:44Z</time>
      </trkpt>
      <trkpt lat="45.64519" lon="6.66553">
        <ele>2398.2</ele>
        <time>2022-01-01T10:46:56Z</time>
      </trkpt>
      <trkpt lat="45.64527" lon="6.66552">
        <ele>2399.6</ele>
        <time>2022-01-01T10:47:03Z</time>
      </trkpt>
      <trkpt lat="45.64528" lon="6.66552">
        <ele>2400</ele>
        <time>2022-01-01T10:47:05Z</time>
      </trkpt>
      <trkpt lat="45.6453" lon="6.66551">
        <ele>2400.6</ele>
        <time>2022-01-01T10:47:08Z</time>
      </trkpt>
      <trkpt lat="45.64532" lon="6.66549">
        <ele>2401.8</ele>
        <time>2022-01-01T10:47:13Z</time>
      </trkpt>
      <trkpt lat="45.64532" lon="6.66549">
        <ele>2402.2</ele>
        <time>2022-01-01T10:47:15Z</time>
      </trkpt>
      <trkpt lat="45.64532" lon="6.6655">
        <ele>2402.2</ele>
        <time>2022-01-01T10:47:19Z</time>
      </trkpt>
      <trkpt lat="45.64535" lon="6.66548">
        <ele>2403</ele>
        <time>2022-01-01T10:47:26Z</time>
      </trkpt>
      <trkpt lat="45.6454" lon="6.66546">
        <ele>2404.2</ele>
        <time>2022-01-01T10:47:33Z</time>
      </trkpt>
      <trkpt lat="45.64542" lon="6.66544">
        <ele>2404.8</ele>
        <time>2022-01-01T10:47:36Z</time>
      </trkpt>
      <trkpt lat="45.64544" lon="6.66544">
        <ele>2405.4</ele>
        <time>2022-01-01T10:47:39Z</time>
      </trkpt>
      <trkpt lat="45.64546" lon="6.66541">
        <ele>2406.6</ele>
        <time>2022-01-01T10:47:43Z</time>
      </trkpt>
      <trkpt lat="45.64547" lon="6.66541">
        <ele>2406.8</ele>
        <time>2022-01-01T10:47:44Z</time>
      </trkpt>
      <trkpt lat="45.64548" lon="6.66538">
        <ele>2407.6</ele>
        <time>2022-01-01T10:47:50Z</time>
      </trkpt>
      <trkpt lat="45.64548" lon="6.66538">
        <ele>2407.8</ele>
        <time>2022-01-01T10:47:51Z</time>
      </trkpt>
      <trkpt lat="45.64546" lon="6.66541">
        <ele>2407.8</ele>
        <time>2022-01-01T10:47:57Z</time>
      </trkpt>
      <trkpt lat="45.64546" lon="6.66543">
        <ele>2407.8</ele>
        <time>2022-01-01T10:48:00Z</time>
      </trkpt>
      <trkpt lat="45.64547" lon="6.66553">
        <ele>2408.4</ele>
        <time>2022-01-01T10:48:07Z</time>
      </trkpt>
      <trkpt lat="45.64546" lon="6.66557">
        <ele>2409</ele>
        <time>2022-01-01T10:48:10Z</time>
      </trkpt>
      <trkpt lat="45.64545" lon="6.66561">
        <ele>2409.8</ele>
        <time>2022-01-01T10:48:14Z</time>
      </trkpt>
      <trkpt lat="45.64545" lon="6.66562">
        <ele>2410.2</ele>
        <time>2022-01-01T10:48:15Z</time>
      </trkpt>
      <trkpt lat="45.64544" lon="6.66568">
        <ele>2411.2</ele>
        <time>2022-01-01T10:48:20Z</time>
      </trkpt>
      <trkpt lat="45.64544" lon="6.66571">
        <ele>2412.4</ele>
        <time>2022-01-01T10:48:25Z</time>
      </trkpt>
      <trkpt lat="45.64544" lon="6.66571">
        <ele>2412.8</ele>
        <time>2022-01-01T10:48:27Z</time>
      </trkpt>
      <trkpt lat="45.64547" lon="6.66568">
        <ele>2413.6</ele>
        <time>2022-01-01T10:48:34Z</time>
      </trkpt>
      <trkpt lat="45.64548" lon="6.66568">
        <ele>2414</ele>
        <time>2022-01-01T10:48:36Z</time>
      </trkpt>
      <trkpt lat="45.6455" lon="6.66567">
        <ele>2414.6</ele>
        <time>2022-01-01T10:48:39Z</time>
      </trkpt>
      <trkpt lat="45.64553" lon="6.66565">
        <ele>2415.6</ele>
        <time>2022-01-01T10:48:44Z</time>
      </trkpt>
      <trkpt lat="45.64557" lon="6.66561">
        <ele>2416.8</ele>
        <time>2022-01-01T10:48:50Z</time>
      </trkpt>
      <trkpt lat="45.64558" lon="6.66561">
        <ele>2417</ele>
        <time>2022-01-01T10:48:51Z</time>
      </trkpt>
      <trkpt lat="45.64562" lon="6.66558">
        <ele>2417.8</ele>
        <time>2022-01-01T10:48:55Z</time>
      </trkpt>
      <trkpt lat="45.64563" lon="6.66557">
        <ele>2418.4</ele>
        <time>2022-01-01T10:48:57Z</time>
      </trkpt>
      <trkpt lat="45.64564" lon="6.66556">
        <ele>2419</ele>
        <time>2022-01-01T10:49:00Z</time>
      </trkpt>
      <trkpt lat="45.64566" lon="6.66557">
        <ele>2419.4</ele>
        <time>2022-01-01T10:49:03Z</time>
      </trkpt>
      <trkpt lat="45.64565" lon="6.66559">
        <ele>2420</ele>
        <time>2022-01-01T10:49:12Z</time>
      </trkpt>
      <trkpt lat="45.64565" lon="6.66559">
        <ele>2420</ele>
        <time>2022-01-01T10:49:13Z</time>
      </trkpt>
      <trkpt lat="45.64565" lon="6.66569">
        <ele>2421</ele>
        <time>2022-01-01T10:49:27Z</time>
      </trkpt>
      <trkpt lat="45.64565" lon="6.66578">
        <ele>2422.2</ele>
        <time>2022-01-01T10:49:32Z</time>
      </trkpt>
      <trkpt lat="45.64564" lon="6.66581">
        <ele>2422.8</ele>
        <time>2022-01-01T10:49:34Z</time>
      </trkpt>
      <trkpt lat="45.64563" lon="6.66585">
        <ele>2423.4</ele>
        <time>2022-01-01T10:49:37Z</time>
      </trkpt>
      <trkpt lat="45.64562" lon="6.66589">
        <ele>2424.4</ele>
        <time>2022-01-01T10:49:41Z</time>
      </trkpt>
      <trkpt lat="45.64561" lon="6.66596">
        <ele>2425.8</ele>
        <time>2022-01-01T10:49:47Z</time>
      </trkpt>
      <trkpt lat="45.64561" lon="6.66597">
        <ele>2426.4</ele>
        <time>2022-01-01T10:49:49Z</time>
      </trkpt>
      <trkpt lat="45.64561" lon="6.66597">
        <ele>2426.8</ele>
        <time>2022-01-01T10:49:51Z</time>
      </trkpt>
      <trkpt lat="45.64562" lon="6.66596">
        <ele>2427.4</ele>
        <time>2022-01-01T10:49:56Z</time>
      </trkpt>
      <trkpt lat="45.64564" lon="6.66595">
        <ele>2428</ele>
        <time>2022-01-01T10:49:59Z</time>
      </trkpt>
      <trkpt lat="45.64566" lon="6.66594">
        <ele>2428.4</ele>
        <time>2022-01-01T10:50:02Z</time>
      </trkpt>
      <trkpt lat="45.64567" lon="6.66593">
        <ele>2428.6</ele>
        <time>2022-01-01T10:50:03Z</time>
      </trkpt>
      <trkpt lat="45.64569" lon="6.66593">
        <ele>2429.2</ele>
        <time>2022-01-01T10:50:05Z</time>
      </trkpt>
      <trkpt lat="45.64572" lon="6.66591">
        <ele>2430.4</ele>
        <time>2022-01-01T10:50:10Z</time>
      </trkpt>
      <trkpt lat="45.64573" lon="6.66591">
        <ele>2430.6</ele>
        <time>2022-01-01T10:50:11Z</time>
      </trkpt>
      <trkpt lat="45.64576" lon="6.6659">
        <ele>2431.6</ele>
        <time>2022-01-01T10:50:15Z</time>
      </trkpt>
      <trkpt lat="45.64578" lon="6.6659">
        <ele>2432.4</ele>
        <time>2022-01-01T10:50:19Z</time>
      </trkpt>
      <trkpt lat="45.64579" lon="6.66589">
        <ele>2432.8</ele>
        <time>2022-01-01T10:50:20Z</time>
      </trkpt>
      <trkpt lat="45.6458" lon="6.66589">
        <ele>2433.4</ele>
        <time>2022-01-01T10:50:25Z</time>
      </trkpt>
      <trkpt lat="45.6458" lon="6.6659">
        <ele>2434</ele>
        <time>2022-01-01T10:50:39Z</time>
      </trkpt>
      <trkpt lat="45.6458" lon="6.6659">
        <ele>2434.6</ele>
        <time>2022-01-01T10:50:43Z</time>
      </trkpt>
      <trkpt lat="45.6458" lon="6.6659">
        <ele>2435</ele>
        <time>2022-01-01T10:50:44Z</time>
      </trkpt>
      <trkpt lat="45.64587" lon="6.66594">
        <ele>2436</ele>
        <time>2022-01-01T10:50:49Z</time>
      </trkpt>
      <trkpt lat="45.64588" lon="6.66595">
        <ele>2436.2</ele>
        <time>2022-01-01T10:50:50Z</time>
      </trkpt>
      <trkpt lat="45.64594" lon="6.66597">
        <ele>2437.2</ele>
        <time>2022-01-01T10:50:54Z</time>
      </trkpt>
      <trkpt lat="45.64596" lon="6.66596">
        <ele>2437.6</ele>
        <time>2022-01-01T10:50:56Z</time>
      </trkpt>
      <trkpt lat="45.64598" lon="6.66593">
        <ele>2438.2</ele>
        <time>2022-01-01T10:51:00Z</time>
      </trkpt>
      <trkpt lat="45.64599" lon="6.66592">
        <ele>2439</ele>
        <time>2022-01-01T10:51:02Z</time>
      </trkpt>
      <trkpt lat="45.646" lon="6.6659">
        <ele>2439.4</ele>
        <time>2022-01-01T10:51:04Z</time>
      </trkpt>
      <trkpt lat="45.64601" lon="6.66588">
        <ele>2440</ele>
        <time>2022-01-01T10:51:07Z</time>
      </trkpt>
      <trkpt lat="45.64602" lon="6.66586">
        <ele>2440.4</ele>
        <time>2022-01-01T10:51:09Z</time>
      </trkpt>
      <trkpt lat="45.64603" lon="6.66585">
        <ele>2440.6</ele>
        <time>2022-01-01T10:51:10Z</time>
      </trkpt>
      <trkpt lat="45.64605" lon="6.66583">
        <ele>2442</ele>
        <time>2022-01-01T10:51:15Z</time>
      </trkpt>
      <trkpt lat="45.64607" lon="6.66584">
        <ele>2443</ele>
        <time>2022-01-01T10:51:19Z</time>
      </trkpt>
      <trkpt lat="45.64608" lon="6.66584">
        <ele>2443.2</ele>
        <time>2022-01-01T10:51:20Z</time>
      </trkpt>
      <trkpt lat="45.6461" lon="6.66584">
        <ele>2444.2</ele>
        <time>2022-01-01T10:51:25Z</time>
      </trkpt>
      <trkpt lat="45.64612" lon="6.66583">
        <ele>2445.2</ele>
        <time>2022-01-01T10:51:29Z</time>
      </trkpt>
      <trkpt lat="45.64615" lon="6.66584">
        <ele>2446.2</ele>
        <time>2022-01-01T10:51:32Z</time>
      </trkpt>
      <trkpt lat="45.64616" lon="6.66584">
        <ele>2446.4</ele>
        <time>2022-01-01T10:51:33Z</time>
      </trkpt>
      <trkpt lat="45.64619" lon="6.6658">
        <ele>2447.4</ele>
        <time>2022-01-01T10:51:38Z</time>
      </trkpt>
      <trkpt lat="45.6462" lon="6.66579">
        <ele>2447.6</ele>
        <time>2022-01-01T10:51:39Z</time>
      </trkpt>
      <trkpt lat="45.64621" lon="6.66579">
        <ele>2448.2</ele>
        <time>2022-01-01T10:51:47Z</time>
      </trkpt>
      <trkpt lat="45.6462" lon="6.6658">
        <ele>2448.4</ele>
        <time>2022-01-01T10:51:51Z</time>
      </trkpt>
      <trkpt lat="45.64622" lon="6.66581">
        <ele>2448.4</ele>
        <time>2022-01-01T10:52:14Z</time>
      </trkpt>
      <trkpt lat="45.64622" lon="6.66581">
        <ele>2448.6</ele>
        <time>2022-01-01T10:52:34Z</time>
      </trkpt>
      <trkpt lat="45.64623" lon="6.66582">
        <ele>2448.6</ele>
        <time>2022-01-01T10:53:19Z</time>
      </trkpt>
      <trkpt lat="45.64624" lon="6.66581">
        <ele>2448.6</ele>
        <time>2022-01-01T10:53:38Z</time>
      </trkpt>
      <trkpt lat="45.64632" lon="6.66575">
        <ele>2448.6</ele>
        <time>2022-01-01T10:54:18Z</time>
      </trkpt>
      <trkpt lat="45.64633" lon="6.66575">
        <ele>2448.6</ele>
        <time>2022-01-01T10:54:19Z</time>
      </trkpt>
      <trkpt lat="45.64638" lon="6.66571">
        <ele>2448.6</ele>
        <time>2022-01-01T10:54:24Z</time>
      </trkpt>
      <trkpt lat="45.6464" lon="6.66566">
        <ele>2448.6</ele>
        <time>2022-01-01T10:54:29Z</time>
      </trkpt>
      <trkpt lat="45.64639" lon="6.66565">
        <ele>2448.6</ele>
        <time>2022-01-01T10:54:31Z</time>
      </trkpt>
      <trkpt lat="45.64634" lon="6.66561">
        <ele>2449.6</ele>
        <time>2022-01-01T10:54:39Z</time>
      </trkpt>
      <trkpt lat="45.64634" lon="6.6656">
        <ele>2450.4</ele>
        <time>2022-01-01T10:54:46Z</time>
      </trkpt>
      <trkpt lat="45.64634" lon="6.6656">
        <ele>2450.4</ele>
        <time>2022-01-01T10:54:57Z</time>
      </trkpt>
      <trkpt lat="45.64634" lon="6.6656">
        <ele>2450.4</ele>
        <time>2022-01-01T10:54:59Z</time>
      </trkpt>
      <trkpt lat="45.64637" lon="6.66561">
        <ele>2450.2</ele>
        <time>2022-01-01T10:55:41Z</time>
      </trkpt>
      <trkpt lat="45.64638" lon="6.6656">
        <ele>2450.4</ele>
        <time>2022-01-01T10:56:37Z</time>
      </trkpt>
      <trkpt lat="45.64641" lon="6.66554">
        <ele>2450.4</ele>
        <time>2022-01-01T10:56:43Z</time>
      </trkpt>
      <trkpt lat="45.64646" lon="6.6655">
        <ele>2450</ele>
        <time>2022-01-01T10:56:47Z</time>
      </trkpt>
      <trkpt lat="45.64649" lon="6.66548">
        <ele>2450</ele>
        <time>2022-01-01T10:56:50Z</time>
      </trkpt>
      <trkpt lat="45.64657" lon="6.66546">
        <ele>2450.2</ele>
        <time>2022-01-01T10:56:59Z</time>
      </trkpt>
      <trkpt lat="45.64659" lon="6.66546">
        <ele>2450.4</ele>
        <time>2022-01-01T10:57:01Z</time>
      </trkpt>
      <trkpt lat="45.64661" lon="6.66546">
        <ele>2450.6</ele>
        <time>2022-01-01T10:57:03Z</time>
      </trkpt>
      <trkpt lat="45.64663" lon="6.66545">
        <ele>2450.8</ele>
        <time>2022-01-01T10:57:05Z</time>
      </trkpt>
      <trkpt lat="45.64665" lon="6.66546">
        <ele>2451.2</ele>
        <time>2022-01-01T10:57:07Z</time>
      </trkpt>
      <trkpt lat="45.64671" lon="6.66548">
        <ele>2451.8</ele>
        <time>2022-01-01T10:57:12Z</time>
      </trkpt>
      <trkpt lat="45.64675" lon="6.66549">
        <ele>2452.4</ele>
        <time>2022-01-01T10:57:17Z</time>
      </trkpt>
      <trkpt lat="45.64678" lon="6.6655">
        <ele>2452.8</ele>
        <time>2022-01-01T10:57:20Z</time>
      </trkpt>
      <trkpt lat="45.64686" lon="6.66553">
        <ele>2453.8</ele>
        <time>2022-01-01T10:57:28Z</time>
      </trkpt>
      <trkpt lat="45.64692" lon="6.66553">
        <ele>2455</ele>
        <time>2022-01-01T10:57:36Z</time>
      </trkpt>
      <trkpt lat="45.64694" lon="6.66552">
        <ele>2455.2</ele>
        <time>2022-01-01T10:57:38Z</time>
      </trkpt>
      <trkpt lat="45.64696" lon="6.66553">
        <ele>2455.6</ele>
        <time>2022-01-01T10:57:40Z</time>
      </trkpt>
      <trkpt lat="45.64698" lon="6.66554">
        <ele>2456</ele>
        <time>2022-01-01T10:57:42Z</time>
      </trkpt>
      <trkpt lat="45.64699" lon="6.66555">
        <ele>2456.6</ele>
        <time>2022-01-01T10:57:44Z</time>
      </trkpt>
      <trkpt lat="45.64704" lon="6.66556">
        <ele>2457.2</ele>
        <time>2022-01-01T10:57:47Z</time>
      </trkpt>
      <trkpt lat="45.64704" lon="6.66557">
        <ele>2457.4</ele>
        <time>2022-01-01T10:57:48Z</time>
      </trkpt>
      <trkpt lat="45.64707" lon="6.66558">
        <ele>2458.4</ele>
        <time>2022-01-01T10:57:52Z</time>
      </trkpt>
      <trkpt lat="45.64712" lon="6.66561">
        <ele>2459.6</ele>
        <time>2022-01-01T10:57:59Z</time>
      </trkpt>
      <trkpt lat="45.64716" lon="6.66561">
        <ele>2460.6</ele>
        <time>2022-01-01T10:58:04Z</time>
      </trkpt>
      <trkpt lat="45.6472" lon="6.66562">
        <ele>2461.6</ele>
        <time>2022-01-01T10:58:09Z</time>
      </trkpt>
      <trkpt lat="45.64724" lon="6.66563">
        <ele>2462.4</ele>
        <time>2022-01-01T10:58:13Z</time>
      </trkpt>
      <trkpt lat="45.64725" lon="6.66565">
        <ele>2462.8</ele>
        <time>2022-01-01T10:58:15Z</time>
      </trkpt>
      <trkpt lat="45.64728" lon="6.66568">
        <ele>2463.8</ele>
        <time>2022-01-01T10:58:20Z</time>
      </trkpt>
      <trkpt lat="45.64732" lon="6.66571">
        <ele>2464.6</ele>
        <time>2022-01-01T10:58:25Z</time>
      </trkpt>
      <trkpt lat="45.64733" lon="6.66571">
        <ele>2464.8</ele>
        <time>2022-01-01T10:58:26Z</time>
      </trkpt>
      <trkpt lat="45.64739" lon="6.66572">
        <ele>2465.8</ele>
        <time>2022-01-01T10:58:33Z</time>
      </trkpt>
      <trkpt lat="45.6474" lon="6.66573">
        <ele>2466</ele>
        <time>2022-01-01T10:58:34Z</time>
      </trkpt>
      <trkpt lat="45.64744" lon="6.66577">
        <ele>2466.8</ele>
        <time>2022-01-01T10:58:41Z</time>
      </trkpt>
      <trkpt lat="45.64745" lon="6.66577">
        <ele>2467</ele>
        <time>2022-01-01T10:58:42Z</time>
      </trkpt>
      <trkpt lat="45.64747" lon="6.66578">
        <ele>2467</ele>
        <time>2022-01-01T10:58:43Z</time>
      </trkpt>
      <trkpt lat="45.64749" lon="6.66579">
        <ele>2468</ele>
        <time>2022-01-01T10:58:46Z</time>
      </trkpt>
      <trkpt lat="45.64752" lon="6.66581">
        <ele>2468.4</ele>
        <time>2022-01-01T10:58:49Z</time>
      </trkpt>
      <trkpt lat="45.64755" lon="6.66582">
        <ele>2469.4</ele>
        <time>2022-01-01T10:58:53Z</time>
      </trkpt>
      <trkpt lat="45.64758" lon="6.66584">
        <ele>2470.4</ele>
        <time>2022-01-01T10:58:57Z</time>
      </trkpt>
      <trkpt lat="45.6476" lon="6.66585">
        <ele>2470.6</ele>
        <time>2022-01-01T10:58:59Z</time>
      </trkpt>
      <trkpt lat="45.64765" lon="6.66588">
        <ele>2471.6</ele>
        <time>2022-01-01T10:59:05Z</time>
      </trkpt>
      <trkpt lat="45.6477" lon="6.66587">
        <ele>2472</ele>
        <time>2022-01-01T10:59:10Z</time>
      </trkpt>
      <trkpt lat="45.64771" lon="6.66587">
        <ele>2472</ele>
        <time>2022-01-01T10:59:11Z</time>
      </trkpt>
      <trkpt lat="45.64777" lon="6.66588">
        <ele>2472.6</ele>
        <time>2022-01-01T10:59:18Z</time>
      </trkpt>
      <trkpt lat="45.6478" lon="6.66589">
        <ele>2473.2</ele>
        <time>2022-01-01T10:59:21Z</time>
      </trkpt>
      <trkpt lat="45.64783" lon="6.6659">
        <ele>2473.6</ele>
        <time>2022-01-01T10:59:24Z</time>
      </trkpt>
      <trkpt lat="45.64783" lon="6.6659">
        <ele>2473.8</ele>
        <time>2022-01-01T10:59:25Z</time>
      </trkpt>
      <trkpt lat="45.64787" lon="6.66592">
        <ele>2474.6</ele>
        <time>2022-01-01T10:59:29Z</time>
      </trkpt>
      <trkpt lat="45.64788" lon="6.66592">
        <ele>2475</ele>
        <time>2022-01-01T10:59:30Z</time>
      </trkpt>
      <trkpt lat="45.64792" lon="6.66593">
        <ele>2476.2</ele>
        <time>2022-01-01T10:59:36Z</time>
      </trkpt>
      <trkpt lat="45.64795" lon="6.66594">
        <ele>2476.6</ele>
        <time>2022-01-01T10:59:38Z</time>
      </trkpt>
      <trkpt lat="45.64798" lon="6.66596">
        <ele>2477.2</ele>
        <time>2022-01-01T10:59:42Z</time>
      </trkpt>
      <trkpt lat="45.64803" lon="6.66598">
        <ele>2478.6</ele>
        <time>2022-01-01T10:59:48Z</time>
      </trkpt>
      <trkpt lat="45.64806" lon="6.66598">
        <ele>2479.6</ele>
        <time>2022-01-01T10:59:53Z</time>
      </trkpt>
      <trkpt lat="45.6481" lon="6.66598">
        <ele>2480.8</ele>
        <time>2022-01-01T10:59:59Z</time>
      </trkpt>
      <trkpt lat="45.64813" lon="6.66599">
        <ele>2481.8</ele>
        <time>2022-01-01T11:00:04Z</time>
      </trkpt>
      <trkpt lat="45.64816" lon="6.66598">
        <ele>2483</ele>
        <time>2022-01-01T11:00:08Z</time>
      </trkpt>
      <trkpt lat="45.64819" lon="6.66599">
        <ele>2484.2</ele>
        <time>2022-01-01T11:00:12Z</time>
      </trkpt>
      <trkpt lat="45.64823" lon="6.66601">
        <ele>2485.2</ele>
        <time>2022-01-01T11:00:17Z</time>
      </trkpt>
      <trkpt lat="45.64828" lon="6.66604">
        <ele>2486.2</ele>
        <time>2022-01-01T11:00:23Z</time>
      </trkpt>
      <trkpt lat="45.64832" lon="6.66607">
        <ele>2486.8</ele>
        <time>2022-01-01T11:00:27Z</time>
      </trkpt>
      <trkpt lat="45.64837" lon="6.66612">
        <ele>2487.2</ele>
        <time>2022-01-01T11:00:33Z</time>
      </trkpt>
      <trkpt lat="45.6484" lon="6.66616">
        <ele>2487.8</ele>
        <time>2022-01-01T11:00:38Z</time>
      </trkpt>
      <trkpt lat="45.64844" lon="6.66618">
        <ele>2488.2</ele>
        <time>2022-01-01T11:00:43Z</time>
      </trkpt>
      <trkpt lat="45.64849" lon="6.66621">
        <ele>2489</ele>
        <time>2022-01-01T11:00:49Z</time>
      </trkpt>
      <trkpt lat="45.6485" lon="6.66621">
        <ele>2489.2</ele>
        <time>2022-01-01T11:00:51Z</time>
      </trkpt>
      <trkpt lat="45.64851" lon="6.6662">
        <ele>2489.4</ele>
        <time>2022-01-01T11:00:52Z</time>
      </trkpt>
      <trkpt lat="45.64851" lon="6.66618">
        <ele>2489.8</ele>
        <time>2022-01-01T11:00:55Z</time>
      </trkpt>
      <trkpt lat="45.6485" lon="6.66613">
        <ele>2490.2</ele>
        <time>2022-01-01T11:01:00Z</time>
      </trkpt>
      <trkpt lat="45.64848" lon="6.66609">
        <ele>2490.6</ele>
        <time>2022-01-01T11:01:05Z</time>
      </trkpt>
      <trkpt lat="45.64844" lon="6.66605">
        <ele>2491.4</ele>
        <time>2022-01-01T11:01:13Z</time>
      </trkpt>
      <trkpt lat="45.64843" lon="6.66603">
        <ele>2491.6</ele>
        <time>2022-01-01T11:01:15Z</time>
      </trkpt>
      <trkpt lat="45.64843" lon="6.66601">
        <ele>2492</ele>
        <time>2022-01-01T11:01:22Z</time>
      </trkpt>
      <trkpt lat="45.64845" lon="6.666">
        <ele>2492.2</ele>
        <time>2022-01-01T11:01:30Z</time>
      </trkpt>
      <trkpt lat="45.64848" lon="6.66599">
        <ele>2492.4</ele>
        <time>2022-01-01T11:01:34Z</time>
      </trkpt>
      <trkpt lat="45.64851" lon="6.66598">
        <ele>2493.4</ele>
        <time>2022-01-01T11:01:38Z</time>
      </trkpt>
      <trkpt lat="45.64852" lon="6.66598">
        <ele>2493.6</ele>
        <time>2022-01-01T11:01:39Z</time>
      </trkpt>
      <trkpt lat="45.64858" lon="6.66599">
        <ele>2494.8</ele>
        <time>2022-01-01T11:01:46Z</time>
      </trkpt>
      <trkpt lat="45.64861" lon="6.666">
        <ele>2496</ele>
        <time>2022-01-01T11:01:50Z</time>
      </trkpt>
      <trkpt lat="45.64864" lon="6.66601">
        <ele>2496.6</ele>
        <time>2022-01-01T11:01:53Z</time>
      </trkpt>
      <trkpt lat="45.64865" lon="6.66601">
        <ele>2497</ele>
        <time>2022-01-01T11:01:55Z</time>
      </trkpt>
      <trkpt lat="45.64867" lon="6.66601">
        <ele>2498.2</ele>
        <time>2022-01-01T11:01:59Z</time>
      </trkpt>
      <trkpt lat="45.64866" lon="6.66602">
        <ele>2498.8</ele>
        <time>2022-01-01T11:02:02Z</time>
      </trkpt>
      <trkpt lat="45.64866" lon="6.666">
        <ele>2499.2</ele>
        <time>2022-01-01T11:02:06Z</time>
      </trkpt>
      <trkpt lat="45.64866" lon="6.66597">
        <ele>2499.6</ele>
        <time>2022-01-01T11:02:09Z</time>
      </trkpt>
      <trkpt lat="45.64865" lon="6.66594">
        <ele>2500</ele>
        <time>2022-01-01T11:02:11Z</time>
      </trkpt>
      <trkpt lat="45.64865" lon="6.66593">
        <ele>2500.4</ele>
        <time>2022-01-01T11:02:13Z</time>
      </trkpt>
      <trkpt lat="45.64866" lon="6.66585">
        <ele>2501.2</ele>
        <time>2022-01-01T11:02:19Z</time>
      </trkpt>
      <trkpt lat="45.64866" lon="6.66583">
        <ele>2501.4</ele>
        <time>2022-01-01T11:02:21Z</time>
      </trkpt>
      <trkpt lat="45.64865" lon="6.66578">
        <ele>2502.6</ele>
        <time>2022-01-01T11:02:26Z</time>
      </trkpt>
      <trkpt lat="45.64864" lon="6.66575">
        <ele>2502.8</ele>
        <time>2022-01-01T11:02:28Z</time>
      </trkpt>
      <trkpt lat="45.64864" lon="6.66568">
        <ele>2503.6</ele>
        <time>2022-01-01T11:02:33Z</time>
      </trkpt>
      <trkpt lat="45.64863" lon="6.66566">
        <ele>2503.8</ele>
        <time>2022-01-01T11:02:35Z</time>
      </trkpt>
      <trkpt lat="45.64862" lon="6.66563">
        <ele>2504.2</ele>
        <time>2022-01-01T11:02:37Z</time>
      </trkpt>
      <trkpt lat="45.64861" lon="6.66561">
        <ele>2504.6</ele>
        <time>2022-01-01T11:02:39Z</time>
      </trkpt>
      <trkpt lat="45.64859" lon="6.66557">
        <ele>2505.2</ele>
        <time>2022-01-01T11:02:44Z</time>
      </trkpt>
      <trkpt lat="45.64858" lon="6.66554">
        <ele>2505.6</ele>
        <time>2022-01-01T11:02:47Z</time>
      </trkpt>
      <trkpt lat="45.64858" lon="6.66553">
        <ele>2505.8</ele>
        <time>2022-01-01T11:02:50Z</time>
      </trkpt>
      <trkpt lat="45.64858" lon="6.66552">
        <ele>2506.2</ele>
        <time>2022-01-01T11:02:53Z</time>
      </trkpt>
      <trkpt lat="45.64857" lon="6.66552">
        <ele>2506.2</ele>
        <time>2022-01-01T11:02:59Z</time>
      </trkpt>
      <trkpt lat="45.64856" lon="6.6655">
        <ele>2506</ele>
        <time>2022-01-01T11:03:22Z</time>
      </trkpt>
      <trkpt lat="45.64856" lon="6.66551">
        <ele>2506</ele>
        <time>2022-01-01T11:03:35Z</time>
      </trkpt>
      <trkpt lat="45.6486" lon="6.66554">
        <ele>2506.2</ele>
        <time>2022-01-01T11:05:50Z</time>
      </trkpt>
      <trkpt lat="45.6486" lon="6.66556">
        <ele>2506.2</ele>
        <time>2022-01-01T11:06:12Z</time>
      </trkpt>
      <trkpt lat="45.64869" lon="6.66555">
        <ele>2506.2</ele>
        <time>2022-01-01T11:06:46Z</time>
      </trkpt>
      <trkpt lat="45.6488" lon="6.66559">
        <ele>2506.2</ele>
        <time>2022-01-01T11:06:55Z</time>
      </trkpt>
      <trkpt lat="45.64882" lon="6.66561">
        <ele>2506.6</ele>
        <time>2022-01-01T11:06:57Z</time>
      </trkpt>
      <trkpt lat="45.64882" lon="6.66562">
        <ele>2506.6</ele>
        <time>2022-01-01T11:06:58Z</time>
      </trkpt>
      <trkpt lat="45.64888" lon="6.6657">
        <ele>2507.6</ele>
        <time>2022-01-01T11:07:09Z</time>
      </trkpt>
      <trkpt lat="45.64889" lon="6.66572">
        <ele>2507.8</ele>
        <time>2022-01-01T11:07:10Z</time>
      </trkpt>
      <trkpt lat="45.64896" lon="6.66579">
        <ele>2508.2</ele>
        <time>2022-01-01T11:07:18Z</time>
      </trkpt>
      <trkpt lat="45.64903" lon="6.66588">
        <ele>2508.6</ele>
        <time>2022-01-01T11:07:27Z</time>
      </trkpt>
      <trkpt lat="45.64904" lon="6.66591">
        <ele>2508.8</ele>
        <time>2022-01-01T11:07:29Z</time>
      </trkpt>
      <trkpt lat="45.64912" lon="6.66601">
        <ele>2507.8</ele>
        <time>2022-01-01T11:07:37Z</time>
      </trkpt>
      <trkpt lat="45.64914" lon="6.66602">
        <ele>2507.6</ele>
        <time>2022-01-01T11:07:38Z</time>
      </trkpt>
      <trkpt lat="45.64917" lon="6.66608">
        <ele>2506.6</ele>
        <time>2022-01-01T11:07:42Z</time>
      </trkpt>
      <trkpt lat="45.64918" lon="6.6661">
        <ele>2506.4</ele>
        <time>2022-01-01T11:07:44Z</time>
      </trkpt>
      <trkpt lat="45.64922" lon="6.6662">
        <ele>2507.2</ele>
        <time>2022-01-01T11:07:52Z</time>
      </trkpt>
      <trkpt lat="45.64923" lon="6.66623">
        <ele>2508</ele>
        <time>2022-01-01T11:07:56Z</time>
      </trkpt>
      <trkpt lat="45.64924" lon="6.66623">
        <ele>2508.2</ele>
        <time>2022-01-01T11:07:57Z</time>
      </trkpt>
      <trkpt lat="45.64927" lon="6.66625">
        <ele>2508.6</ele>
        <time>2022-01-01T11:08:00Z</time>
      </trkpt>
      <trkpt lat="45.64932" lon="6.66632">
        <ele>2509</ele>
        <time>2022-01-01T11:08:06Z</time>
      </trkpt>
      <trkpt lat="45.64937" lon="6.66636">
        <ele>2510</ele>
        <time>2022-01-01T11:08:11Z</time>
      </trkpt>
      <trkpt lat="45.64938" lon="6.66636">
        <ele>2510.2</ele>
        <time>2022-01-01T11:08:12Z</time>
      </trkpt>
      <trkpt lat="45.64945" lon="6.66644">
        <ele>2511.2</ele>
        <time>2022-01-01T11:08:20Z</time>
      </trkpt>
      <trkpt lat="45.64946" lon="6.66644">
        <ele>2511.2</ele>
        <time>2022-01-01T11:08:21Z</time>
      </trkpt>
      <trkpt lat="45.64948" lon="6.66646">
        <ele>2512.2</ele>
        <time>2022-01-01T11:08:24Z</time>
      </trkpt>
      <trkpt lat="45.64952" lon="6.66648">
        <ele>2513.4</ele>
        <time>2022-01-01T11:08:28Z</time>
      </trkpt>
      <trkpt lat="45.64956" lon="6.6665">
        <ele>2514.6</ele>
        <time>2022-01-01T11:08:34Z</time>
      </trkpt>
      <trkpt lat="45.64957" lon="6.66651">
        <ele>2515.2</ele>
        <time>2022-01-01T11:08:36Z</time>
      </trkpt>
      <trkpt lat="45.6496" lon="6.66652">
        <ele>2515.8</ele>
        <time>2022-01-01T11:08:39Z</time>
      </trkpt>
      <trkpt lat="45.64963" lon="6.66652">
        <ele>2516.4</ele>
        <time>2022-01-01T11:08:43Z</time>
      </trkpt>
      <trkpt lat="45.64966" lon="6.66653">
        <ele>2516.8</ele>
        <time>2022-01-01T11:08:46Z</time>
      </trkpt>
      <trkpt lat="45.64972" lon="6.66654">
        <ele>2517.8</ele>
        <time>2022-01-01T11:08:53Z</time>
      </trkpt>
      <trkpt lat="45.64974" lon="6.66654">
        <ele>2518.2</ele>
        <time>2022-01-01T11:08:55Z</time>
      </trkpt>
      <trkpt lat="45.64977" lon="6.66655">
        <ele>2519</ele>
        <time>2022-01-01T11:08:59Z</time>
      </trkpt>
      <trkpt lat="45.64982" lon="6.66655">
        <ele>2519.6</ele>
        <time>2022-01-01T11:09:04Z</time>
      </trkpt>
      <trkpt lat="45.64986" lon="6.66652">
        <ele>2520</ele>
        <time>2022-01-01T11:09:08Z</time>
      </trkpt>
      <trkpt lat="45.64995" lon="6.66651">
        <ele>2520.4</ele>
        <time>2022-01-01T11:09:17Z</time>
      </trkpt>
      <trkpt lat="45.65006" lon="6.66647">
        <ele>2520.4</ele>
        <time>2022-01-01T11:09:27Z</time>
      </trkpt>
      <trkpt lat="45.65015" lon="6.66642">
        <ele>2520.4</ele>
        <time>2022-01-01T11:09:34Z</time>
      </trkpt>
      <trkpt lat="45.65016" lon="6.66642">
        <ele>2520.4</ele>
        <time>2022-01-01T11:09:35Z</time>
      </trkpt>
      <trkpt lat="45.65023" lon="6.66636">
        <ele>2520.8</ele>
        <time>2022-01-01T11:09:43Z</time>
      </trkpt>
      <trkpt lat="45.65024" lon="6.66635">
        <ele>2521</ele>
        <time>2022-01-01T11:09:44Z</time>
      </trkpt>
      <trkpt lat="45.65026" lon="6.66633">
        <ele>2521.6</ele>
        <time>2022-01-01T11:09:47Z</time>
      </trkpt>
      <trkpt lat="45.65029" lon="6.66631">
        <ele>2521.8</ele>
        <time>2022-01-01T11:09:50Z</time>
      </trkpt>
      <trkpt lat="45.6503" lon="6.6663">
        <ele>2522.2</ele>
        <time>2022-01-01T11:09:52Z</time>
      </trkpt>
      <trkpt lat="45.65035" lon="6.66627">
        <ele>2523.2</ele>
        <time>2022-01-01T11:09:57Z</time>
      </trkpt>
      <trkpt lat="45.65038" lon="6.66624">
        <ele>2524.2</ele>
        <time>2022-01-01T11:10:02Z</time>
      </trkpt>
      <trkpt lat="45.65038" lon="6.66623">
        <ele>2524.2</ele>
        <time>2022-01-01T11:10:03Z</time>
      </trkpt>
      <trkpt lat="45.6504" lon="6.66623">
        <ele>2525</ele>
        <time>2022-01-01T11:10:06Z</time>
      </trkpt>
      <trkpt lat="45.65042" lon="6.66622">
        <ele>2525.4</ele>
        <time>2022-01-01T11:10:08Z</time>
      </trkpt>
      <trkpt lat="45.65044" lon="6.66619">
        <ele>2526.4</ele>
        <time>2022-01-01T11:10:11Z</time>
      </trkpt>
      <trkpt lat="45.65046" lon="6.66619">
        <ele>2526.8</ele>
        <time>2022-01-01T11:10:13Z</time>
      </trkpt>
      <trkpt lat="45.65049" lon="6.66615">
        <ele>2527.4</ele>
        <time>2022-01-01T11:10:18Z</time>
      </trkpt>
      <trkpt lat="45.65049" lon="6.66614">
        <ele>2527.8</ele>
        <time>2022-01-01T11:10:19Z</time>
      </trkpt>
      <trkpt lat="45.65051" lon="6.66612">
        <ele>2528.6</ele>
        <time>2022-01-01T11:10:22Z</time>
      </trkpt>
      <trkpt lat="45.65052" lon="6.6661">
        <ele>2529</ele>
        <time>2022-01-01T11:10:24Z</time>
      </trkpt>
      <trkpt lat="45.65055" lon="6.66607">
        <ele>2530</ele>
        <time>2022-01-01T11:10:29Z</time>
      </trkpt>
      <trkpt lat="45.65058" lon="6.66607">
        <ele>2531.2</ele>
        <time>2022-01-01T11:10:33Z</time>
      </trkpt>
      <trkpt lat="45.65059" lon="6.66607">
        <ele>2531.8</ele>
        <time>2022-01-01T11:10:35Z</time>
      </trkpt>
      <trkpt lat="45.65062" lon="6.66606">
        <ele>2532.4</ele>
        <time>2022-01-01T11:10:38Z</time>
      </trkpt>
      <trkpt lat="45.65067" lon="6.66605">
        <ele>2533.8</ele>
        <time>2022-01-01T11:10:44Z</time>
      </trkpt>
      <trkpt lat="45.65073" lon="6.66605">
        <ele>2535</ele>
        <time>2022-01-01T11:10:51Z</time>
      </trkpt>
      <trkpt lat="45.65078" lon="6.66606">
        <ele>2536</ele>
        <time>2022-01-01T11:10:58Z</time>
      </trkpt>
      <trkpt lat="45.65083" lon="6.66606">
        <ele>2537</ele>
        <time>2022-01-01T11:11:03Z</time>
      </trkpt>
      <trkpt lat="45.65087" lon="6.66609">
        <ele>2537.8</ele>
        <time>2022-01-01T11:11:08Z</time>
      </trkpt>
      <trkpt lat="45.65088" lon="6.6661">
        <ele>2538.4</ele>
        <time>2022-01-01T11:11:10Z</time>
      </trkpt>
      <trkpt lat="45.65092" lon="6.66614">
        <ele>2539.4</ele>
        <time>2022-01-01T11:11:15Z</time>
      </trkpt>
      <trkpt lat="45.65092" lon="6.66617">
        <ele>2539.6</ele>
        <time>2022-01-01T11:11:16Z</time>
      </trkpt>
      <trkpt lat="45.65095" lon="6.6662">
        <ele>2540.8</ele>
        <time>2022-01-01T11:11:21Z</time>
      </trkpt>
      <trkpt lat="45.65098" lon="6.66622">
        <ele>2541.6</ele>
        <time>2022-01-01T11:11:25Z</time>
      </trkpt>
      <trkpt lat="45.65099" lon="6.66623">
        <ele>2541.8</ele>
        <time>2022-01-01T11:11:26Z</time>
      </trkpt>
      <trkpt lat="45.65102" lon="6.66624">
        <ele>2543</ele>
        <time>2022-01-01T11:11:30Z</time>
      </trkpt>
      <trkpt lat="45.65104" lon="6.66624">
        <ele>2543.8</ele>
        <time>2022-01-01T11:11:34Z</time>
      </trkpt>
      <trkpt lat="45.65106" lon="6.66624">
        <ele>2544.2</ele>
        <time>2022-01-01T11:11:35Z</time>
      </trkpt>
      <trkpt lat="45.6511" lon="6.66627">
        <ele>2545.2</ele>
        <time>2022-01-01T11:11:40Z</time>
      </trkpt>
      <trkpt lat="45.65112" lon="6.66628">
        <ele>2545.6</ele>
        <time>2022-01-01T11:11:43Z</time>
      </trkpt>
      <trkpt lat="45.65113" lon="6.66629">
        <ele>2546.4</ele>
        <time>2022-01-01T11:11:46Z</time>
      </trkpt>
      <trkpt lat="45.65114" lon="6.66629">
        <ele>2546.8</ele>
        <time>2022-01-01T11:11:51Z</time>
      </trkpt>
      <trkpt lat="45.65116" lon="6.66629">
        <ele>2547.6</ele>
        <time>2022-01-01T11:12:31Z</time>
      </trkpt>
      <trkpt lat="45.65118" lon="6.6663">
        <ele>2548</ele>
        <time>2022-01-01T11:12:33Z</time>
      </trkpt>
      <trkpt lat="45.65121" lon="6.66631">
        <ele>2548.4</ele>
        <time>2022-01-01T11:12:35Z</time>
      </trkpt>
      <trkpt lat="45.65122" lon="6.66631">
        <ele>2548.6</ele>
        <time>2022-01-01T11:12:36Z</time>
      </trkpt>
      <trkpt lat="45.65128" lon="6.66635">
        <ele>2549.8</ele>
        <time>2022-01-01T11:12:43Z</time>
      </trkpt>
      <trkpt lat="45.65128" lon="6.66635">
        <ele>2550</ele>
        <time>2022-01-01T11:12:44Z</time>
      </trkpt>
      <trkpt lat="45.65132" lon="6.66638">
        <ele>2550.8</ele>
        <time>2022-01-01T11:12:49Z</time>
      </trkpt>
      <trkpt lat="45.65133" lon="6.66638">
        <ele>2551</ele>
        <time>2022-01-01T11:12:51Z</time>
      </trkpt>
      <trkpt lat="45.65137" lon="6.66643">
        <ele>2551.8</ele>
        <time>2022-01-01T11:12:57Z</time>
      </trkpt>
      <trkpt lat="45.65138" lon="6.66643">
        <ele>2552</ele>
        <time>2022-01-01T11:12:58Z</time>
      </trkpt>
      <trkpt lat="45.65141" lon="6.66648">
        <ele>2552.8</ele>
        <time>2022-01-01T11:13:02Z</time>
      </trkpt>
      <trkpt lat="45.65146" lon="6.66651">
        <ele>2553.8</ele>
        <time>2022-01-01T11:13:07Z</time>
      </trkpt>
      <trkpt lat="45.65148" lon="6.66652">
        <ele>2554</ele>
        <time>2022-01-01T11:13:09Z</time>
      </trkpt>
      <trkpt lat="45.65151" lon="6.66653">
        <ele>2555.2</ele>
        <time>2022-01-01T11:13:13Z</time>
      </trkpt>
      <trkpt lat="45.65152" lon="6.66654">
        <ele>2555.4</ele>
        <time>2022-01-01T11:13:14Z</time>
      </trkpt>
      <trkpt lat="45.65154" lon="6.66656">
        <ele>2556.2</ele>
        <time>2022-01-01T11:13:17Z</time>
      </trkpt>
      <trkpt lat="45.65159" lon="6.6666">
        <ele>2557.2</ele>
        <time>2022-01-01T11:13:22Z</time>
      </trkpt>
      <trkpt lat="45.6516" lon="6.66661">
        <ele>2557.4</ele>
        <time>2022-01-01T11:13:23Z</time>
      </trkpt>
      <trkpt lat="45.65162" lon="6.66665">
        <ele>2558.8</ele>
        <time>2022-01-01T11:13:28Z</time>
      </trkpt>
      <trkpt lat="45.65163" lon="6.66667">
        <ele>2559.2</ele>
        <time>2022-01-01T11:13:30Z</time>
      </trkpt>
      <trkpt lat="45.65164" lon="6.66671">
        <ele>2560</ele>
        <time>2022-01-01T11:13:34Z</time>
      </trkpt>
      <trkpt lat="45.65166" lon="6.66675">
        <ele>2561</ele>
        <time>2022-01-01T11:13:38Z</time>
      </trkpt>
      <trkpt lat="45.65166" lon="6.66677">
        <ele>2561.6</ele>
        <time>2022-01-01T11:13:40Z</time>
      </trkpt>
      <trkpt lat="45.65167" lon="6.66679">
        <ele>2562.2</ele>
        <time>2022-01-01T11:13:42Z</time>
      </trkpt>
      <trkpt lat="45.65167" lon="6.66683">
        <ele>2563.2</ele>
        <time>2022-01-01T11:13:47Z</time>
      </trkpt>
      <trkpt lat="45.65169" lon="6.66689">
        <ele>2564.4</ele>
        <time>2022-01-01T11:13:53Z</time>
      </trkpt>
      <trkpt lat="45.6517" lon="6.66695">
        <ele>2565.6</ele>
        <time>2022-01-01T11:13:58Z</time>
      </trkpt>
      <trkpt lat="45.65171" lon="6.66698">
        <ele>2566</ele>
        <time>2022-01-01T11:14:00Z</time>
      </trkpt>
      <trkpt lat="45.65174" lon="6.66703">
        <ele>2566.6</ele>
        <time>2022-01-01T11:14:04Z</time>
      </trkpt>
      <trkpt lat="45.65176" lon="6.66709">
        <ele>2567</ele>
        <time>2022-01-01T11:14:08Z</time>
      </trkpt>
      <trkpt lat="45.65178" lon="6.66712">
        <ele>2567.8</ele>
        <time>2022-01-01T11:14:11Z</time>
      </trkpt>
      <trkpt lat="45.65179" lon="6.66716">
        <ele>2568.4</ele>
        <time>2022-01-01T11:14:15Z</time>
      </trkpt>
      <trkpt lat="45.65181" lon="6.6672">
        <ele>2568.8</ele>
        <time>2022-01-01T11:14:18Z</time>
      </trkpt>
      <trkpt lat="45.65184" lon="6.66727">
        <ele>2570</ele>
        <time>2022-01-01T11:14:23Z</time>
      </trkpt>
      <trkpt lat="45.65184" lon="6.66728">
        <ele>2570.2</ele>
        <time>2022-01-01T11:14:24Z</time>
      </trkpt>
      <trkpt lat="45.65186" lon="6.66736">
        <ele>2571</ele>
        <time>2022-01-01T11:14:31Z</time>
      </trkpt>
      <trkpt lat="45.65187" lon="6.66738">
        <ele>2571.4</ele>
        <time>2022-01-01T11:14:33Z</time>
      </trkpt>
      <trkpt lat="45.65191" lon="6.66746">
        <ele>2572.4</ele>
        <time>2022-01-01T11:14:40Z</time>
      </trkpt>
      <trkpt lat="45.65193" lon="6.66749">
        <ele>2573</ele>
        <time>2022-01-01T11:14:43Z</time>
      </trkpt>
      <trkpt lat="45.65194" lon="6.66753">
        <ele>2573.6</ele>
        <time>2022-01-01T11:14:46Z</time>
      </trkpt>
      <trkpt lat="45.65195" lon="6.66756">
        <ele>2574</ele>
        <time>2022-01-01T11:14:49Z</time>
      </trkpt>
      <trkpt lat="45.65195" lon="6.66762">
        <ele>2574.2</ele>
        <time>2022-01-01T11:14:53Z</time>
      </trkpt>
      <trkpt lat="45.65195" lon="6.66765">
        <ele>2574.6</ele>
        <time>2022-01-01T11:14:56Z</time>
      </trkpt>
      <trkpt lat="45.65196" lon="6.66774">
        <ele>2575.6</ele>
        <time>2022-01-01T11:15:03Z</time>
      </trkpt>
      <trkpt lat="45.65196" lon="6.66782">
        <ele>2576.2</ele>
        <time>2022-01-01T11:15:09Z</time>
      </trkpt>
      <trkpt lat="45.65196" lon="6.66789">
        <ele>2577</ele>
        <time>2022-01-01T11:15:14Z</time>
      </trkpt>
      <trkpt lat="45.65195" lon="6.66792">
        <ele>2577.2</ele>
        <time>2022-01-01T11:15:16Z</time>
      </trkpt>
      <trkpt lat="45.65195" lon="6.66797">
        <ele>2577.4</ele>
        <time>2022-01-01T11:15:19Z</time>
      </trkpt>
      <trkpt lat="45.65194" lon="6.668">
        <ele>2578</ele>
        <time>2022-01-01T11:15:22Z</time>
      </trkpt>
      <trkpt lat="45.65192" lon="6.66802">
        <ele>2578.4</ele>
        <time>2022-01-01T11:15:24Z</time>
      </trkpt>
      <trkpt lat="45.65192" lon="6.66803">
        <ele>2578.6</ele>
        <time>2022-01-01T11:15:25Z</time>
      </trkpt>
      <trkpt lat="45.6519" lon="6.6681">
        <ele>2579</ele>
        <time>2022-01-01T11:15:30Z</time>
      </trkpt>
      <trkpt lat="45.65188" lon="6.66815">
        <ele>2579.6</ele>
        <time>2022-01-01T11:15:34Z</time>
      </trkpt>
      <trkpt lat="45.65188" lon="6.66817">
        <ele>2579.6</ele>
        <time>2022-01-01T11:15:35Z</time>
      </trkpt>
      <trkpt lat="45.65187" lon="6.66818">
        <ele>2580</ele>
        <time>2022-01-01T11:15:37Z</time>
      </trkpt>
      <trkpt lat="45.65187" lon="6.66819">
        <ele>2580</ele>
        <time>2022-01-01T11:15:38Z</time>
      </trkpt>
      <trkpt lat="45.65186" lon="6.6682">
        <ele>2580.2</ele>
        <time>2022-01-01T11:15:39Z</time>
      </trkpt>
      <trkpt lat="45.65183" lon="6.6682">
        <ele>2580.4</ele>
        <time>2022-01-01T11:15:45Z</time>
      </trkpt>
      <trkpt lat="45.65184" lon="6.66819">
        <ele>2580.4</ele>
        <time>2022-01-01T11:15:53Z</time>
      </trkpt>
      <trkpt lat="45.65183" lon="6.66818">
        <ele>2580.4</ele>
        <time>2022-01-01T11:16:01Z</time>
      </trkpt>
      <trkpt lat="45.65183" lon="6.66818">
        <ele>2580.4</ele>
        <time>2022-01-01T11:16:26Z</time>
      </trkpt>
      <trkpt lat="45.65183" lon="6.66819">
        <ele>2581</ele>
        <time>2022-01-01T11:17:04Z</time>
      </trkpt>
      <trkpt lat="45.65181" lon="6.66822">
        <ele>2581.4</ele>
        <time>2022-01-01T11:17:07Z</time>
      </trkpt>
      <trkpt lat="45.6518" lon="6.66827">
        <ele>2582</ele>
        <time>2022-01-01T11:17:11Z</time>
      </trkpt>
      <trkpt lat="45.65178" lon="6.66831">
        <ele>2582.6</ele>
        <time>2022-01-01T11:17:15Z</time>
      </trkpt>
      <trkpt lat="45.65173" lon="6.66837">
        <ele>2583.2</ele>
        <time>2022-01-01T11:17:21Z</time>
      </trkpt>
      <trkpt lat="45.65169" lon="6.66843">
        <ele>2584.2</ele>
        <time>2022-01-01T11:17:28Z</time>
      </trkpt>
      <trkpt lat="45.65165" lon="6.66845">
        <ele>2584.8</ele>
        <time>2022-01-01T11:17:35Z</time>
      </trkpt>
      <trkpt lat="45.65163" lon="6.66847">
        <ele>2585.2</ele>
        <time>2022-01-01T11:17:38Z</time>
      </trkpt>
      <trkpt lat="45.65163" lon="6.66847">
        <ele>2585.6</ele>
        <time>2022-01-01T11:17:41Z</time>
      </trkpt>
      <trkpt lat="45.65165" lon="6.66843">
        <ele>2586</ele>
        <time>2022-01-01T11:17:46Z</time>
      </trkpt>
      <trkpt lat="45.65167" lon="6.66843">
        <ele>2586.4</ele>
        <time>2022-01-01T11:17:49Z</time>
      </trkpt>
      <trkpt lat="45.65169" lon="6.66844">
        <ele>2587</ele>
        <time>2022-01-01T11:17:52Z</time>
      </trkpt>
      <trkpt lat="45.65171" lon="6.66843">
        <ele>2587.6</ele>
        <time>2022-01-01T11:17:55Z</time>
      </trkpt>
      <trkpt lat="45.65174" lon="6.66844">
        <ele>2588.2</ele>
        <time>2022-01-01T11:18:00Z</time>
      </trkpt>
      <trkpt lat="45.65177" lon="6.66844">
        <ele>2588.8</ele>
        <time>2022-01-01T11:18:04Z</time>
      </trkpt>
      <trkpt lat="45.65178" lon="6.66843">
        <ele>2589</ele>
        <time>2022-01-01T11:18:05Z</time>
      </trkpt>
      <trkpt lat="45.6518" lon="6.66844">
        <ele>2590</ele>
        <time>2022-01-01T11:18:08Z</time>
      </trkpt>
      <trkpt lat="45.65184" lon="6.66843">
        <ele>2590.4</ele>
        <time>2022-01-01T11:18:12Z</time>
      </trkpt>
      <trkpt lat="45.65185" lon="6.66842">
        <ele>2591</ele>
        <time>2022-01-01T11:18:15Z</time>
      </trkpt>
      <trkpt lat="45.65189" lon="6.66841">
        <ele>2591.4</ele>
        <time>2022-01-01T11:18:20Z</time>
      </trkpt>
      <trkpt lat="45.65192" lon="6.66841">
        <ele>2592</ele>
        <time>2022-01-01T11:18:24Z</time>
      </trkpt>
      <trkpt lat="45.65193" lon="6.66843">
        <ele>2592.6</ele>
        <time>2022-01-01T11:18:27Z</time>
      </trkpt>
      <trkpt lat="45.65192" lon="6.6685">
        <ele>2593.2</ele>
        <time>2022-01-01T11:18:32Z</time>
      </trkpt>
      <trkpt lat="45.65192" lon="6.66852">
        <ele>2593.2</ele>
        <time>2022-01-01T11:18:33Z</time>
      </trkpt>
      <trkpt lat="45.65188" lon="6.66862">
        <ele>2594</ele>
        <time>2022-01-01T11:18:38Z</time>
      </trkpt>
      <trkpt lat="45.65187" lon="6.66863">
        <ele>2594.2</ele>
        <time>2022-01-01T11:18:39Z</time>
      </trkpt>
      <trkpt lat="45.65185" lon="6.66863">
        <ele>2594.4</ele>
        <time>2022-01-01T11:18:40Z</time>
      </trkpt>
      <trkpt lat="45.65184" lon="6.66865">
        <ele>2595.4</ele>
        <time>2022-01-01T11:18:44Z</time>
      </trkpt>
      <trkpt lat="45.65181" lon="6.66869">
        <ele>2595.8</ele>
        <time>2022-01-01T11:18:48Z</time>
      </trkpt>
      <trkpt lat="45.65177" lon="6.66874">
        <ele>2596.6</ele>
        <time>2022-01-01T11:18:52Z</time>
      </trkpt>
      <trkpt lat="45.65177" lon="6.66877">
        <ele>2597</ele>
        <time>2022-01-01T11:18:55Z</time>
      </trkpt>
      <trkpt lat="45.65178" lon="6.66879">
        <ele>2597.8</ele>
        <time>2022-01-01T11:18:58Z</time>
      </trkpt>
      <trkpt lat="45.6518" lon="6.6688">
        <ele>2598.6</ele>
        <time>2022-01-01T11:19:02Z</time>
      </trkpt>
      <trkpt lat="45.65181" lon="6.6688">
        <ele>2598.8</ele>
        <time>2022-01-01T11:19:03Z</time>
      </trkpt>
      <trkpt lat="45.65184" lon="6.66881">
        <ele>2600.2</ele>
        <time>2022-01-01T11:19:07Z</time>
      </trkpt>
      <trkpt lat="45.65186" lon="6.66882">
        <ele>2600.8</ele>
        <time>2022-01-01T11:19:09Z</time>
      </trkpt>
      <trkpt lat="45.65187" lon="6.66882">
        <ele>2601.2</ele>
        <time>2022-01-01T11:19:10Z</time>
      </trkpt>
      <trkpt lat="45.65189" lon="6.66884">
        <ele>2602.4</ele>
        <time>2022-01-01T11:19:16Z</time>
      </trkpt>
      <trkpt lat="45.65189" lon="6.66884">
        <ele>2602.6</ele>
        <time>2022-01-01T11:19:17Z</time>
      </trkpt>
      <trkpt lat="45.65192" lon="6.66887">
        <ele>2603.8</ele>
        <time>2022-01-01T11:19:21Z</time>
      </trkpt>
      <trkpt lat="45.65193" lon="6.66888">
        <ele>2604.4</ele>
        <time>2022-01-01T11:19:24Z</time>
      </trkpt>
      <trkpt lat="45.65194" lon="6.66889">
        <ele>2604.8</ele>
        <time>2022-01-01T11:19:26Z</time>
      </trkpt>
      <trkpt lat="45.65197" lon="6.6689">
        <ele>2606</ele>
        <time>2022-01-01T11:19:31Z</time>
      </trkpt>
      <trkpt lat="45.65198" lon="6.66891">
        <ele>2606.6</ele>
        <time>2022-01-01T11:19:33Z</time>
      </trkpt>
      <trkpt lat="45.65199" lon="6.66891">
        <ele>2607.2</ele>
        <time>2022-01-01T11:19:35Z</time>
      </trkpt>
      <trkpt lat="45.65202" lon="6.6689">
        <ele>2608.6</ele>
        <time>2022-01-01T11:19:40Z</time>
      </trkpt>
      <trkpt lat="45.65205" lon="6.6689">
        <ele>2609.2</ele>
        <time>2022-01-01T11:19:43Z</time>
      </trkpt>
      <trkpt lat="45.65206" lon="6.66891">
        <ele>2609.8</ele>
        <time>2022-01-01T11:19:45Z</time>
      </trkpt>
      <trkpt lat="45.65208" lon="6.66891">
        <ele>2610.8</ele>
        <time>2022-01-01T11:19:48Z</time>
      </trkpt>
      <trkpt lat="45.6521" lon="6.66892">
        <ele>2611.6</ele>
        <time>2022-01-01T11:19:51Z</time>
      </trkpt>
      <trkpt lat="45.65211" lon="6.66893">
        <ele>2612</ele>
        <time>2022-01-01T11:19:53Z</time>
      </trkpt>
      <trkpt lat="45.65213" lon="6.66894">
        <ele>2613.2</ele>
        <time>2022-01-01T11:19:57Z</time>
      </trkpt>
      <trkpt lat="45.65214" lon="6.66896">
        <ele>2613.6</ele>
        <time>2022-01-01T11:20:00Z</time>
      </trkpt>
      <trkpt lat="45.65216" lon="6.66897">
        <ele>2614.4</ele>
        <time>2022-01-01T11:20:03Z</time>
      </trkpt>
      <trkpt lat="45.65218" lon="6.66899">
        <ele>2615.4</ele>
        <time>2022-01-01T11:20:08Z</time>
      </trkpt>
      <trkpt lat="45.65222" lon="6.66901">
        <ele>2616.6</ele>
        <time>2022-01-01T11:20:13Z</time>
      </trkpt>
      <trkpt lat="45.65224" lon="6.66904">
        <ele>2617.6</ele>
        <time>2022-01-01T11:20:18Z</time>
      </trkpt>
      <trkpt lat="45.65224" lon="6.66905">
        <ele>2617.6</ele>
        <time>2022-01-01T11:20:19Z</time>
      </trkpt>
      <trkpt lat="45.65229" lon="6.66908">
        <ele>2618.8</ele>
        <time>2022-01-01T11:20:25Z</time>
      </trkpt>
      <trkpt lat="45.65231" lon="6.66908">
        <ele>2619.4</ele>
        <time>2022-01-01T11:20:29Z</time>
      </trkpt>
      <trkpt lat="45.65233" lon="6.6691">
        <ele>2619.8</ele>
        <time>2022-01-01T11:20:32Z</time>
      </trkpt>
      <trkpt lat="45.65238" lon="6.66912">
        <ele>2621</ele>
        <time>2022-01-01T11:20:38Z</time>
      </trkpt>
      <trkpt lat="45.65238" lon="6.66912">
        <ele>2621.2</ele>
        <time>2022-01-01T11:20:39Z</time>
      </trkpt>
      <trkpt lat="45.65242" lon="6.66914">
        <ele>2622.2</ele>
        <time>2022-01-01T11:20:44Z</time>
      </trkpt>
      <trkpt lat="45.65244" lon="6.66915">
        <ele>2622.6</ele>
        <time>2022-01-01T11:20:48Z</time>
      </trkpt>
      <trkpt lat="45.65245" lon="6.66915">
        <ele>2623.4</ele>
        <time>2022-01-01T11:20:50Z</time>
      </trkpt>
      <trkpt lat="45.65249" lon="6.66916">
        <ele>2624.4</ele>
        <time>2022-01-01T11:20:55Z</time>
      </trkpt>
      <trkpt lat="45.6525" lon="6.66917">
        <ele>2624.6</ele>
        <time>2022-01-01T11:20:56Z</time>
      </trkpt>
      <trkpt lat="45.65254" lon="6.66917">
        <ele>2625.6</ele>
        <time>2022-01-01T11:21:02Z</time>
      </trkpt>
      <trkpt lat="45.65256" lon="6.66917">
        <ele>2626.6</ele>
        <time>2022-01-01T11:21:05Z</time>
      </trkpt>
      <trkpt lat="45.6526" lon="6.66919">
        <ele>2627.8</ele>
        <time>2022-01-01T11:21:11Z</time>
      </trkpt>
      <trkpt lat="45.65263" lon="6.6692">
        <ele>2629</ele>
        <time>2022-01-01T11:21:16Z</time>
      </trkpt>
      <trkpt lat="45.65264" lon="6.66921">
        <ele>2629.2</ele>
        <time>2022-01-01T11:21:17Z</time>
      </trkpt>
      <trkpt lat="45.65267" lon="6.66921">
        <ele>2630</ele>
        <time>2022-01-01T11:21:21Z</time>
      </trkpt>
      <trkpt lat="45.6527" lon="6.66921">
        <ele>2630.6</ele>
        <time>2022-01-01T11:21:26Z</time>
      </trkpt>
      <trkpt lat="45.65272" lon="6.6692">
        <ele>2631.2</ele>
        <time>2022-01-01T11:21:28Z</time>
      </trkpt>
      <trkpt lat="45.65275" lon="6.6692">
        <ele>2632.2</ele>
        <time>2022-01-01T11:21:32Z</time>
      </trkpt>
      <trkpt lat="45.6528" lon="6.66918">
        <ele>2633.4</ele>
        <time>2022-01-01T11:21:38Z</time>
      </trkpt>
      <trkpt lat="45.65284" lon="6.66916">
        <ele>2634.6</ele>
        <time>2022-01-01T11:21:44Z</time>
      </trkpt>
      <trkpt lat="45.65286" lon="6.66916">
        <ele>2635</ele>
        <time>2022-01-01T11:21:47Z</time>
      </trkpt>
      <trkpt lat="45.6529" lon="6.66915">
        <ele>2635.6</ele>
        <time>2022-01-01T11:21:51Z</time>
      </trkpt>
      <trkpt lat="45.65293" lon="6.66916">
        <ele>2636.4</ele>
        <time>2022-01-01T11:21:55Z</time>
      </trkpt>
      <trkpt lat="45.65295" lon="6.66916">
        <ele>2636.6</ele>
        <time>2022-01-01T11:21:57Z</time>
      </trkpt>
      <trkpt lat="45.65297" lon="6.66915">
        <ele>2637.8</ele>
        <time>2022-01-01T11:22:01Z</time>
      </trkpt>
      <trkpt lat="45.65298" lon="6.66915">
        <ele>2638</ele>
        <time>2022-01-01T11:22:02Z</time>
      </trkpt>
      <trkpt lat="45.65298" lon="6.66913">
        <ele>2638.6</ele>
        <time>2022-01-01T11:22:04Z</time>
      </trkpt>
      <trkpt lat="45.65298" lon="6.66911">
        <ele>2639.2</ele>
        <time>2022-01-01T11:22:06Z</time>
      </trkpt>
      <trkpt lat="45.65298" lon="6.66909">
        <ele>2640.2</ele>
        <time>2022-01-01T11:22:11Z</time>
      </trkpt>
      <trkpt lat="45.65298" lon="6.66909">
        <ele>2640.4</ele>
        <time>2022-01-01T11:22:14Z</time>
      </trkpt>
      <trkpt lat="45.65297" lon="6.66906">
        <ele>2641.2</ele>
        <time>2022-01-01T11:22:29Z</time>
      </trkpt>
      <trkpt lat="45.65297" lon="6.66905">
        <ele>2641.2</ele>
        <time>2022-01-01T11:22:30Z</time>
      </trkpt>
      <trkpt lat="45.65297" lon="6.66903">
        <ele>2641.4</ele>
        <time>2022-01-01T11:22:31Z</time>
      </trkpt>
      <trkpt lat="45.65295" lon="6.66899">
        <ele>2642</ele>
        <time>2022-01-01T11:22:34Z</time>
      </trkpt>
      <trkpt lat="45.65294" lon="6.66897">
        <ele>2642.2</ele>
        <time>2022-01-01T11:22:35Z</time>
      </trkpt>
      <trkpt lat="45.65293" lon="6.66892">
        <ele>2643.4</ele>
        <time>2022-01-01T11:22:40Z</time>
      </trkpt>
      <trkpt lat="45.65292" lon="6.66891">
        <ele>2643.6</ele>
        <time>2022-01-01T11:22:42Z</time>
      </trkpt>
      <trkpt lat="45.6529" lon="6.66887">
        <ele>2644.4</ele>
        <time>2022-01-01T11:22:46Z</time>
      </trkpt>
      <trkpt lat="45.65288" lon="6.66884">
        <ele>2645.2</ele>
        <time>2022-01-01T11:22:50Z</time>
      </trkpt>
      <trkpt lat="45.65288" lon="6.66881">
        <ele>2645.6</ele>
        <time>2022-01-01T11:22:52Z</time>
      </trkpt>
      <trkpt lat="45.65287" lon="6.66875">
        <ele>2646.6</ele>
        <time>2022-01-01T11:22:57Z</time>
      </trkpt>
      <trkpt lat="45.65287" lon="6.66872">
        <ele>2647.2</ele>
        <time>2022-01-01T11:22:59Z</time>
      </trkpt>
      <trkpt lat="45.65289" lon="6.66869">
        <ele>2647.6</ele>
        <time>2022-01-01T11:23:01Z</time>
      </trkpt>
      <trkpt lat="45.6529" lon="6.66864">
        <ele>2648.8</ele>
        <time>2022-01-01T11:23:06Z</time>
      </trkpt>
      <trkpt lat="45.65291" lon="6.66863">
        <ele>2649</ele>
        <time>2022-01-01T11:23:07Z</time>
      </trkpt>
      <trkpt lat="45.65293" lon="6.66859">
        <ele>2649.8</ele>
        <time>2022-01-01T11:23:11Z</time>
      </trkpt>
      <trkpt lat="45.65295" lon="6.66856">
        <ele>2651</ele>
        <time>2022-01-01T11:23:15Z</time>
      </trkpt>
      <trkpt lat="45.65296" lon="6.66854">
        <ele>2651.6</ele>
        <time>2022-01-01T11:23:17Z</time>
      </trkpt>
      <trkpt lat="45.65297" lon="6.66853">
        <ele>2652.4</ele>
        <time>2022-01-01T11:23:19Z</time>
      </trkpt>
      <trkpt lat="45.65299" lon="6.6685">
        <ele>2653.4</ele>
        <time>2022-01-01T11:23:23Z</time>
      </trkpt>
      <trkpt lat="45.65301" lon="6.66849">
        <ele>2654.2</ele>
        <time>2022-01-01T11:23:26Z</time>
      </trkpt>
      <trkpt lat="45.65302" lon="6.66848">
        <ele>2654.6</ele>
        <time>2022-01-01T11:23:28Z</time>
      </trkpt>
      <trkpt lat="45.65304" lon="6.66846">
        <ele>2655.2</ele>
        <time>2022-01-01T11:23:31Z</time>
      </trkpt>
      <trkpt lat="45.65306" lon="6.66845">
        <ele>2655.8</ele>
        <time>2022-01-01T11:23:33Z</time>
      </trkpt>
      <trkpt lat="45.65307" lon="6.66843">
        <ele>2656.2</ele>
        <time>2022-01-01T11:23:35Z</time>
      </trkpt>
      <trkpt lat="45.65309" lon="6.66842">
        <ele>2656.8</ele>
        <time>2022-01-01T11:23:38Z</time>
      </trkpt>
      <trkpt lat="45.65312" lon="6.66839">
        <ele>2657.6</ele>
        <time>2022-01-01T11:23:42Z</time>
      </trkpt>
      <trkpt lat="45.65312" lon="6.66838">
        <ele>2657.8</ele>
        <time>2022-01-01T11:23:43Z</time>
      </trkpt>
      <trkpt lat="45.65317" lon="6.66834">
        <ele>2659</ele>
        <time>2022-01-01T11:23:50Z</time>
      </trkpt>
      <trkpt lat="45.65317" lon="6.66834">
        <ele>2659.4</ele>
        <time>2022-01-01T11:23:51Z</time>
      </trkpt>
      <trkpt lat="45.65319" lon="6.66832">
        <ele>2660.2</ele>
        <time>2022-01-01T11:23:54Z</time>
      </trkpt>
      <trkpt lat="45.65324" lon="6.66831">
        <ele>2661.4</ele>
        <time>2022-01-01T11:23:59Z</time>
      </trkpt>
      <trkpt lat="45.65325" lon="6.6683">
        <ele>2661.6</ele>
        <time>2022-01-01T11:24:01Z</time>
      </trkpt>
      <trkpt lat="45.65329" lon="6.66828">
        <ele>2662.6</ele>
        <time>2022-01-01T11:24:06Z</time>
      </trkpt>
      <trkpt lat="45.65333" lon="6.66827">
        <ele>2663.4</ele>
        <time>2022-01-01T11:24:11Z</time>
      </trkpt>
      <trkpt lat="45.65333" lon="6.66827">
        <ele>2663.6</ele>
        <time>2022-01-01T11:24:13Z</time>
      </trkpt>
      <trkpt lat="45.65333" lon="6.66826">
        <ele>2664</ele>
        <time>2022-01-01T11:24:17Z</time>
      </trkpt>
      <trkpt lat="45.65333" lon="6.66827">
        <ele>2664</ele>
        <time>2022-01-01T11:24:25Z</time>
      </trkpt>
      <trkpt lat="45.6534" lon="6.66826">
        <ele>2663.8</ele>
        <time>2022-01-01T11:26:17Z</time>
      </trkpt>
      <trkpt lat="45.65348" lon="6.66822">
        <ele>2663.8</ele>
        <time>2022-01-01T11:26:26Z</time>
      </trkpt>
      <trkpt lat="45.65353" lon="6.66814">
        <ele>2663.8</ele>
        <time>2022-01-01T11:26:34Z</time>
      </trkpt>
      <trkpt lat="45.65354" lon="6.66805">
        <ele>2663.8</ele>
        <time>2022-01-01T11:26:42Z</time>
      </trkpt>
      <trkpt lat="45.65358" lon="6.668">
        <ele>2664.6</ele>
        <time>2022-01-01T11:26:49Z</time>
      </trkpt>
      <trkpt lat="45.65359" lon="6.668">
        <ele>2664.8</ele>
        <time>2022-01-01T11:26:50Z</time>
      </trkpt>
      <trkpt lat="45.65365" lon="6.66798">
        <ele>2665.8</ele>
        <time>2022-01-01T11:26:56Z</time>
      </trkpt>
      <trkpt lat="45.65365" lon="6.66798">
        <ele>2666</ele>
        <time>2022-01-01T11:26:57Z</time>
      </trkpt>
      <trkpt lat="45.65371" lon="6.66802">
        <ele>2667</ele>
        <time>2022-01-01T11:27:04Z</time>
      </trkpt>
      <trkpt lat="45.65371" lon="6.66802">
        <ele>2667.2</ele>
        <time>2022-01-01T11:27:05Z</time>
      </trkpt>
      <trkpt lat="45.65372" lon="6.66803">
        <ele>2667.8</ele>
        <time>2022-01-01T11:27:10Z</time>
      </trkpt>
      <trkpt lat="45.65373" lon="6.66802">
        <ele>2668</ele>
        <time>2022-01-01T11:27:13Z</time>
      </trkpt>
      <trkpt lat="45.65373" lon="6.66801">
        <ele>2668.4</ele>
        <time>2022-01-01T11:27:15Z</time>
      </trkpt>
      <trkpt lat="45.65373" lon="6.66798">
        <ele>2669</ele>
        <time>2022-01-01T11:27:18Z</time>
      </trkpt>
      <trkpt lat="45.65374" lon="6.66795">
        <ele>2669.6</ele>
        <time>2022-01-01T11:27:21Z</time>
      </trkpt>
      <trkpt lat="45.65375" lon="6.66794">
        <ele>2670</ele>
        <time>2022-01-01T11:27:23Z</time>
      </trkpt>
      <trkpt lat="45.65377" lon="6.66794">
        <ele>2671.2</ele>
        <time>2022-01-01T11:27:27Z</time>
      </trkpt>
      <trkpt lat="45.65378" lon="6.66793">
        <ele>2671.4</ele>
        <time>2022-01-01T11:27:28Z</time>
      </trkpt>
      <trkpt lat="45.65381" lon="6.66792">
        <ele>2672.2</ele>
        <time>2022-01-01T11:27:32Z</time>
      </trkpt>
      <trkpt lat="45.65382" lon="6.66786">
        <ele>2673.4</ele>
        <time>2022-01-01T11:27:37Z</time>
      </trkpt>
      <trkpt lat="45.65383" lon="6.66784">
        <ele>2673.8</ele>
        <time>2022-01-01T11:27:39Z</time>
      </trkpt>
      <trkpt lat="45.65384" lon="6.66781">
        <ele>2674.4</ele>
        <time>2022-01-01T11:27:42Z</time>
      </trkpt>
      <trkpt lat="45.65385" lon="6.66779">
        <ele>2674.8</ele>
        <time>2022-01-01T11:27:44Z</time>
      </trkpt>
      <trkpt lat="45.65386" lon="6.66776">
        <ele>2675.4</ele>
        <time>2022-01-01T11:27:47Z</time>
      </trkpt>
      <trkpt lat="45.65387" lon="6.66771">
        <ele>2676</ele>
        <time>2022-01-01T11:27:52Z</time>
      </trkpt>
      <trkpt lat="45.65388" lon="6.66769">
        <ele>2676.4</ele>
        <time>2022-01-01T11:27:54Z</time>
      </trkpt>
      <trkpt lat="45.65388" lon="6.66768">
        <ele>2676.6</ele>
        <time>2022-01-01T11:27:55Z</time>
      </trkpt>
      <trkpt lat="45.65391" lon="6.6676">
        <ele>2677.4</ele>
        <time>2022-01-01T11:28:04Z</time>
      </trkpt>
      <trkpt lat="45.65391" lon="6.66759">
        <ele>2677.6</ele>
        <time>2022-01-01T11:28:05Z</time>
      </trkpt>
      <trkpt lat="45.65392" lon="6.66761">
        <ele>2677.6</ele>
        <time>2022-01-01T11:28:18Z</time>
      </trkpt>
      <trkpt lat="45.65392" lon="6.66761">
        <ele>2677.2</ele>
        <time>2022-01-01T11:28:25Z</time>
      </trkpt>
      <trkpt lat="45.65389" lon="6.66766">
        <ele>2677</ele>
        <time>2022-01-01T11:31:35Z</time>
      </trkpt>
      <trkpt lat="45.65389" lon="6.66766">
        <ele>2677</ele>
        <time>2022-01-01T11:32:03Z</time>
      </trkpt>
      <trkpt lat="45.65389" lon="6.66766">
        <ele>2677</ele>
        <time>2022-01-01T11:32:25Z</time>
      </trkpt>
      <trkpt lat="45.6539" lon="6.66766">
        <ele>2677</ele>
        <time>2022-01-01T11:32:50Z</time>
      </trkpt>
      <trkpt lat="45.6539" lon="6.66766">
        <ele>2677</ele>
        <time>2022-01-01T11:33:11Z</time>
      </trkpt>
      <trkpt lat="45.6539" lon="6.66766">
        <ele>2677</ele>
        <time>2022-01-01T11:33:33Z</time>
      </trkpt>
      <trkpt lat="45.6539" lon="6.66766">
        <ele>2677</ele>
        <time>2022-01-01T11:34:00Z</time>
      </trkpt>
      <trkpt lat="45.6539" lon="6.66767">
        <ele>2677</ele>
        <time>2022-01-01T11:35:58Z</time>
      </trkpt>
      <trkpt lat="45.6539" lon="6.66767">
        <ele>2677</ele>
        <time>2022-01-01T11:36:29Z</time>
      </trkpt>
      <trkpt lat="45.6539" lon="6.66767">
        <ele>2677</ele>
        <time>2022-01-01T11:36:59Z</time>
      </trkpt>
      <trkpt lat="45.6539" lon="6.66767">
        <ele>2677</ele>
        <time>2022-01-01T11:37:27Z</time>
      </trkpt>
      <trkpt lat="45.6539" lon="6.66767">
        <ele>2677</ele>
        <time>2022-01-01T11:38:05Z</time>
      </trkpt>
      <trkpt lat="45.6539" lon="6.66767">
        <ele>2677</ele>
        <time>2022-01-01T11:38:31Z</time>
      </trkpt>
      <trkpt lat="45.6539" lon="6.66767">
        <ele>2677</ele>
        <time>2022-01-01T11:39:31Z</time>
      </trkpt>
      <trkpt lat="45.6539" lon="6.66767">
        <ele>2677</ele>
        <time>2022-01-01T11:41:01Z</time>
      </trkpt>
      <trkpt lat="45.65391" lon="6.66769">
        <ele>2677</ele>
        <time>2022-01-01T11:42:01Z</time>
      </trkpt>
      <trkpt lat="45.65389" lon="6.66767">
        <ele>2677</ele>
        <time>2022-01-01T11:43:01Z</time>
      </trkpt>
      <trkpt lat="45.65391" lon="6.66767">
        <ele>2677</ele>
        <time>2022-01-01T11:43:35Z</time>
      </trkpt>
      <trkpt lat="45.65391" lon="6.66767">
        <ele>2677</ele>
        <time>2022-01-01T11:44:19Z</time>
      </trkpt>
      <trkpt lat="45.65389" lon="6.66773">
        <ele>2677</ele>
        <time>2022-01-01T11:47:10Z</time>
      </trkpt>
      <trkpt lat="45.65391" lon="6.66783">
        <ele>2677</ele>
        <time>2022-01-01T11:47:13Z</time>
      </trkpt>
      <trkpt lat="45.6539" lon="6.66788">
        <ele>2677</ele>
        <time>2022-01-01T11:47:14Z</time>
      </trkpt>
      <trkpt lat="45.65388" lon="6.66792">
        <ele>2676.2</ele>
        <time>2022-01-01T11:47:15Z</time>
      </trkpt>
      <trkpt lat="45.65383" lon="6.66797">
        <ele>2674.6</ele>
        <time>2022-01-01T11:47:17Z</time>
      </trkpt>
      <trkpt lat="45.65381" lon="6.66799">
        <ele>2674</ele>
        <time>2022-01-01T11:47:18Z</time>
      </trkpt>
      <trkpt lat="45.6538" lon="6.668">
        <ele>2673.6</ele>
        <time>2022-01-01T11:47:19Z</time>
      </trkpt>
      <trkpt lat="45.65379" lon="6.668">
        <ele>2673.2</ele>
        <time>2022-01-01T11:47:20Z</time>
      </trkpt>
      <trkpt lat="45.65375" lon="6.66798">
        <ele>2672.6</ele>
        <time>2022-01-01T11:47:23Z</time>
      </trkpt>
      <trkpt lat="45.65374" lon="6.66798">
        <ele>2672.4</ele>
        <time>2022-01-01T11:47:24Z</time>
      </trkpt>
      <trkpt lat="45.65373" lon="6.66799">
        <ele>2672.2</ele>
        <time>2022-01-01T11:47:25Z</time>
      </trkpt>
      <trkpt lat="45.65373" lon="6.66802">
        <ele>2671.6</ele>
        <time>2022-01-01T11:47:27Z</time>
      </trkpt>
      <trkpt lat="45.65371" lon="6.66804">
        <ele>2671</ele>
        <time>2022-01-01T11:47:28Z</time>
      </trkpt>
      <trkpt lat="45.65365" lon="6.66806">
        <ele>2669.4</ele>
        <time>2022-01-01T11:47:30Z</time>
      </trkpt>
      <trkpt lat="45.65357" lon="6.66808">
        <ele>2667.4</ele>
        <time>2022-01-01T11:47:32Z</time>
      </trkpt>
      <trkpt lat="45.65354" lon="6.66811">
        <ele>2666.4</ele>
        <time>2022-01-01T11:47:33Z</time>
      </trkpt>
      <trkpt lat="45.65352" lon="6.66815">
        <ele>2665.8</ele>
        <time>2022-01-01T11:47:34Z</time>
      </trkpt>
      <trkpt lat="45.6535" lon="6.66819">
        <ele>2665.2</ele>
        <time>2022-01-01T11:47:35Z</time>
      </trkpt>
      <trkpt lat="45.65342" lon="6.66834">
        <ele>2663</ele>
        <time>2022-01-01T11:47:38Z</time>
      </trkpt>
      <trkpt lat="45.65339" lon="6.66838">
        <ele>2661.4</ele>
        <time>2022-01-01T11:47:39Z</time>
      </trkpt>
      <trkpt lat="45.65336" lon="6.66843">
        <ele>2660.4</ele>
        <time>2022-01-01T11:47:40Z</time>
      </trkpt>
      <trkpt lat="45.65332" lon="6.66853">
        <ele>2659.2</ele>
        <time>2022-01-01T11:47:42Z</time>
      </trkpt>
      <trkpt lat="45.65326" lon="6.66855">
        <ele>2658</ele>
        <time>2022-01-01T11:47:44Z</time>
      </trkpt>
      <trkpt lat="45.65322" lon="6.66853">
        <ele>2657.6</ele>
        <time>2022-01-01T11:47:45Z</time>
      </trkpt>
      <trkpt lat="45.65313" lon="6.6685">
        <ele>2657</ele>
        <time>2022-01-01T11:47:47Z</time>
      </trkpt>
      <trkpt lat="45.65307" lon="6.66854">
        <ele>2656</ele>
        <time>2022-01-01T11:47:49Z</time>
      </trkpt>
      <trkpt lat="45.65304" lon="6.66857">
        <ele>2655.2</ele>
        <time>2022-01-01T11:47:50Z</time>
      </trkpt>
      <trkpt lat="45.65299" lon="6.66858">
        <ele>2654.2</ele>
        <time>2022-01-01T11:47:51Z</time>
      </trkpt>
      <trkpt lat="45.65295" lon="6.66859">
        <ele>2652.8</ele>
        <time>2022-01-01T11:47:52Z</time>
      </trkpt>
      <trkpt lat="45.65292" lon="6.66862">
        <ele>2651.4</ele>
        <time>2022-01-01T11:47:53Z</time>
      </trkpt>
      <trkpt lat="45.6529" lon="6.66874">
        <ele>2649.8</ele>
        <time>2022-01-01T11:47:55Z</time>
      </trkpt>
      <trkpt lat="45.65289" lon="6.6688">
        <ele>2648.6</ele>
        <time>2022-01-01T11:47:56Z</time>
      </trkpt>
      <trkpt lat="45.65286" lon="6.66885">
        <ele>2646.4</ele>
        <time>2022-01-01T11:47:57Z</time>
      </trkpt>
      <trkpt lat="45.65282" lon="6.66888">
        <ele>2644.8</ele>
        <time>2022-01-01T11:47:58Z</time>
      </trkpt>
      <trkpt lat="45.65279" lon="6.6689">
        <ele>2643</ele>
        <time>2022-01-01T11:47:59Z</time>
      </trkpt>
      <trkpt lat="45.65278" lon="6.66894">
        <ele>2641.8</ele>
        <time>2022-01-01T11:48:00Z</time>
      </trkpt>
      <trkpt lat="45.65279" lon="6.66899">
        <ele>2641</ele>
        <time>2022-01-01T11:48:01Z</time>
      </trkpt>
      <trkpt lat="45.65281" lon="6.66905">
        <ele>2640</ele>
        <time>2022-01-01T11:48:02Z</time>
      </trkpt>
      <trkpt lat="45.65288" lon="6.66916">
        <ele>2638.4</ele>
        <time>2022-01-01T11:48:04Z</time>
      </trkpt>
      <trkpt lat="45.65288" lon="6.66922">
        <ele>2636.8</ele>
        <time>2022-01-01T11:48:05Z</time>
      </trkpt>
      <trkpt lat="45.65286" lon="6.66925">
        <ele>2636</ele>
        <time>2022-01-01T11:48:06Z</time>
      </trkpt>
      <trkpt lat="45.65282" lon="6.66927">
        <ele>2634.4</ele>
        <time>2022-01-01T11:48:07Z</time>
      </trkpt>
      <trkpt lat="45.65279" lon="6.66926">
        <ele>2633</ele>
        <time>2022-01-01T11:48:08Z</time>
      </trkpt>
      <trkpt lat="45.65275" lon="6.66925">
        <ele>2631.6</ele>
        <time>2022-01-01T11:48:09Z</time>
      </trkpt>
      <trkpt lat="45.65272" lon="6.66925">
        <ele>2630.6</ele>
        <time>2022-01-01T11:48:10Z</time>
      </trkpt>
      <trkpt lat="45.65269" lon="6.66924">
        <ele>2630</ele>
        <time>2022-01-01T11:48:11Z</time>
      </trkpt>
      <trkpt lat="45.65263" lon="6.66923">
        <ele>2629.2</ele>
        <time>2022-01-01T11:48:13Z</time>
      </trkpt>
      <trkpt lat="45.65261" lon="6.66923">
        <ele>2629</ele>
        <time>2022-01-01T11:48:14Z</time>
      </trkpt>
      <trkpt lat="45.65258" lon="6.66922">
        <ele>2628.8</ele>
        <time>2022-01-01T11:48:15Z</time>
      </trkpt>
      <trkpt lat="45.65251" lon="6.66919">
        <ele>2627.8</ele>
        <time>2022-01-01T11:48:18Z</time>
      </trkpt>
      <trkpt lat="45.6525" lon="6.6692">
        <ele>2627.4</ele>
        <time>2022-01-01T11:48:19Z</time>
      </trkpt>
      <trkpt lat="45.6525" lon="6.66927">
        <ele>2626.2</ele>
        <time>2022-01-01T11:48:21Z</time>
      </trkpt>
      <trkpt lat="45.6525" lon="6.6693">
        <ele>2625.2</ele>
        <time>2022-01-01T11:48:22Z</time>
      </trkpt>
      <trkpt lat="45.65248" lon="6.66933">
        <ele>2624.2</ele>
        <time>2022-01-01T11:48:23Z</time>
      </trkpt>
      <trkpt lat="45.65244" lon="6.66933">
        <ele>2622.4</ele>
        <time>2022-01-01T11:48:24Z</time>
      </trkpt>
      <trkpt lat="45.6524" lon="6.66933">
        <ele>2620.8</ele>
        <time>2022-01-01T11:48:25Z</time>
      </trkpt>
      <trkpt lat="45.65236" lon="6.66931">
        <ele>2619.6</ele>
        <time>2022-01-01T11:48:26Z</time>
      </trkpt>
      <trkpt lat="45.65229" lon="6.66926">
        <ele>2617.6</ele>
        <time>2022-01-01T11:48:28Z</time>
      </trkpt>
      <trkpt lat="45.65221" lon="6.66924">
        <ele>2616.2</ele>
        <time>2022-01-01T11:48:30Z</time>
      </trkpt>
      <trkpt lat="45.6521" lon="6.66924">
        <ele>2614</ele>
        <time>2022-01-01T11:48:32Z</time>
      </trkpt>
      <trkpt lat="45.65207" lon="6.66921">
        <ele>2611.4</ele>
        <time>2022-01-01T11:48:33Z</time>
      </trkpt>
      <trkpt lat="45.65204" lon="6.66918">
        <ele>2610.2</ele>
        <time>2022-01-01T11:48:34Z</time>
      </trkpt>
      <trkpt lat="45.652" lon="6.6691">
        <ele>2608.8</ele>
        <time>2022-01-01T11:48:36Z</time>
      </trkpt>
      <trkpt lat="45.65197" lon="6.66903">
        <ele>2608.2</ele>
        <time>2022-01-01T11:48:38Z</time>
      </trkpt>
      <trkpt lat="45.65196" lon="6.66896">
        <ele>2607.8</ele>
        <time>2022-01-01T11:48:40Z</time>
      </trkpt>
      <trkpt lat="45.65196" lon="6.66894">
        <ele>2607.4</ele>
        <time>2022-01-01T11:48:41Z</time>
      </trkpt>
      <trkpt lat="45.65195" lon="6.66886">
        <ele>2607</ele>
        <time>2022-01-01T11:48:47Z</time>
      </trkpt>
      <trkpt lat="45.65195" lon="6.66885">
        <ele>2607</ele>
        <time>2022-01-01T11:48:53Z</time>
      </trkpt>
      <trkpt lat="45.65198" lon="6.66879">
        <ele>2606.6</ele>
        <time>2022-01-01T11:48:57Z</time>
      </trkpt>
      <trkpt lat="45.652" lon="6.66875">
        <ele>2606.6</ele>
        <time>2022-01-01T11:48:58Z</time>
      </trkpt>
      <trkpt lat="45.65211" lon="6.66857">
        <ele>2605.2</ele>
        <time>2022-01-01T11:49:02Z</time>
      </trkpt>
      <trkpt lat="45.65213" lon="6.66852">
        <ele>2604.8</ele>
        <time>2022-01-01T11:49:03Z</time>
      </trkpt>
      <trkpt lat="45.65213" lon="6.66848">
        <ele>2603.8</ele>
        <time>2022-01-01T11:49:04Z</time>
      </trkpt>
      <trkpt lat="45.65211" lon="6.66844">
        <ele>2603.2</ele>
        <time>2022-01-01T11:49:05Z</time>
      </trkpt>
      <trkpt lat="45.65208" lon="6.66837">
        <ele>2602.2</ele>
        <time>2022-01-01T11:49:06Z</time>
      </trkpt>
      <trkpt lat="45.65207" lon="6.66829">
        <ele>2600</ele>
        <time>2022-01-01T11:49:07Z</time>
      </trkpt>
      <trkpt lat="45.65208" lon="6.66821">
        <ele>2597.4</ele>
        <time>2022-01-01T11:49:08Z</time>
      </trkpt>
      <trkpt lat="45.65207" lon="6.66813">
        <ele>2594.8</ele>
        <time>2022-01-01T11:49:09Z</time>
      </trkpt>
      <trkpt lat="45.65206" lon="6.66805">
        <ele>2592.8</ele>
        <time>2022-01-01T11:49:10Z</time>
      </trkpt>
      <trkpt lat="45.65205" lon="6.66797">
        <ele>2591.8</ele>
        <time>2022-01-01T11:49:11Z</time>
      </trkpt>
      <trkpt lat="45.65205" lon="6.66789">
        <ele>2590</ele>
        <time>2022-01-01T11:49:12Z</time>
      </trkpt>
      <trkpt lat="45.65204" lon="6.66782">
        <ele>2588.8</ele>
        <time>2022-01-01T11:49:13Z</time>
      </trkpt>
      <trkpt lat="45.65201" lon="6.66767">
        <ele>2587.8</ele>
        <time>2022-01-01T11:49:15Z</time>
      </trkpt>
      <trkpt lat="45.65198" lon="6.6676">
        <ele>2587.2</ele>
        <time>2022-01-01T11:49:16Z</time>
      </trkpt>
      <trkpt lat="45.65195" lon="6.66755">
        <ele>2586.2</ele>
        <time>2022-01-01T11:49:17Z</time>
      </trkpt>
      <trkpt lat="45.6519" lon="6.66752">
        <ele>2585.6</ele>
        <time>2022-01-01T11:49:18Z</time>
      </trkpt>
      <trkpt lat="45.65184" lon="6.66747">
        <ele>2584.2</ele>
        <time>2022-01-01T11:49:19Z</time>
      </trkpt>
      <trkpt lat="45.65181" lon="6.6674">
        <ele>2581.2</ele>
        <time>2022-01-01T11:49:20Z</time>
      </trkpt>
      <trkpt lat="45.65179" lon="6.66731">
        <ele>2578.4</ele>
        <time>2022-01-01T11:49:21Z</time>
      </trkpt>
      <trkpt lat="45.65177" lon="6.66722">
        <ele>2576.4</ele>
        <time>2022-01-01T11:49:22Z</time>
      </trkpt>
      <trkpt lat="45.65177" lon="6.66714">
        <ele>2575.4</ele>
        <time>2022-01-01T11:49:23Z</time>
      </trkpt>
      <trkpt lat="45.65178" lon="6.66702">
        <ele>2574.4</ele>
        <time>2022-01-01T11:49:25Z</time>
      </trkpt>
      <trkpt lat="45.65178" lon="6.66697">
        <ele>2574</ele>
        <time>2022-01-01T11:49:26Z</time>
      </trkpt>
      <trkpt lat="45.65179" lon="6.66692">
        <ele>2573.8</ele>
        <time>2022-01-01T11:49:27Z</time>
      </trkpt>
      <trkpt lat="45.65181" lon="6.66681">
        <ele>2573</ele>
        <time>2022-01-01T11:49:30Z</time>
      </trkpt>
      <trkpt lat="45.65182" lon="6.66678">
        <ele>2572.6</ele>
        <time>2022-01-01T11:49:33Z</time>
      </trkpt>
      <trkpt lat="45.65178" lon="6.66672">
        <ele>2572.2</ele>
        <time>2022-01-01T11:49:35Z</time>
      </trkpt>
      <trkpt lat="45.65175" lon="6.66672">
        <ele>2571.8</ele>
        <time>2022-01-01T11:49:36Z</time>
      </trkpt>
      <trkpt lat="45.6517" lon="6.66675">
        <ele>2571.6</ele>
        <time>2022-01-01T11:49:37Z</time>
      </trkpt>
      <trkpt lat="45.65166" lon="6.66678">
        <ele>2570.6</ele>
        <time>2022-01-01T11:49:38Z</time>
      </trkpt>
      <trkpt lat="45.65162" lon="6.66683">
        <ele>2569.8</ele>
        <time>2022-01-01T11:49:39Z</time>
      </trkpt>
      <trkpt lat="45.65156" lon="6.66686">
        <ele>2569.2</ele>
        <time>2022-01-01T11:49:40Z</time>
      </trkpt>
      <trkpt lat="45.65152" lon="6.66684">
        <ele>2568.6</ele>
        <time>2022-01-01T11:49:41Z</time>
      </trkpt>
      <trkpt lat="45.65149" lon="6.66681">
        <ele>2567</ele>
        <time>2022-01-01T11:49:42Z</time>
      </trkpt>
      <trkpt lat="45.65146" lon="6.66677">
        <ele>2565.8</ele>
        <time>2022-01-01T11:49:43Z</time>
      </trkpt>
      <trkpt lat="45.65142" lon="6.66677">
        <ele>2564.8</ele>
        <time>2022-01-01T11:49:44Z</time>
      </trkpt>
      <trkpt lat="45.65137" lon="6.66677">
        <ele>2563.6</ele>
        <time>2022-01-01T11:49:45Z</time>
      </trkpt>
      <trkpt lat="45.65132" lon="6.66675">
        <ele>2562.6</ele>
        <time>2022-01-01T11:49:46Z</time>
      </trkpt>
      <trkpt lat="45.6513" lon="6.6667">
        <ele>2561.2</ele>
        <time>2022-01-01T11:49:47Z</time>
      </trkpt>
      <trkpt lat="45.65129" lon="6.66664">
        <ele>2559.8</ele>
        <time>2022-01-01T11:49:48Z</time>
      </trkpt>
      <trkpt lat="45.65129" lon="6.66658">
        <ele>2558.2</ele>
        <time>2022-01-01T11:49:49Z</time>
      </trkpt>
      <trkpt lat="45.65128" lon="6.66652">
        <ele>2557.4</ele>
        <time>2022-01-01T11:49:50Z</time>
      </trkpt>
      <trkpt lat="45.65126" lon="6.66647">
        <ele>2556.6</ele>
        <time>2022-01-01T11:49:51Z</time>
      </trkpt>
      <trkpt lat="45.65123" lon="6.66646">
        <ele>2556</ele>
        <time>2022-01-01T11:49:52Z</time>
      </trkpt>
      <trkpt lat="45.65119" lon="6.66645">
        <ele>2555.4</ele>
        <time>2022-01-01T11:49:53Z</time>
      </trkpt>
      <trkpt lat="45.65116" lon="6.66642">
        <ele>2555</ele>
        <time>2022-01-01T11:49:54Z</time>
      </trkpt>
      <trkpt lat="45.65114" lon="6.66637">
        <ele>2554</ele>
        <time>2022-01-01T11:49:55Z</time>
      </trkpt>
      <trkpt lat="45.65111" lon="6.66626">
        <ele>2552.4</ele>
        <time>2022-01-01T11:49:57Z</time>
      </trkpt>
      <trkpt lat="45.65104" lon="6.66624">
        <ele>2551.2</ele>
        <time>2022-01-01T11:49:59Z</time>
      </trkpt>
      <trkpt lat="45.65099" lon="6.66623">
        <ele>2550</ele>
        <time>2022-01-01T11:50:00Z</time>
      </trkpt>
      <trkpt lat="45.65095" lon="6.66621">
        <ele>2548.8</ele>
        <time>2022-01-01T11:50:01Z</time>
      </trkpt>
      <trkpt lat="45.65092" lon="6.66618">
        <ele>2547.8</ele>
        <time>2022-01-01T11:50:02Z</time>
      </trkpt>
      <trkpt lat="45.65089" lon="6.66617">
        <ele>2546.4</ele>
        <time>2022-01-01T11:50:03Z</time>
      </trkpt>
      <trkpt lat="45.65079" lon="6.66616">
        <ele>2544.4</ele>
        <time>2022-01-01T11:50:05Z</time>
      </trkpt>
      <trkpt lat="45.65075" lon="6.66612">
        <ele>2542.4</ele>
        <time>2022-01-01T11:50:06Z</time>
      </trkpt>
      <trkpt lat="45.65072" lon="6.66608">
        <ele>2540.4</ele>
        <time>2022-01-01T11:50:07Z</time>
      </trkpt>
      <trkpt lat="45.6507" lon="6.66606">
        <ele>2539.2</ele>
        <time>2022-01-01T11:50:08Z</time>
      </trkpt>
      <trkpt lat="45.65067" lon="6.66608">
        <ele>2538.6</ele>
        <time>2022-01-01T11:50:09Z</time>
      </trkpt>
      <trkpt lat="45.65064" lon="6.66612">
        <ele>2538</ele>
        <time>2022-01-01T11:50:10Z</time>
      </trkpt>
      <trkpt lat="45.65061" lon="6.66613">
        <ele>2536.4</ele>
        <time>2022-01-01T11:50:11Z</time>
      </trkpt>
      <trkpt lat="45.65057" lon="6.66613">
        <ele>2535.4</ele>
        <time>2022-01-01T11:50:12Z</time>
      </trkpt>
      <trkpt lat="45.65055" lon="6.66613">
        <ele>2534.2</ele>
        <time>2022-01-01T11:50:13Z</time>
      </trkpt>
      <trkpt lat="45.65053" lon="6.66613">
        <ele>2533.2</ele>
        <time>2022-01-01T11:50:15Z</time>
      </trkpt>
      <trkpt lat="45.65053" lon="6.66613">
        <ele>2533</ele>
        <time>2022-01-01T11:50:16Z</time>
      </trkpt>
      <trkpt lat="45.65054" lon="6.66615">
        <ele>2533.2</ele>
        <time>2022-01-01T11:50:23Z</time>
      </trkpt>
      <trkpt lat="45.65045" lon="6.66618">
        <ele>2533</ele>
        <time>2022-01-01T11:50:29Z</time>
      </trkpt>
      <trkpt lat="45.65034" lon="6.66625">
        <ele>2530.8</ele>
        <time>2022-01-01T11:50:31Z</time>
      </trkpt>
      <trkpt lat="45.65028" lon="6.66629">
        <ele>2529.8</ele>
        <time>2022-01-01T11:50:32Z</time>
      </trkpt>
      <trkpt lat="45.65022" lon="6.66633">
        <ele>2528.2</ele>
        <time>2022-01-01T11:50:33Z</time>
      </trkpt>
      <trkpt lat="45.65016" lon="6.66637">
        <ele>2527.2</ele>
        <time>2022-01-01T11:50:34Z</time>
      </trkpt>
      <trkpt lat="45.65006" lon="6.66644">
        <ele>2525.6</ele>
        <time>2022-01-01T11:50:36Z</time>
      </trkpt>
      <trkpt lat="45.65002" lon="6.66646">
        <ele>2525.2</ele>
        <time>2022-01-01T11:50:37Z</time>
      </trkpt>
      <trkpt lat="45.64992" lon="6.66656">
        <ele>2525</ele>
        <time>2022-01-01T11:50:41Z</time>
      </trkpt>
      <trkpt lat="45.6498" lon="6.66657">
        <ele>2524.8</ele>
        <time>2022-01-01T11:50:47Z</time>
      </trkpt>
      <trkpt lat="45.64978" lon="6.66657">
        <ele>2524.6</ele>
        <time>2022-01-01T11:50:48Z</time>
      </trkpt>
      <trkpt lat="45.64976" lon="6.66657">
        <ele>2524</ele>
        <time>2022-01-01T11:50:49Z</time>
      </trkpt>
      <trkpt lat="45.64969" lon="6.66653">
        <ele>2523.6</ele>
        <time>2022-01-01T11:50:51Z</time>
      </trkpt>
      <trkpt lat="45.64965" lon="6.6665">
        <ele>2523.2</ele>
        <time>2022-01-01T11:50:52Z</time>
      </trkpt>
      <trkpt lat="45.64961" lon="6.66647">
        <ele>2522.6</ele>
        <time>2022-01-01T11:50:53Z</time>
      </trkpt>
      <trkpt lat="45.64957" lon="6.66645">
        <ele>2522</ele>
        <time>2022-01-01T11:50:54Z</time>
      </trkpt>
      <trkpt lat="45.64953" lon="6.66644">
        <ele>2520.8</ele>
        <time>2022-01-01T11:50:55Z</time>
      </trkpt>
      <trkpt lat="45.64948" lon="6.66641">
        <ele>2520.2</ele>
        <time>2022-01-01T11:50:56Z</time>
      </trkpt>
      <trkpt lat="45.64945" lon="6.66636">
        <ele>2519.6</ele>
        <time>2022-01-01T11:50:57Z</time>
      </trkpt>
      <trkpt lat="45.64942" lon="6.6663">
        <ele>2518.4</ele>
        <time>2022-01-01T11:50:58Z</time>
      </trkpt>
      <trkpt lat="45.64939" lon="6.66626">
        <ele>2517.2</ele>
        <time>2022-01-01T11:50:59Z</time>
      </trkpt>
      <trkpt lat="45.64932" lon="6.66624">
        <ele>2516</ele>
        <time>2022-01-01T11:51:01Z</time>
      </trkpt>
      <trkpt lat="45.64926" lon="6.66619">
        <ele>2514.8</ele>
        <time>2022-01-01T11:51:03Z</time>
      </trkpt>
      <trkpt lat="45.64923" lon="6.66619">
        <ele>2514.2</ele>
        <time>2022-01-01T11:51:04Z</time>
      </trkpt>
      <trkpt lat="45.64919" lon="6.66619">
        <ele>2513.8</ele>
        <time>2022-01-01T11:51:05Z</time>
      </trkpt>
      <trkpt lat="45.64915" lon="6.66621">
        <ele>2513.6</ele>
        <time>2022-01-01T11:51:06Z</time>
      </trkpt>
      <trkpt lat="45.64907" lon="6.66621">
        <ele>2512</ele>
        <time>2022-01-01T11:51:08Z</time>
      </trkpt>
      <trkpt lat="45.64903" lon="6.6662">
        <ele>2511.6</ele>
        <time>2022-01-01T11:51:10Z</time>
      </trkpt>
      <trkpt lat="45.64898" lon="6.66624">
        <ele>2511</ele>
        <time>2022-01-01T11:51:13Z</time>
      </trkpt>
      <trkpt lat="45.64896" lon="6.66634">
        <ele>2510.4</ele>
        <time>2022-01-01T11:51:15Z</time>
      </trkpt>
      <trkpt lat="45.64893" lon="6.66637">
        <ele>2509</ele>
        <time>2022-01-01T11:51:16Z</time>
      </trkpt>
      <trkpt lat="45.6489" lon="6.6664">
        <ele>2507.2</ele>
        <time>2022-01-01T11:51:17Z</time>
      </trkpt>
      <trkpt lat="45.64887" lon="6.66643">
        <ele>2505.8</ele>
        <time>2022-01-01T11:51:18Z</time>
      </trkpt>
      <trkpt lat="45.64881" lon="6.66649">
        <ele>2503.8</ele>
        <time>2022-01-01T11:51:20Z</time>
      </trkpt>
      <trkpt lat="45.64878" lon="6.66649">
        <ele>2503.2</ele>
        <time>2022-01-01T11:51:21Z</time>
      </trkpt>
      <trkpt lat="45.64874" lon="6.66648">
        <ele>2502.8</ele>
        <time>2022-01-01T11:51:22Z</time>
      </trkpt>
      <trkpt lat="45.64866" lon="6.6665">
        <ele>2501.6</ele>
        <time>2022-01-01T11:51:24Z</time>
      </trkpt>
      <trkpt lat="45.64859" lon="6.66655">
        <ele>2500</ele>
        <time>2022-01-01T11:51:26Z</time>
      </trkpt>
      <trkpt lat="45.64852" lon="6.66661">
        <ele>2499</ele>
        <time>2022-01-01T11:51:28Z</time>
      </trkpt>
      <trkpt lat="45.64838" lon="6.66672">
        <ele>2497.8</ele>
        <time>2022-01-01T11:51:32Z</time>
      </trkpt>
      <trkpt lat="45.64834" lon="6.66672">
        <ele>2497.2</ele>
        <time>2022-01-01T11:51:33Z</time>
      </trkpt>
      <trkpt lat="45.64827" lon="6.66671">
        <ele>2496.4</ele>
        <time>2022-01-01T11:51:35Z</time>
      </trkpt>
      <trkpt lat="45.64819" lon="6.66672">
        <ele>2495.8</ele>
        <time>2022-01-01T11:51:38Z</time>
      </trkpt>
      <trkpt lat="45.64813" lon="6.66672">
        <ele>2495</ele>
        <time>2022-01-01T11:51:40Z</time>
      </trkpt>
      <trkpt lat="45.64792" lon="6.66677">
        <ele>2493.8</ele>
        <time>2022-01-01T11:51:46Z</time>
      </trkpt>
      <trkpt lat="45.64777" lon="6.66683">
        <ele>2492.8</ele>
        <time>2022-01-01T11:51:51Z</time>
      </trkpt>
      <trkpt lat="45.64771" lon="6.66686">
        <ele>2491.6</ele>
        <time>2022-01-01T11:51:54Z</time>
      </trkpt>
      <trkpt lat="45.64767" lon="6.66683">
        <ele>2490.8</ele>
        <time>2022-01-01T11:51:56Z</time>
      </trkpt>
      <trkpt lat="45.64764" lon="6.66677">
        <ele>2489.6</ele>
        <time>2022-01-01T11:51:58Z</time>
      </trkpt>
      <trkpt lat="45.64759" lon="6.66672">
        <ele>2487.4</ele>
        <time>2022-01-01T11:52:00Z</time>
      </trkpt>
      <trkpt lat="45.64755" lon="6.6667">
        <ele>2486.2</ele>
        <time>2022-01-01T11:52:01Z</time>
      </trkpt>
      <trkpt lat="45.6475" lon="6.66667">
        <ele>2485</ele>
        <time>2022-01-01T11:52:02Z</time>
      </trkpt>
      <trkpt lat="45.64746" lon="6.66665">
        <ele>2483.2</ele>
        <time>2022-01-01T11:52:03Z</time>
      </trkpt>
      <trkpt lat="45.64742" lon="6.66663">
        <ele>2482.2</ele>
        <time>2022-01-01T11:52:04Z</time>
      </trkpt>
      <trkpt lat="45.64739" lon="6.6666">
        <ele>2480.8</ele>
        <time>2022-01-01T11:52:05Z</time>
      </trkpt>
      <trkpt lat="45.64734" lon="6.66657">
        <ele>2479.8</ele>
        <time>2022-01-01T11:52:07Z</time>
      </trkpt>
      <trkpt lat="45.64732" lon="6.66657">
        <ele>2479.6</ele>
        <time>2022-01-01T11:52:08Z</time>
      </trkpt>
      <trkpt lat="45.64731" lon="6.66659">
        <ele>2479.4</ele>
        <time>2022-01-01T11:52:09Z</time>
      </trkpt>
      <trkpt lat="45.6473" lon="6.6666">
        <ele>2479.4</ele>
        <time>2022-01-01T11:52:10Z</time>
      </trkpt>
      <trkpt lat="45.64728" lon="6.66659">
        <ele>2479.6</ele>
        <time>2022-01-01T11:52:12Z</time>
      </trkpt>
      <trkpt lat="45.64725" lon="6.66662">
        <ele>2479.6</ele>
        <time>2022-01-01T11:52:14Z</time>
      </trkpt>
      <trkpt lat="45.64717" lon="6.66665">
        <ele>2479.2</ele>
        <time>2022-01-01T11:52:21Z</time>
      </trkpt>
      <trkpt lat="45.64717" lon="6.66671">
        <ele>2479</ele>
        <time>2022-01-01T11:52:28Z</time>
      </trkpt>
      <trkpt lat="45.64717" lon="6.66671">
        <ele>2479</ele>
        <time>2022-01-01T11:52:37Z</time>
      </trkpt>
      <trkpt lat="45.64718" lon="6.6667">
        <ele>2479.2</ele>
        <time>2022-01-01T11:52:48Z</time>
      </trkpt>
      <trkpt lat="45.64717" lon="6.6667">
        <ele>2479.4</ele>
        <time>2022-01-01T11:52:58Z</time>
      </trkpt>
      <trkpt lat="45.64718" lon="6.66658">
        <ele>2479.4</ele>
        <time>2022-01-01T11:54:15Z</time>
      </trkpt>
      <trkpt lat="45.64715" lon="6.66659">
        <ele>2479.4</ele>
        <time>2022-01-01T11:54:16Z</time>
      </trkpt>
      <trkpt lat="45.64712" lon="6.66658">
        <ele>2479.4</ele>
        <time>2022-01-01T11:54:18Z</time>
      </trkpt>
      <trkpt lat="45.64709" lon="6.66653">
        <ele>2479.2</ele>
        <time>2022-01-01T11:54:20Z</time>
      </trkpt>
      <trkpt lat="45.64705" lon="6.66648">
        <ele>2478.8</ele>
        <time>2022-01-01T11:54:23Z</time>
      </trkpt>
      <trkpt lat="45.64704" lon="6.66645">
        <ele>2478.6</ele>
        <time>2022-01-01T11:54:24Z</time>
      </trkpt>
      <trkpt lat="45.64705" lon="6.66628">
        <ele>2476.8</ele>
        <time>2022-01-01T11:54:27Z</time>
      </trkpt>
      <trkpt lat="45.64707" lon="6.66617">
        <ele>2476</ele>
        <time>2022-01-01T11:54:31Z</time>
      </trkpt>
      <trkpt lat="45.64709" lon="6.66614">
        <ele>2475.8</ele>
        <time>2022-01-01T11:54:32Z</time>
      </trkpt>
      <trkpt lat="45.64715" lon="6.66611">
        <ele>2475.2</ele>
        <time>2022-01-01T11:54:35Z</time>
      </trkpt>
      <trkpt lat="45.64718" lon="6.66611">
        <ele>2474.8</ele>
        <time>2022-01-01T11:54:37Z</time>
      </trkpt>
      <trkpt lat="45.64728" lon="6.6661">
        <ele>2472.6</ele>
        <time>2022-01-01T11:54:40Z</time>
      </trkpt>
      <trkpt lat="45.64732" lon="6.6661">
        <ele>2471.6</ele>
        <time>2022-01-01T11:54:41Z</time>
      </trkpt>
      <trkpt lat="45.64737" lon="6.66609">
        <ele>2470.4</ele>
        <time>2022-01-01T11:54:43Z</time>
      </trkpt>
      <trkpt lat="45.64738" lon="6.66607">
        <ele>2470</ele>
        <time>2022-01-01T11:54:44Z</time>
      </trkpt>
      <trkpt lat="45.64736" lon="6.66601">
        <ele>2469.8</ele>
        <time>2022-01-01T11:54:46Z</time>
      </trkpt>
      <trkpt lat="45.64733" lon="6.66594">
        <ele>2469.6</ele>
        <time>2022-01-01T11:54:48Z</time>
      </trkpt>
      <trkpt lat="45.6473" lon="6.66586">
        <ele>2469.4</ele>
        <time>2022-01-01T11:54:50Z</time>
      </trkpt>
      <trkpt lat="45.64724" lon="6.6657">
        <ele>2468.6</ele>
        <time>2022-01-01T11:54:54Z</time>
      </trkpt>
      <trkpt lat="45.64724" lon="6.66565">
        <ele>2468.2</ele>
        <time>2022-01-01T11:54:55Z</time>
      </trkpt>
      <trkpt lat="45.64721" lon="6.66552">
        <ele>2467.4</ele>
        <time>2022-01-01T11:54:58Z</time>
      </trkpt>
      <trkpt lat="45.64719" lon="6.6655">
        <ele>2467.2</ele>
        <time>2022-01-01T11:54:59Z</time>
      </trkpt>
      <trkpt lat="45.64714" lon="6.66553">
        <ele>2466.6</ele>
        <time>2022-01-01T11:55:01Z</time>
      </trkpt>
      <trkpt lat="45.64709" lon="6.66561">
        <ele>2465.8</ele>
        <time>2022-01-01T11:55:03Z</time>
      </trkpt>
      <trkpt lat="45.64705" lon="6.66563">
        <ele>2465</ele>
        <time>2022-01-01T11:55:04Z</time>
      </trkpt>
      <trkpt lat="45.647" lon="6.66562">
        <ele>2464.2</ele>
        <time>2022-01-01T11:55:05Z</time>
      </trkpt>
      <trkpt lat="45.64693" lon="6.66558">
        <ele>2463</ele>
        <time>2022-01-01T11:55:07Z</time>
      </trkpt>
      <trkpt lat="45.64689" lon="6.66558">
        <ele>2462.6</ele>
        <time>2022-01-01T11:55:08Z</time>
      </trkpt>
      <trkpt lat="45.64684" lon="6.66558">
        <ele>2462.2</ele>
        <time>2022-01-01T11:55:09Z</time>
      </trkpt>
      <trkpt lat="45.64679" lon="6.66555">
        <ele>2461</ele>
        <time>2022-01-01T11:55:10Z</time>
      </trkpt>
      <trkpt lat="45.64675" lon="6.66548">
        <ele>2459.6</ele>
        <time>2022-01-01T11:55:12Z</time>
      </trkpt>
      <trkpt lat="45.64671" lon="6.66543">
        <ele>2458.6</ele>
        <time>2022-01-01T11:55:14Z</time>
      </trkpt>
      <trkpt lat="45.64668" lon="6.66544">
        <ele>2458.4</ele>
        <time>2022-01-01T11:55:15Z</time>
      </trkpt>
      <trkpt lat="45.64658" lon="6.66545">
        <ele>2457</ele>
        <time>2022-01-01T11:55:18Z</time>
      </trkpt>
      <trkpt lat="45.64647" lon="6.66547">
        <ele>2456</ele>
        <time>2022-01-01T11:55:21Z</time>
      </trkpt>
      <trkpt lat="45.64644" lon="6.66549">
        <ele>2455.8</ele>
        <time>2022-01-01T11:55:22Z</time>
      </trkpt>
      <trkpt lat="45.6464" lon="6.66562">
        <ele>2455.6</ele>
        <time>2022-01-01T11:55:26Z</time>
      </trkpt>
      <trkpt lat="45.64635" lon="6.66572">
        <ele>2454.8</ele>
        <time>2022-01-01T11:55:30Z</time>
      </trkpt>
      <trkpt lat="45.64634" lon="6.66574">
        <ele>2454.6</ele>
        <time>2022-01-01T11:55:31Z</time>
      </trkpt>
      <trkpt lat="45.6462" lon="6.66581">
        <ele>2453.8</ele>
        <time>2022-01-01T11:55:37Z</time>
      </trkpt>
      <trkpt lat="45.64616" lon="6.66582">
        <ele>2453.6</ele>
        <time>2022-01-01T11:55:38Z</time>
      </trkpt>
      <trkpt lat="45.64607" lon="6.66582">
        <ele>2452.2</ele>
        <time>2022-01-01T11:55:40Z</time>
      </trkpt>
      <trkpt lat="45.64603" lon="6.66583">
        <ele>2450.8</ele>
        <time>2022-01-01T11:55:41Z</time>
      </trkpt>
      <trkpt lat="45.64595" lon="6.66584">
        <ele>2448</ele>
        <time>2022-01-01T11:55:43Z</time>
      </trkpt>
      <trkpt lat="45.64592" lon="6.66587">
        <ele>2446</ele>
        <time>2022-01-01T11:55:44Z</time>
      </trkpt>
      <trkpt lat="45.64588" lon="6.66592">
        <ele>2444.6</ele>
        <time>2022-01-01T11:55:45Z</time>
      </trkpt>
      <trkpt lat="45.64584" lon="6.66595">
        <ele>2443</ele>
        <time>2022-01-01T11:55:46Z</time>
      </trkpt>
      <trkpt lat="45.6458" lon="6.66594">
        <ele>2441.8</ele>
        <time>2022-01-01T11:55:47Z</time>
      </trkpt>
      <trkpt lat="45.64579" lon="6.66591">
        <ele>2441</ele>
        <time>2022-01-01T11:55:48Z</time>
      </trkpt>
      <trkpt lat="45.64578" lon="6.66588">
        <ele>2440.4</ele>
        <time>2022-01-01T11:55:49Z</time>
      </trkpt>
      <trkpt lat="45.64577" lon="6.66587">
        <ele>2439</ele>
        <time>2022-01-01T11:55:50Z</time>
      </trkpt>
      <trkpt lat="45.64576" lon="6.66587">
        <ele>2438.4</ele>
        <time>2022-01-01T11:55:51Z</time>
      </trkpt>
      <trkpt lat="45.64575" lon="6.66587">
        <ele>2438</ele>
        <time>2022-01-01T11:55:52Z</time>
      </trkpt>
      <trkpt lat="45.64575" lon="6.66588">
        <ele>2437.6</ele>
        <time>2022-01-01T11:55:59Z</time>
      </trkpt>
      <trkpt lat="45.64574" lon="6.66588">
        <ele>2437.8</ele>
        <time>2022-01-01T11:56:17Z</time>
      </trkpt>
      <trkpt lat="45.64573" lon="6.66588">
        <ele>2437.4</ele>
        <time>2022-01-01T11:57:02Z</time>
      </trkpt>
      <trkpt lat="45.64572" lon="6.66589">
        <ele>2437.4</ele>
        <time>2022-01-01T11:57:29Z</time>
      </trkpt>
      <trkpt lat="45.64571" lon="6.66589">
        <ele>2437</ele>
        <time>2022-01-01T11:57:43Z</time>
      </trkpt>
      <trkpt lat="45.6457" lon="6.66589">
        <ele>2436.4</ele>
        <time>2022-01-01T11:58:09Z</time>
      </trkpt>
      <trkpt lat="45.64569" lon="6.66589">
        <ele>2435.4</ele>
        <time>2022-01-01T11:58:10Z</time>
      </trkpt>
      <trkpt lat="45.64563" lon="6.66593">
        <ele>2434.4</ele>
        <time>2022-01-01T11:58:11Z</time>
      </trkpt>
      <trkpt lat="45.64557" lon="6.66595">
        <ele>2433.2</ele>
        <time>2022-01-01T11:58:12Z</time>
      </trkpt>
      <trkpt lat="45.64552" lon="6.66597">
        <ele>2432</ele>
        <time>2022-01-01T11:58:13Z</time>
      </trkpt>
      <trkpt lat="45.64543" lon="6.66587">
        <ele>2431</ele>
        <time>2022-01-01T11:58:15Z</time>
      </trkpt>
      <trkpt lat="45.64539" lon="6.66572">
        <ele>2427.8</ele>
        <time>2022-01-01T11:58:17Z</time>
      </trkpt>
      <trkpt lat="45.64535" lon="6.66568">
        <ele>2425.6</ele>
        <time>2022-01-01T11:58:18Z</time>
      </trkpt>
      <trkpt lat="45.6453" lon="6.66565">
        <ele>2423.2</ele>
        <time>2022-01-01T11:58:19Z</time>
      </trkpt>
      <trkpt lat="45.64525" lon="6.66563">
        <ele>2420.6</ele>
        <time>2022-01-01T11:58:20Z</time>
      </trkpt>
      <trkpt lat="45.6452" lon="6.66565">
        <ele>2418</ele>
        <time>2022-01-01T11:58:21Z</time>
      </trkpt>
      <trkpt lat="45.64511" lon="6.66566">
        <ele>2415.8</ele>
        <time>2022-01-01T11:58:22Z</time>
      </trkpt>
      <trkpt lat="45.64507" lon="6.66559">
        <ele>2413.8</ele>
        <time>2022-01-01T11:58:23Z</time>
      </trkpt>
      <trkpt lat="45.64505" lon="6.6655">
        <ele>2411.8</ele>
        <time>2022-01-01T11:58:24Z</time>
      </trkpt>
      <trkpt lat="45.64507" lon="6.66541">
        <ele>2407.8</ele>
        <time>2022-01-01T11:58:25Z</time>
      </trkpt>
      <trkpt lat="45.64509" lon="6.66536">
        <ele>2405</ele>
        <time>2022-01-01T11:58:26Z</time>
      </trkpt>
      <trkpt lat="45.64513" lon="6.6653">
        <ele>2402.8</ele>
        <time>2022-01-01T11:58:27Z</time>
      </trkpt>
      <trkpt lat="45.64515" lon="6.66525">
        <ele>2401.4</ele>
        <time>2022-01-01T11:58:28Z</time>
      </trkpt>
      <trkpt lat="45.64517" lon="6.6652">
        <ele>2400.4</ele>
        <time>2022-01-01T11:58:29Z</time>
      </trkpt>
      <trkpt lat="45.6452" lon="6.66507">
        <ele>2399.4</ele>
        <time>2022-01-01T11:58:31Z</time>
      </trkpt>
      <trkpt lat="45.64522" lon="6.66497">
        <ele>2398.6</ele>
        <time>2022-01-01T11:58:33Z</time>
      </trkpt>
      <trkpt lat="45.64522" lon="6.66494">
        <ele>2397.6</ele>
        <time>2022-01-01T11:58:34Z</time>
      </trkpt>
      <trkpt lat="45.64521" lon="6.66483">
        <ele>2396.6</ele>
        <time>2022-01-01T11:58:37Z</time>
      </trkpt>
      <trkpt lat="45.64521" lon="6.66478">
        <ele>2396.4</ele>
        <time>2022-01-01T11:58:38Z</time>
      </trkpt>
      <trkpt lat="45.64516" lon="6.6647">
        <ele>2395.4</ele>
        <time>2022-01-01T11:58:41Z</time>
      </trkpt>
      <trkpt lat="45.64513" lon="6.66469">
        <ele>2394.6</ele>
        <time>2022-01-01T11:58:42Z</time>
      </trkpt>
      <trkpt lat="45.64511" lon="6.66468">
        <ele>2393</ele>
        <time>2022-01-01T11:58:43Z</time>
      </trkpt>
      <trkpt lat="45.64511" lon="6.66467">
        <ele>2391.6</ele>
        <time>2022-01-01T11:58:44Z</time>
      </trkpt>
      <trkpt lat="45.6451" lon="6.66468">
        <ele>2390.8</ele>
        <time>2022-01-01T11:58:45Z</time>
      </trkpt>
      <trkpt lat="45.6451" lon="6.66468">
        <ele>2390.2</ele>
        <time>2022-01-01T11:58:46Z</time>
      </trkpt>
      <trkpt lat="45.64513" lon="6.66458">
        <ele>2389.6</ele>
        <time>2022-01-01T11:58:58Z</time>
      </trkpt>
      <trkpt lat="45.64514" lon="6.66459">
        <ele>2389.4</ele>
        <time>2022-01-01T11:59:11Z</time>
      </trkpt>
      <trkpt lat="45.64514" lon="6.66459">
        <ele>2389.2</ele>
        <time>2022-01-01T11:59:28Z</time>
      </trkpt>
      <trkpt lat="45.64515" lon="6.66461">
        <ele>2389</ele>
        <time>2022-01-01T11:59:49Z</time>
      </trkpt>
      <trkpt lat="45.64509" lon="6.6645">
        <ele>2389</ele>
        <time>2022-01-01T11:59:56Z</time>
      </trkpt>
      <trkpt lat="45.64505" lon="6.66448">
        <ele>2388.8</ele>
        <time>2022-01-01T11:59:57Z</time>
      </trkpt>
      <trkpt lat="45.64496" lon="6.6644">
        <ele>2386.6</ele>
        <time>2022-01-01T11:59:59Z</time>
      </trkpt>
      <trkpt lat="45.6449" lon="6.66434">
        <ele>2384.2</ele>
        <time>2022-01-01T12:00:00Z</time>
      </trkpt>
      <trkpt lat="45.64482" lon="6.66428">
        <ele>2382.4</ele>
        <time>2022-01-01T12:00:01Z</time>
      </trkpt>
      <trkpt lat="45.64475" lon="6.66421">
        <ele>2381</ele>
        <time>2022-01-01T12:00:02Z</time>
      </trkpt>
      <trkpt lat="45.6447" lon="6.66413">
        <ele>2378.4</ele>
        <time>2022-01-01T12:00:03Z</time>
      </trkpt>
      <trkpt lat="45.64467" lon="6.66405">
        <ele>2376.6</ele>
        <time>2022-01-01T12:00:04Z</time>
      </trkpt>
      <trkpt lat="45.64464" lon="6.66399">
        <ele>2375.2</ele>
        <time>2022-01-01T12:00:05Z</time>
      </trkpt>
      <trkpt lat="45.64459" lon="6.66395">
        <ele>2373.8</ele>
        <time>2022-01-01T12:00:06Z</time>
      </trkpt>
      <trkpt lat="45.64455" lon="6.66393">
        <ele>2372.6</ele>
        <time>2022-01-01T12:00:07Z</time>
      </trkpt>
      <trkpt lat="45.64449" lon="6.66389">
        <ele>2371.4</ele>
        <time>2022-01-01T12:00:08Z</time>
      </trkpt>
      <trkpt lat="45.64446" lon="6.66378">
        <ele>2368.8</ele>
        <time>2022-01-01T12:00:10Z</time>
      </trkpt>
      <trkpt lat="45.64447" lon="6.66372">
        <ele>2367.8</ele>
        <time>2022-01-01T12:00:11Z</time>
      </trkpt>
      <trkpt lat="45.64449" lon="6.66359">
        <ele>2366.6</ele>
        <time>2022-01-01T12:00:13Z</time>
      </trkpt>
      <trkpt lat="45.64449" lon="6.66351">
        <ele>2365.4</ele>
        <time>2022-01-01T12:00:14Z</time>
      </trkpt>
      <trkpt lat="45.64448" lon="6.66336">
        <ele>2363.4</ele>
        <time>2022-01-01T12:00:16Z</time>
      </trkpt>
      <trkpt lat="45.64447" lon="6.66318">
        <ele>2361.6</ele>
        <time>2022-01-01T12:00:18Z</time>
      </trkpt>
      <trkpt lat="45.64445" lon="6.66309">
        <ele>2360.6</ele>
        <time>2022-01-01T12:00:19Z</time>
      </trkpt>
      <trkpt lat="45.64441" lon="6.66304">
        <ele>2358.2</ele>
        <time>2022-01-01T12:00:20Z</time>
      </trkpt>
      <trkpt lat="45.64435" lon="6.66304">
        <ele>2356.4</ele>
        <time>2022-01-01T12:00:21Z</time>
      </trkpt>
      <trkpt lat="45.64427" lon="6.66303">
        <ele>2354.6</ele>
        <time>2022-01-01T12:00:22Z</time>
      </trkpt>
      <trkpt lat="45.64422" lon="6.66299">
        <ele>2353</ele>
        <time>2022-01-01T12:00:23Z</time>
      </trkpt>
      <trkpt lat="45.64416" lon="6.66294">
        <ele>2350.8</ele>
        <time>2022-01-01T12:00:24Z</time>
      </trkpt>
      <trkpt lat="45.64409" lon="6.66291">
        <ele>2349.4</ele>
        <time>2022-01-01T12:00:25Z</time>
      </trkpt>
      <trkpt lat="45.64393" lon="6.66289">
        <ele>2347</ele>
        <time>2022-01-01T12:00:27Z</time>
      </trkpt>
      <trkpt lat="45.64387" lon="6.66285">
        <ele>2344.8</ele>
        <time>2022-01-01T12:00:28Z</time>
      </trkpt>
      <trkpt lat="45.6438" lon="6.66277">
        <ele>2343.2</ele>
        <time>2022-01-01T12:00:29Z</time>
      </trkpt>
      <trkpt lat="45.64373" lon="6.6627">
        <ele>2342.2</ele>
        <time>2022-01-01T12:00:30Z</time>
      </trkpt>
      <trkpt lat="45.64367" lon="6.66264">
        <ele>2341.2</ele>
        <time>2022-01-01T12:00:31Z</time>
      </trkpt>
      <trkpt lat="45.64362" lon="6.66256">
        <ele>2340</ele>
        <time>2022-01-01T12:00:32Z</time>
      </trkpt>
      <trkpt lat="45.64355" lon="6.66239">
        <ele>2339.4</ele>
        <time>2022-01-01T12:00:34Z</time>
      </trkpt>
      <trkpt lat="45.64353" lon="6.66233">
        <ele>2339.2</ele>
        <time>2022-01-01T12:00:35Z</time>
      </trkpt>
      <trkpt lat="45.64352" lon="6.66228">
        <ele>2339</ele>
        <time>2022-01-01T12:00:36Z</time>
      </trkpt>
      <trkpt lat="45.64351" lon="6.66225">
        <ele>2339</ele>
        <time>2022-01-01T12:00:37Z</time>
      </trkpt>
      <trkpt lat="45.64349" lon="6.66224">
        <ele>2339</ele>
        <time>2022-01-01T12:00:41Z</time>
      </trkpt>
      <trkpt lat="45.64352" lon="6.66232">
        <ele>2338.8</ele>
        <time>2022-01-01T12:00:48Z</time>
      </trkpt>
      <trkpt lat="45.64354" lon="6.66231">
        <ele>2338.6</ele>
        <time>2022-01-01T12:00:56Z</time>
      </trkpt>
      <trkpt lat="45.64354" lon="6.66231">
        <ele>2338.6</ele>
        <time>2022-01-01T12:00:58Z</time>
      </trkpt>
      <trkpt lat="45.64352" lon="6.66232">
        <ele>2338.2</ele>
        <time>2022-01-01T12:01:35Z</time>
      </trkpt>
      <trkpt lat="45.64352" lon="6.66232">
        <ele>2338</ele>
        <time>2022-01-01T12:01:38Z</time>
      </trkpt>
      <trkpt lat="45.64353" lon="6.66234">
        <ele>2338</ele>
        <time>2022-01-01T12:02:11Z</time>
      </trkpt>
      <trkpt lat="45.64353" lon="6.66232">
        <ele>2337.8</ele>
        <time>2022-01-01T12:02:41Z</time>
      </trkpt>
      <trkpt lat="45.64354" lon="6.66226">
        <ele>2337.8</ele>
        <time>2022-01-01T12:03:21Z</time>
      </trkpt>
      <trkpt lat="45.64356" lon="6.66218">
        <ele>2337.8</ele>
        <time>2022-01-01T12:03:25Z</time>
      </trkpt>
      <trkpt lat="45.64357" lon="6.66211">
        <ele>2337.8</ele>
        <time>2022-01-01T12:03:28Z</time>
      </trkpt>
      <trkpt lat="45.64357" lon="6.66209">
        <ele>2337.8</ele>
        <time>2022-01-01T12:03:30Z</time>
      </trkpt>
      <trkpt lat="45.64358" lon="6.66201">
        <ele>2339</ele>
        <time>2022-01-01T12:03:35Z</time>
      </trkpt>
      <trkpt lat="45.64358" lon="6.66195">
        <ele>2340</ele>
        <time>2022-01-01T12:03:40Z</time>
      </trkpt>
      <trkpt lat="45.64358" lon="6.66185">
        <ele>2341</ele>
        <time>2022-01-01T12:03:46Z</time>
      </trkpt>
      <trkpt lat="45.64358" lon="6.66184">
        <ele>2341.4</ele>
        <time>2022-01-01T12:03:47Z</time>
      </trkpt>
      <trkpt lat="45.64358" lon="6.66181">
        <ele>2342.4</ele>
        <time>2022-01-01T12:03:50Z</time>
      </trkpt>
      <trkpt lat="45.64359" lon="6.66177">
        <ele>2343.4</ele>
        <time>2022-01-01T12:03:54Z</time>
      </trkpt>
      <trkpt lat="45.64359" lon="6.66176">
        <ele>2343.6</ele>
        <time>2022-01-01T12:03:55Z</time>
      </trkpt>
      <trkpt lat="45.64359" lon="6.66171">
        <ele>2344.8</ele>
        <time>2022-01-01T12:04:00Z</time>
      </trkpt>
      <trkpt lat="45.6436" lon="6.6617">
        <ele>2345.2</ele>
        <time>2022-01-01T12:04:02Z</time>
      </trkpt>
      <trkpt lat="45.64361" lon="6.66167">
        <ele>2345.8</ele>
        <time>2022-01-01T12:04:04Z</time>
      </trkpt>
      <trkpt lat="45.64361" lon="6.66162">
        <ele>2347</ele>
        <time>2022-01-01T12:04:08Z</time>
      </trkpt>
      <trkpt lat="45.64362" lon="6.66155">
        <ele>2348</ele>
        <time>2022-01-01T12:04:13Z</time>
      </trkpt>
      <trkpt lat="45.64362" lon="6.66149">
        <ele>2349</ele>
        <time>2022-01-01T12:04:17Z</time>
      </trkpt>
      <trkpt lat="45.64362" lon="6.66148">
        <ele>2349.2</ele>
        <time>2022-01-01T12:04:18Z</time>
      </trkpt>
      <trkpt lat="45.64364" lon="6.6614">
        <ele>2350</ele>
        <time>2022-01-01T12:04:25Z</time>
      </trkpt>
      <trkpt lat="45.64366" lon="6.66141">
        <ele>2350.2</ele>
        <time>2022-01-01T12:04:27Z</time>
      </trkpt>
      <trkpt lat="45.64371" lon="6.66138">
        <ele>2350.8</ele>
        <time>2022-01-01T12:04:32Z</time>
      </trkpt>
      <trkpt lat="45.64379" lon="6.66129">
        <ele>2350.6</ele>
        <time>2022-01-01T12:04:41Z</time>
      </trkpt>
      <trkpt lat="45.64383" lon="6.66121">
        <ele>2350.4</ele>
        <time>2022-01-01T12:04:48Z</time>
      </trkpt>
      <trkpt lat="45.64385" lon="6.66119">
        <ele>2350.8</ele>
        <time>2022-01-01T12:04:50Z</time>
      </trkpt>
      <trkpt lat="45.64387" lon="6.66116">
        <ele>2351.2</ele>
        <time>2022-01-01T12:04:53Z</time>
      </trkpt>
      <trkpt lat="45.64389" lon="6.66114">
        <ele>2351.4</ele>
        <time>2022-01-01T12:04:55Z</time>
      </trkpt>
      <trkpt lat="45.6439" lon="6.66113">
        <ele>2351.4</ele>
        <time>2022-01-01T12:04:56Z</time>
      </trkpt>
      <trkpt lat="45.64391" lon="6.66111">
        <ele>2352</ele>
        <time>2022-01-01T12:04:58Z</time>
      </trkpt>
      <trkpt lat="45.64391" lon="6.6611">
        <ele>2352.2</ele>
        <time>2022-01-01T12:04:59Z</time>
      </trkpt>
      <trkpt lat="45.64391" lon="6.66107">
        <ele>2352.4</ele>
        <time>2022-01-01T12:05:01Z</time>
      </trkpt>
      <trkpt lat="45.64392" lon="6.66106">
        <ele>2352.8</ele>
        <time>2022-01-01T12:05:02Z</time>
      </trkpt>
      <trkpt lat="45.64394" lon="6.66102">
        <ele>2353.6</ele>
        <time>2022-01-01T12:05:05Z</time>
      </trkpt>
      <trkpt lat="45.64394" lon="6.66094">
        <ele>2354.6</ele>
        <time>2022-01-01T12:05:11Z</time>
      </trkpt>
      <trkpt lat="45.64394" lon="6.66092">
        <ele>2355.4</ele>
        <time>2022-01-01T12:05:12Z</time>
      </trkpt>
      <trkpt lat="45.64395" lon="6.66091">
        <ele>2355.8</ele>
        <time>2022-01-01T12:05:13Z</time>
      </trkpt>
      <trkpt lat="45.64397" lon="6.66081">
        <ele>2356</ele>
        <time>2022-01-01T12:05:19Z</time>
      </trkpt>
      <trkpt lat="45.644" lon="6.66073">
        <ele>2357</ele>
        <time>2022-01-01T12:05:25Z</time>
      </trkpt>
      <trkpt lat="45.644" lon="6.66072">
        <ele>2357</ele>
        <time>2022-01-01T12:05:26Z</time>
      </trkpt>
      <trkpt lat="45.64401" lon="6.66068">
        <ele>2358</ele>
        <time>2022-01-01T12:05:30Z</time>
      </trkpt>
      <trkpt lat="45.64401" lon="6.66065">
        <ele>2358.8</ele>
        <time>2022-01-01T12:05:34Z</time>
      </trkpt>
      <trkpt lat="45.644" lon="6.66062">
        <ele>2359.4</ele>
        <time>2022-01-01T12:05:36Z</time>
      </trkpt>
      <trkpt lat="45.64401" lon="6.66059">
        <ele>2360.4</ele>
        <time>2022-01-01T12:05:39Z</time>
      </trkpt>
      <trkpt lat="45.64401" lon="6.66057">
        <ele>2360.6</ele>
        <time>2022-01-01T12:05:40Z</time>
      </trkpt>
      <trkpt lat="45.64401" lon="6.66051">
        <ele>2361.4</ele>
        <time>2022-01-01T12:05:43Z</time>
      </trkpt>
      <trkpt lat="45.64403" lon="6.66044">
        <ele>2362.4</ele>
        <time>2022-01-01T12:05:48Z</time>
      </trkpt>
      <trkpt lat="45.64403" lon="6.66043">
        <ele>2362.4</ele>
        <time>2022-01-01T12:05:49Z</time>
      </trkpt>
      <trkpt lat="45.64403" lon="6.66042">
        <ele>2363</ele>
        <time>2022-01-01T12:05:50Z</time>
      </trkpt>
      <trkpt lat="45.64405" lon="6.6604">
        <ele>2363.8</ele>
        <time>2022-01-01T12:05:53Z</time>
      </trkpt>
      <trkpt lat="45.64405" lon="6.66039">
        <ele>2364</ele>
        <time>2022-01-01T12:05:54Z</time>
      </trkpt>
      <trkpt lat="45.64406" lon="6.66035">
        <ele>2364.8</ele>
        <time>2022-01-01T12:05:57Z</time>
      </trkpt>
      <trkpt lat="45.64407" lon="6.66029">
        <ele>2366</ele>
        <time>2022-01-01T12:06:03Z</time>
      </trkpt>
      <trkpt lat="45.64407" lon="6.66026">
        <ele>2367</ele>
        <time>2022-01-01T12:06:06Z</time>
      </trkpt>
      <trkpt lat="45.6441" lon="6.66024">
        <ele>2368</ele>
        <time>2022-01-01T12:06:09Z</time>
      </trkpt>
      <trkpt lat="45.64412" lon="6.66021">
        <ele>2369</ele>
        <time>2022-01-01T12:06:14Z</time>
      </trkpt>
      <trkpt lat="45.64414" lon="6.66018">
        <ele>2369.6</ele>
        <time>2022-01-01T12:06:17Z</time>
      </trkpt>
      <trkpt lat="45.64415" lon="6.66016">
        <ele>2370</ele>
        <time>2022-01-01T12:06:19Z</time>
      </trkpt>
      <trkpt lat="45.64416" lon="6.66014">
        <ele>2370.4</ele>
        <time>2022-01-01T12:06:21Z</time>
      </trkpt>
      <trkpt lat="45.64418" lon="6.66012">
        <ele>2370.8</ele>
        <time>2022-01-01T12:06:24Z</time>
      </trkpt>
      <trkpt lat="45.64419" lon="6.66009">
        <ele>2371.2</ele>
        <time>2022-01-01T12:06:26Z</time>
      </trkpt>
      <trkpt lat="45.64422" lon="6.66002">
        <ele>2372</ele>
        <time>2022-01-01T12:06:33Z</time>
      </trkpt>
      <trkpt lat="45.64422" lon="6.66001">
        <ele>2372.2</ele>
        <time>2022-01-01T12:06:34Z</time>
      </trkpt>
      <trkpt lat="45.64425" lon="6.65995">
        <ele>2373.4</ele>
        <time>2022-01-01T12:06:40Z</time>
      </trkpt>
      <trkpt lat="45.64428" lon="6.65987">
        <ele>2374.4</ele>
        <time>2022-01-01T12:06:48Z</time>
      </trkpt>
      <trkpt lat="45.64429" lon="6.65986">
        <ele>2374.8</ele>
        <time>2022-01-01T12:06:50Z</time>
      </trkpt>
      <trkpt lat="45.6443" lon="6.65988">
        <ele>2374.8</ele>
        <time>2022-01-01T12:07:04Z</time>
      </trkpt>
      <trkpt lat="45.64433" lon="6.65982">
        <ele>2375.4</ele>
        <time>2022-01-01T12:07:15Z</time>
      </trkpt>
      <trkpt lat="45.64433" lon="6.65981">
        <ele>2375.6</ele>
        <time>2022-01-01T12:07:16Z</time>
      </trkpt>
      <trkpt lat="45.6444" lon="6.65969">
        <ele>2376.6</ele>
        <time>2022-01-01T12:07:25Z</time>
      </trkpt>
      <trkpt lat="45.64442" lon="6.65965">
        <ele>2377.2</ele>
        <time>2022-01-01T12:07:28Z</time>
      </trkpt>
      <trkpt lat="45.64445" lon="6.6596">
        <ele>2377.6</ele>
        <time>2022-01-01T12:07:32Z</time>
      </trkpt>
      <trkpt lat="45.64447" lon="6.65954">
        <ele>2378.2</ele>
        <time>2022-01-01T12:07:37Z</time>
      </trkpt>
      <trkpt lat="45.64447" lon="6.65951">
        <ele>2378.8</ele>
        <time>2022-01-01T12:07:39Z</time>
      </trkpt>
      <trkpt lat="45.64449" lon="6.65944">
        <ele>2379.8</ele>
        <time>2022-01-01T12:07:44Z</time>
      </trkpt>
      <trkpt lat="45.6445" lon="6.6594">
        <ele>2380.6</ele>
        <time>2022-01-01T12:07:48Z</time>
      </trkpt>
      <trkpt lat="45.64451" lon="6.65938">
        <ele>2381</ele>
        <time>2022-01-01T12:07:50Z</time>
      </trkpt>
      <trkpt lat="45.64452" lon="6.65933">
        <ele>2382</ele>
        <time>2022-01-01T12:07:54Z</time>
      </trkpt>
      <trkpt lat="45.64454" lon="6.65929">
        <ele>2382.2</ele>
        <time>2022-01-01T12:07:56Z</time>
      </trkpt>
      <trkpt lat="45.64456" lon="6.65921">
        <ele>2383.2</ele>
        <time>2022-01-01T12:08:01Z</time>
      </trkpt>
      <trkpt lat="45.64457" lon="6.65915">
        <ele>2383.8</ele>
        <time>2022-01-01T12:08:05Z</time>
      </trkpt>
      <trkpt lat="45.64457" lon="6.65914">
        <ele>2384.2</ele>
        <time>2022-01-01T12:08:06Z</time>
      </trkpt>
      <trkpt lat="45.64457" lon="6.65913">
        <ele>2384.4</ele>
        <time>2022-01-01T12:08:07Z</time>
      </trkpt>
      <trkpt lat="45.64458" lon="6.65909">
        <ele>2385.4</ele>
        <time>2022-01-01T12:08:11Z</time>
      </trkpt>
      <trkpt lat="45.64458" lon="6.65907">
        <ele>2385.6</ele>
        <time>2022-01-01T12:08:12Z</time>
      </trkpt>
      <trkpt lat="45.64457" lon="6.65904">
        <ele>2385.8</ele>
        <time>2022-01-01T12:08:15Z</time>
      </trkpt>
      <trkpt lat="45.64457" lon="6.65902">
        <ele>2386.2</ele>
        <time>2022-01-01T12:08:17Z</time>
      </trkpt>
      <trkpt lat="45.64458" lon="6.65898">
        <ele>2386.8</ele>
        <time>2022-01-01T12:08:20Z</time>
      </trkpt>
      <trkpt lat="45.6446" lon="6.65894">
        <ele>2387.4</ele>
        <time>2022-01-01T12:08:24Z</time>
      </trkpt>
      <trkpt lat="45.64461" lon="6.65893">
        <ele>2388</ele>
        <time>2022-01-01T12:08:26Z</time>
      </trkpt>
      <trkpt lat="45.64463" lon="6.65889">
        <ele>2389</ele>
        <time>2022-01-01T12:08:30Z</time>
      </trkpt>
      <trkpt lat="45.64464" lon="6.65885">
        <ele>2389.6</ele>
        <time>2022-01-01T12:08:33Z</time>
      </trkpt>
      <trkpt lat="45.64465" lon="6.65884">
        <ele>2389.8</ele>
        <time>2022-01-01T12:08:34Z</time>
      </trkpt>
      <trkpt lat="45.64466" lon="6.65881">
        <ele>2390</ele>
        <time>2022-01-01T12:08:36Z</time>
      </trkpt>
      <trkpt lat="45.64467" lon="6.6588">
        <ele>2390.6</ele>
        <time>2022-01-01T12:08:39Z</time>
      </trkpt>
      <trkpt lat="45.64468" lon="6.65877">
        <ele>2391.4</ele>
        <time>2022-01-01T12:08:41Z</time>
      </trkpt>
      <trkpt lat="45.6447" lon="6.6587">
        <ele>2392.4</ele>
        <time>2022-01-01T12:08:47Z</time>
      </trkpt>
      <trkpt lat="45.64471" lon="6.65869">
        <ele>2392.8</ele>
        <time>2022-01-01T12:08:48Z</time>
      </trkpt>
      <trkpt lat="45.64472" lon="6.65868">
        <ele>2393.6</ele>
        <time>2022-01-01T12:08:51Z</time>
      </trkpt>
      <trkpt lat="45.64473" lon="6.65865">
        <ele>2394.2</ele>
        <time>2022-01-01T12:08:54Z</time>
      </trkpt>
      <trkpt lat="45.64473" lon="6.65863">
        <ele>2394.8</ele>
        <time>2022-01-01T12:08:56Z</time>
      </trkpt>
      <trkpt lat="45.64471" lon="6.65859">
        <ele>2396</ele>
        <time>2022-01-01T12:09:00Z</time>
      </trkpt>
      <trkpt lat="45.6447" lon="6.65855">
        <ele>2397</ele>
        <time>2022-01-01T12:09:05Z</time>
      </trkpt>
      <trkpt lat="45.64469" lon="6.65854">
        <ele>2397.4</ele>
        <time>2022-01-01T12:09:06Z</time>
      </trkpt>
      <trkpt lat="45.64469" lon="6.65849">
        <ele>2398.2</ele>
        <time>2022-01-01T12:09:10Z</time>
      </trkpt>
      <trkpt lat="45.64469" lon="6.65847">
        <ele>2399</ele>
        <time>2022-01-01T12:09:13Z</time>
      </trkpt>
      <trkpt lat="45.64469" lon="6.65845">
        <ele>2399.6</ele>
        <time>2022-01-01T12:09:15Z</time>
      </trkpt>
      <trkpt lat="45.64467" lon="6.65841">
        <ele>2400.4</ele>
        <time>2022-01-01T12:09:19Z</time>
      </trkpt>
      <trkpt lat="45.64467" lon="6.6584">
        <ele>2400.8</ele>
        <time>2022-01-01T12:09:21Z</time>
      </trkpt>
      <trkpt lat="45.64466" lon="6.65838">
        <ele>2401.4</ele>
        <time>2022-01-01T12:09:24Z</time>
      </trkpt>
      <trkpt lat="45.64467" lon="6.6584">
        <ele>2402</ele>
        <time>2022-01-01T12:09:28Z</time>
      </trkpt>
      <trkpt lat="45.64468" lon="6.6584">
        <ele>2402.2</ele>
        <time>2022-01-01T12:09:32Z</time>
      </trkpt>
      <trkpt lat="45.64471" lon="6.6584">
        <ele>2403.4</ele>
        <time>2022-01-01T12:09:44Z</time>
      </trkpt>
      <trkpt lat="45.64473" lon="6.65839">
        <ele>2403.8</ele>
        <time>2022-01-01T12:09:46Z</time>
      </trkpt>
      <trkpt lat="45.64475" lon="6.6584">
        <ele>2404.4</ele>
        <time>2022-01-01T12:09:49Z</time>
      </trkpt>
      <trkpt lat="45.64476" lon="6.65842">
        <ele>2405</ele>
        <time>2022-01-01T12:09:51Z</time>
      </trkpt>
      <trkpt lat="45.64477" lon="6.65841">
        <ele>2405.6</ele>
        <time>2022-01-01T12:09:54Z</time>
      </trkpt>
      <trkpt lat="45.64479" lon="6.65841">
        <ele>2406.6</ele>
        <time>2022-01-01T12:09:57Z</time>
      </trkpt>
      <trkpt lat="45.64481" lon="6.65841">
        <ele>2407.2</ele>
        <time>2022-01-01T12:09:59Z</time>
      </trkpt>
      <trkpt lat="45.64484" lon="6.6584">
        <ele>2408</ele>
        <time>2022-01-01T12:10:03Z</time>
      </trkpt>
      <trkpt lat="45.64487" lon="6.6584">
        <ele>2408.8</ele>
        <time>2022-01-01T12:10:07Z</time>
      </trkpt>
      <trkpt lat="45.64487" lon="6.6584">
        <ele>2409</ele>
        <time>2022-01-01T12:10:08Z</time>
      </trkpt>
      <trkpt lat="45.64485" lon="6.65837">
        <ele>2410.2</ele>
        <time>2022-01-01T12:10:17Z</time>
      </trkpt>
      <trkpt lat="45.64483" lon="6.65832">
        <ele>2411</ele>
        <time>2022-01-01T12:10:22Z</time>
      </trkpt>
      <trkpt lat="45.64483" lon="6.65831">
        <ele>2411.4</ele>
        <time>2022-01-01T12:10:23Z</time>
      </trkpt>
      <trkpt lat="45.64482" lon="6.65826">
        <ele>2412.6</ele>
        <time>2022-01-01T12:10:28Z</time>
      </trkpt>
      <trkpt lat="45.64482" lon="6.65825">
        <ele>2413</ele>
        <time>2022-01-01T12:10:29Z</time>
      </trkpt>
      <trkpt lat="45.64481" lon="6.65822">
        <ele>2413.6</ele>
        <time>2022-01-01T12:10:31Z</time>
      </trkpt>
      <trkpt lat="45.6448" lon="6.65818">
        <ele>2414.6</ele>
        <time>2022-01-01T12:10:35Z</time>
      </trkpt>
      <trkpt lat="45.64479" lon="6.65817">
        <ele>2414.6</ele>
        <time>2022-01-01T12:10:36Z</time>
      </trkpt>
      <trkpt lat="45.64477" lon="6.65816">
        <ele>2415.6</ele>
        <time>2022-01-01T12:10:39Z</time>
      </trkpt>
      <trkpt lat="45.64476" lon="6.65813">
        <ele>2415.8</ele>
        <time>2022-01-01T12:10:41Z</time>
      </trkpt>
      <trkpt lat="45.64475" lon="6.6581">
        <ele>2416.6</ele>
        <time>2022-01-01T12:10:46Z</time>
      </trkpt>
      <trkpt lat="45.64475" lon="6.65809">
        <ele>2417</ele>
        <time>2022-01-01T12:10:49Z</time>
      </trkpt>
      <trkpt lat="45.64478" lon="6.65809">
        <ele>2417.2</ele>
        <time>2022-01-01T12:10:56Z</time>
      </trkpt>
      <trkpt lat="45.64481" lon="6.65809">
        <ele>2418</ele>
        <time>2022-01-01T12:11:01Z</time>
      </trkpt>
      <trkpt lat="45.64484" lon="6.65808">
        <ele>2418.6</ele>
        <time>2022-01-01T12:11:05Z</time>
      </trkpt>
      <trkpt lat="45.64485" lon="6.65808">
        <ele>2419</ele>
        <time>2022-01-01T12:11:07Z</time>
      </trkpt>
      <trkpt lat="45.64488" lon="6.65808">
        <ele>2420</ele>
        <time>2022-01-01T12:11:11Z</time>
      </trkpt>
      <trkpt lat="45.64492" lon="6.65809">
        <ele>2420.8</ele>
        <time>2022-01-01T12:11:15Z</time>
      </trkpt>
      <trkpt lat="45.64492" lon="6.65809">
        <ele>2421.2</ele>
        <time>2022-01-01T12:11:16Z</time>
      </trkpt>
      <trkpt lat="45.64495" lon="6.65809">
        <ele>2422.4</ele>
        <time>2022-01-01T12:11:22Z</time>
      </trkpt>
      <trkpt lat="45.64496" lon="6.65809">
        <ele>2422.8</ele>
        <time>2022-01-01T12:11:23Z</time>
      </trkpt>
      <trkpt lat="45.64498" lon="6.6581">
        <ele>2423.6</ele>
        <time>2022-01-01T12:11:25Z</time>
      </trkpt>
      <trkpt lat="45.64502" lon="6.65811">
        <ele>2424.6</ele>
        <time>2022-01-01T12:11:30Z</time>
      </trkpt>
      <trkpt lat="45.64504" lon="6.65812">
        <ele>2425.2</ele>
        <time>2022-01-01T12:11:32Z</time>
      </trkpt>
      <trkpt lat="45.64507" lon="6.65812">
        <ele>2425.8</ele>
        <time>2022-01-01T12:11:34Z</time>
      </trkpt>
      <trkpt lat="45.6451" lon="6.65813">
        <ele>2427</ele>
        <time>2022-01-01T12:11:38Z</time>
      </trkpt>
      <trkpt lat="45.64512" lon="6.65814">
        <ele>2427.8</ele>
        <time>2022-01-01T12:11:41Z</time>
      </trkpt>
      <trkpt lat="45.64514" lon="6.65814">
        <ele>2428</ele>
        <time>2022-01-01T12:11:44Z</time>
      </trkpt>
      <trkpt lat="45.64517" lon="6.65814">
        <ele>2429.2</ele>
        <time>2022-01-01T12:11:48Z</time>
      </trkpt>
      <trkpt lat="45.64518" lon="6.65813">
        <ele>2429.4</ele>
        <time>2022-01-01T12:11:50Z</time>
      </trkpt>
      <trkpt lat="45.64518" lon="6.65812">
        <ele>2429.8</ele>
        <time>2022-01-01T12:11:51Z</time>
      </trkpt>
      <trkpt lat="45.64518" lon="6.65811">
        <ele>2430.2</ele>
        <time>2022-01-01T12:11:52Z</time>
      </trkpt>
      <trkpt lat="45.64519" lon="6.65807">
        <ele>2431.2</ele>
        <time>2022-01-01T12:11:57Z</time>
      </trkpt>
      <trkpt lat="45.64519" lon="6.65806">
        <ele>2431.4</ele>
        <time>2022-01-01T12:11:58Z</time>
      </trkpt>
      <trkpt lat="45.64517" lon="6.658">
        <ele>2432.4</ele>
        <time>2022-01-01T12:12:04Z</time>
      </trkpt>
      <trkpt lat="45.64516" lon="6.65798">
        <ele>2432.8</ele>
        <time>2022-01-01T12:12:06Z</time>
      </trkpt>
      <trkpt lat="45.64515" lon="6.65794">
        <ele>2433.8</ele>
        <time>2022-01-01T12:12:11Z</time>
      </trkpt>
      <trkpt lat="45.64513" lon="6.65792">
        <ele>2434.4</ele>
        <time>2022-01-01T12:12:13Z</time>
      </trkpt>
      <trkpt lat="45.64513" lon="6.65791">
        <ele>2434.6</ele>
        <time>2022-01-01T12:12:14Z</time>
      </trkpt>
      <trkpt lat="45.64513" lon="6.65791">
        <ele>2435</ele>
        <time>2022-01-01T12:12:15Z</time>
      </trkpt>
      <trkpt lat="45.64511" lon="6.65787">
        <ele>2436.2</ele>
        <time>2022-01-01T12:12:19Z</time>
      </trkpt>
      <trkpt lat="45.64511" lon="6.65783">
        <ele>2437.6</ele>
        <time>2022-01-01T12:12:24Z</time>
      </trkpt>
      <trkpt lat="45.64511" lon="6.65783">
        <ele>2437.8</ele>
        <time>2022-01-01T12:12:25Z</time>
      </trkpt>
      <trkpt lat="45.64513" lon="6.65783">
        <ele>2438</ele>
        <time>2022-01-01T12:12:35Z</time>
      </trkpt>
      <trkpt lat="45.64513" lon="6.65783">
        <ele>2438.8</ele>
        <time>2022-01-01T12:12:47Z</time>
      </trkpt>
      <trkpt lat="45.64518" lon="6.65783">
        <ele>2439.4</ele>
        <time>2022-01-01T12:12:52Z</time>
      </trkpt>
      <trkpt lat="45.64519" lon="6.65783">
        <ele>2439.8</ele>
        <time>2022-01-01T12:12:53Z</time>
      </trkpt>
      <trkpt lat="45.64523" lon="6.65783">
        <ele>2440.8</ele>
        <time>2022-01-01T12:12:57Z</time>
      </trkpt>
      <trkpt lat="45.64526" lon="6.6578">
        <ele>2441.4</ele>
        <time>2022-01-01T12:13:01Z</time>
      </trkpt>
      <trkpt lat="45.64527" lon="6.65779">
        <ele>2442</ele>
        <time>2022-01-01T12:13:03Z</time>
      </trkpt>
      <trkpt lat="45.64529" lon="6.65777">
        <ele>2443</ele>
        <time>2022-01-01T12:13:07Z</time>
      </trkpt>
      <trkpt lat="45.64532" lon="6.65775">
        <ele>2444.2</ele>
        <time>2022-01-01T12:13:11Z</time>
      </trkpt>
      <trkpt lat="45.64534" lon="6.65776">
        <ele>2444.8</ele>
        <time>2022-01-01T12:13:13Z</time>
      </trkpt>
      <trkpt lat="45.64535" lon="6.65776">
        <ele>2445</ele>
        <time>2022-01-01T12:13:14Z</time>
      </trkpt>
      <trkpt lat="45.64536" lon="6.65775">
        <ele>2445.2</ele>
        <time>2022-01-01T12:13:17Z</time>
      </trkpt>
      <trkpt lat="45.64536" lon="6.65775">
        <ele>2445.4</ele>
        <time>2022-01-01T12:13:18Z</time>
      </trkpt>
      <trkpt lat="45.64538" lon="6.65775">
        <ele>2446.2</ele>
        <time>2022-01-01T12:13:20Z</time>
      </trkpt>
      <trkpt lat="45.64541" lon="6.65774">
        <ele>2447.6</ele>
        <time>2022-01-01T12:13:24Z</time>
      </trkpt>
      <trkpt lat="45.64546" lon="6.65774">
        <ele>2448.6</ele>
        <time>2022-01-01T12:13:29Z</time>
      </trkpt>
      <trkpt lat="45.64546" lon="6.65774">
        <ele>2449.6</ele>
        <time>2022-01-01T12:13:33Z</time>
      </trkpt>
      <trkpt lat="45.64547" lon="6.65774">
        <ele>2450</ele>
        <time>2022-01-01T12:13:37Z</time>
      </trkpt>
      <trkpt lat="45.64541" lon="6.65774">
        <ele>2450.2</ele>
        <time>2022-01-01T12:13:44Z</time>
      </trkpt>
      <trkpt lat="45.6454" lon="6.65773">
        <ele>2450.4</ele>
        <time>2022-01-01T12:13:45Z</time>
      </trkpt>
      <trkpt lat="45.64532" lon="6.65768">
        <ele>2450.6</ele>
        <time>2022-01-01T12:13:53Z</time>
      </trkpt>
      <trkpt lat="45.64529" lon="6.65766">
        <ele>2450.8</ele>
        <time>2022-01-01T12:13:57Z</time>
      </trkpt>
      <trkpt lat="45.64528" lon="6.65763">
        <ele>2451</ele>
        <time>2022-01-01T12:13:59Z</time>
      </trkpt>
      <trkpt lat="45.64523" lon="6.65756">
        <ele>2452</ele>
        <time>2022-01-01T12:14:07Z</time>
      </trkpt>
      <trkpt lat="45.64522" lon="6.65755">
        <ele>2452.4</ele>
        <time>2022-01-01T12:14:09Z</time>
      </trkpt>
      <trkpt lat="45.64521" lon="6.65752">
        <ele>2453.2</ele>
        <time>2022-01-01T12:14:12Z</time>
      </trkpt>
      <trkpt lat="45.6452" lon="6.6575">
        <ele>2453.6</ele>
        <time>2022-01-01T12:14:14Z</time>
      </trkpt>
      <trkpt lat="45.64518" lon="6.65748">
        <ele>2454.2</ele>
        <time>2022-01-01T12:14:17Z</time>
      </trkpt>
      <trkpt lat="45.64517" lon="6.65747">
        <ele>2454.6</ele>
        <time>2022-01-01T12:14:20Z</time>
      </trkpt>
      <trkpt lat="45.64516" lon="6.6574">
        <ele>2455.4</ele>
        <time>2022-01-01T12:14:26Z</time>
      </trkpt>
      <trkpt lat="45.64516" lon="6.65739">
        <ele>2455.6</ele>
        <time>2022-01-01T12:14:27Z</time>
      </trkpt>
      <trkpt lat="45.64514" lon="6.65738">
        <ele>2456.4</ele>
        <time>2022-01-01T12:14:31Z</time>
      </trkpt>
      <trkpt lat="45.64513" lon="6.65736">
        <ele>2457</ele>
        <time>2022-01-01T12:14:33Z</time>
      </trkpt>
      <trkpt lat="45.64512" lon="6.65733">
        <ele>2457.6</ele>
        <time>2022-01-01T12:14:36Z</time>
      </trkpt>
      <trkpt lat="45.64511" lon="6.65729">
        <ele>2458.4</ele>
        <time>2022-01-01T12:14:39Z</time>
      </trkpt>
      <trkpt lat="45.6451" lon="6.65728">
        <ele>2458.8</ele>
        <time>2022-01-01T12:14:40Z</time>
      </trkpt>
      <trkpt lat="45.64509" lon="6.65725">
        <ele>2459.6</ele>
        <time>2022-01-01T12:14:43Z</time>
      </trkpt>
      <trkpt lat="45.64509" lon="6.65724">
        <ele>2459.8</ele>
        <time>2022-01-01T12:14:44Z</time>
      </trkpt>
      <trkpt lat="45.64507" lon="6.6572">
        <ele>2460.8</ele>
        <time>2022-01-01T12:14:48Z</time>
      </trkpt>
      <trkpt lat="45.64506" lon="6.65717">
        <ele>2461.2</ele>
        <time>2022-01-01T12:14:51Z</time>
      </trkpt>
      <trkpt lat="45.64507" lon="6.65716">
        <ele>2461.2</ele>
        <time>2022-01-01T12:14:53Z</time>
      </trkpt>
      <trkpt lat="45.64511" lon="6.65719">
        <ele>2462</ele>
        <time>2022-01-01T12:14:58Z</time>
      </trkpt>
      <trkpt lat="45.64515" lon="6.6572">
        <ele>2463</ele>
        <time>2022-01-01T12:15:03Z</time>
      </trkpt>
      <trkpt lat="45.64516" lon="6.65723">
        <ele>2463.6</ele>
        <time>2022-01-01T12:15:05Z</time>
      </trkpt>
      <trkpt lat="45.64518" lon="6.65721">
        <ele>2464.4</ele>
        <time>2022-01-01T12:15:08Z</time>
      </trkpt>
      <trkpt lat="45.64517" lon="6.6572">
        <ele>2465.4</ele>
        <time>2022-01-01T12:15:12Z</time>
      </trkpt>
      <trkpt lat="45.64516" lon="6.65718">
        <ele>2466.6</ele>
        <time>2022-01-01T12:15:16Z</time>
      </trkpt>
      <trkpt lat="45.64515" lon="6.65715">
        <ele>2467.2</ele>
        <time>2022-01-01T12:15:19Z</time>
      </trkpt>
      <trkpt lat="45.64509" lon="6.65709">
        <ele>2467.4</ele>
        <time>2022-01-01T12:15:25Z</time>
      </trkpt>
      <trkpt lat="45.64506" lon="6.65703">
        <ele>2467.4</ele>
        <time>2022-01-01T12:15:30Z</time>
      </trkpt>
      <trkpt lat="45.64506" lon="6.65701">
        <ele>2467.4</ele>
        <time>2022-01-01T12:15:32Z</time>
      </trkpt>
      <trkpt lat="45.64502" lon="6.6569">
        <ele>2467.6</ele>
        <time>2022-01-01T12:15:41Z</time>
      </trkpt>
      <trkpt lat="45.645" lon="6.65687">
        <ele>2467.8</ele>
        <time>2022-01-01T12:15:48Z</time>
      </trkpt>
      <trkpt lat="45.64501" lon="6.65687">
        <ele>2468</ele>
        <time>2022-01-01T12:16:07Z</time>
      </trkpt>
      <trkpt lat="45.64501" lon="6.65687">
        <ele>2468</ele>
        <time>2022-01-01T12:16:09Z</time>
      </trkpt>
      <trkpt lat="45.64502" lon="6.65687">
        <ele>2468.6</ele>
        <time>2022-01-01T12:16:30Z</time>
      </trkpt>
      <trkpt lat="45.64502" lon="6.65686">
        <ele>2468.8</ele>
        <time>2022-01-01T12:16:41Z</time>
      </trkpt>
      <trkpt lat="45.64502" lon="6.65686">
        <ele>2468.4</ele>
        <time>2022-01-01T12:16:52Z</time>
      </trkpt>
      <trkpt lat="45.64496" lon="6.65687">
        <ele>2468.8</ele>
        <time>2022-01-01T12:17:01Z</time>
      </trkpt>
      <trkpt lat="45.6449" lon="6.65688">
        <ele>2469.8</ele>
        <time>2022-01-01T12:17:07Z</time>
      </trkpt>
      <trkpt lat="45.64492" lon="6.65689">
        <ele>2470.4</ele>
        <time>2022-01-01T12:17:10Z</time>
      </trkpt>
      <trkpt lat="45.64491" lon="6.65689">
        <ele>2470.6</ele>
        <time>2022-01-01T12:17:14Z</time>
      </trkpt>
      <trkpt lat="45.64491" lon="6.65689">
        <ele>2470.6</ele>
        <time>2022-01-01T12:17:18Z</time>
      </trkpt>
      <trkpt lat="45.64491" lon="6.65688">
        <ele>2470.2</ele>
        <time>2022-01-01T12:17:40Z</time>
      </trkpt>
      <trkpt lat="45.6449" lon="6.65688">
        <ele>2470.8</ele>
        <time>2022-01-01T12:18:00Z</time>
      </trkpt>
      <trkpt lat="45.6449" lon="6.65688">
        <ele>2471</ele>
        <time>2022-01-01T12:18:02Z</time>
      </trkpt>
      <trkpt lat="45.64489" lon="6.65688">
        <ele>2470.2</ele>
        <time>2022-01-01T12:18:29Z</time>
      </trkpt>
      <trkpt lat="45.64488" lon="6.65687">
        <ele>2469.8</ele>
        <time>2022-01-01T12:18:49Z</time>
      </trkpt>
      <trkpt lat="45.64488" lon="6.65686">
        <ele>2469.2</ele>
        <time>2022-01-01T12:18:55Z</time>
      </trkpt>
      <trkpt lat="45.64488" lon="6.65685">
        <ele>2470.8</ele>
        <time>2022-01-01T12:19:08Z</time>
      </trkpt>
      <trkpt lat="45.64492" lon="6.6569">
        <ele>2471</ele>
        <time>2022-01-01T12:20:28Z</time>
      </trkpt>
      <trkpt lat="45.64496" lon="6.65698">
        <ele>2471</ele>
        <time>2022-01-01T12:20:48Z</time>
      </trkpt>
      <trkpt lat="45.645" lon="6.65708">
        <ele>2471</ele>
        <time>2022-01-01T12:20:50Z</time>
      </trkpt>
      <trkpt lat="45.64499" lon="6.65713">
        <ele>2471</ele>
        <time>2022-01-01T12:20:51Z</time>
      </trkpt>
      <trkpt lat="45.64494" lon="6.65717">
        <ele>2470.2</ele>
        <time>2022-01-01T12:20:53Z</time>
      </trkpt>
      <trkpt lat="45.64492" lon="6.65718">
        <ele>2469.6</ele>
        <time>2022-01-01T12:20:54Z</time>
      </trkpt>
      <trkpt lat="45.64489" lon="6.65719">
        <ele>2468</ele>
        <time>2022-01-01T12:20:56Z</time>
      </trkpt>
      <trkpt lat="45.64488" lon="6.65723">
        <ele>2467.4</ele>
        <time>2022-01-01T12:20:58Z</time>
      </trkpt>
      <trkpt lat="45.6449" lon="6.65727">
        <ele>2467</ele>
        <time>2022-01-01T12:20:59Z</time>
      </trkpt>
      <trkpt lat="45.64493" lon="6.65733">
        <ele>2466</ele>
        <time>2022-01-01T12:21:00Z</time>
      </trkpt>
      <trkpt lat="45.64491" lon="6.65739">
        <ele>2464.4</ele>
        <time>2022-01-01T12:21:01Z</time>
      </trkpt>
      <trkpt lat="45.64487" lon="6.65743">
        <ele>2462.4</ele>
        <time>2022-01-01T12:21:02Z</time>
      </trkpt>
      <trkpt lat="45.64484" lon="6.65745">
        <ele>2459.4</ele>
        <time>2022-01-01T12:21:03Z</time>
      </trkpt>
      <trkpt lat="45.64482" lon="6.65749">
        <ele>2457.2</ele>
        <time>2022-01-01T12:21:04Z</time>
      </trkpt>
      <trkpt lat="45.64481" lon="6.65754">
        <ele>2455.8</ele>
        <time>2022-01-01T12:21:05Z</time>
      </trkpt>
      <trkpt lat="45.64484" lon="6.65759">
        <ele>2453.6</ele>
        <time>2022-01-01T12:21:06Z</time>
      </trkpt>
      <trkpt lat="45.64485" lon="6.65765">
        <ele>2451.8</ele>
        <time>2022-01-01T12:21:07Z</time>
      </trkpt>
      <trkpt lat="45.64483" lon="6.6577">
        <ele>2450.8</ele>
        <time>2022-01-01T12:21:08Z</time>
      </trkpt>
      <trkpt lat="45.6448" lon="6.65774">
        <ele>2449.2</ele>
        <time>2022-01-01T12:21:09Z</time>
      </trkpt>
      <trkpt lat="45.64476" lon="6.65778">
        <ele>2446.2</ele>
        <time>2022-01-01T12:21:10Z</time>
      </trkpt>
      <trkpt lat="45.64476" lon="6.65782">
        <ele>2443.4</ele>
        <time>2022-01-01T12:21:11Z</time>
      </trkpt>
      <trkpt lat="45.64477" lon="6.65788">
        <ele>2441.6</ele>
        <time>2022-01-01T12:21:12Z</time>
      </trkpt>
      <trkpt lat="45.64476" lon="6.65793">
        <ele>2439.2</ele>
        <time>2022-01-01T12:21:13Z</time>
      </trkpt>
      <trkpt lat="45.64473" lon="6.65797">
        <ele>2436.6</ele>
        <time>2022-01-01T12:21:14Z</time>
      </trkpt>
      <trkpt lat="45.64469" lon="6.65798">
        <ele>2435.2</ele>
        <time>2022-01-01T12:21:15Z</time>
      </trkpt>
      <trkpt lat="45.64465" lon="6.65796">
        <ele>2432.8</ele>
        <time>2022-01-01T12:21:16Z</time>
      </trkpt>
      <trkpt lat="45.64462" lon="6.65794">
        <ele>2431.2</ele>
        <time>2022-01-01T12:21:17Z</time>
      </trkpt>
      <trkpt lat="45.64459" lon="6.65793">
        <ele>2430.2</ele>
        <time>2022-01-01T12:21:18Z</time>
      </trkpt>
      <trkpt lat="45.64456" lon="6.65792">
        <ele>2429.4</ele>
        <time>2022-01-01T12:21:19Z</time>
      </trkpt>
      <trkpt lat="45.64454" lon="6.65794">
        <ele>2428.6</ele>
        <time>2022-01-01T12:21:20Z</time>
      </trkpt>
      <trkpt lat="45.64455" lon="6.65802">
        <ele>2426.6</ele>
        <time>2022-01-01T12:21:22Z</time>
      </trkpt>
      <trkpt lat="45.64459" lon="6.65813">
        <ele>2424.8</ele>
        <time>2022-01-01T12:21:24Z</time>
      </trkpt>
      <trkpt lat="45.64458" lon="6.65818">
        <ele>2423.8</ele>
        <time>2022-01-01T12:21:25Z</time>
      </trkpt>
      <trkpt lat="45.64455" lon="6.65822">
        <ele>2421.8</ele>
        <time>2022-01-01T12:21:26Z</time>
      </trkpt>
      <trkpt lat="45.64453" lon="6.65823">
        <ele>2420</ele>
        <time>2022-01-01T12:21:27Z</time>
      </trkpt>
      <trkpt lat="45.64449" lon="6.65823">
        <ele>2417.8</ele>
        <time>2022-01-01T12:21:28Z</time>
      </trkpt>
      <trkpt lat="45.64446" lon="6.65823">
        <ele>2416.6</ele>
        <time>2022-01-01T12:21:29Z</time>
      </trkpt>
      <trkpt lat="45.64442" lon="6.65824">
        <ele>2415.6</ele>
        <time>2022-01-01T12:21:30Z</time>
      </trkpt>
      <trkpt lat="45.64435" lon="6.65827">
        <ele>2414.4</ele>
        <time>2022-01-01T12:21:32Z</time>
      </trkpt>
      <trkpt lat="45.64427" lon="6.65834">
        <ele>2413.4</ele>
        <time>2022-01-01T12:21:34Z</time>
      </trkpt>
      <trkpt lat="45.64425" lon="6.65838">
        <ele>2413.2</ele>
        <time>2022-01-01T12:21:35Z</time>
      </trkpt>
      <trkpt lat="45.64418" lon="6.65848">
        <ele>2412.4</ele>
        <time>2022-01-01T12:21:38Z</time>
      </trkpt>
      <trkpt lat="45.64416" lon="6.65858">
        <ele>2411.8</ele>
        <time>2022-01-01T12:21:40Z</time>
      </trkpt>
      <trkpt lat="45.64416" lon="6.65864">
        <ele>2411.6</ele>
        <time>2022-01-01T12:21:41Z</time>
      </trkpt>
      <trkpt lat="45.64417" lon="6.65871">
        <ele>2411</ele>
        <time>2022-01-01T12:21:42Z</time>
      </trkpt>
      <trkpt lat="45.64416" lon="6.65879">
        <ele>2410</ele>
        <time>2022-01-01T12:21:43Z</time>
      </trkpt>
      <trkpt lat="45.64414" lon="6.65886">
        <ele>2408</ele>
        <time>2022-01-01T12:21:44Z</time>
      </trkpt>
      <trkpt lat="45.64412" lon="6.65893">
        <ele>2406.8</ele>
        <time>2022-01-01T12:21:45Z</time>
      </trkpt>
      <trkpt lat="45.64413" lon="6.65899">
        <ele>2405.8</ele>
        <time>2022-01-01T12:21:46Z</time>
      </trkpt>
      <trkpt lat="45.64414" lon="6.65907">
        <ele>2405</ele>
        <time>2022-01-01T12:21:47Z</time>
      </trkpt>
      <trkpt lat="45.64414" lon="6.65917">
        <ele>2404.4</ele>
        <time>2022-01-01T12:21:48Z</time>
      </trkpt>
      <trkpt lat="45.64412" lon="6.65925">
        <ele>2402.2</ele>
        <time>2022-01-01T12:21:49Z</time>
      </trkpt>
      <trkpt lat="45.64408" lon="6.65932">
        <ele>2399.6</ele>
        <time>2022-01-01T12:21:50Z</time>
      </trkpt>
      <trkpt lat="45.64405" lon="6.65937">
        <ele>2398</ele>
        <time>2022-01-01T12:21:51Z</time>
      </trkpt>
      <trkpt lat="45.64399" lon="6.65949">
        <ele>2396.6</ele>
        <time>2022-01-01T12:21:53Z</time>
      </trkpt>
      <trkpt lat="45.64395" lon="6.65957">
        <ele>2396.2</ele>
        <time>2022-01-01T12:21:55Z</time>
      </trkpt>
      <trkpt lat="45.64386" lon="6.65976">
        <ele>2395.6</ele>
        <time>2022-01-01T12:21:59Z</time>
      </trkpt>
      <trkpt lat="45.64386" lon="6.65981">
        <ele>2395</ele>
        <time>2022-01-01T12:22:00Z</time>
      </trkpt>
      <trkpt lat="45.64388" lon="6.65984">
        <ele>2394</ele>
        <time>2022-01-01T12:22:01Z</time>
      </trkpt>
      <trkpt lat="45.64392" lon="6.65987">
        <ele>2393</ele>
        <time>2022-01-01T12:22:02Z</time>
      </trkpt>
      <trkpt lat="45.64397" lon="6.6599">
        <ele>2392.4</ele>
        <time>2022-01-01T12:22:03Z</time>
      </trkpt>
      <trkpt lat="45.64407" lon="6.65991">
        <ele>2391.2</ele>
        <time>2022-01-01T12:22:05Z</time>
      </trkpt>
      <trkpt lat="45.64412" lon="6.65993">
        <ele>2390.4</ele>
        <time>2022-01-01T12:22:06Z</time>
      </trkpt>
      <trkpt lat="45.64415" lon="6.65998">
        <ele>2388.4</ele>
        <time>2022-01-01T12:22:07Z</time>
      </trkpt>
      <trkpt lat="45.64415" lon="6.66003">
        <ele>2387</ele>
        <time>2022-01-01T12:22:08Z</time>
      </trkpt>
      <trkpt lat="45.64415" lon="6.6601">
        <ele>2386</ele>
        <time>2022-01-01T12:22:09Z</time>
      </trkpt>
      <trkpt lat="45.64417" lon="6.66017">
        <ele>2385</ele>
        <time>2022-01-01T12:22:10Z</time>
      </trkpt>
      <trkpt lat="45.6442" lon="6.66031">
        <ele>2383</ele>
        <time>2022-01-01T12:22:12Z</time>
      </trkpt>
      <trkpt lat="45.64419" lon="6.66037">
        <ele>2381.2</ele>
        <time>2022-01-01T12:22:13Z</time>
      </trkpt>
      <trkpt lat="45.64416" lon="6.6604">
        <ele>2380</ele>
        <time>2022-01-01T12:22:14Z</time>
      </trkpt>
      <trkpt lat="45.64409" lon="6.66047">
        <ele>2378.6</ele>
        <time>2022-01-01T12:22:16Z</time>
      </trkpt>
      <trkpt lat="45.64411" lon="6.66058">
        <ele>2376.8</ele>
        <time>2022-01-01T12:22:18Z</time>
      </trkpt>
      <trkpt lat="45.64413" lon="6.66065">
        <ele>2375.8</ele>
        <time>2022-01-01T12:22:19Z</time>
      </trkpt>
      <trkpt lat="45.64412" lon="6.66072">
        <ele>2374.8</ele>
        <time>2022-01-01T12:22:20Z</time>
      </trkpt>
      <trkpt lat="45.64409" lon="6.66076">
        <ele>2372.8</ele>
        <time>2022-01-01T12:22:21Z</time>
      </trkpt>
      <trkpt lat="45.64405" lon="6.66078">
        <ele>2371.4</ele>
        <time>2022-01-01T12:22:22Z</time>
      </trkpt>
      <trkpt lat="45.644" lon="6.66079">
        <ele>2370.4</ele>
        <time>2022-01-01T12:22:23Z</time>
      </trkpt>
      <trkpt lat="45.64395" lon="6.66079">
        <ele>2369.8</ele>
        <time>2022-01-01T12:22:24Z</time>
      </trkpt>
      <trkpt lat="45.6439" lon="6.66079">
        <ele>2369.4</ele>
        <time>2022-01-01T12:22:25Z</time>
      </trkpt>
      <trkpt lat="45.64383" lon="6.66078">
        <ele>2368.8</ele>
        <time>2022-01-01T12:22:26Z</time>
      </trkpt>
      <trkpt lat="45.64376" lon="6.66078">
        <ele>2368.2</ele>
        <time>2022-01-01T12:22:27Z</time>
      </trkpt>
      <trkpt lat="45.6437" lon="6.6608">
        <ele>2367</ele>
        <time>2022-01-01T12:22:28Z</time>
      </trkpt>
      <trkpt lat="45.64364" lon="6.66082">
        <ele>2366</ele>
        <time>2022-01-01T12:22:29Z</time>
      </trkpt>
      <trkpt lat="45.64358" lon="6.66084">
        <ele>2365.6</ele>
        <time>2022-01-01T12:22:30Z</time>
      </trkpt>
      <trkpt lat="45.64352" lon="6.66085">
        <ele>2365</ele>
        <time>2022-01-01T12:22:31Z</time>
      </trkpt>
      <trkpt lat="45.64342" lon="6.66086">
        <ele>2364</ele>
        <time>2022-01-01T12:22:33Z</time>
      </trkpt>
      <trkpt lat="45.64336" lon="6.66086">
        <ele>2363.6</ele>
        <time>2022-01-01T12:22:34Z</time>
      </trkpt>
      <trkpt lat="45.6433" lon="6.6609">
        <ele>2363.2</ele>
        <time>2022-01-01T12:22:36Z</time>
      </trkpt>
      <trkpt lat="45.6433" lon="6.66095">
        <ele>2362.8</ele>
        <time>2022-01-01T12:22:37Z</time>
      </trkpt>
      <trkpt lat="45.64332" lon="6.66109">
        <ele>2361.6</ele>
        <time>2022-01-01T12:22:39Z</time>
      </trkpt>
      <trkpt lat="45.64333" lon="6.66121">
        <ele>2360.4</ele>
        <time>2022-01-01T12:22:41Z</time>
      </trkpt>
      <trkpt lat="45.64334" lon="6.66126">
        <ele>2359.8</ele>
        <time>2022-01-01T12:22:42Z</time>
      </trkpt>
      <trkpt lat="45.64337" lon="6.66133">
        <ele>2359.4</ele>
        <time>2022-01-01T12:22:44Z</time>
      </trkpt>
      <trkpt lat="45.64343" lon="6.66142">
        <ele>2359</ele>
        <time>2022-01-01T12:22:46Z</time>
      </trkpt>
      <trkpt lat="45.64342" lon="6.66149">
        <ele>2358.6</ele>
        <time>2022-01-01T12:22:47Z</time>
      </trkpt>
      <trkpt lat="45.6434" lon="6.66153">
        <ele>2358</ele>
        <time>2022-01-01T12:22:48Z</time>
      </trkpt>
      <trkpt lat="45.64337" lon="6.66157">
        <ele>2357.2</ele>
        <time>2022-01-01T12:22:49Z</time>
      </trkpt>
      <trkpt lat="45.64333" lon="6.66161">
        <ele>2356.2</ele>
        <time>2022-01-01T12:22:50Z</time>
      </trkpt>
      <trkpt lat="45.6433" lon="6.66164">
        <ele>2355</ele>
        <time>2022-01-01T12:22:51Z</time>
      </trkpt>
      <trkpt lat="45.64327" lon="6.66169">
        <ele>2354.2</ele>
        <time>2022-01-01T12:22:52Z</time>
      </trkpt>
      <trkpt lat="45.64327" lon="6.66174">
        <ele>2353.6</ele>
        <time>2022-01-01T12:22:53Z</time>
      </trkpt>
      <trkpt lat="45.6433" lon="6.66184">
        <ele>2352.8</ele>
        <time>2022-01-01T12:22:55Z</time>
      </trkpt>
      <trkpt lat="45.64332" lon="6.66189">
        <ele>2352.4</ele>
        <time>2022-01-01T12:22:56Z</time>
      </trkpt>
      <trkpt lat="45.64338" lon="6.66198">
        <ele>2351.6</ele>
        <time>2022-01-01T12:22:58Z</time>
      </trkpt>
      <trkpt lat="45.64339" lon="6.66204">
        <ele>2350.8</ele>
        <time>2022-01-01T12:22:59Z</time>
      </trkpt>
      <trkpt lat="45.64338" lon="6.66209">
        <ele>2349.2</ele>
        <time>2022-01-01T12:23:00Z</time>
      </trkpt>
      <trkpt lat="45.64335" lon="6.66212">
        <ele>2348.2</ele>
        <time>2022-01-01T12:23:01Z</time>
      </trkpt>
      <trkpt lat="45.64326" lon="6.66214">
        <ele>2347</ele>
        <time>2022-01-01T12:23:03Z</time>
      </trkpt>
      <trkpt lat="45.64324" lon="6.66218">
        <ele>2346.6</ele>
        <time>2022-01-01T12:23:04Z</time>
      </trkpt>
      <trkpt lat="45.64324" lon="6.66223">
        <ele>2345.4</ele>
        <time>2022-01-01T12:23:05Z</time>
      </trkpt>
      <trkpt lat="45.64323" lon="6.6623">
        <ele>2344.2</ele>
        <time>2022-01-01T12:23:06Z</time>
      </trkpt>
      <trkpt lat="45.64321" lon="6.66238">
        <ele>2343.2</ele>
        <time>2022-01-01T12:23:07Z</time>
      </trkpt>
      <trkpt lat="45.64321" lon="6.66244">
        <ele>2342.4</ele>
        <time>2022-01-01T12:23:08Z</time>
      </trkpt>
      <trkpt lat="45.64321" lon="6.6625">
        <ele>2341</ele>
        <time>2022-01-01T12:23:09Z</time>
      </trkpt>
      <trkpt lat="45.64323" lon="6.66256">
        <ele>2340</ele>
        <time>2022-01-01T12:23:10Z</time>
      </trkpt>
      <trkpt lat="45.64323" lon="6.66262">
        <ele>2338.8</ele>
        <time>2022-01-01T12:23:11Z</time>
      </trkpt>
      <trkpt lat="45.64321" lon="6.66266">
        <ele>2338</ele>
        <time>2022-01-01T12:23:12Z</time>
      </trkpt>
      <trkpt lat="45.64318" lon="6.66269">
        <ele>2337.6</ele>
        <time>2022-01-01T12:23:13Z</time>
      </trkpt>
      <trkpt lat="45.64313" lon="6.66271">
        <ele>2336.6</ele>
        <time>2022-01-01T12:23:14Z</time>
      </trkpt>
      <trkpt lat="45.64303" lon="6.66272">
        <ele>2335.4</ele>
        <time>2022-01-01T12:23:16Z</time>
      </trkpt>
      <trkpt lat="45.64301" lon="6.66276">
        <ele>2334.8</ele>
        <time>2022-01-01T12:23:17Z</time>
      </trkpt>
      <trkpt lat="45.64299" lon="6.66281">
        <ele>2334.4</ele>
        <time>2022-01-01T12:23:18Z</time>
      </trkpt>
      <trkpt lat="45.64299" lon="6.66286">
        <ele>2333.6</ele>
        <time>2022-01-01T12:23:19Z</time>
      </trkpt>
      <trkpt lat="45.64297" lon="6.66289">
        <ele>2333</ele>
        <time>2022-01-01T12:23:20Z</time>
      </trkpt>
      <trkpt lat="45.64296" lon="6.6629">
        <ele>2332.4</ele>
        <time>2022-01-01T12:23:21Z</time>
      </trkpt>
      <trkpt lat="45.64294" lon="6.66292">
        <ele>2332.2</ele>
        <time>2022-01-01T12:23:22Z</time>
      </trkpt>
      <trkpt lat="45.64291" lon="6.66294">
        <ele>2332</ele>
        <time>2022-01-01T12:23:23Z</time>
      </trkpt>
      <trkpt lat="45.64283" lon="6.66306">
        <ele>2331.2</ele>
        <time>2022-01-01T12:23:26Z</time>
      </trkpt>
      <trkpt lat="45.64279" lon="6.66308">
        <ele>2330.6</ele>
        <time>2022-01-01T12:23:27Z</time>
      </trkpt>
      <trkpt lat="45.64271" lon="6.66305">
        <ele>2329.2</ele>
        <time>2022-01-01T12:23:29Z</time>
      </trkpt>
      <trkpt lat="45.64267" lon="6.66306">
        <ele>2328.6</ele>
        <time>2022-01-01T12:23:30Z</time>
      </trkpt>
      <trkpt lat="45.64262" lon="6.66307">
        <ele>2328</ele>
        <time>2022-01-01T12:23:31Z</time>
      </trkpt>
      <trkpt lat="45.64258" lon="6.66306">
        <ele>2326.4</ele>
        <time>2022-01-01T12:23:32Z</time>
      </trkpt>
      <trkpt lat="45.64253" lon="6.66304">
        <ele>2325</ele>
        <time>2022-01-01T12:23:33Z</time>
      </trkpt>
      <trkpt lat="45.64249" lon="6.66306">
        <ele>2323.6</ele>
        <time>2022-01-01T12:23:34Z</time>
      </trkpt>
      <trkpt lat="45.64245" lon="6.66309">
        <ele>2322.8</ele>
        <time>2022-01-01T12:23:35Z</time>
      </trkpt>
      <trkpt lat="45.6424" lon="6.66311">
        <ele>2321.6</ele>
        <time>2022-01-01T12:23:36Z</time>
      </trkpt>
      <trkpt lat="45.64235" lon="6.66309">
        <ele>2319.8</ele>
        <time>2022-01-01T12:23:37Z</time>
      </trkpt>
      <trkpt lat="45.64232" lon="6.66305">
        <ele>2318</ele>
        <time>2022-01-01T12:23:38Z</time>
      </trkpt>
      <trkpt lat="45.64223" lon="6.66301">
        <ele>2316.4</ele>
        <time>2022-01-01T12:23:40Z</time>
      </trkpt>
      <trkpt lat="45.64218" lon="6.66296">
        <ele>2314.4</ele>
        <time>2022-01-01T12:23:41Z</time>
      </trkpt>
      <trkpt lat="45.64215" lon="6.66291">
        <ele>2311.6</ele>
        <time>2022-01-01T12:23:42Z</time>
      </trkpt>
      <trkpt lat="45.64212" lon="6.66286">
        <ele>2310</ele>
        <time>2022-01-01T12:23:43Z</time>
      </trkpt>
      <trkpt lat="45.64208" lon="6.66281">
        <ele>2308.8</ele>
        <time>2022-01-01T12:23:44Z</time>
      </trkpt>
      <trkpt lat="45.64202" lon="6.66272">
        <ele>2307.4</ele>
        <time>2022-01-01T12:23:46Z</time>
      </trkpt>
      <trkpt lat="45.64198" lon="6.66269">
        <ele>2306.8</ele>
        <time>2022-01-01T12:23:47Z</time>
      </trkpt>
      <trkpt lat="45.64195" lon="6.66271">
        <ele>2306.4</ele>
        <time>2022-01-01T12:23:48Z</time>
      </trkpt>
      <trkpt lat="45.6419" lon="6.66274">
        <ele>2305.2</ele>
        <time>2022-01-01T12:23:49Z</time>
      </trkpt>
      <trkpt lat="45.64184" lon="6.66275">
        <ele>2303.2</ele>
        <time>2022-01-01T12:23:50Z</time>
      </trkpt>
      <trkpt lat="45.64179" lon="6.66273">
        <ele>2301.2</ele>
        <time>2022-01-01T12:23:51Z</time>
      </trkpt>
      <trkpt lat="45.64173" lon="6.6627">
        <ele>2299.6</ele>
        <time>2022-01-01T12:23:52Z</time>
      </trkpt>
      <trkpt lat="45.64168" lon="6.66266">
        <ele>2298.4</ele>
        <time>2022-01-01T12:23:53Z</time>
      </trkpt>
      <trkpt lat="45.6416" lon="6.66257">
        <ele>2297</ele>
        <time>2022-01-01T12:23:55Z</time>
      </trkpt>
      <trkpt lat="45.64156" lon="6.66253">
        <ele>2296.4</ele>
        <time>2022-01-01T12:23:56Z</time>
      </trkpt>
      <trkpt lat="45.64153" lon="6.66252">
        <ele>2295.6</ele>
        <time>2022-01-01T12:23:57Z</time>
      </trkpt>
      <trkpt lat="45.64151" lon="6.66256">
        <ele>2295</ele>
        <time>2022-01-01T12:23:58Z</time>
      </trkpt>
      <trkpt lat="45.6415" lon="6.66262">
        <ele>2294</ele>
        <time>2022-01-01T12:23:59Z</time>
      </trkpt>
      <trkpt lat="45.64146" lon="6.66266">
        <ele>2292.2</ele>
        <time>2022-01-01T12:24:00Z</time>
      </trkpt>
      <trkpt lat="45.64142" lon="6.66266">
        <ele>2290.8</ele>
        <time>2022-01-01T12:24:01Z</time>
      </trkpt>
      <trkpt lat="45.64138" lon="6.66264">
        <ele>2289.4</ele>
        <time>2022-01-01T12:24:02Z</time>
      </trkpt>
      <trkpt lat="45.64133" lon="6.66265">
        <ele>2288.2</ele>
        <time>2022-01-01T12:24:03Z</time>
      </trkpt>
      <trkpt lat="45.64121" lon="6.66263">
        <ele>2285.6</ele>
        <time>2022-01-01T12:24:05Z</time>
      </trkpt>
      <trkpt lat="45.64116" lon="6.6626">
        <ele>2284.2</ele>
        <time>2022-01-01T12:24:06Z</time>
      </trkpt>
      <trkpt lat="45.64111" lon="6.66258">
        <ele>2282.8</ele>
        <time>2022-01-01T12:24:07Z</time>
      </trkpt>
      <trkpt lat="45.64108" lon="6.66259">
        <ele>2282</ele>
        <time>2022-01-01T12:24:08Z</time>
      </trkpt>
      <trkpt lat="45.64104" lon="6.66263">
        <ele>2281.6</ele>
        <time>2022-01-01T12:24:09Z</time>
      </trkpt>
      <trkpt lat="45.641" lon="6.66266">
        <ele>2280.2</ele>
        <time>2022-01-01T12:24:10Z</time>
      </trkpt>
      <trkpt lat="45.64095" lon="6.66267">
        <ele>2278.6</ele>
        <time>2022-01-01T12:24:11Z</time>
      </trkpt>
      <trkpt lat="45.64091" lon="6.66266">
        <ele>2277</ele>
        <time>2022-01-01T12:24:12Z</time>
      </trkpt>
      <trkpt lat="45.64088" lon="6.66268">
        <ele>2276</ele>
        <time>2022-01-01T12:24:13Z</time>
      </trkpt>
      <trkpt lat="45.64085" lon="6.6627">
        <ele>2275.4</ele>
        <time>2022-01-01T12:24:14Z</time>
      </trkpt>
      <trkpt lat="45.64084" lon="6.66273">
        <ele>2274.2</ele>
        <time>2022-01-01T12:24:15Z</time>
      </trkpt>
      <trkpt lat="45.64083" lon="6.66275">
        <ele>2272.8</ele>
        <time>2022-01-01T12:24:17Z</time>
      </trkpt>
      <trkpt lat="45.64076" lon="6.66275">
        <ele>2272</ele>
        <time>2022-01-01T12:24:19Z</time>
      </trkpt>
      <trkpt lat="45.64072" lon="6.66277">
        <ele>2271</ele>
        <time>2022-01-01T12:24:20Z</time>
      </trkpt>
      <trkpt lat="45.64068" lon="6.66278">
        <ele>2269.6</ele>
        <time>2022-01-01T12:24:21Z</time>
      </trkpt>
      <trkpt lat="45.64064" lon="6.66276">
        <ele>2268.2</ele>
        <time>2022-01-01T12:24:22Z</time>
      </trkpt>
      <trkpt lat="45.64059" lon="6.66274">
        <ele>2267</ele>
        <time>2022-01-01T12:24:23Z</time>
      </trkpt>
      <trkpt lat="45.64052" lon="6.66273">
        <ele>2265.2</ele>
        <time>2022-01-01T12:24:25Z</time>
      </trkpt>
      <trkpt lat="45.64049" lon="6.66278">
        <ele>2264.2</ele>
        <time>2022-01-01T12:24:26Z</time>
      </trkpt>
      <trkpt lat="45.64044" lon="6.66282">
        <ele>2263.2</ele>
        <time>2022-01-01T12:24:27Z</time>
      </trkpt>
      <trkpt lat="45.64039" lon="6.66284">
        <ele>2261.6</ele>
        <time>2022-01-01T12:24:28Z</time>
      </trkpt>
      <trkpt lat="45.64034" lon="6.66282">
        <ele>2260</ele>
        <time>2022-01-01T12:24:29Z</time>
      </trkpt>
      <trkpt lat="45.64031" lon="6.66278">
        <ele>2258.8</ele>
        <time>2022-01-01T12:24:30Z</time>
      </trkpt>
      <trkpt lat="45.64027" lon="6.66275">
        <ele>2257.8</ele>
        <time>2022-01-01T12:24:31Z</time>
      </trkpt>
      <trkpt lat="45.64023" lon="6.66275">
        <ele>2257</ele>
        <time>2022-01-01T12:24:32Z</time>
      </trkpt>
      <trkpt lat="45.64019" lon="6.66278">
        <ele>2256.4</ele>
        <time>2022-01-01T12:24:33Z</time>
      </trkpt>
      <trkpt lat="45.64014" lon="6.6628">
        <ele>2255.2</ele>
        <time>2022-01-01T12:24:34Z</time>
      </trkpt>
      <trkpt lat="45.6401" lon="6.66278">
        <ele>2253.8</ele>
        <time>2022-01-01T12:24:35Z</time>
      </trkpt>
      <trkpt lat="45.64006" lon="6.66275">
        <ele>2252</ele>
        <time>2022-01-01T12:24:36Z</time>
      </trkpt>
      <trkpt lat="45.64003" lon="6.6627">
        <ele>2251</ele>
        <time>2022-01-01T12:24:37Z</time>
      </trkpt>
      <trkpt lat="45.64" lon="6.66265">
        <ele>2250.4</ele>
        <time>2022-01-01T12:24:38Z</time>
      </trkpt>
      <trkpt lat="45.63997" lon="6.6626">
        <ele>2249.8</ele>
        <time>2022-01-01T12:24:39Z</time>
      </trkpt>
      <trkpt lat="45.63994" lon="6.66256">
        <ele>2249.4</ele>
        <time>2022-01-01T12:24:40Z</time>
      </trkpt>
      <trkpt lat="45.63987" lon="6.66247">
        <ele>2248.6</ele>
        <time>2022-01-01T12:24:42Z</time>
      </trkpt>
      <trkpt lat="45.63984" lon="6.66245">
        <ele>2248.2</ele>
        <time>2022-01-01T12:24:43Z</time>
      </trkpt>
      <trkpt lat="45.63978" lon="6.66251">
        <ele>2246.6</ele>
        <time>2022-01-01T12:24:45Z</time>
      </trkpt>
      <trkpt lat="45.63975" lon="6.66255">
        <ele>2245.8</ele>
        <time>2022-01-01T12:24:46Z</time>
      </trkpt>
      <trkpt lat="45.63971" lon="6.66256">
        <ele>2244.6</ele>
        <time>2022-01-01T12:24:47Z</time>
      </trkpt>
      <trkpt lat="45.63968" lon="6.66255">
        <ele>2243.8</ele>
        <time>2022-01-01T12:24:48Z</time>
      </trkpt>
      <trkpt lat="45.63964" lon="6.66255">
        <ele>2242.6</ele>
        <time>2022-01-01T12:24:49Z</time>
      </trkpt>
      <trkpt lat="45.6396" lon="6.66258">
        <ele>2241.8</ele>
        <time>2022-01-01T12:24:50Z</time>
      </trkpt>
      <trkpt lat="45.63955" lon="6.6626">
        <ele>2240.6</ele>
        <time>2022-01-01T12:24:51Z</time>
      </trkpt>
      <trkpt lat="45.6395" lon="6.6626">
        <ele>2239</ele>
        <time>2022-01-01T12:24:52Z</time>
      </trkpt>
      <trkpt lat="45.63944" lon="6.66257">
        <ele>2238</ele>
        <time>2022-01-01T12:24:53Z</time>
      </trkpt>
      <trkpt lat="45.63938" lon="6.66253">
        <ele>2237.4</ele>
        <time>2022-01-01T12:24:54Z</time>
      </trkpt>
      <trkpt lat="45.63933" lon="6.66251">
        <ele>2235.6</ele>
        <time>2022-01-01T12:24:55Z</time>
      </trkpt>
      <trkpt lat="45.63928" lon="6.66254">
        <ele>2234.8</ele>
        <time>2022-01-01T12:24:56Z</time>
      </trkpt>
      <trkpt lat="45.63923" lon="6.66257">
        <ele>2233.2</ele>
        <time>2022-01-01T12:24:57Z</time>
      </trkpt>
      <trkpt lat="45.63917" lon="6.66258">
        <ele>2231.6</ele>
        <time>2022-01-01T12:24:58Z</time>
      </trkpt>
      <trkpt lat="45.63912" lon="6.66256">
        <ele>2229.6</ele>
        <time>2022-01-01T12:24:59Z</time>
      </trkpt>
      <trkpt lat="45.63908" lon="6.66254">
        <ele>2228.6</ele>
        <time>2022-01-01T12:25:00Z</time>
      </trkpt>
      <trkpt lat="45.639" lon="6.66248">
        <ele>2226.8</ele>
        <time>2022-01-01T12:25:02Z</time>
      </trkpt>
      <trkpt lat="45.63892" lon="6.66242">
        <ele>2226.2</ele>
        <time>2022-01-01T12:25:04Z</time>
      </trkpt>
      <trkpt lat="45.63886" lon="6.66238">
        <ele>2225.6</ele>
        <time>2022-01-01T12:25:06Z</time>
      </trkpt>
      <trkpt lat="45.63882" lon="6.66237">
        <ele>2225.6</ele>
        <time>2022-01-01T12:25:07Z</time>
      </trkpt>
      <trkpt lat="45.63873" lon="6.66235">
        <ele>2225.2</ele>
        <time>2022-01-01T12:25:09Z</time>
      </trkpt>
      <trkpt lat="45.63869" lon="6.66233">
        <ele>2224.6</ele>
        <time>2022-01-01T12:25:10Z</time>
      </trkpt>
      <trkpt lat="45.63865" lon="6.66231">
        <ele>2224.2</ele>
        <time>2022-01-01T12:25:11Z</time>
      </trkpt>
      <trkpt lat="45.63859" lon="6.66236">
        <ele>2223.4</ele>
        <time>2022-01-01T12:25:13Z</time>
      </trkpt>
      <trkpt lat="45.63854" lon="6.66244">
        <ele>2221.2</ele>
        <time>2022-01-01T12:25:15Z</time>
      </trkpt>
      <trkpt lat="45.63848" lon="6.66251">
        <ele>2219.4</ele>
        <time>2022-01-01T12:25:17Z</time>
      </trkpt>
      <trkpt lat="45.63847" lon="6.6626">
        <ele>2217.8</ele>
        <time>2022-01-01T12:25:19Z</time>
      </trkpt>
      <trkpt lat="45.63846" lon="6.66264">
        <ele>2216.6</ele>
        <time>2022-01-01T12:25:20Z</time>
      </trkpt>
      <trkpt lat="45.63843" lon="6.66267">
        <ele>2215.6</ele>
        <time>2022-01-01T12:25:21Z</time>
      </trkpt>
      <trkpt lat="45.63841" lon="6.66267">
        <ele>2215</ele>
        <time>2022-01-01T12:25:22Z</time>
      </trkpt>
      <trkpt lat="45.63837" lon="6.66267">
        <ele>2214.2</ele>
        <time>2022-01-01T12:25:23Z</time>
      </trkpt>
      <trkpt lat="45.63833" lon="6.66265">
        <ele>2213.8</ele>
        <time>2022-01-01T12:25:24Z</time>
      </trkpt>
      <trkpt lat="45.63828" lon="6.66263">
        <ele>2212.8</ele>
        <time>2022-01-01T12:25:25Z</time>
      </trkpt>
      <trkpt lat="45.6382" lon="6.66256">
        <ele>2211.6</ele>
        <time>2022-01-01T12:25:27Z</time>
      </trkpt>
      <trkpt lat="45.63812" lon="6.6625">
        <ele>2210.6</ele>
        <time>2022-01-01T12:25:29Z</time>
      </trkpt>
      <trkpt lat="45.63807" lon="6.66252">
        <ele>2209.6</ele>
        <time>2022-01-01T12:25:31Z</time>
      </trkpt>
      <trkpt lat="45.63805" lon="6.66255">
        <ele>2209.2</ele>
        <time>2022-01-01T12:25:32Z</time>
      </trkpt>
      <trkpt lat="45.63801" lon="6.66256">
        <ele>2207.8</ele>
        <time>2022-01-01T12:25:33Z</time>
      </trkpt>
      <trkpt lat="45.63797" lon="6.66258">
        <ele>2206.6</ele>
        <time>2022-01-01T12:25:34Z</time>
      </trkpt>
      <trkpt lat="45.63792" lon="6.6626">
        <ele>2206</ele>
        <time>2022-01-01T12:25:35Z</time>
      </trkpt>
      <trkpt lat="45.63788" lon="6.66264">
        <ele>2205.4</ele>
        <time>2022-01-01T12:25:36Z</time>
      </trkpt>
      <trkpt lat="45.63784" lon="6.66269">
        <ele>2204.2</ele>
        <time>2022-01-01T12:25:37Z</time>
      </trkpt>
      <trkpt lat="45.63781" lon="6.66273">
        <ele>2203.6</ele>
        <time>2022-01-01T12:25:38Z</time>
      </trkpt>
      <trkpt lat="45.63777" lon="6.66276">
        <ele>2203</ele>
        <time>2022-01-01T12:25:39Z</time>
      </trkpt>
      <trkpt lat="45.63767" lon="6.66283">
        <ele>2202.4</ele>
        <time>2022-01-01T12:25:42Z</time>
      </trkpt>
      <trkpt lat="45.6376" lon="6.66285">
        <ele>2201.8</ele>
        <time>2022-01-01T12:25:44Z</time>
      </trkpt>
      <trkpt lat="45.63757" lon="6.66287">
        <ele>2201.6</ele>
        <time>2022-01-01T12:25:45Z</time>
      </trkpt>
      <trkpt lat="45.63748" lon="6.66287">
        <ele>2201</ele>
        <time>2022-01-01T12:25:47Z</time>
      </trkpt>
      <trkpt lat="45.63744" lon="6.66285">
        <ele>2200.8</ele>
        <time>2022-01-01T12:25:48Z</time>
      </trkpt>
      <trkpt lat="45.63738" lon="6.66283">
        <ele>2200.4</ele>
        <time>2022-01-01T12:25:49Z</time>
      </trkpt>
      <trkpt lat="45.63733" lon="6.66282">
        <ele>2200</ele>
        <time>2022-01-01T12:25:50Z</time>
      </trkpt>
      <trkpt lat="45.63727" lon="6.66282">
        <ele>2199.6</ele>
        <time>2022-01-01T12:25:51Z</time>
      </trkpt>
      <trkpt lat="45.63722" lon="6.66283">
        <ele>2198.4</ele>
        <time>2022-01-01T12:25:52Z</time>
      </trkpt>
      <trkpt lat="45.63716" lon="6.66283">
        <ele>2197.4</ele>
        <time>2022-01-01T12:25:53Z</time>
      </trkpt>
      <trkpt lat="45.63712" lon="6.66282">
        <ele>2196.8</ele>
        <time>2022-01-01T12:25:54Z</time>
      </trkpt>
      <trkpt lat="45.63708" lon="6.66281">
        <ele>2196.4</ele>
        <time>2022-01-01T12:25:55Z</time>
      </trkpt>
      <trkpt lat="45.637" lon="6.66279">
        <ele>2195.8</ele>
        <time>2022-01-01T12:25:57Z</time>
      </trkpt>
      <trkpt lat="45.63693" lon="6.66279">
        <ele>2195.2</ele>
        <time>2022-01-01T12:25:59Z</time>
      </trkpt>
      <trkpt lat="45.63681" lon="6.66278">
        <ele>2194</ele>
        <time>2022-01-01T12:26:02Z</time>
      </trkpt>
      <trkpt lat="45.63677" lon="6.66277">
        <ele>2193.6</ele>
        <time>2022-01-01T12:26:03Z</time>
      </trkpt>
      <trkpt lat="45.6367" lon="6.66276">
        <ele>2193</ele>
        <time>2022-01-01T12:26:05Z</time>
      </trkpt>
      <trkpt lat="45.63661" lon="6.66273">
        <ele>2191.8</ele>
        <time>2022-01-01T12:26:08Z</time>
      </trkpt>
      <trkpt lat="45.63655" lon="6.6627">
        <ele>2191.2</ele>
        <time>2022-01-01T12:26:10Z</time>
      </trkpt>
      <trkpt lat="45.63648" lon="6.66268">
        <ele>2190.8</ele>
        <time>2022-01-01T12:26:12Z</time>
      </trkpt>
      <trkpt lat="45.63639" lon="6.66271">
        <ele>2189.2</ele>
        <time>2022-01-01T12:26:15Z</time>
      </trkpt>
      <trkpt lat="45.63631" lon="6.66274">
        <ele>2188</ele>
        <time>2022-01-01T12:26:17Z</time>
      </trkpt>
      <trkpt lat="45.63625" lon="6.66275">
        <ele>2187.4</ele>
        <time>2022-01-01T12:26:19Z</time>
      </trkpt>
      <trkpt lat="45.63622" lon="6.66276">
        <ele>2186.6</ele>
        <time>2022-01-01T12:26:20Z</time>
      </trkpt>
      <trkpt lat="45.63615" lon="6.66276">
        <ele>2185.6</ele>
        <time>2022-01-01T12:26:22Z</time>
      </trkpt>
      <trkpt lat="45.63603" lon="6.66277">
        <ele>2184.4</ele>
        <time>2022-01-01T12:26:25Z</time>
      </trkpt>
      <trkpt lat="45.63596" lon="6.66279">
        <ele>2183</ele>
        <time>2022-01-01T12:26:27Z</time>
      </trkpt>
      <trkpt lat="45.63584" lon="6.66285">
        <ele>2181.6</ele>
        <time>2022-01-01T12:26:31Z</time>
      </trkpt>
      <trkpt lat="45.63571" lon="6.66293">
        <ele>2180.6</ele>
        <time>2022-01-01T12:26:35Z</time>
      </trkpt>
      <trkpt lat="45.63566" lon="6.66298">
        <ele>2179.8</ele>
        <time>2022-01-01T12:26:37Z</time>
      </trkpt>
      <trkpt lat="45.63563" lon="6.66299">
        <ele>2179.4</ele>
        <time>2022-01-01T12:26:38Z</time>
      </trkpt>
      <trkpt lat="45.63557" lon="6.66289">
        <ele>2178.6</ele>
        <time>2022-01-01T12:26:40Z</time>
      </trkpt>
      <trkpt lat="45.63557" lon="6.66282">
        <ele>2177.8</ele>
        <time>2022-01-01T12:26:41Z</time>
      </trkpt>
      <trkpt lat="45.63559" lon="6.66276">
        <ele>2176</ele>
        <time>2022-01-01T12:26:42Z</time>
      </trkpt>
      <trkpt lat="45.63564" lon="6.66268">
        <ele>2174.6</ele>
        <time>2022-01-01T12:26:44Z</time>
      </trkpt>
      <trkpt lat="45.63567" lon="6.6626">
        <ele>2174</ele>
        <time>2022-01-01T12:26:46Z</time>
      </trkpt>
      <trkpt lat="45.63567" lon="6.66257">
        <ele>2173.8</ele>
        <time>2022-01-01T12:26:47Z</time>
      </trkpt>
      <trkpt lat="45.63565" lon="6.66257">
        <ele>2173.2</ele>
        <time>2022-01-01T12:26:48Z</time>
      </trkpt>
      <trkpt lat="45.63562" lon="6.66256">
        <ele>2172.2</ele>
        <time>2022-01-01T12:26:49Z</time>
      </trkpt>
      <trkpt lat="45.63559" lon="6.66253">
        <ele>2171.6</ele>
        <time>2022-01-01T12:26:50Z</time>
      </trkpt>
      <trkpt lat="45.63557" lon="6.66248">
        <ele>2171</ele>
        <time>2022-01-01T12:26:51Z</time>
      </trkpt>
      <trkpt lat="45.63557" lon="6.66243">
        <ele>2169.8</ele>
        <time>2022-01-01T12:26:52Z</time>
      </trkpt>
      <trkpt lat="45.63557" lon="6.66238">
        <ele>2168.6</ele>
        <time>2022-01-01T12:26:53Z</time>
      </trkpt>
      <trkpt lat="45.63556" lon="6.66236">
        <ele>2168</ele>
        <time>2022-01-01T12:26:54Z</time>
      </trkpt>
      <trkpt lat="45.63555" lon="6.66235">
        <ele>2167.2</ele>
        <time>2022-01-01T12:26:55Z</time>
      </trkpt>
      <trkpt lat="45.6355" lon="6.6623">
        <ele>2165.4</ele>
        <time>2022-01-01T12:26:57Z</time>
      </trkpt>
      <trkpt lat="45.63548" lon="6.66225">
        <ele>2164</ele>
        <time>2022-01-01T12:26:58Z</time>
      </trkpt>
      <trkpt lat="45.63546" lon="6.6622">
        <ele>2162.8</ele>
        <time>2022-01-01T12:26:59Z</time>
      </trkpt>
      <trkpt lat="45.63544" lon="6.66217">
        <ele>2162.2</ele>
        <time>2022-01-01T12:27:00Z</time>
      </trkpt>
      <trkpt lat="45.63541" lon="6.66217">
        <ele>2161.6</ele>
        <time>2022-01-01T12:27:01Z</time>
      </trkpt>
      <trkpt lat="45.63539" lon="6.66219">
        <ele>2160.8</ele>
        <time>2022-01-01T12:27:02Z</time>
      </trkpt>
      <trkpt lat="45.63536" lon="6.66222">
        <ele>2160</ele>
        <time>2022-01-01T12:27:03Z</time>
      </trkpt>
      <trkpt lat="45.63529" lon="6.66229">
        <ele>2157.8</ele>
        <time>2022-01-01T12:27:05Z</time>
      </trkpt>
      <trkpt lat="45.63524" lon="6.66235">
        <ele>2156.8</ele>
        <time>2022-01-01T12:27:06Z</time>
      </trkpt>
      <trkpt lat="45.6352" lon="6.66244">
        <ele>2155.4</ele>
        <time>2022-01-01T12:27:07Z</time>
      </trkpt>
      <trkpt lat="45.63517" lon="6.66251">
        <ele>2154.2</ele>
        <time>2022-01-01T12:27:08Z</time>
      </trkpt>
      <trkpt lat="45.63514" lon="6.66257">
        <ele>2152.6</ele>
        <time>2022-01-01T12:27:09Z</time>
      </trkpt>
      <trkpt lat="45.63509" lon="6.66264">
        <ele>2151.2</ele>
        <time>2022-01-01T12:27:11Z</time>
      </trkpt>
      <trkpt lat="45.63507" lon="6.66266">
        <ele>2150.6</ele>
        <time>2022-01-01T12:27:12Z</time>
      </trkpt>
      <trkpt lat="45.63501" lon="6.66272">
        <ele>2150.2</ele>
        <time>2022-01-01T12:27:14Z</time>
      </trkpt>
      <trkpt lat="45.63493" lon="6.66282">
        <ele>2148.8</ele>
        <time>2022-01-01T12:27:18Z</time>
      </trkpt>
      <trkpt lat="45.63485" lon="6.66288">
        <ele>2147.8</ele>
        <time>2022-01-01T12:27:21Z</time>
      </trkpt>
      <trkpt lat="45.63475" lon="6.66296">
        <ele>2146.4</ele>
        <time>2022-01-01T12:27:24Z</time>
      </trkpt>
      <trkpt lat="45.63465" lon="6.66305">
        <ele>2144.8</ele>
        <time>2022-01-01T12:27:27Z</time>
      </trkpt>
      <trkpt lat="45.63454" lon="6.66315">
        <ele>2143.2</ele>
        <time>2022-01-01T12:27:30Z</time>
      </trkpt>
      <trkpt lat="45.63446" lon="6.6632">
        <ele>2141.6</ele>
        <time>2022-01-01T12:27:32Z</time>
      </trkpt>
      <trkpt lat="45.63437" lon="6.66326">
        <ele>2140.4</ele>
        <time>2022-01-01T12:27:35Z</time>
      </trkpt>
      <trkpt lat="45.63429" lon="6.66335">
        <ele>2138.8</ele>
        <time>2022-01-01T12:27:38Z</time>
      </trkpt>
      <trkpt lat="45.63425" lon="6.66338">
        <ele>2138.2</ele>
        <time>2022-01-01T12:27:39Z</time>
      </trkpt>
      <trkpt lat="45.63422" lon="6.66342">
        <ele>2137.4</ele>
        <time>2022-01-01T12:27:40Z</time>
      </trkpt>
      <trkpt lat="45.63414" lon="6.66352">
        <ele>2136</ele>
        <time>2022-01-01T12:27:43Z</time>
      </trkpt>
      <trkpt lat="45.63409" lon="6.66356">
        <ele>2135</ele>
        <time>2022-01-01T12:27:45Z</time>
      </trkpt>
      <trkpt lat="45.63408" lon="6.66357">
        <ele>2134.6</ele>
        <time>2022-01-01T12:27:46Z</time>
      </trkpt>
      <trkpt lat="45.63407" lon="6.66357">
        <ele>2134.4</ele>
        <time>2022-01-01T12:27:47Z</time>
      </trkpt>
      <trkpt lat="45.63403" lon="6.66357">
        <ele>2134</ele>
        <time>2022-01-01T12:27:49Z</time>
      </trkpt>
      <trkpt lat="45.63402" lon="6.66356">
        <ele>2133.2</ele>
        <time>2022-01-01T12:27:50Z</time>
      </trkpt>
      <trkpt lat="45.63398" lon="6.66358">
        <ele>2132.2</ele>
        <time>2022-01-01T12:27:52Z</time>
      </trkpt>
      <trkpt lat="45.63393" lon="6.66362">
        <ele>2130.8</ele>
        <time>2022-01-01T12:27:54Z</time>
      </trkpt>
      <trkpt lat="45.63391" lon="6.66362">
        <ele>2130</ele>
        <time>2022-01-01T12:27:55Z</time>
      </trkpt>
      <trkpt lat="45.63389" lon="6.66359">
        <ele>2129.4</ele>
        <time>2022-01-01T12:27:56Z</time>
      </trkpt>
      <trkpt lat="45.63389" lon="6.66355">
        <ele>2128.2</ele>
        <time>2022-01-01T12:27:57Z</time>
      </trkpt>
      <trkpt lat="45.63389" lon="6.6635">
        <ele>2126.8</ele>
        <time>2022-01-01T12:27:58Z</time>
      </trkpt>
      <trkpt lat="45.63387" lon="6.66344">
        <ele>2125</ele>
        <time>2022-01-01T12:28:00Z</time>
      </trkpt>
      <trkpt lat="45.63385" lon="6.66344">
        <ele>2124.6</ele>
        <time>2022-01-01T12:28:01Z</time>
      </trkpt>
      <trkpt lat="45.63383" lon="6.66347">
        <ele>2123.4</ele>
        <time>2022-01-01T12:28:02Z</time>
      </trkpt>
      <trkpt lat="45.63381" lon="6.6635">
        <ele>2122.2</ele>
        <time>2022-01-01T12:28:03Z</time>
      </trkpt>
      <trkpt lat="45.63379" lon="6.66355">
        <ele>2121.2</ele>
        <time>2022-01-01T12:28:04Z</time>
      </trkpt>
      <trkpt lat="45.63377" lon="6.66361">
        <ele>2120.4</ele>
        <time>2022-01-01T12:28:05Z</time>
      </trkpt>
      <trkpt lat="45.63375" lon="6.66366">
        <ele>2120</ele>
        <time>2022-01-01T12:28:06Z</time>
      </trkpt>
      <trkpt lat="45.63372" lon="6.66378">
        <ele>2118.8</ele>
        <time>2022-01-01T12:28:08Z</time>
      </trkpt>
      <trkpt lat="45.63371" lon="6.66382">
        <ele>2118</ele>
        <time>2022-01-01T12:28:09Z</time>
      </trkpt>
      <trkpt lat="45.63369" lon="6.66384">
        <ele>2117.2</ele>
        <time>2022-01-01T12:28:10Z</time>
      </trkpt>
      <trkpt lat="45.63364" lon="6.66381">
        <ele>2115.6</ele>
        <time>2022-01-01T12:28:12Z</time>
      </trkpt>
      <trkpt lat="45.63363" lon="6.66378">
        <ele>2114</ele>
        <time>2022-01-01T12:28:13Z</time>
      </trkpt>
      <trkpt lat="45.63361" lon="6.66376">
        <ele>2112.8</ele>
        <time>2022-01-01T12:28:14Z</time>
      </trkpt>
      <trkpt lat="45.63356" lon="6.66382">
        <ele>2110.6</ele>
        <time>2022-01-01T12:28:16Z</time>
      </trkpt>
      <trkpt lat="45.63354" lon="6.66388">
        <ele>2109.2</ele>
        <time>2022-01-01T12:28:17Z</time>
      </trkpt>
      <trkpt lat="45.63353" lon="6.66394">
        <ele>2108</ele>
        <time>2022-01-01T12:28:18Z</time>
      </trkpt>
      <trkpt lat="45.63351" lon="6.66406">
        <ele>2106</ele>
        <time>2022-01-01T12:28:20Z</time>
      </trkpt>
      <trkpt lat="45.63349" lon="6.66415">
        <ele>2104.2</ele>
        <time>2022-01-01T12:28:22Z</time>
      </trkpt>
      <trkpt lat="45.63348" lon="6.6643">
        <ele>2103</ele>
        <time>2022-01-01T12:28:25Z</time>
      </trkpt>
      <trkpt lat="45.63346" lon="6.66435">
        <ele>2102.2</ele>
        <time>2022-01-01T12:28:26Z</time>
      </trkpt>
      <trkpt lat="45.63343" lon="6.66438">
        <ele>2101.4</ele>
        <time>2022-01-01T12:28:27Z</time>
      </trkpt>
      <trkpt lat="45.63338" lon="6.66443">
        <ele>2099.4</ele>
        <time>2022-01-01T12:28:29Z</time>
      </trkpt>
      <trkpt lat="45.63336" lon="6.66447">
        <ele>2097.8</ele>
        <time>2022-01-01T12:28:30Z</time>
      </trkpt>
      <trkpt lat="45.63335" lon="6.66452">
        <ele>2096.6</ele>
        <time>2022-01-01T12:28:31Z</time>
      </trkpt>
      <trkpt lat="45.63332" lon="6.66463">
        <ele>2095</ele>
        <time>2022-01-01T12:28:33Z</time>
      </trkpt>
      <trkpt lat="45.63327" lon="6.66472">
        <ele>2093.6</ele>
        <time>2022-01-01T12:28:35Z</time>
      </trkpt>
      <trkpt lat="45.63324" lon="6.66478">
        <ele>2092.6</ele>
        <time>2022-01-01T12:28:37Z</time>
      </trkpt>
      <trkpt lat="45.63324" lon="6.66481">
        <ele>2092</ele>
        <time>2022-01-01T12:28:38Z</time>
      </trkpt>
      <trkpt lat="45.63319" lon="6.66499">
        <ele>2090.4</ele>
        <time>2022-01-01T12:28:41Z</time>
      </trkpt>
      <trkpt lat="45.63319" lon="6.66507">
        <ele>2089.6</ele>
        <time>2022-01-01T12:28:42Z</time>
      </trkpt>
      <trkpt lat="45.63319" lon="6.66515">
        <ele>2088.2</ele>
        <time>2022-01-01T12:28:43Z</time>
      </trkpt>
      <trkpt lat="45.63318" lon="6.66526">
        <ele>2086.4</ele>
        <time>2022-01-01T12:28:45Z</time>
      </trkpt>
      <trkpt lat="45.63318" lon="6.6653">
        <ele>2085.6</ele>
        <time>2022-01-01T12:28:46Z</time>
      </trkpt>
      <trkpt lat="45.63317" lon="6.66537">
        <ele>2085</ele>
        <time>2022-01-01T12:28:48Z</time>
      </trkpt>
      <trkpt lat="45.63316" lon="6.66548">
        <ele>2084</ele>
        <time>2022-01-01T12:28:52Z</time>
      </trkpt>
      <trkpt lat="45.63315" lon="6.6655">
        <ele>2083.8</ele>
        <time>2022-01-01T12:28:53Z</time>
      </trkpt>
      <trkpt lat="45.63312" lon="6.66564">
        <ele>2082.8</ele>
        <time>2022-01-01T12:28:58Z</time>
      </trkpt>
      <trkpt lat="45.63311" lon="6.66572">
        <ele>2081.4</ele>
        <time>2022-01-01T12:29:01Z</time>
      </trkpt>
      <trkpt lat="45.63313" lon="6.66579">
        <ele>2081</ele>
        <time>2022-01-01T12:29:03Z</time>
      </trkpt>
      <trkpt lat="45.63313" lon="6.66583">
        <ele>2080.4</ele>
        <time>2022-01-01T12:29:04Z</time>
      </trkpt>
      <trkpt lat="45.63312" lon="6.66597">
        <ele>2079.6</ele>
        <time>2022-01-01T12:29:07Z</time>
      </trkpt>
      <trkpt lat="45.6331" lon="6.66603">
        <ele>2079.2</ele>
        <time>2022-01-01T12:29:08Z</time>
      </trkpt>
      <trkpt lat="45.63308" lon="6.66615">
        <ele>2077.8</ele>
        <time>2022-01-01T12:29:10Z</time>
      </trkpt>
      <trkpt lat="45.63306" lon="6.66627">
        <ele>2076.4</ele>
        <time>2022-01-01T12:29:12Z</time>
      </trkpt>
      <trkpt lat="45.63303" lon="6.66641">
        <ele>2074.8</ele>
        <time>2022-01-01T12:29:14Z</time>
      </trkpt>
      <trkpt lat="45.63302" lon="6.66652">
        <ele>2073.2</ele>
        <time>2022-01-01T12:29:16Z</time>
      </trkpt>
      <trkpt lat="45.63302" lon="6.66656">
        <ele>2072.2</ele>
        <time>2022-01-01T12:29:17Z</time>
      </trkpt>
      <trkpt lat="45.63302" lon="6.6666">
        <ele>2071.2</ele>
        <time>2022-01-01T12:29:18Z</time>
      </trkpt>
      <trkpt lat="45.63301" lon="6.66663">
        <ele>2070.6</ele>
        <time>2022-01-01T12:29:19Z</time>
      </trkpt>
      <trkpt lat="45.63301" lon="6.66665">
        <ele>2069.8</ele>
        <time>2022-01-01T12:29:22Z</time>
      </trkpt>
      <trkpt lat="45.633" lon="6.66665">
        <ele>2069.6</ele>
        <time>2022-01-01T12:29:27Z</time>
      </trkpt>
      <trkpt lat="45.63301" lon="6.66664">
        <ele>2069.4</ele>
        <time>2022-01-01T12:29:30Z</time>
      </trkpt>
      <trkpt lat="45.63299" lon="6.66669">
        <ele>2069.2</ele>
        <time>2022-01-01T12:29:37Z</time>
      </trkpt>
      <trkpt lat="45.63299" lon="6.66675">
        <ele>2068.8</ele>
        <time>2022-01-01T12:29:38Z</time>
      </trkpt>
      <trkpt lat="45.63298" lon="6.6668">
        <ele>2067.2</ele>
        <time>2022-01-01T12:29:39Z</time>
      </trkpt>
      <trkpt lat="45.63296" lon="6.66686">
        <ele>2065.8</ele>
        <time>2022-01-01T12:29:40Z</time>
      </trkpt>
      <trkpt lat="45.63292" lon="6.66699">
        <ele>2064.2</ele>
        <time>2022-01-01T12:29:42Z</time>
      </trkpt>
      <trkpt lat="45.63291" lon="6.66706">
        <ele>2062.8</ele>
        <time>2022-01-01T12:29:43Z</time>
      </trkpt>
      <trkpt lat="45.6329" lon="6.66713">
        <ele>2061.6</ele>
        <time>2022-01-01T12:29:44Z</time>
      </trkpt>
      <trkpt lat="45.63289" lon="6.66726">
        <ele>2059.4</ele>
        <time>2022-01-01T12:29:46Z</time>
      </trkpt>
      <trkpt lat="45.63289" lon="6.66732">
        <ele>2058.2</ele>
        <time>2022-01-01T12:29:47Z</time>
      </trkpt>
      <trkpt lat="45.6329" lon="6.66738">
        <ele>2057.4</ele>
        <time>2022-01-01T12:29:48Z</time>
      </trkpt>
      <trkpt lat="45.63291" lon="6.66744">
        <ele>2056.8</ele>
        <time>2022-01-01T12:29:49Z</time>
      </trkpt>
      <trkpt lat="45.63291" lon="6.6675">
        <ele>2056.4</ele>
        <time>2022-01-01T12:29:50Z</time>
      </trkpt>
      <trkpt lat="45.63291" lon="6.66756">
        <ele>2055.4</ele>
        <time>2022-01-01T12:29:51Z</time>
      </trkpt>
      <trkpt lat="45.63291" lon="6.66768">
        <ele>2054</ele>
        <time>2022-01-01T12:29:53Z</time>
      </trkpt>
      <trkpt lat="45.63292" lon="6.66775">
        <ele>2053.4</ele>
        <time>2022-01-01T12:29:54Z</time>
      </trkpt>
      <trkpt lat="45.63293" lon="6.66782">
        <ele>2052.6</ele>
        <time>2022-01-01T12:29:55Z</time>
      </trkpt>
      <trkpt lat="45.63294" lon="6.66796">
        <ele>2050.8</ele>
        <time>2022-01-01T12:29:57Z</time>
      </trkpt>
      <trkpt lat="45.63294" lon="6.66807">
        <ele>2049.4</ele>
        <time>2022-01-01T12:29:59Z</time>
      </trkpt>
      <trkpt lat="45.63294" lon="6.66812">
        <ele>2048.8</ele>
        <time>2022-01-01T12:30:00Z</time>
      </trkpt>
      <trkpt lat="45.63294" lon="6.66816">
        <ele>2048.2</ele>
        <time>2022-01-01T12:30:01Z</time>
      </trkpt>
      <trkpt lat="45.63295" lon="6.66825">
        <ele>2047</ele>
        <time>2022-01-01T12:30:03Z</time>
      </trkpt>
      <trkpt lat="45.63294" lon="6.66828">
        <ele>2046.4</ele>
        <time>2022-01-01T12:30:04Z</time>
      </trkpt>
      <trkpt lat="45.63291" lon="6.66828">
        <ele>2046</ele>
        <time>2022-01-01T12:30:05Z</time>
      </trkpt>
      <trkpt lat="45.63284" lon="6.66823">
        <ele>2044</ele>
        <time>2022-01-01T12:30:07Z</time>
      </trkpt>
      <trkpt lat="45.63278" lon="6.66818">
        <ele>2042.6</ele>
        <time>2022-01-01T12:30:09Z</time>
      </trkpt>
      <trkpt lat="45.63275" lon="6.66818">
        <ele>2042</ele>
        <time>2022-01-01T12:30:10Z</time>
      </trkpt>
      <trkpt lat="45.63274" lon="6.6682">
        <ele>2041.4</ele>
        <time>2022-01-01T12:30:11Z</time>
      </trkpt>
      <trkpt lat="45.63273" lon="6.66824">
        <ele>2040.6</ele>
        <time>2022-01-01T12:30:12Z</time>
      </trkpt>
      <trkpt lat="45.63271" lon="6.66829">
        <ele>2039.8</ele>
        <time>2022-01-01T12:30:13Z</time>
      </trkpt>
      <trkpt lat="45.6327" lon="6.66837">
        <ele>2038.2</ele>
        <time>2022-01-01T12:30:15Z</time>
      </trkpt>
      <trkpt lat="45.63268" lon="6.6684">
        <ele>2037.4</ele>
        <time>2022-01-01T12:30:16Z</time>
      </trkpt>
      <trkpt lat="45.63264" lon="6.6684">
        <ele>2036.8</ele>
        <time>2022-01-01T12:30:17Z</time>
      </trkpt>
      <trkpt lat="45.6326" lon="6.6684">
        <ele>2036</ele>
        <time>2022-01-01T12:30:18Z</time>
      </trkpt>
      <trkpt lat="45.63256" lon="6.6684">
        <ele>2035.2</ele>
        <time>2022-01-01T12:30:19Z</time>
      </trkpt>
      <trkpt lat="45.63252" lon="6.66841">
        <ele>2034.6</ele>
        <time>2022-01-01T12:30:20Z</time>
      </trkpt>
      <trkpt lat="45.6325" lon="6.66843">
        <ele>2034</ele>
        <time>2022-01-01T12:30:21Z</time>
      </trkpt>
      <trkpt lat="45.63244" lon="6.66851">
        <ele>2033.4</ele>
        <time>2022-01-01T12:30:23Z</time>
      </trkpt>
      <trkpt lat="45.63241" lon="6.66853">
        <ele>2032.6</ele>
        <time>2022-01-01T12:30:24Z</time>
      </trkpt>
      <trkpt lat="45.63235" lon="6.66857">
        <ele>2031.2</ele>
        <time>2022-01-01T12:30:27Z</time>
      </trkpt>
      <trkpt lat="45.63231" lon="6.66868">
        <ele>2030.4</ele>
        <time>2022-01-01T12:30:30Z</time>
      </trkpt>
      <trkpt lat="45.63227" lon="6.6687">
        <ele>2030</ele>
        <time>2022-01-01T12:30:31Z</time>
      </trkpt>
      <trkpt lat="45.63212" lon="6.66873">
        <ele>2028.8</ele>
        <time>2022-01-01T12:30:35Z</time>
      </trkpt>
      <trkpt lat="45.63209" lon="6.66875">
        <ele>2028.6</ele>
        <time>2022-01-01T12:30:36Z</time>
      </trkpt>
      <trkpt lat="45.63205" lon="6.66882">
        <ele>2028</ele>
        <time>2022-01-01T12:30:38Z</time>
      </trkpt>
      <trkpt lat="45.63205" lon="6.66886">
        <ele>2027.4</ele>
        <time>2022-01-01T12:30:39Z</time>
      </trkpt>
      <trkpt lat="45.63204" lon="6.66897">
        <ele>2026</ele>
        <time>2022-01-01T12:30:41Z</time>
      </trkpt>
      <trkpt lat="45.63201" lon="6.66904">
        <ele>2025</ele>
        <time>2022-01-01T12:30:43Z</time>
      </trkpt>
      <trkpt lat="45.632" lon="6.66908">
        <ele>2024.6</ele>
        <time>2022-01-01T12:30:44Z</time>
      </trkpt>
      <trkpt lat="45.632" lon="6.66913">
        <ele>2024.2</ele>
        <time>2022-01-01T12:30:45Z</time>
      </trkpt>
      <trkpt lat="45.632" lon="6.66916">
        <ele>2023.6</ele>
        <time>2022-01-01T12:30:46Z</time>
      </trkpt>
      <trkpt lat="45.63201" lon="6.66921">
        <ele>2023.2</ele>
        <time>2022-01-01T12:30:47Z</time>
      </trkpt>
      <trkpt lat="45.63202" lon="6.66927">
        <ele>2022.4</ele>
        <time>2022-01-01T12:30:49Z</time>
      </trkpt>
      <trkpt lat="45.63201" lon="6.66927">
        <ele>2022</ele>
        <time>2022-01-01T12:30:50Z</time>
      </trkpt>
      <trkpt lat="45.63199" lon="6.6693">
        <ele>2021.4</ele>
        <time>2022-01-01T12:30:52Z</time>
      </trkpt>
      <trkpt lat="45.63199" lon="6.66937">
        <ele>2020.8</ele>
        <time>2022-01-01T12:30:54Z</time>
      </trkpt>
      <trkpt lat="45.63204" lon="6.66941">
        <ele>2019.2</ele>
        <time>2022-01-01T12:30:56Z</time>
      </trkpt>
      <trkpt lat="45.63207" lon="6.66942">
        <ele>2018.4</ele>
        <time>2022-01-01T12:30:57Z</time>
      </trkpt>
      <trkpt lat="45.63211" lon="6.66943">
        <ele>2017.6</ele>
        <time>2022-01-01T12:30:58Z</time>
      </trkpt>
      <trkpt lat="45.63219" lon="6.66948">
        <ele>2016.4</ele>
        <time>2022-01-01T12:31:01Z</time>
      </trkpt>
      <trkpt lat="45.63223" lon="6.66949">
        <ele>2016.2</ele>
        <time>2022-01-01T12:31:02Z</time>
      </trkpt>
      <trkpt lat="45.63233" lon="6.66952">
        <ele>2015.2</ele>
        <time>2022-01-01T12:31:05Z</time>
      </trkpt>
      <trkpt lat="45.63239" lon="6.66955">
        <ele>2014</ele>
        <time>2022-01-01T12:31:07Z</time>
      </trkpt>
      <trkpt lat="45.63246" lon="6.66957">
        <ele>2013.4</ele>
        <time>2022-01-01T12:31:09Z</time>
      </trkpt>
      <trkpt lat="45.63254" lon="6.66963">
        <ele>2012.8</ele>
        <time>2022-01-01T12:31:12Z</time>
      </trkpt>
      <trkpt lat="45.63258" lon="6.66972">
        <ele>2012.4</ele>
        <time>2022-01-01T12:31:14Z</time>
      </trkpt>
      <trkpt lat="45.63259" lon="6.66978">
        <ele>2011.8</ele>
        <time>2022-01-01T12:31:15Z</time>
      </trkpt>
      <trkpt lat="45.6326" lon="6.66984">
        <ele>2011</ele>
        <time>2022-01-01T12:31:16Z</time>
      </trkpt>
      <trkpt lat="45.63263" lon="6.66987">
        <ele>2010</ele>
        <time>2022-01-01T12:31:17Z</time>
      </trkpt>
      <trkpt lat="45.63266" lon="6.6699">
        <ele>2008.8</ele>
        <time>2022-01-01T12:31:18Z</time>
      </trkpt>
      <trkpt lat="45.6327" lon="6.66991">
        <ele>2007.8</ele>
        <time>2022-01-01T12:31:19Z</time>
      </trkpt>
      <trkpt lat="45.63278" lon="6.66991">
        <ele>2006.8</ele>
        <time>2022-01-01T12:31:22Z</time>
      </trkpt>
      <trkpt lat="45.6328" lon="6.66995">
        <ele>2006.6</ele>
        <time>2022-01-01T12:31:26Z</time>
      </trkpt>
      <trkpt lat="45.63278" lon="6.66998">
        <ele>2006.6</ele>
        <time>2022-01-01T12:31:27Z</time>
      </trkpt>
      <trkpt lat="45.63272" lon="6.67006">
        <ele>2006</ele>
        <time>2022-01-01T12:31:30Z</time>
      </trkpt>
      <trkpt lat="45.63273" lon="6.67008">
        <ele>2005.4</ele>
        <time>2022-01-01T12:31:31Z</time>
      </trkpt>
      <trkpt lat="45.63275" lon="6.6701">
        <ele>2004.2</ele>
        <time>2022-01-01T12:31:32Z</time>
      </trkpt>
      <trkpt lat="45.63277" lon="6.67011">
        <ele>2003</ele>
        <time>2022-01-01T12:31:33Z</time>
      </trkpt>
      <trkpt lat="45.63283" lon="6.67011">
        <ele>2002</ele>
        <time>2022-01-01T12:31:35Z</time>
      </trkpt>
      <trkpt lat="45.63289" lon="6.67012">
        <ele>2001.2</ele>
        <time>2022-01-01T12:31:37Z</time>
      </trkpt>
      <trkpt lat="45.63294" lon="6.67014">
        <ele>2000.8</ele>
        <time>2022-01-01T12:31:39Z</time>
      </trkpt>
      <trkpt lat="45.63303" lon="6.67019">
        <ele>1999.8</ele>
        <time>2022-01-01T12:31:43Z</time>
      </trkpt>
      <trkpt lat="45.6331" lon="6.67031">
        <ele>1998.4</ele>
        <time>2022-01-01T12:31:48Z</time>
      </trkpt>
      <trkpt lat="45.63313" lon="6.67039">
        <ele>1997</ele>
        <time>2022-01-01T12:31:51Z</time>
      </trkpt>
      <trkpt lat="45.63314" lon="6.67039">
        <ele>1996.6</ele>
        <time>2022-01-01T12:31:52Z</time>
      </trkpt>
      <trkpt lat="45.63315" lon="6.6704">
        <ele>1996</ele>
        <time>2022-01-01T12:31:53Z</time>
      </trkpt>
      <trkpt lat="45.63316" lon="6.6704">
        <ele>1995.4</ele>
        <time>2022-01-01T12:31:57Z</time>
      </trkpt>
      <trkpt lat="45.63319" lon="6.67044">
        <ele>1994.8</ele>
        <time>2022-01-01T12:32:01Z</time>
      </trkpt>
      <trkpt lat="45.63321" lon="6.67045">
        <ele>1994.4</ele>
        <time>2022-01-01T12:32:03Z</time>
      </trkpt>
      <trkpt lat="45.63322" lon="6.67046">
        <ele>1993.8</ele>
        <time>2022-01-01T12:32:04Z</time>
      </trkpt>
      <trkpt lat="45.63323" lon="6.67048">
        <ele>1993.2</ele>
        <time>2022-01-01T12:32:07Z</time>
      </trkpt>
      <trkpt lat="45.63325" lon="6.6705">
        <ele>1992.4</ele>
        <time>2022-01-01T12:32:09Z</time>
      </trkpt>
      <trkpt lat="45.63326" lon="6.67051">
        <ele>1991.4</ele>
        <time>2022-01-01T12:32:11Z</time>
      </trkpt>
      <trkpt lat="45.63326" lon="6.67051">
        <ele>1991</ele>
        <time>2022-01-01T12:32:12Z</time>
      </trkpt>
      <trkpt lat="45.63333" lon="6.6705">
        <ele>1989.6</ele>
        <time>2022-01-01T12:32:16Z</time>
      </trkpt>
      <trkpt lat="45.63337" lon="6.6705">
        <ele>1988.8</ele>
        <time>2022-01-01T12:32:17Z</time>
      </trkpt>
      <trkpt lat="45.63339" lon="6.6705">
        <ele>1988.4</ele>
        <time>2022-01-01T12:32:18Z</time>
      </trkpt>
      <trkpt lat="45.63345" lon="6.67053">
        <ele>1987.6</ele>
        <time>2022-01-01T12:32:21Z</time>
      </trkpt>
      <trkpt lat="45.63347" lon="6.67055">
        <ele>1987.4</ele>
        <time>2022-01-01T12:32:22Z</time>
      </trkpt>
      <trkpt lat="45.63352" lon="6.6706">
        <ele>1986.2</ele>
        <time>2022-01-01T12:32:25Z</time>
      </trkpt>
      <trkpt lat="45.6335" lon="6.67063">
        <ele>1986.2</ele>
        <time>2022-01-01T12:32:26Z</time>
      </trkpt>
      <trkpt lat="45.63342" lon="6.67067">
        <ele>1984.6</ele>
        <time>2022-01-01T12:32:29Z</time>
      </trkpt>
      <trkpt lat="45.6334" lon="6.67068">
        <ele>1984</ele>
        <time>2022-01-01T12:32:30Z</time>
      </trkpt>
      <trkpt lat="45.63339" lon="6.67069">
        <ele>1983.4</ele>
        <time>2022-01-01T12:32:31Z</time>
      </trkpt>
      <trkpt lat="45.63334" lon="6.67071">
        <ele>1982.4</ele>
        <time>2022-01-01T12:32:34Z</time>
      </trkpt>
      <trkpt lat="45.63331" lon="6.67074">
        <ele>1982</ele>
        <time>2022-01-01T12:32:36Z</time>
      </trkpt>
      <trkpt lat="45.63324" lon="6.67079">
        <ele>1981.2</ele>
        <time>2022-01-01T12:32:39Z</time>
      </trkpt>
      <trkpt lat="45.6332" lon="6.67082">
        <ele>1980.6</ele>
        <time>2022-01-01T12:32:41Z</time>
      </trkpt>
      <trkpt lat="45.63314" lon="6.67087">
        <ele>1980</ele>
        <time>2022-01-01T12:32:46Z</time>
      </trkpt>
      <trkpt lat="45.63314" lon="6.67088">
        <ele>1979.6</ele>
        <time>2022-01-01T12:32:47Z</time>
      </trkpt>
      <trkpt lat="45.63317" lon="6.67091">
        <ele>1978.4</ele>
        <time>2022-01-01T12:32:49Z</time>
      </trkpt>
      <trkpt lat="45.63319" lon="6.67092">
        <ele>1977.4</ele>
        <time>2022-01-01T12:32:50Z</time>
      </trkpt>
      <trkpt lat="45.63322" lon="6.67097">
        <ele>1976.2</ele>
        <time>2022-01-01T12:32:52Z</time>
      </trkpt>
      <trkpt lat="45.63321" lon="6.671">
        <ele>1975.8</ele>
        <time>2022-01-01T12:32:53Z</time>
      </trkpt>
      <trkpt lat="45.6332" lon="6.67101">
        <ele>1975.4</ele>
        <time>2022-01-01T12:32:54Z</time>
      </trkpt>
      <trkpt lat="45.63318" lon="6.67101">
        <ele>1974.8</ele>
        <time>2022-01-01T12:32:55Z</time>
      </trkpt>
      <trkpt lat="45.63316" lon="6.67101">
        <ele>1974.2</ele>
        <time>2022-01-01T12:32:56Z</time>
      </trkpt>
      <trkpt lat="45.63315" lon="6.67101">
        <ele>1973.8</ele>
        <time>2022-01-01T12:32:57Z</time>
      </trkpt>
      <trkpt lat="45.63315" lon="6.67101">
        <ele>1973.6</ele>
        <time>2022-01-01T12:32:58Z</time>
      </trkpt>
      <trkpt lat="45.63314" lon="6.67104">
        <ele>1972.8</ele>
        <time>2022-01-01T12:33:00Z</time>
      </trkpt>
      <trkpt lat="45.63315" lon="6.67108">
        <ele>1972.2</ele>
        <time>2022-01-01T12:33:01Z</time>
      </trkpt>
      <trkpt lat="45.6332" lon="6.67112">
        <ele>1970.8</ele>
        <time>2022-01-01T12:33:03Z</time>
      </trkpt>
      <trkpt lat="45.63327" lon="6.67116">
        <ele>1969.6</ele>
        <time>2022-01-01T12:33:07Z</time>
      </trkpt>
      <trkpt lat="45.63328" lon="6.67119">
        <ele>1969.4</ele>
        <time>2022-01-01T12:33:08Z</time>
      </trkpt>
      <trkpt lat="45.63328" lon="6.67124">
        <ele>1969</ele>
        <time>2022-01-01T12:33:10Z</time>
      </trkpt>
      <trkpt lat="45.63327" lon="6.67126">
        <ele>1968.4</ele>
        <time>2022-01-01T12:33:11Z</time>
      </trkpt>
      <trkpt lat="45.63326" lon="6.67132">
        <ele>1967.4</ele>
        <time>2022-01-01T12:33:14Z</time>
      </trkpt>
      <trkpt lat="45.63329" lon="6.67134">
        <ele>1965.8</ele>
        <time>2022-01-01T12:33:16Z</time>
      </trkpt>
      <trkpt lat="45.6333" lon="6.67134">
        <ele>1964.8</ele>
        <time>2022-01-01T12:33:18Z</time>
      </trkpt>
      <trkpt lat="45.63331" lon="6.67139">
        <ele>1964</ele>
        <time>2022-01-01T12:33:20Z</time>
      </trkpt>
      <trkpt lat="45.63329" lon="6.67141">
        <ele>1963.6</ele>
        <time>2022-01-01T12:33:21Z</time>
      </trkpt>
      <trkpt lat="45.63325" lon="6.67143">
        <ele>1962.4</ele>
        <time>2022-01-01T12:33:23Z</time>
      </trkpt>
      <trkpt lat="45.63321" lon="6.67147">
        <ele>1961.4</ele>
        <time>2022-01-01T12:33:26Z</time>
      </trkpt>
      <trkpt lat="45.63321" lon="6.67149">
        <ele>1960.8</ele>
        <time>2022-01-01T12:33:28Z</time>
      </trkpt>
      <trkpt lat="45.63322" lon="6.6715">
        <ele>1960.4</ele>
        <time>2022-01-01T12:33:29Z</time>
      </trkpt>
      <trkpt lat="45.63324" lon="6.6715">
        <ele>1959.6</ele>
        <time>2022-01-01T12:33:30Z</time>
      </trkpt>
      <trkpt lat="45.63326" lon="6.6715">
        <ele>1958.6</ele>
        <time>2022-01-01T12:33:31Z</time>
      </trkpt>
      <trkpt lat="45.63328" lon="6.67152">
        <ele>1957.6</ele>
        <time>2022-01-01T12:33:33Z</time>
      </trkpt>
      <trkpt lat="45.63327" lon="6.67155">
        <ele>1957.4</ele>
        <time>2022-01-01T12:33:34Z</time>
      </trkpt>
      <trkpt lat="45.63326" lon="6.67157">
        <ele>1957.2</ele>
        <time>2022-01-01T12:33:35Z</time>
      </trkpt>
      <trkpt lat="45.63323" lon="6.67159">
        <ele>1956.8</ele>
        <time>2022-01-01T12:33:36Z</time>
      </trkpt>
      <trkpt lat="45.6332" lon="6.6716">
        <ele>1956.2</ele>
        <time>2022-01-01T12:33:37Z</time>
      </trkpt>
      <trkpt lat="45.63318" lon="6.67161">
        <ele>1955.8</ele>
        <time>2022-01-01T12:33:38Z</time>
      </trkpt>
      <trkpt lat="45.63314" lon="6.67163">
        <ele>1955.2</ele>
        <time>2022-01-01T12:33:40Z</time>
      </trkpt>
      <trkpt lat="45.63306" lon="6.67167">
        <ele>1954.6</ele>
        <time>2022-01-01T12:33:42Z</time>
      </trkpt>
      <trkpt lat="45.63301" lon="6.67169">
        <ele>1953.6</ele>
        <time>2022-01-01T12:33:43Z</time>
      </trkpt>
      <trkpt lat="45.63295" lon="6.67174">
        <ele>1952</ele>
        <time>2022-01-01T12:33:45Z</time>
      </trkpt>
      <trkpt lat="45.63286" lon="6.67182">
        <ele>1950.8</ele>
        <time>2022-01-01T12:33:48Z</time>
      </trkpt>
      <trkpt lat="45.63272" lon="6.67193">
        <ele>1949.4</ele>
        <time>2022-01-01T12:33:52Z</time>
      </trkpt>
      <trkpt lat="45.63267" lon="6.67197">
        <ele>1948</ele>
        <time>2022-01-01T12:33:54Z</time>
      </trkpt>
      <trkpt lat="45.6326" lon="6.67202">
        <ele>1947</ele>
        <time>2022-01-01T12:33:57Z</time>
      </trkpt>
      <trkpt lat="45.63256" lon="6.67202">
        <ele>1945.6</ele>
        <time>2022-01-01T12:34:00Z</time>
      </trkpt>
      <trkpt lat="45.63255" lon="6.67212">
        <ele>1944.2</ele>
        <time>2022-01-01T12:34:05Z</time>
      </trkpt>
      <trkpt lat="45.63256" lon="6.67213">
        <ele>1943</ele>
        <time>2022-01-01T12:34:06Z</time>
      </trkpt>
      <trkpt lat="45.63256" lon="6.67213">
        <ele>1942</ele>
        <time>2022-01-01T12:34:07Z</time>
      </trkpt>
      <trkpt lat="45.63257" lon="6.67213">
        <ele>1941.2</ele>
        <time>2022-01-01T12:34:08Z</time>
      </trkpt>
      <trkpt lat="45.63258" lon="6.67212">
        <ele>1940.8</ele>
        <time>2022-01-01T12:34:09Z</time>
      </trkpt>
      <trkpt lat="45.63259" lon="6.67212">
        <ele>1940.4</ele>
        <time>2022-01-01T12:34:15Z</time>
      </trkpt>
      <trkpt lat="45.63257" lon="6.67222">
        <ele>1939.8</ele>
        <time>2022-01-01T12:34:20Z</time>
      </trkpt>
      <trkpt lat="45.63252" lon="6.67226">
        <ele>1938.8</ele>
        <time>2022-01-01T12:34:22Z</time>
      </trkpt>
      <trkpt lat="45.63248" lon="6.6723">
        <ele>1937.4</ele>
        <time>2022-01-01T12:34:24Z</time>
      </trkpt>
      <trkpt lat="45.63246" lon="6.67231">
        <ele>1936.8</ele>
        <time>2022-01-01T12:34:25Z</time>
      </trkpt>
      <trkpt lat="45.63244" lon="6.67232">
        <ele>1936</ele>
        <time>2022-01-01T12:34:26Z</time>
      </trkpt>
      <trkpt lat="45.63242" lon="6.67232">
        <ele>1934.8</ele>
        <time>2022-01-01T12:34:28Z</time>
      </trkpt>
      <trkpt lat="45.63239" lon="6.67233">
        <ele>1934</ele>
        <time>2022-01-01T12:34:30Z</time>
      </trkpt>
      <trkpt lat="45.63238" lon="6.67236">
        <ele>1933.6</ele>
        <time>2022-01-01T12:34:31Z</time>
      </trkpt>
      <trkpt lat="45.6324" lon="6.67239">
        <ele>1931.6</ele>
        <time>2022-01-01T12:34:33Z</time>
      </trkpt>
      <trkpt lat="45.6324" lon="6.67241">
        <ele>1930.6</ele>
        <time>2022-01-01T12:34:34Z</time>
      </trkpt>
      <trkpt lat="45.63239" lon="6.67243">
        <ele>1930.2</ele>
        <time>2022-01-01T12:34:35Z</time>
      </trkpt>
      <trkpt lat="45.63238" lon="6.67244">
        <ele>1929.6</ele>
        <time>2022-01-01T12:34:36Z</time>
      </trkpt>
      <trkpt lat="45.63236" lon="6.67248">
        <ele>1929</ele>
        <time>2022-01-01T12:34:39Z</time>
      </trkpt>
      <trkpt lat="45.63238" lon="6.6725">
        <ele>1927.8</ele>
        <time>2022-01-01T12:34:41Z</time>
      </trkpt>
      <trkpt lat="45.6324" lon="6.67251">
        <ele>1926.8</ele>
        <time>2022-01-01T12:34:42Z</time>
      </trkpt>
      <trkpt lat="45.63245" lon="6.67253">
        <ele>1925.4</ele>
        <time>2022-01-01T12:34:45Z</time>
      </trkpt>
      <trkpt lat="45.63246" lon="6.67254">
        <ele>1925.2</ele>
        <time>2022-01-01T12:34:46Z</time>
      </trkpt>
      <trkpt lat="45.63248" lon="6.67254">
        <ele>1924</ele>
        <time>2022-01-01T12:34:47Z</time>
      </trkpt>
      <trkpt lat="45.63253" lon="6.67255">
        <ele>1923</ele>
        <time>2022-01-01T12:34:49Z</time>
      </trkpt>
      <trkpt lat="45.63259" lon="6.67255">
        <ele>1921.8</ele>
        <time>2022-01-01T12:34:51Z</time>
      </trkpt>
      <trkpt lat="45.63267" lon="6.67255">
        <ele>1920.8</ele>
        <time>2022-01-01T12:34:54Z</time>
      </trkpt>
      <trkpt lat="45.63273" lon="6.67256">
        <ele>1920</ele>
        <time>2022-01-01T12:34:57Z</time>
      </trkpt>
      <trkpt lat="45.63275" lon="6.67256">
        <ele>1919.8</ele>
        <time>2022-01-01T12:34:58Z</time>
      </trkpt>
      <trkpt lat="45.63275" lon="6.67257">
        <ele>1919.6</ele>
        <time>2022-01-01T12:34:59Z</time>
      </trkpt>
      <trkpt lat="45.63276" lon="6.67257">
        <ele>1919.2</ele>
        <time>2022-01-01T12:35:01Z</time>
      </trkpt>
      <trkpt lat="45.63276" lon="6.67258">
        <ele>1918.8</ele>
        <time>2022-01-01T12:35:08Z</time>
      </trkpt>
      <trkpt lat="45.63276" lon="6.67258">
        <ele>1918.6</ele>
        <time>2022-01-01T12:35:20Z</time>
      </trkpt>
      <trkpt lat="45.63276" lon="6.67257">
        <ele>1919</ele>
        <time>2022-01-01T12:35:38Z</time>
      </trkpt>
      <trkpt lat="45.63277" lon="6.67265">
        <ele>1917.8</ele>
        <time>2022-01-01T12:36:21Z</time>
      </trkpt>
      <trkpt lat="45.63275" lon="6.67268">
        <ele>1917.2</ele>
        <time>2022-01-01T12:36:22Z</time>
      </trkpt>
      <trkpt lat="45.63271" lon="6.67273">
        <ele>1915.4</ele>
        <time>2022-01-01T12:36:24Z</time>
      </trkpt>
      <trkpt lat="45.63267" lon="6.67276">
        <ele>1914</ele>
        <time>2022-01-01T12:36:26Z</time>
      </trkpt>
      <trkpt lat="45.63261" lon="6.67282">
        <ele>1912.6</ele>
        <time>2022-01-01T12:36:30Z</time>
      </trkpt>
      <trkpt lat="45.63259" lon="6.67283">
        <ele>1912</ele>
        <time>2022-01-01T12:36:31Z</time>
      </trkpt>
      <trkpt lat="45.63258" lon="6.67284">
        <ele>1911.4</ele>
        <time>2022-01-01T12:36:33Z</time>
      </trkpt>
      <trkpt lat="45.63257" lon="6.67286">
        <ele>1911</ele>
        <time>2022-01-01T12:36:35Z</time>
      </trkpt>
      <trkpt lat="45.63259" lon="6.67287">
        <ele>1910.6</ele>
        <time>2022-01-01T12:36:36Z</time>
      </trkpt>
      <trkpt lat="45.6326" lon="6.67287">
        <ele>1910.2</ele>
        <time>2022-01-01T12:36:37Z</time>
      </trkpt>
      <trkpt lat="45.63265" lon="6.67287">
        <ele>1908.8</ele>
        <time>2022-01-01T12:36:39Z</time>
      </trkpt>
      <trkpt lat="45.63266" lon="6.67288">
        <ele>1907.8</ele>
        <time>2022-01-01T12:36:41Z</time>
      </trkpt>
      <trkpt lat="45.63268" lon="6.67291">
        <ele>1907.4</ele>
        <time>2022-01-01T12:36:43Z</time>
      </trkpt>
      <trkpt lat="45.63267" lon="6.67298">
        <ele>1906.8</ele>
        <time>2022-01-01T12:36:47Z</time>
      </trkpt>
      <trkpt lat="45.63267" lon="6.673">
        <ele>1906.4</ele>
        <time>2022-01-01T12:36:48Z</time>
      </trkpt>
      <trkpt lat="45.63261" lon="6.67312">
        <ele>1905.8</ele>
        <time>2022-01-01T12:36:53Z</time>
      </trkpt>
      <trkpt lat="45.6326" lon="6.67317">
        <ele>1905.8</ele>
        <time>2022-01-01T12:36:54Z</time>
      </trkpt>
      <trkpt lat="45.63259" lon="6.67326">
        <ele>1904.6</ele>
        <time>2022-01-01T12:36:56Z</time>
      </trkpt>
      <trkpt lat="45.63259" lon="6.67331">
        <ele>1904.2</ele>
        <time>2022-01-01T12:36:57Z</time>
      </trkpt>
      <trkpt lat="45.63255" lon="6.67339">
        <ele>1903</ele>
        <time>2022-01-01T12:36:59Z</time>
      </trkpt>
      <trkpt lat="45.63253" lon="6.67341">
        <ele>1902.6</ele>
        <time>2022-01-01T12:37:00Z</time>
      </trkpt>
      <trkpt lat="45.63246" lon="6.67343">
        <ele>1901.8</ele>
        <time>2022-01-01T12:37:02Z</time>
      </trkpt>
      <trkpt lat="45.6324" lon="6.67345">
        <ele>1901.2</ele>
        <time>2022-01-01T12:37:04Z</time>
      </trkpt>
      <trkpt lat="45.63233" lon="6.67348">
        <ele>1900.8</ele>
        <time>2022-01-01T12:37:07Z</time>
      </trkpt>
      <trkpt lat="45.6323" lon="6.67349">
        <ele>1900.8</ele>
        <time>2022-01-01T12:37:08Z</time>
      </trkpt>
      <trkpt lat="45.63226" lon="6.67351">
        <ele>1900.2</ele>
        <time>2022-01-01T12:37:09Z</time>
      </trkpt>
      <trkpt lat="45.63223" lon="6.67354">
        <ele>1899.6</ele>
        <time>2022-01-01T12:37:10Z</time>
      </trkpt>
      <trkpt lat="45.63216" lon="6.67357">
        <ele>1898.6</ele>
        <time>2022-01-01T12:37:12Z</time>
      </trkpt>
      <trkpt lat="45.63209" lon="6.6736">
        <ele>1897.6</ele>
        <time>2022-01-01T12:37:14Z</time>
      </trkpt>
      <trkpt lat="45.63203" lon="6.67366">
        <ele>1896</ele>
        <time>2022-01-01T12:37:16Z</time>
      </trkpt>
      <trkpt lat="45.63193" lon="6.67371">
        <ele>1894.4</ele>
        <time>2022-01-01T12:37:18Z</time>
      </trkpt>
      <trkpt lat="45.63184" lon="6.67378">
        <ele>1892.8</ele>
        <time>2022-01-01T12:37:20Z</time>
      </trkpt>
      <trkpt lat="45.63178" lon="6.67388">
        <ele>1891.4</ele>
        <time>2022-01-01T12:37:22Z</time>
      </trkpt>
      <trkpt lat="45.63175" lon="6.67392">
        <ele>1890.6</ele>
        <time>2022-01-01T12:37:23Z</time>
      </trkpt>
      <trkpt lat="45.63172" lon="6.67397">
        <ele>1890</ele>
        <time>2022-01-01T12:37:24Z</time>
      </trkpt>
      <trkpt lat="45.63165" lon="6.67405">
        <ele>1888.8</ele>
        <time>2022-01-01T12:37:26Z</time>
      </trkpt>
      <trkpt lat="45.63162" lon="6.6741">
        <ele>1888.2</ele>
        <time>2022-01-01T12:37:27Z</time>
      </trkpt>
      <trkpt lat="45.63159" lon="6.67415">
        <ele>1887.4</ele>
        <time>2022-01-01T12:37:28Z</time>
      </trkpt>
      <trkpt lat="45.63152" lon="6.67426">
        <ele>1886.2</ele>
        <time>2022-01-01T12:37:31Z</time>
      </trkpt>
      <trkpt lat="45.63149" lon="6.6743">
        <ele>1886</ele>
        <time>2022-01-01T12:37:32Z</time>
      </trkpt>
      <trkpt lat="45.63137" lon="6.67437">
        <ele>1885</ele>
        <time>2022-01-01T12:37:35Z</time>
      </trkpt>
      <trkpt lat="45.63133" lon="6.6744">
        <ele>1884</ele>
        <time>2022-01-01T12:37:36Z</time>
      </trkpt>
      <trkpt lat="45.63128" lon="6.67443">
        <ele>1883.4</ele>
        <time>2022-01-01T12:37:37Z</time>
      </trkpt>
      <trkpt lat="45.63123" lon="6.67445">
        <ele>1882.8</ele>
        <time>2022-01-01T12:37:38Z</time>
      </trkpt>
      <trkpt lat="45.63119" lon="6.67445">
        <ele>1882.4</ele>
        <time>2022-01-01T12:37:40Z</time>
      </trkpt>
      <trkpt lat="45.63116" lon="6.67445">
        <ele>1882.2</ele>
        <time>2022-01-01T12:37:43Z</time>
      </trkpt>
      <trkpt lat="45.63107" lon="6.67448">
        <ele>1881.8</ele>
        <time>2022-01-01T12:37:49Z</time>
      </trkpt>
      <trkpt lat="45.63105" lon="6.67451">
        <ele>1881.2</ele>
        <time>2022-01-01T12:37:50Z</time>
      </trkpt>
      <trkpt lat="45.63099" lon="6.67459">
        <ele>1880.2</ele>
        <time>2022-01-01T12:37:52Z</time>
      </trkpt>
      <trkpt lat="45.63091" lon="6.67465">
        <ele>1879</ele>
        <time>2022-01-01T12:37:54Z</time>
      </trkpt>
      <trkpt lat="45.63082" lon="6.67472">
        <ele>1877.6</ele>
        <time>2022-01-01T12:37:56Z</time>
      </trkpt>
      <trkpt lat="45.63076" lon="6.67481">
        <ele>1875.8</ele>
        <time>2022-01-01T12:37:58Z</time>
      </trkpt>
      <trkpt lat="45.63069" lon="6.67487">
        <ele>1874.4</ele>
        <time>2022-01-01T12:38:00Z</time>
      </trkpt>
      <trkpt lat="45.63063" lon="6.67493">
        <ele>1873.2</ele>
        <time>2022-01-01T12:38:02Z</time>
      </trkpt>
      <trkpt lat="45.6306" lon="6.67496">
        <ele>1872.8</ele>
        <time>2022-01-01T12:38:03Z</time>
      </trkpt>
      <trkpt lat="45.63052" lon="6.67504">
        <ele>1871.8</ele>
        <time>2022-01-01T12:38:05Z</time>
      </trkpt>
      <trkpt lat="45.63044" lon="6.6751">
        <ele>1870.2</ele>
        <time>2022-01-01T12:38:07Z</time>
      </trkpt>
      <trkpt lat="45.63034" lon="6.67517">
        <ele>1869</ele>
        <time>2022-01-01T12:38:09Z</time>
      </trkpt>
      <trkpt lat="45.63029" lon="6.67521">
        <ele>1867.8</ele>
        <time>2022-01-01T12:38:10Z</time>
      </trkpt>
      <trkpt lat="45.63025" lon="6.67525">
        <ele>1867</ele>
        <time>2022-01-01T12:38:11Z</time>
      </trkpt>
      <trkpt lat="45.6302" lon="6.67529">
        <ele>1866.4</ele>
        <time>2022-01-01T12:38:12Z</time>
      </trkpt>
      <trkpt lat="45.63011" lon="6.67536">
        <ele>1864.6</ele>
        <time>2022-01-01T12:38:14Z</time>
      </trkpt>
      <trkpt lat="45.63005" lon="6.67538">
        <ele>1863.8</ele>
        <time>2022-01-01T12:38:15Z</time>
      </trkpt>
      <trkpt lat="45.63" lon="6.6754">
        <ele>1863.4</ele>
        <time>2022-01-01T12:38:16Z</time>
      </trkpt>
      <trkpt lat="45.62996" lon="6.67542">
        <ele>1862.2</ele>
        <time>2022-01-01T12:38:17Z</time>
      </trkpt>
      <trkpt lat="45.62986" lon="6.67547">
        <ele>1860.6</ele>
        <time>2022-01-01T12:38:19Z</time>
      </trkpt>
      <trkpt lat="45.6298" lon="6.67549">
        <ele>1859.6</ele>
        <time>2022-01-01T12:38:20Z</time>
      </trkpt>
      <trkpt lat="45.62974" lon="6.6755">
        <ele>1858.8</ele>
        <time>2022-01-01T12:38:21Z</time>
      </trkpt>
      <trkpt lat="45.62962" lon="6.67552">
        <ele>1857</ele>
        <time>2022-01-01T12:38:23Z</time>
      </trkpt>
      <trkpt lat="45.62955" lon="6.67552">
        <ele>1856</ele>
        <time>2022-01-01T12:38:24Z</time>
      </trkpt>
      <trkpt lat="45.6295" lon="6.67554">
        <ele>1855.2</ele>
        <time>2022-01-01T12:38:25Z</time>
      </trkpt>
      <trkpt lat="45.62945" lon="6.67558">
        <ele>1854.2</ele>
        <time>2022-01-01T12:38:26Z</time>
      </trkpt>
      <trkpt lat="45.62941" lon="6.67561">
        <ele>1853.4</ele>
        <time>2022-01-01T12:38:27Z</time>
      </trkpt>
      <trkpt lat="45.62937" lon="6.67564">
        <ele>1852.8</ele>
        <time>2022-01-01T12:38:28Z</time>
      </trkpt>
      <trkpt lat="45.62933" lon="6.67567">
        <ele>1852.6</ele>
        <time>2022-01-01T12:38:29Z</time>
      </trkpt>
      <trkpt lat="45.62922" lon="6.67577">
        <ele>1851.6</ele>
        <time>2022-01-01T12:38:32Z</time>
      </trkpt>
      <trkpt lat="45.6291" lon="6.67583">
        <ele>1850.4</ele>
        <time>2022-01-01T12:38:35Z</time>
      </trkpt>
      <trkpt lat="45.62903" lon="6.67585">
        <ele>1849.8</ele>
        <time>2022-01-01T12:38:37Z</time>
      </trkpt>
      <trkpt lat="45.62896" lon="6.67588">
        <ele>1849.4</ele>
        <time>2022-01-01T12:38:39Z</time>
      </trkpt>
      <trkpt lat="45.62892" lon="6.67589">
        <ele>1849.2</ele>
        <time>2022-01-01T12:38:40Z</time>
      </trkpt>
      <trkpt lat="45.62879" lon="6.67598">
        <ele>1848</ele>
        <time>2022-01-01T12:38:44Z</time>
      </trkpt>
      <trkpt lat="45.62875" lon="6.67605">
        <ele>1847.2</ele>
        <time>2022-01-01T12:38:46Z</time>
      </trkpt>
      <trkpt lat="45.62872" lon="6.6761">
        <ele>1847</ele>
        <time>2022-01-01T12:38:47Z</time>
      </trkpt>
      <trkpt lat="45.62869" lon="6.67614">
        <ele>1846.2</ele>
        <time>2022-01-01T12:38:51Z</time>
      </trkpt>
      <trkpt lat="45.62863" lon="6.67619">
        <ele>1846.2</ele>
        <time>2022-01-01T12:38:58Z</time>
      </trkpt>
      <trkpt lat="45.62861" lon="6.67621">
        <ele>1846</ele>
        <time>2022-01-01T12:39:02Z</time>
      </trkpt>
      <trkpt lat="45.62857" lon="6.67626">
        <ele>1845.2</ele>
        <time>2022-01-01T12:39:08Z</time>
      </trkpt>
      <trkpt lat="45.62853" lon="6.67631">
        <ele>1844.8</ele>
        <time>2022-01-01T12:39:10Z</time>
      </trkpt>
      <trkpt lat="45.62846" lon="6.67638">
        <ele>1844.2</ele>
        <time>2022-01-01T12:39:12Z</time>
      </trkpt>
      <trkpt lat="45.6284" lon="6.67648">
        <ele>1843.6</ele>
        <time>2022-01-01T12:39:14Z</time>
      </trkpt>
      <trkpt lat="45.62831" lon="6.67662">
        <ele>1842.2</ele>
        <time>2022-01-01T12:39:17Z</time>
      </trkpt>
      <trkpt lat="45.62827" lon="6.67666">
        <ele>1842</ele>
        <time>2022-01-01T12:39:18Z</time>
      </trkpt>
      <trkpt lat="45.62824" lon="6.6767">
        <ele>1841.8</ele>
        <time>2022-01-01T12:39:19Z</time>
      </trkpt>
      <trkpt lat="45.62817" lon="6.67677">
        <ele>1841.2</ele>
        <time>2022-01-01T12:39:21Z</time>
      </trkpt>
      <trkpt lat="45.62807" lon="6.67685">
        <ele>1840.2</ele>
        <time>2022-01-01T12:39:24Z</time>
      </trkpt>
      <trkpt lat="45.62804" lon="6.67688">
        <ele>1840</ele>
        <time>2022-01-01T12:39:25Z</time>
      </trkpt>
      <trkpt lat="45.62788" lon="6.67704">
        <ele>1839.2</ele>
        <time>2022-01-01T12:39:31Z</time>
      </trkpt>
      <trkpt lat="45.62786" lon="6.67707">
        <ele>1839</ele>
        <time>2022-01-01T12:39:32Z</time>
      </trkpt>
      <trkpt lat="45.62772" lon="6.67722">
        <ele>1838</ele>
        <time>2022-01-01T12:39:37Z</time>
      </trkpt>
      <trkpt lat="45.62762" lon="6.67739">
        <ele>1836.8</ele>
        <time>2022-01-01T12:39:43Z</time>
      </trkpt>
      <trkpt lat="45.62757" lon="6.67746">
        <ele>1836.8</ele>
        <time>2022-01-01T12:39:47Z</time>
      </trkpt>
      <trkpt lat="45.62756" lon="6.67751">
        <ele>1836.8</ele>
        <time>2022-01-01T12:39:49Z</time>
      </trkpt>
      <trkpt lat="45.62751" lon="6.6776">
        <ele>1836</ele>
        <time>2022-01-01T12:39:52Z</time>
      </trkpt>
      <trkpt lat="45.62749" lon="6.67763">
        <ele>1835.6</ele>
        <time>2022-01-01T12:39:53Z</time>
      </trkpt>
      <trkpt lat="45.62745" lon="6.67768">
        <ele>1835.6</ele>
        <time>2022-01-01T12:39:58Z</time>
      </trkpt>
      <trkpt lat="45.62743" lon="6.6777">
        <ele>1835.8</ele>
        <time>2022-01-01T12:40:05Z</time>
      </trkpt>
      <trkpt lat="45.62739" lon="6.67774">
        <ele>1835.6</ele>
        <time>2022-01-01T12:40:12Z</time>
      </trkpt>
      <trkpt lat="45.62736" lon="6.67774">
        <ele>1836.2</ele>
        <time>2022-01-01T12:40:19Z</time>
      </trkpt>
      <trkpt lat="45.62734" lon="6.67776">
        <ele>1836.4</ele>
        <time>2022-01-01T12:40:31Z</time>
      </trkpt>
      <trkpt lat="45.62735" lon="6.67772">
        <ele>1835.4</ele>
        <time>2022-01-01T12:41:02Z</time>
      </trkpt>
      <trkpt lat="45.62731" lon="6.67775">
        <ele>1835.4</ele>
        <time>2022-01-01T12:41:24Z</time>
      </trkpt>
      <trkpt lat="45.62722" lon="6.67789">
        <ele>1835.4</ele>
        <time>2022-01-01T12:41:29Z</time>
      </trkpt>
      <trkpt lat="45.62718" lon="6.67796">
        <ele>1835.2</ele>
        <time>2022-01-01T12:41:31Z</time>
      </trkpt>
      <trkpt lat="45.62714" lon="6.678">
        <ele>1834.4</ele>
        <time>2022-01-01T12:41:34Z</time>
      </trkpt>
      <trkpt lat="45.62708" lon="6.67803">
        <ele>1833.8</ele>
        <time>2022-01-01T12:41:37Z</time>
      </trkpt>
      <trkpt lat="45.62705" lon="6.67804">
        <ele>1833.6</ele>
        <time>2022-01-01T12:41:38Z</time>
      </trkpt>
      <trkpt lat="45.62702" lon="6.67806">
        <ele>1833.2</ele>
        <time>2022-01-01T12:41:39Z</time>
      </trkpt>
      <trkpt lat="45.62696" lon="6.67808">
        <ele>1831.8</ele>
        <time>2022-01-01T12:41:41Z</time>
      </trkpt>
      <trkpt lat="45.62691" lon="6.67809">
        <ele>1831</ele>
        <time>2022-01-01T12:41:43Z</time>
      </trkpt>
      <trkpt lat="45.62688" lon="6.67811">
        <ele>1830.8</ele>
        <time>2022-01-01T12:41:44Z</time>
      </trkpt>
      <trkpt lat="45.62682" lon="6.67817">
        <ele>1829.4</ele>
        <time>2022-01-01T12:41:48Z</time>
      </trkpt>
      <trkpt lat="45.62679" lon="6.67817">
        <ele>1829.2</ele>
        <time>2022-01-01T12:41:50Z</time>
      </trkpt>
      <trkpt lat="45.62674" lon="6.67818">
        <ele>1828.4</ele>
        <time>2022-01-01T12:41:52Z</time>
      </trkpt>
      <trkpt lat="45.62673" lon="6.67817">
        <ele>1828.2</ele>
        <time>2022-01-01T12:41:53Z</time>
      </trkpt>
      <trkpt lat="45.62661" lon="6.6782">
        <ele>1827</ele>
        <time>2022-01-01T12:41:57Z</time>
      </trkpt>
      <trkpt lat="45.62655" lon="6.67822">
        <ele>1825.8</ele>
        <time>2022-01-01T12:42:00Z</time>
      </trkpt>
      <trkpt lat="45.62653" lon="6.67823">
        <ele>1825.6</ele>
        <time>2022-01-01T12:42:01Z</time>
      </trkpt>
      <trkpt lat="45.62644" lon="6.67815">
        <ele>1824.2</ele>
        <time>2022-01-01T12:42:05Z</time>
      </trkpt>
      <trkpt lat="45.62638" lon="6.67811">
        <ele>1822.2</ele>
        <time>2022-01-01T12:42:07Z</time>
      </trkpt>
      <trkpt lat="45.62635" lon="6.67806">
        <ele>1821.4</ele>
        <time>2022-01-01T12:42:08Z</time>
      </trkpt>
      <trkpt lat="45.62634" lon="6.678">
        <ele>1820</ele>
        <time>2022-01-01T12:42:09Z</time>
      </trkpt>
      <trkpt lat="45.62633" lon="6.67795">
        <ele>1818.8</ele>
        <time>2022-01-01T12:42:10Z</time>
      </trkpt>
      <trkpt lat="45.62631" lon="6.67792">
        <ele>1818</ele>
        <time>2022-01-01T12:42:11Z</time>
      </trkpt>
      <trkpt lat="45.62628" lon="6.67792">
        <ele>1817.2</ele>
        <time>2022-01-01T12:42:12Z</time>
      </trkpt>
      <trkpt lat="45.62626" lon="6.67793">
        <ele>1816</ele>
        <time>2022-01-01T12:42:13Z</time>
      </trkpt>
      <trkpt lat="45.62621" lon="6.67793">
        <ele>1815</ele>
        <time>2022-01-01T12:42:15Z</time>
      </trkpt>
      <trkpt lat="45.62619" lon="6.6779">
        <ele>1814.6</ele>
        <time>2022-01-01T12:42:16Z</time>
      </trkpt>
      <trkpt lat="45.62616" lon="6.67789">
        <ele>1813.6</ele>
        <time>2022-01-01T12:42:18Z</time>
      </trkpt>
      <trkpt lat="45.62612" lon="6.67788">
        <ele>1812.2</ele>
        <time>2022-01-01T12:42:20Z</time>
      </trkpt>
      <trkpt lat="45.62609" lon="6.67789">
        <ele>1810.8</ele>
        <time>2022-01-01T12:42:23Z</time>
      </trkpt>
      <trkpt lat="45.62605" lon="6.67785">
        <ele>1810.4</ele>
        <time>2022-01-01T12:42:25Z</time>
      </trkpt>
      <trkpt lat="45.62603" lon="6.67782">
        <ele>1810.2</ele>
        <time>2022-01-01T12:42:26Z</time>
      </trkpt>
      <trkpt lat="45.62601" lon="6.67779">
        <ele>1809.2</ele>
        <time>2022-01-01T12:42:27Z</time>
      </trkpt>
      <trkpt lat="45.62598" lon="6.67777">
        <ele>1808.6</ele>
        <time>2022-01-01T12:42:28Z</time>
      </trkpt>
      <trkpt lat="45.62595" lon="6.67777">
        <ele>1807.4</ele>
        <time>2022-01-01T12:42:29Z</time>
      </trkpt>
      <trkpt lat="45.62593" lon="6.67777">
        <ele>1806.2</ele>
        <time>2022-01-01T12:42:30Z</time>
      </trkpt>
      <trkpt lat="45.62591" lon="6.67778">
        <ele>1805.2</ele>
        <time>2022-01-01T12:42:31Z</time>
      </trkpt>
      <trkpt lat="45.6259" lon="6.67778">
        <ele>1804.4</ele>
        <time>2022-01-01T12:42:32Z</time>
      </trkpt>
      <trkpt lat="45.62588" lon="6.6778">
        <ele>1803.8</ele>
        <time>2022-01-01T12:42:33Z</time>
      </trkpt>
      <trkpt lat="45.62584" lon="6.67783">
        <ele>1803.2</ele>
        <time>2022-01-01T12:42:35Z</time>
      </trkpt>
      <trkpt lat="45.62583" lon="6.67784">
        <ele>1803</ele>
        <time>2022-01-01T12:42:36Z</time>
      </trkpt>
      <trkpt lat="45.62583" lon="6.67783">
        <ele>1802.8</ele>
        <time>2022-01-01T12:42:37Z</time>
      </trkpt>
      <trkpt lat="45.62582" lon="6.67782">
        <ele>1802.6</ele>
        <time>2022-01-01T12:42:38Z</time>
      </trkpt>
      <trkpt lat="45.62578" lon="6.67775">
        <ele>1801.6</ele>
        <time>2022-01-01T12:42:42Z</time>
      </trkpt>
      <trkpt lat="45.62577" lon="6.67773">
        <ele>1801</ele>
        <time>2022-01-01T12:42:44Z</time>
      </trkpt>
      <trkpt lat="45.62577" lon="6.67773">
        <ele>1800.6</ele>
        <time>2022-01-01T12:42:45Z</time>
      </trkpt>
      <trkpt lat="45.62576" lon="6.67773">
        <ele>1800</ele>
        <time>2022-01-01T12:42:49Z</time>
      </trkpt>
      <trkpt lat="45.62571" lon="6.67767">
        <ele>1799.4</ele>
        <time>2022-01-01T12:42:53Z</time>
      </trkpt>
      <trkpt lat="45.62569" lon="6.67765">
        <ele>1798.6</ele>
        <time>2022-01-01T12:42:54Z</time>
      </trkpt>
      <trkpt lat="45.62568" lon="6.67763">
        <ele>1798</ele>
        <time>2022-01-01T12:42:55Z</time>
      </trkpt>
      <trkpt lat="45.62564" lon="6.67758">
        <ele>1796.8</ele>
        <time>2022-01-01T12:42:58Z</time>
      </trkpt>
      <trkpt lat="45.62562" lon="6.67753">
        <ele>1796</ele>
        <time>2022-01-01T12:42:59Z</time>
      </trkpt>
      <trkpt lat="45.6256" lon="6.6775">
        <ele>1795.4</ele>
        <time>2022-01-01T12:43:00Z</time>
      </trkpt>
      <trkpt lat="45.62559" lon="6.67747">
        <ele>1793.6</ele>
        <time>2022-01-01T12:43:02Z</time>
      </trkpt>
      <trkpt lat="45.62558" lon="6.67746">
        <ele>1793</ele>
        <time>2022-01-01T12:43:03Z</time>
      </trkpt>
      <trkpt lat="45.62552" lon="6.67745">
        <ele>1792.2</ele>
        <time>2022-01-01T12:43:05Z</time>
      </trkpt>
      <trkpt lat="45.62546" lon="6.67746">
        <ele>1790.8</ele>
        <time>2022-01-01T12:43:07Z</time>
      </trkpt>
      <trkpt lat="45.6254" lon="6.67751">
        <ele>1789.6</ele>
        <time>2022-01-01T12:43:09Z</time>
      </trkpt>
      <trkpt lat="45.62534" lon="6.67758">
        <ele>1788.4</ele>
        <time>2022-01-01T12:43:11Z</time>
      </trkpt>
      <trkpt lat="45.62528" lon="6.6777">
        <ele>1787.6</ele>
        <time>2022-01-01T12:43:15Z</time>
      </trkpt>
      <trkpt lat="45.62523" lon="6.67775">
        <ele>1787.4</ele>
        <time>2022-01-01T12:43:18Z</time>
      </trkpt>
      <trkpt lat="45.62513" lon="6.67777">
        <ele>1786.6</ele>
        <time>2022-01-01T12:43:21Z</time>
      </trkpt>
      <trkpt lat="45.62509" lon="6.67777">
        <ele>1786.2</ele>
        <time>2022-01-01T12:43:22Z</time>
      </trkpt>
      <trkpt lat="45.62499" lon="6.67786">
        <ele>1784.8</ele>
        <time>2022-01-01T12:43:25Z</time>
      </trkpt>
      <trkpt lat="45.62494" lon="6.67797">
        <ele>1783.8</ele>
        <time>2022-01-01T12:43:27Z</time>
      </trkpt>
      <trkpt lat="45.62488" lon="6.67807">
        <ele>1782.4</ele>
        <time>2022-01-01T12:43:29Z</time>
      </trkpt>
      <trkpt lat="45.62484" lon="6.67811">
        <ele>1781.6</ele>
        <time>2022-01-01T12:43:30Z</time>
      </trkpt>
      <trkpt lat="45.6248" lon="6.67815">
        <ele>1781</ele>
        <time>2022-01-01T12:43:31Z</time>
      </trkpt>
      <trkpt lat="45.62472" lon="6.67822">
        <ele>1779.8</ele>
        <time>2022-01-01T12:43:33Z</time>
      </trkpt>
      <trkpt lat="45.6246" lon="6.67831">
        <ele>1779</ele>
        <time>2022-01-01T12:43:36Z</time>
      </trkpt>
      <trkpt lat="45.62457" lon="6.67833">
        <ele>1778.2</ele>
        <time>2022-01-01T12:43:37Z</time>
      </trkpt>
      <trkpt lat="45.62449" lon="6.67838">
        <ele>1776.8</ele>
        <time>2022-01-01T12:43:39Z</time>
      </trkpt>
      <trkpt lat="45.6244" lon="6.67846">
        <ele>1775.8</ele>
        <time>2022-01-01T12:43:41Z</time>
      </trkpt>
      <trkpt lat="45.62431" lon="6.67854">
        <ele>1774.6</ele>
        <time>2022-01-01T12:43:43Z</time>
      </trkpt>
      <trkpt lat="45.62423" lon="6.67863">
        <ele>1773</ele>
        <time>2022-01-01T12:43:45Z</time>
      </trkpt>
      <trkpt lat="45.62415" lon="6.67872">
        <ele>1771.6</ele>
        <time>2022-01-01T12:43:47Z</time>
      </trkpt>
      <trkpt lat="45.62408" lon="6.67879">
        <ele>1770.6</ele>
        <time>2022-01-01T12:43:49Z</time>
      </trkpt>
      <trkpt lat="45.624" lon="6.67877">
        <ele>1769.4</ele>
        <time>2022-01-01T12:43:51Z</time>
      </trkpt>
      <trkpt lat="45.62398" lon="6.67872">
        <ele>1768.6</ele>
        <time>2022-01-01T12:43:52Z</time>
      </trkpt>
      <trkpt lat="45.62396" lon="6.67866">
        <ele>1767.2</ele>
        <time>2022-01-01T12:43:53Z</time>
      </trkpt>
      <trkpt lat="45.62395" lon="6.67861">
        <ele>1766.2</ele>
        <time>2022-01-01T12:43:54Z</time>
      </trkpt>
      <trkpt lat="45.62393" lon="6.67857">
        <ele>1765.2</ele>
        <time>2022-01-01T12:43:55Z</time>
      </trkpt>
      <trkpt lat="45.62391" lon="6.67855">
        <ele>1764.8</ele>
        <time>2022-01-01T12:43:56Z</time>
      </trkpt>
      <trkpt lat="45.62388" lon="6.67856">
        <ele>1764.2</ele>
        <time>2022-01-01T12:43:57Z</time>
      </trkpt>
      <trkpt lat="45.62383" lon="6.67858">
        <ele>1763.4</ele>
        <time>2022-01-01T12:43:58Z</time>
      </trkpt>
      <trkpt lat="45.62379" lon="6.67861">
        <ele>1762.8</ele>
        <time>2022-01-01T12:43:59Z</time>
      </trkpt>
      <trkpt lat="45.62374" lon="6.67864">
        <ele>1761.8</ele>
        <time>2022-01-01T12:44:00Z</time>
      </trkpt>
      <trkpt lat="45.62369" lon="6.67869">
        <ele>1761.2</ele>
        <time>2022-01-01T12:44:01Z</time>
      </trkpt>
      <trkpt lat="45.62363" lon="6.67872">
        <ele>1760.6</ele>
        <time>2022-01-01T12:44:02Z</time>
      </trkpt>
      <trkpt lat="45.62358" lon="6.67875">
        <ele>1760</ele>
        <time>2022-01-01T12:44:03Z</time>
      </trkpt>
      <trkpt lat="45.62352" lon="6.67878">
        <ele>1759</ele>
        <time>2022-01-01T12:44:04Z</time>
      </trkpt>
      <trkpt lat="45.62346" lon="6.6788">
        <ele>1758.2</ele>
        <time>2022-01-01T12:44:05Z</time>
      </trkpt>
      <trkpt lat="45.62339" lon="6.67882">
        <ele>1757.6</ele>
        <time>2022-01-01T12:44:06Z</time>
      </trkpt>
      <trkpt lat="45.62326" lon="6.67884">
        <ele>1755.6</ele>
        <time>2022-01-01T12:44:08Z</time>
      </trkpt>
      <trkpt lat="45.62321" lon="6.67885">
        <ele>1754.6</ele>
        <time>2022-01-01T12:44:09Z</time>
      </trkpt>
      <trkpt lat="45.62309" lon="6.67886">
        <ele>1753.4</ele>
        <time>2022-01-01T12:44:11Z</time>
      </trkpt>
      <trkpt lat="45.62304" lon="6.67887">
        <ele>1752.8</ele>
        <time>2022-01-01T12:44:12Z</time>
      </trkpt>
      <trkpt lat="45.62294" lon="6.6789">
        <ele>1752.2</ele>
        <time>2022-01-01T12:44:14Z</time>
      </trkpt>
      <trkpt lat="45.62283" lon="6.67894">
        <ele>1751</ele>
        <time>2022-01-01T12:44:17Z</time>
      </trkpt>
      <trkpt lat="45.62272" lon="6.67896">
        <ele>1750</ele>
        <time>2022-01-01T12:44:20Z</time>
      </trkpt>
      <trkpt lat="45.62263" lon="6.67896">
        <ele>1748.8</ele>
        <time>2022-01-01T12:44:23Z</time>
      </trkpt>
      <trkpt lat="45.62252" lon="6.67895">
        <ele>1747.8</ele>
        <time>2022-01-01T12:44:28Z</time>
      </trkpt>
      <trkpt lat="45.62238" lon="6.67894">
        <ele>1746.6</ele>
        <time>2022-01-01T12:44:35Z</time>
      </trkpt>
      <trkpt lat="45.62236" lon="6.67894">
        <ele>1746.2</ele>
        <time>2022-01-01T12:44:36Z</time>
      </trkpt>
      <trkpt lat="45.62226" lon="6.67895">
        <ele>1745.2</ele>
        <time>2022-01-01T12:44:40Z</time>
      </trkpt>
      <trkpt lat="45.62224" lon="6.67895">
        <ele>1745</ele>
        <time>2022-01-01T12:44:41Z</time>
      </trkpt>
      <trkpt lat="45.62223" lon="6.67896">
        <ele>1744.8</ele>
        <time>2022-01-01T12:44:42Z</time>
      </trkpt>
      <trkpt lat="45.62213" lon="6.67896">
        <ele>1744.2</ele>
        <time>2022-01-01T12:44:46Z</time>
      </trkpt>
      <trkpt lat="45.62211" lon="6.67895">
        <ele>1744</ele>
        <time>2022-01-01T12:44:47Z</time>
      </trkpt>
      <trkpt lat="45.62198" lon="6.67889">
        <ele>1743</ele>
        <time>2022-01-01T12:44:51Z</time>
      </trkpt>
      <trkpt lat="45.62194" lon="6.67887">
        <ele>1742.6</ele>
        <time>2022-01-01T12:44:52Z</time>
      </trkpt>
      <trkpt lat="45.62189" lon="6.67884">
        <ele>1742</ele>
        <time>2022-01-01T12:44:53Z</time>
      </trkpt>
      <trkpt lat="45.62184" lon="6.67883">
        <ele>1740.8</ele>
        <time>2022-01-01T12:44:54Z</time>
      </trkpt>
      <trkpt lat="45.62172" lon="6.67883">
        <ele>1739.4</ele>
        <time>2022-01-01T12:44:56Z</time>
      </trkpt>
      <trkpt lat="45.6216" lon="6.67883">
        <ele>1738</ele>
        <time>2022-01-01T12:44:58Z</time>
      </trkpt>
      <trkpt lat="45.62147" lon="6.67881">
        <ele>1736.8</ele>
        <time>2022-01-01T12:45:00Z</time>
      </trkpt>
      <trkpt lat="45.62138" lon="6.67879">
        <ele>1735.4</ele>
        <time>2022-01-01T12:45:02Z</time>
      </trkpt>
      <trkpt lat="45.62134" lon="6.67878">
        <ele>1734.6</ele>
        <time>2022-01-01T12:45:04Z</time>
      </trkpt>
      <trkpt lat="45.62134" lon="6.67878">
        <ele>1734.8</ele>
        <time>2022-01-01T12:45:07Z</time>
      </trkpt>
      <trkpt lat="45.62127" lon="6.67869">
        <ele>1734</ele>
        <time>2022-01-01T12:45:22Z</time>
      </trkpt>
      <trkpt lat="45.62117" lon="6.67863">
        <ele>1732.2</ele>
        <time>2022-01-01T12:45:24Z</time>
      </trkpt>
      <trkpt lat="45.62111" lon="6.67859">
        <ele>1731</ele>
        <time>2022-01-01T12:45:25Z</time>
      </trkpt>
      <trkpt lat="45.62105" lon="6.67855">
        <ele>1729.8</ele>
        <time>2022-01-01T12:45:26Z</time>
      </trkpt>
      <trkpt lat="45.62099" lon="6.67851">
        <ele>1728.8</ele>
        <time>2022-01-01T12:45:27Z</time>
      </trkpt>
      <trkpt lat="45.62086" lon="6.67844">
        <ele>1727.6</ele>
        <time>2022-01-01T12:45:29Z</time>
      </trkpt>
      <trkpt lat="45.6208" lon="6.67842">
        <ele>1726.8</ele>
        <time>2022-01-01T12:45:30Z</time>
      </trkpt>
      <trkpt lat="45.62073" lon="6.67839">
        <ele>1726</ele>
        <time>2022-01-01T12:45:31Z</time>
      </trkpt>
      <trkpt lat="45.62067" lon="6.67837">
        <ele>1725.2</ele>
        <time>2022-01-01T12:45:32Z</time>
      </trkpt>
      <trkpt lat="45.6206" lon="6.67836">
        <ele>1724</ele>
        <time>2022-01-01T12:45:33Z</time>
      </trkpt>
      <trkpt lat="45.62054" lon="6.67836">
        <ele>1723.2</ele>
        <time>2022-01-01T12:45:34Z</time>
      </trkpt>
      <trkpt lat="45.62047" lon="6.67836">
        <ele>1722</ele>
        <time>2022-01-01T12:45:35Z</time>
      </trkpt>
      <trkpt lat="45.6204" lon="6.67836">
        <ele>1720.8</ele>
        <time>2022-01-01T12:45:36Z</time>
      </trkpt>
      <trkpt lat="45.62025" lon="6.67837">
        <ele>1719.2</ele>
        <time>2022-01-01T12:45:38Z</time>
      </trkpt>
      <trkpt lat="45.62012" lon="6.6784">
        <ele>1718.2</ele>
        <time>2022-01-01T12:45:40Z</time>
      </trkpt>
      <trkpt lat="45.62005" lon="6.6784">
        <ele>1717.4</ele>
        <time>2022-01-01T12:45:41Z</time>
      </trkpt>
      <trkpt lat="45.61999" lon="6.67841">
        <ele>1716.6</ele>
        <time>2022-01-01T12:45:42Z</time>
      </trkpt>
      <trkpt lat="45.61986" lon="6.67842">
        <ele>1715.2</ele>
        <time>2022-01-01T12:45:44Z</time>
      </trkpt>
      <trkpt lat="45.61966" lon="6.67843">
        <ele>1713.4</ele>
        <time>2022-01-01T12:45:47Z</time>
      </trkpt>
      <trkpt lat="45.61952" lon="6.67843">
        <ele>1712</ele>
        <time>2022-01-01T12:45:49Z</time>
      </trkpt>
      <trkpt lat="45.61945" lon="6.67843">
        <ele>1710.8</ele>
        <time>2022-01-01T12:45:50Z</time>
      </trkpt>
      <trkpt lat="45.61932" lon="6.67842">
        <ele>1709.4</ele>
        <time>2022-01-01T12:45:52Z</time>
      </trkpt>
      <trkpt lat="45.61919" lon="6.67842">
        <ele>1708</ele>
        <time>2022-01-01T12:45:54Z</time>
      </trkpt>
      <trkpt lat="45.61912" lon="6.67843">
        <ele>1707</ele>
        <time>2022-01-01T12:45:55Z</time>
      </trkpt>
      <trkpt lat="45.61906" lon="6.67844">
        <ele>1706.4</ele>
        <time>2022-01-01T12:45:56Z</time>
      </trkpt>
      <trkpt lat="45.619" lon="6.67844">
        <ele>1706</ele>
        <time>2022-01-01T12:45:57Z</time>
      </trkpt>
      <trkpt lat="45.61894" lon="6.67843">
        <ele>1705.2</ele>
        <time>2022-01-01T12:45:58Z</time>
      </trkpt>
      <trkpt lat="45.61888" lon="6.67841">
        <ele>1704.4</ele>
        <time>2022-01-01T12:45:59Z</time>
      </trkpt>
      <trkpt lat="45.61883" lon="6.6784">
        <ele>1703.6</ele>
        <time>2022-01-01T12:46:00Z</time>
      </trkpt>
      <trkpt lat="45.61866" lon="6.67834">
        <ele>1702.6</ele>
        <time>2022-01-01T12:46:03Z</time>
      </trkpt>
      <trkpt lat="45.61853" lon="6.6783">
        <ele>1701.4</ele>
        <time>2022-01-01T12:46:05Z</time>
      </trkpt>
      <trkpt lat="45.61839" lon="6.67827">
        <ele>1699.8</ele>
        <time>2022-01-01T12:46:07Z</time>
      </trkpt>
      <trkpt lat="45.6182" lon="6.67826">
        <ele>1698.4</ele>
        <time>2022-01-01T12:46:10Z</time>
      </trkpt>
      <trkpt lat="45.61807" lon="6.67824">
        <ele>1697.2</ele>
        <time>2022-01-01T12:46:12Z</time>
      </trkpt>
      <trkpt lat="45.61793" lon="6.67821">
        <ele>1696</ele>
        <time>2022-01-01T12:46:14Z</time>
      </trkpt>
      <trkpt lat="45.61782" lon="6.67815">
        <ele>1694.6</ele>
        <time>2022-01-01T12:46:16Z</time>
      </trkpt>
      <trkpt lat="45.61777" lon="6.67812">
        <ele>1694.2</ele>
        <time>2022-01-01T12:46:17Z</time>
      </trkpt>
      <trkpt lat="45.61773" lon="6.67809">
        <ele>1694.2</ele>
        <time>2022-01-01T12:46:18Z</time>
      </trkpt>
      <trkpt lat="45.61763" lon="6.67809">
        <ele>1693.2</ele>
        <time>2022-01-01T12:46:20Z</time>
      </trkpt>
      <trkpt lat="45.61757" lon="6.6781">
        <ele>1692.4</ele>
        <time>2022-01-01T12:46:21Z</time>
      </trkpt>
      <trkpt lat="45.61752" lon="6.6781">
        <ele>1692</ele>
        <time>2022-01-01T12:46:22Z</time>
      </trkpt>
      <trkpt lat="45.61742" lon="6.67808">
        <ele>1690.8</ele>
        <time>2022-01-01T12:46:24Z</time>
      </trkpt>
      <trkpt lat="45.61737" lon="6.67806">
        <ele>1690.6</ele>
        <time>2022-01-01T12:46:25Z</time>
      </trkpt>
      <trkpt lat="45.61729" lon="6.67802">
        <ele>1689.6</ele>
        <time>2022-01-01T12:46:27Z</time>
      </trkpt>
      <trkpt lat="45.61725" lon="6.67799">
        <ele>1689.4</ele>
        <time>2022-01-01T12:46:28Z</time>
      </trkpt>
      <trkpt lat="45.61718" lon="6.67793">
        <ele>1689</ele>
        <time>2022-01-01T12:46:30Z</time>
      </trkpt>
      <trkpt lat="45.61714" lon="6.67789">
        <ele>1688.6</ele>
        <time>2022-01-01T12:46:31Z</time>
      </trkpt>
      <trkpt lat="45.61711" lon="6.67784">
        <ele>1688.4</ele>
        <time>2022-01-01T12:46:32Z</time>
      </trkpt>
      <trkpt lat="45.61705" lon="6.67776">
        <ele>1687</ele>
        <time>2022-01-01T12:46:34Z</time>
      </trkpt>
      <trkpt lat="45.617" lon="6.67771">
        <ele>1686.4</ele>
        <time>2022-01-01T12:46:36Z</time>
      </trkpt>
      <trkpt lat="45.61696" lon="6.67769">
        <ele>1686.2</ele>
        <time>2022-01-01T12:46:37Z</time>
      </trkpt>
      <trkpt lat="45.61692" lon="6.67768">
        <ele>1685.6</ele>
        <time>2022-01-01T12:46:38Z</time>
      </trkpt>
      <trkpt lat="45.61688" lon="6.67769">
        <ele>1685.2</ele>
        <time>2022-01-01T12:46:39Z</time>
      </trkpt>
      <trkpt lat="45.61683" lon="6.67769">
        <ele>1685</ele>
        <time>2022-01-01T12:46:40Z</time>
      </trkpt>
      <trkpt lat="45.6168" lon="6.67769">
        <ele>1684.2</ele>
        <time>2022-01-01T12:46:41Z</time>
      </trkpt>
      <trkpt lat="45.61674" lon="6.67768">
        <ele>1683.4</ele>
        <time>2022-01-01T12:46:43Z</time>
      </trkpt>
      <trkpt lat="45.61669" lon="6.67768">
        <ele>1683.2</ele>
        <time>2022-01-01T12:46:45Z</time>
      </trkpt>
      <trkpt lat="45.61649" lon="6.67773">
        <ele>1682</ele>
        <time>2022-01-01T12:46:51Z</time>
      </trkpt>
      <trkpt lat="45.61632" lon="6.67777">
        <ele>1681</ele>
        <time>2022-01-01T12:46:55Z</time>
      </trkpt>
      <trkpt lat="45.61621" lon="6.67779">
        <ele>1680</ele>
        <time>2022-01-01T12:46:58Z</time>
      </trkpt>
      <trkpt lat="45.6162" lon="6.67779">
        <ele>1679.8</ele>
        <time>2022-01-01T12:46:59Z</time>
      </trkpt>
      <trkpt lat="45.61618" lon="6.67779">
        <ele>1679.6</ele>
        <time>2022-01-01T12:47:02Z</time>
      </trkpt>
      <trkpt lat="45.61616" lon="6.67781">
        <ele>1679.6</ele>
        <time>2022-01-01T12:47:05Z</time>
      </trkpt>
      <trkpt lat="45.61615" lon="6.67783">
        <ele>1679.6</ele>
        <time>2022-01-01T12:47:13Z</time>
      </trkpt>
      <trkpt lat="45.61616" lon="6.67783">
        <ele>1679.4</ele>
        <time>2022-01-01T12:47:24Z</time>
      </trkpt>
      <trkpt lat="45.61613" lon="6.67785">
        <ele>1678.6</ele>
        <time>2022-01-01T12:48:12Z</time>
      </trkpt>
      <trkpt lat="45.61598" lon="6.67784">
        <ele>1677.8</ele>
        <time>2022-01-01T12:48:16Z</time>
      </trkpt>
      <trkpt lat="45.61593" lon="6.67784">
        <ele>1677.6</ele>
        <time>2022-01-01T12:48:17Z</time>
      </trkpt>
      <trkpt lat="45.61579" lon="6.67782">
        <ele>1676.4</ele>
        <time>2022-01-01T12:48:20Z</time>
      </trkpt>
      <trkpt lat="45.61574" lon="6.67781">
        <ele>1676.2</ele>
        <time>2022-01-01T12:48:21Z</time>
      </trkpt>
      <trkpt lat="45.61564" lon="6.6778">
        <ele>1675.2</ele>
        <time>2022-01-01T12:48:23Z</time>
      </trkpt>
      <trkpt lat="45.61545" lon="6.67781">
        <ele>1673.8</ele>
        <time>2022-01-01T12:48:26Z</time>
      </trkpt>
      <trkpt lat="45.61531" lon="6.67784">
        <ele>1672.4</ele>
        <time>2022-01-01T12:48:28Z</time>
      </trkpt>
      <trkpt lat="45.61517" lon="6.67785">
        <ele>1671.2</ele>
        <time>2022-01-01T12:48:30Z</time>
      </trkpt>
      <trkpt lat="45.61504" lon="6.67785">
        <ele>1670.4</ele>
        <time>2022-01-01T12:48:32Z</time>
      </trkpt>
      <trkpt lat="45.61496" lon="6.67784">
        <ele>1669.6</ele>
        <time>2022-01-01T12:48:33Z</time>
      </trkpt>
      <trkpt lat="45.61489" lon="6.67782">
        <ele>1669.2</ele>
        <time>2022-01-01T12:48:34Z</time>
      </trkpt>
      <trkpt lat="45.61482" lon="6.67779">
        <ele>1667.8</ele>
        <time>2022-01-01T12:48:35Z</time>
      </trkpt>
      <trkpt lat="45.61475" lon="6.67776">
        <ele>1667</ele>
        <time>2022-01-01T12:48:36Z</time>
      </trkpt>
      <trkpt lat="45.61467" lon="6.67775">
        <ele>1666.4</ele>
        <time>2022-01-01T12:48:37Z</time>
      </trkpt>
      <trkpt lat="45.61445" lon="6.67772">
        <ele>1665.2</ele>
        <time>2022-01-01T12:48:40Z</time>
      </trkpt>
      <trkpt lat="45.61437" lon="6.67771">
        <ele>1664.6</ele>
        <time>2022-01-01T12:48:41Z</time>
      </trkpt>
      <trkpt lat="45.61429" lon="6.6777">
        <ele>1663.6</ele>
        <time>2022-01-01T12:48:42Z</time>
      </trkpt>
      <trkpt lat="45.61414" lon="6.67765">
        <ele>1662</ele>
        <time>2022-01-01T12:48:44Z</time>
      </trkpt>
      <trkpt lat="45.61408" lon="6.67762">
        <ele>1661</ele>
        <time>2022-01-01T12:48:45Z</time>
      </trkpt>
      <trkpt lat="45.61401" lon="6.6776">
        <ele>1660.4</ele>
        <time>2022-01-01T12:48:46Z</time>
      </trkpt>
      <trkpt lat="45.61394" lon="6.67758">
        <ele>1659.8</ele>
        <time>2022-01-01T12:48:47Z</time>
      </trkpt>
      <trkpt lat="45.61376" lon="6.67756">
        <ele>1658.6</ele>
        <time>2022-01-01T12:48:50Z</time>
      </trkpt>
      <trkpt lat="45.61352" lon="6.6775">
        <ele>1657.8</ele>
        <time>2022-01-01T12:48:55Z</time>
      </trkpt>
      <trkpt lat="45.61347" lon="6.67749">
        <ele>1657.4</ele>
        <time>2022-01-01T12:48:56Z</time>
      </trkpt>
      <trkpt lat="45.61331" lon="6.67745">
        <ele>1656.4</ele>
        <time>2022-01-01T12:48:59Z</time>
      </trkpt>
      <trkpt lat="45.6132" lon="6.67743">
        <ele>1655.4</ele>
        <time>2022-01-01T12:49:01Z</time>
      </trkpt>
      <trkpt lat="45.61314" lon="6.67743">
        <ele>1654.8</ele>
        <time>2022-01-01T12:49:02Z</time>
      </trkpt>
      <trkpt lat="45.61291" lon="6.67744">
        <ele>1653.6</ele>
        <time>2022-01-01T12:49:06Z</time>
      </trkpt>
      <trkpt lat="45.6128" lon="6.67745">
        <ele>1652.6</ele>
        <time>2022-01-01T12:49:08Z</time>
      </trkpt>
      <trkpt lat="45.61267" lon="6.67747">
        <ele>1651.8</ele>
        <time>2022-01-01T12:49:10Z</time>
      </trkpt>
      <trkpt lat="45.61261" lon="6.67748">
        <ele>1651.2</ele>
        <time>2022-01-01T12:49:11Z</time>
      </trkpt>
      <trkpt lat="45.61256" lon="6.67751">
        <ele>1650.4</ele>
        <time>2022-01-01T12:49:12Z</time>
      </trkpt>
      <trkpt lat="45.61252" lon="6.67753">
        <ele>1650</ele>
        <time>2022-01-01T12:49:13Z</time>
      </trkpt>
      <trkpt lat="45.61248" lon="6.67756">
        <ele>1649.6</ele>
        <time>2022-01-01T12:49:14Z</time>
      </trkpt>
      <trkpt lat="45.61244" lon="6.67756">
        <ele>1649.2</ele>
        <time>2022-01-01T12:49:15Z</time>
      </trkpt>
      <trkpt lat="45.61242" lon="6.67755">
        <ele>1649</ele>
        <time>2022-01-01T12:49:16Z</time>
      </trkpt>
      <trkpt lat="45.6124" lon="6.67754">
        <ele>1648.8</ele>
        <time>2022-01-01T12:49:17Z</time>
      </trkpt>
      <trkpt lat="45.6124" lon="6.67753">
        <ele>1648.4</ele>
        <time>2022-01-01T12:49:21Z</time>
      </trkpt>
      <trkpt lat="45.6124" lon="6.67751">
        <ele>1648</ele>
        <time>2022-01-01T12:49:32Z</time>
      </trkpt>
      <trkpt lat="45.61239" lon="6.67751">
        <ele>1648</ele>
        <time>2022-01-01T12:49:34Z</time>
      </trkpt>
      <trkpt lat="45.61239" lon="6.67751">
        <ele>1648</ele>
        <time>2022-01-01T12:49:49Z</time>
      </trkpt>
      <trkpt lat="45.61242" lon="6.67752">
        <ele>1647.2</ele>
        <time>2022-01-01T12:50:14Z</time>
      </trkpt>
      <trkpt lat="45.6124" lon="6.67752">
        <ele>1646.8</ele>
        <time>2022-01-01T12:50:29Z</time>
      </trkpt>
      <trkpt lat="45.61234" lon="6.67753">
        <ele>1646.6</ele>
        <time>2022-01-01T12:50:31Z</time>
      </trkpt>
      <trkpt lat="45.6122" lon="6.67754">
        <ele>1645.6</ele>
        <time>2022-01-01T12:50:35Z</time>
      </trkpt>
      <trkpt lat="45.61216" lon="6.67754">
        <ele>1645.4</ele>
        <time>2022-01-01T12:50:36Z</time>
      </trkpt>
      <trkpt lat="45.61208" lon="6.67755">
        <ele>1645.2</ele>
        <time>2022-01-01T12:50:38Z</time>
      </trkpt>
      <trkpt lat="45.61198" lon="6.67757">
        <ele>1644.4</ele>
        <time>2022-01-01T12:50:41Z</time>
      </trkpt>
      <trkpt lat="45.61185" lon="6.67759">
        <ele>1643.8</ele>
        <time>2022-01-01T12:50:44Z</time>
      </trkpt>
      <trkpt lat="45.61176" lon="6.67758">
        <ele>1643</ele>
        <time>2022-01-01T12:50:46Z</time>
      </trkpt>
      <trkpt lat="45.61166" lon="6.67755">
        <ele>1642.6</ele>
        <time>2022-01-01T12:50:48Z</time>
      </trkpt>
      <trkpt lat="45.61162" lon="6.67753">
        <ele>1642.4</ele>
        <time>2022-01-01T12:50:49Z</time>
      </trkpt>
      <trkpt lat="45.61148" lon="6.67743">
        <ele>1641.8</ele>
        <time>2022-01-01T12:50:53Z</time>
      </trkpt>
      <trkpt lat="45.61145" lon="6.67741">
        <ele>1641.6</ele>
        <time>2022-01-01T12:50:54Z</time>
      </trkpt>
      <trkpt lat="45.61138" lon="6.67737">
        <ele>1641.6</ele>
        <time>2022-01-01T12:50:56Z</time>
      </trkpt>
      <trkpt lat="45.61128" lon="6.67729">
        <ele>1641</ele>
        <time>2022-01-01T12:51:00Z</time>
      </trkpt>
      <trkpt lat="45.61121" lon="6.67725">
        <ele>1640.8</ele>
        <time>2022-01-01T12:51:03Z</time>
      </trkpt>
      <trkpt lat="45.6111" lon="6.67719">
        <ele>1640.6</ele>
        <time>2022-01-01T12:51:08Z</time>
      </trkpt>
      <trkpt lat="45.61091" lon="6.67708">
        <ele>1640</ele>
        <time>2022-01-01T12:51:16Z</time>
      </trkpt>
      <trkpt lat="45.61088" lon="6.67707">
        <ele>1639.8</ele>
        <time>2022-01-01T12:51:17Z</time>
      </trkpt>
      <trkpt lat="45.61072" lon="6.677">
        <ele>1639.4</ele>
        <time>2022-01-01T12:51:24Z</time>
      </trkpt>
      <trkpt lat="45.61059" lon="6.67694">
        <ele>1639</ele>
        <time>2022-01-01T12:51:30Z</time>
      </trkpt>
      <trkpt lat="45.61047" lon="6.67691">
        <ele>1638.8</ele>
        <time>2022-01-01T12:51:35Z</time>
      </trkpt>
      <trkpt lat="45.61045" lon="6.6769">
        <ele>1638.8</ele>
        <time>2022-01-01T12:51:36Z</time>
      </trkpt>
      <trkpt lat="45.61037" lon="6.67686">
        <ele>1638.4</ele>
        <time>2022-01-01T12:51:40Z</time>
      </trkpt>
      <trkpt lat="45.61026" lon="6.6768">
        <ele>1638.2</ele>
        <time>2022-01-01T12:51:46Z</time>
      </trkpt>
      <trkpt lat="45.61012" lon="6.67665">
        <ele>1637.6</ele>
        <time>2022-01-01T12:51:54Z</time>
      </trkpt>
      <trkpt lat="45.61" lon="6.67648">
        <ele>1637.4</ele>
        <time>2022-01-01T12:52:01Z</time>
      </trkpt>
      <trkpt lat="45.60996" lon="6.67643">
        <ele>1637.4</ele>
        <time>2022-01-01T12:52:03Z</time>
      </trkpt>
      <trkpt lat="45.60985" lon="6.67623">
        <ele>1637.2</ele>
        <time>2022-01-01T12:52:11Z</time>
      </trkpt>
      <trkpt lat="45.60975" lon="6.67608">
        <ele>1636.6</ele>
        <time>2022-01-01T12:52:18Z</time>
      </trkpt>
      <trkpt lat="45.60973" lon="6.67606">
        <ele>1636.4</ele>
        <time>2022-01-01T12:52:19Z</time>
      </trkpt>
      <trkpt lat="45.60962" lon="6.67593">
        <ele>1636.4</ele>
        <time>2022-01-01T12:52:26Z</time>
      </trkpt>
      <trkpt lat="45.60953" lon="6.67585">
        <ele>1636.4</ele>
        <time>2022-01-01T12:52:32Z</time>
      </trkpt>
      <trkpt lat="45.60948" lon="6.67583">
        <ele>1636.4</ele>
        <time>2022-01-01T12:52:35Z</time>
      </trkpt>
      <trkpt lat="45.60935" lon="6.67573">
        <ele>1635.8</ele>
        <time>2022-01-01T12:52:42Z</time>
      </trkpt>
      <trkpt lat="45.60928" lon="6.67567">
        <ele>1635.6</ele>
        <time>2022-01-01T12:52:45Z</time>
      </trkpt>
      <trkpt lat="45.60919" lon="6.67561">
        <ele>1635</ele>
        <time>2022-01-01T12:52:49Z</time>
      </trkpt>
      <trkpt lat="45.60903" lon="6.67552">
        <ele>1634.4</ele>
        <time>2022-01-01T12:52:56Z</time>
      </trkpt>
      <trkpt lat="45.60892" lon="6.67546">
        <ele>1634.2</ele>
        <time>2022-01-01T12:53:02Z</time>
      </trkpt>
      <trkpt lat="45.60877" lon="6.67539">
        <ele>1634</ele>
        <time>2022-01-01T12:53:09Z</time>
      </trkpt>
      <trkpt lat="45.60862" lon="6.67531">
        <ele>1633.4</ele>
        <time>2022-01-01T12:53:15Z</time>
      </trkpt>
      <trkpt lat="45.60846" lon="6.6752">
        <ele>1632.6</ele>
        <time>2022-01-01T12:53:22Z</time>
      </trkpt>
      <trkpt lat="45.60834" lon="6.67515">
        <ele>1632.2</ele>
        <time>2022-01-01T12:53:27Z</time>
      </trkpt>
      <trkpt lat="45.60827" lon="6.67512">
        <ele>1632</ele>
        <time>2022-01-01T12:53:30Z</time>
      </trkpt>
      <trkpt lat="45.60808" lon="6.67509">
        <ele>1631.4</ele>
        <time>2022-01-01T12:53:37Z</time>
      </trkpt>
      <trkpt lat="45.60794" lon="6.67506">
        <ele>1631.2</ele>
        <time>2022-01-01T12:53:44Z</time>
      </trkpt>
      <trkpt lat="45.60792" lon="6.67505">
        <ele>1631</ele>
        <time>2022-01-01T12:53:45Z</time>
      </trkpt>
      <trkpt lat="45.60782" lon="6.67503">
        <ele>1630.4</ele>
        <time>2022-01-01T12:53:50Z</time>
      </trkpt>
      <trkpt lat="45.60771" lon="6.67501">
        <ele>1630</ele>
        <time>2022-01-01T12:53:55Z</time>
      </trkpt>
      <trkpt lat="45.60769" lon="6.67501">
        <ele>1630</ele>
        <time>2022-01-01T12:53:56Z</time>
      </trkpt>
      <trkpt lat="45.60749" lon="6.67488">
        <ele>1629.2</ele>
        <time>2022-01-01T12:54:05Z</time>
      </trkpt>
      <trkpt lat="45.60747" lon="6.67487">
        <ele>1629</ele>
        <time>2022-01-01T12:54:06Z</time>
      </trkpt>
      <trkpt lat="45.6073" lon="6.67477">
        <ele>1628</ele>
        <time>2022-01-01T12:54:13Z</time>
      </trkpt>
      <trkpt lat="45.60727" lon="6.67476">
        <ele>1627.8</ele>
        <time>2022-01-01T12:54:14Z</time>
      </trkpt>
      <trkpt lat="45.60714" lon="6.67472">
        <ele>1626.4</ele>
        <time>2022-01-01T12:54:17Z</time>
      </trkpt>
      <trkpt lat="45.60709" lon="6.67469">
        <ele>1625.8</ele>
        <time>2022-01-01T12:54:18Z</time>
      </trkpt>
      <trkpt lat="45.60704" lon="6.67467">
        <ele>1625</ele>
        <time>2022-01-01T12:54:19Z</time>
      </trkpt>
      <trkpt lat="45.60693" lon="6.67462">
        <ele>1623.4</ele>
        <time>2022-01-01T12:54:21Z</time>
      </trkpt>
      <trkpt lat="45.60676" lon="6.67455">
        <ele>1621.8</ele>
        <time>2022-01-01T12:54:24Z</time>
      </trkpt>
      <trkpt lat="45.60663" lon="6.6745">
        <ele>1620.6</ele>
        <time>2022-01-01T12:54:26Z</time>
      </trkpt>
      <trkpt lat="45.60657" lon="6.67448">
        <ele>1619.6</ele>
        <time>2022-01-01T12:54:27Z</time>
      </trkpt>
      <trkpt lat="45.60643" lon="6.67444">
        <ele>1618</ele>
        <time>2022-01-01T12:54:29Z</time>
      </trkpt>
      <trkpt lat="45.60629" lon="6.67442">
        <ele>1616.6</ele>
        <time>2022-01-01T12:54:31Z</time>
      </trkpt>
      <trkpt lat="45.60622" lon="6.67441">
        <ele>1615.6</ele>
        <time>2022-01-01T12:54:32Z</time>
      </trkpt>
      <trkpt lat="45.60616" lon="6.6744">
        <ele>1615</ele>
        <time>2022-01-01T12:54:33Z</time>
      </trkpt>
      <trkpt lat="45.60604" lon="6.67438">
        <ele>1613.6</ele>
        <time>2022-01-01T12:54:35Z</time>
      </trkpt>
      <trkpt lat="45.60599" lon="6.67435">
        <ele>1612.4</ele>
        <time>2022-01-01T12:54:36Z</time>
      </trkpt>
      <trkpt lat="45.60594" lon="6.67433">
        <ele>1611.6</ele>
        <time>2022-01-01T12:54:37Z</time>
      </trkpt>
      <trkpt lat="45.60591" lon="6.6743">
        <ele>1611.2</ele>
        <time>2022-01-01T12:54:38Z</time>
      </trkpt>
      <trkpt lat="45.60587" lon="6.67427">
        <ele>1610.8</ele>
        <time>2022-01-01T12:54:40Z</time>
      </trkpt>
      <trkpt lat="45.60584" lon="6.67427">
        <ele>1610.6</ele>
        <time>2022-01-01T12:54:41Z</time>
      </trkpt>
      <trkpt lat="45.60575" lon="6.67423">
        <ele>1610</ele>
        <time>2022-01-01T12:54:45Z</time>
      </trkpt>
      <trkpt lat="45.60566" lon="6.6742">
        <ele>1609</ele>
        <time>2022-01-01T12:54:48Z</time>
      </trkpt>
      <trkpt lat="45.60563" lon="6.67419">
        <ele>1608.6</ele>
        <time>2022-01-01T12:54:50Z</time>
      </trkpt>
      <trkpt lat="45.60558" lon="6.67418">
        <ele>1608.6</ele>
        <time>2022-01-01T12:54:56Z</time>
      </trkpt>
      <trkpt lat="45.60544" lon="6.67411">
        <ele>1607.4</ele>
        <time>2022-01-01T12:55:00Z</time>
      </trkpt>
      <trkpt lat="45.60536" lon="6.67407">
        <ele>1606.2</ele>
        <time>2022-01-01T12:55:02Z</time>
      </trkpt>
      <trkpt lat="45.60528" lon="6.67403">
        <ele>1605</ele>
        <time>2022-01-01T12:55:04Z</time>
      </trkpt>
      <trkpt lat="45.6052" lon="6.67399">
        <ele>1604</ele>
        <time>2022-01-01T12:55:06Z</time>
      </trkpt>
      <trkpt lat="45.60517" lon="6.67397">
        <ele>1603.4</ele>
        <time>2022-01-01T12:55:07Z</time>
      </trkpt>
      <trkpt lat="45.60513" lon="6.67395">
        <ele>1602.8</ele>
        <time>2022-01-01T12:55:08Z</time>
      </trkpt>
      <trkpt lat="45.605" lon="6.67387">
        <ele>1601.4</ele>
        <time>2022-01-01T12:55:11Z</time>
      </trkpt>
      <trkpt lat="45.60491" lon="6.67382">
        <ele>1600.2</ele>
        <time>2022-01-01T12:55:13Z</time>
      </trkpt>
      <trkpt lat="45.60481" lon="6.67376">
        <ele>1598.8</ele>
        <time>2022-01-01T12:55:15Z</time>
      </trkpt>
      <trkpt lat="45.60474" lon="6.67371">
        <ele>1597.6</ele>
        <time>2022-01-01T12:55:17Z</time>
      </trkpt>
      <trkpt lat="45.60465" lon="6.67365">
        <ele>1596.4</ele>
        <time>2022-01-01T12:55:19Z</time>
      </trkpt>
      <trkpt lat="45.60456" lon="6.67361">
        <ele>1594.8</ele>
        <time>2022-01-01T12:55:21Z</time>
      </trkpt>
      <trkpt lat="45.60446" lon="6.67357">
        <ele>1593.8</ele>
        <time>2022-01-01T12:55:23Z</time>
      </trkpt>
      <trkpt lat="45.60437" lon="6.67353">
        <ele>1592.6</ele>
        <time>2022-01-01T12:55:25Z</time>
      </trkpt>
      <trkpt lat="45.60427" lon="6.67349">
        <ele>1591.6</ele>
        <time>2022-01-01T12:55:27Z</time>
      </trkpt>
      <trkpt lat="45.60421" lon="6.67346">
        <ele>1591.2</ele>
        <time>2022-01-01T12:55:28Z</time>
      </trkpt>
      <trkpt lat="45.60411" lon="6.67341">
        <ele>1590.2</ele>
        <time>2022-01-01T12:55:30Z</time>
      </trkpt>
      <trkpt lat="45.60401" lon="6.67338">
        <ele>1589</ele>
        <time>2022-01-01T12:55:32Z</time>
      </trkpt>
      <trkpt lat="45.60397" lon="6.67337">
        <ele>1588.4</ele>
        <time>2022-01-01T12:55:33Z</time>
      </trkpt>
      <trkpt lat="45.60386" lon="6.67336">
        <ele>1587.4</ele>
        <time>2022-01-01T12:55:35Z</time>
      </trkpt>
      <trkpt lat="45.6038" lon="6.67334">
        <ele>1587</ele>
        <time>2022-01-01T12:55:36Z</time>
      </trkpt>
      <trkpt lat="45.60369" lon="6.6733">
        <ele>1586.2</ele>
        <time>2022-01-01T12:55:38Z</time>
      </trkpt>
      <trkpt lat="45.60353" lon="6.67323">
        <ele>1584.8</ele>
        <time>2022-01-01T12:55:41Z</time>
      </trkpt>
      <trkpt lat="45.60343" lon="6.67318">
        <ele>1583.8</ele>
        <time>2022-01-01T12:55:43Z</time>
      </trkpt>
      <trkpt lat="45.60327" lon="6.67309">
        <ele>1582.2</ele>
        <time>2022-01-01T12:55:46Z</time>
      </trkpt>
      <trkpt lat="45.60312" lon="6.67301">
        <ele>1580.6</ele>
        <time>2022-01-01T12:55:49Z</time>
      </trkpt>
      <trkpt lat="45.60301" lon="6.67294">
        <ele>1579.4</ele>
        <time>2022-01-01T12:55:51Z</time>
      </trkpt>
      <trkpt lat="45.60283" lon="6.67283">
        <ele>1577.8</ele>
        <time>2022-01-01T12:55:54Z</time>
      </trkpt>
      <trkpt lat="45.6027" lon="6.67278">
        <ele>1576.6</ele>
        <time>2022-01-01T12:55:56Z</time>
      </trkpt>
      <trkpt lat="45.6025" lon="6.6727">
        <ele>1575.2</ele>
        <time>2022-01-01T12:55:59Z</time>
      </trkpt>
      <trkpt lat="45.6024" lon="6.67265">
        <ele>1574</ele>
        <time>2022-01-01T12:56:01Z</time>
      </trkpt>
      <trkpt lat="45.60226" lon="6.67261">
        <ele>1572.8</ele>
        <time>2022-01-01T12:56:03Z</time>
      </trkpt>
      <trkpt lat="45.60215" lon="6.67258">
        <ele>1571.8</ele>
        <time>2022-01-01T12:56:05Z</time>
      </trkpt>
      <trkpt lat="45.60201" lon="6.67254">
        <ele>1570.2</ele>
        <time>2022-01-01T12:56:08Z</time>
      </trkpt>
      <trkpt lat="45.6019" lon="6.67248">
        <ele>1569.2</ele>
        <time>2022-01-01T12:56:11Z</time>
      </trkpt>
      <trkpt lat="45.60179" lon="6.67242">
        <ele>1568.2</ele>
        <time>2022-01-01T12:56:14Z</time>
      </trkpt>
      <trkpt lat="45.60175" lon="6.67239">
        <ele>1567.8</ele>
        <time>2022-01-01T12:56:15Z</time>
      </trkpt>
      <trkpt lat="45.60164" lon="6.6723">
        <ele>1567</ele>
        <time>2022-01-01T12:56:18Z</time>
      </trkpt>
      <trkpt lat="45.60158" lon="6.67216">
        <ele>1565.6</ele>
        <time>2022-01-01T12:56:21Z</time>
      </trkpt>
      <trkpt lat="45.60158" lon="6.67199">
        <ele>1564.6</ele>
        <time>2022-01-01T12:56:24Z</time>
      </trkpt>
      <trkpt lat="45.60159" lon="6.67194">
        <ele>1564.4</ele>
        <time>2022-01-01T12:56:25Z</time>
      </trkpt>
      <trkpt lat="45.60161" lon="6.67183">
        <ele>1563.4</ele>
        <time>2022-01-01T12:56:28Z</time>
      </trkpt>
      <trkpt lat="45.60163" lon="6.67175">
        <ele>1562.8</ele>
        <time>2022-01-01T12:56:30Z</time>
      </trkpt>
      <trkpt lat="45.60165" lon="6.67168">
        <ele>1562.2</ele>
        <time>2022-01-01T12:56:32Z</time>
      </trkpt>
      <trkpt lat="45.60173" lon="6.67149">
        <ele>1561.4</ele>
        <time>2022-01-01T12:56:36Z</time>
      </trkpt>
      <trkpt lat="45.60174" lon="6.67143">
        <ele>1561.2</ele>
        <time>2022-01-01T12:56:37Z</time>
      </trkpt>
      <trkpt lat="45.60173" lon="6.67138">
        <ele>1560.4</ele>
        <time>2022-01-01T12:56:38Z</time>
      </trkpt>
      <trkpt lat="45.6017" lon="6.67133">
        <ele>1560</ele>
        <time>2022-01-01T12:56:39Z</time>
      </trkpt>
      <trkpt lat="45.60166" lon="6.67129">
        <ele>1559</ele>
        <time>2022-01-01T12:56:40Z</time>
      </trkpt>
      <trkpt lat="45.60162" lon="6.67126">
        <ele>1558</ele>
        <time>2022-01-01T12:56:41Z</time>
      </trkpt>
      <trkpt lat="45.60156" lon="6.67123">
        <ele>1556.6</ele>
        <time>2022-01-01T12:56:42Z</time>
      </trkpt>
      <trkpt lat="45.60151" lon="6.67123">
        <ele>1555</ele>
        <time>2022-01-01T12:56:43Z</time>
      </trkpt>
      <trkpt lat="45.60146" lon="6.67126">
        <ele>1553.4</ele>
        <time>2022-01-01T12:56:44Z</time>
      </trkpt>
      <trkpt lat="45.60141" lon="6.67128">
        <ele>1552</ele>
        <time>2022-01-01T12:56:45Z</time>
      </trkpt>
      <trkpt lat="45.60135" lon="6.67128">
        <ele>1550.4</ele>
        <time>2022-01-01T12:56:46Z</time>
      </trkpt>
      <trkpt lat="45.6013" lon="6.67124">
        <ele>1549.2</ele>
        <time>2022-01-01T12:56:47Z</time>
      </trkpt>
      <trkpt lat="45.60126" lon="6.67118">
        <ele>1547.6</ele>
        <time>2022-01-01T12:56:48Z</time>
      </trkpt>
      <trkpt lat="45.60123" lon="6.67113">
        <ele>1546.8</ele>
        <time>2022-01-01T12:56:49Z</time>
      </trkpt>
      <trkpt lat="45.60119" lon="6.67113">
        <ele>1546</ele>
        <time>2022-01-01T12:56:50Z</time>
      </trkpt>
      <trkpt lat="45.60114" lon="6.67116">
        <ele>1545</ele>
        <time>2022-01-01T12:56:51Z</time>
      </trkpt>
      <trkpt lat="45.60107" lon="6.6712">
        <ele>1543.6</ele>
        <time>2022-01-01T12:56:52Z</time>
      </trkpt>
      <trkpt lat="45.60102" lon="6.6712">
        <ele>1542.6</ele>
        <time>2022-01-01T12:56:53Z</time>
      </trkpt>
      <trkpt lat="45.60098" lon="6.67117">
        <ele>1541.2</ele>
        <time>2022-01-01T12:56:54Z</time>
      </trkpt>
      <trkpt lat="45.60095" lon="6.67111">
        <ele>1539.8</ele>
        <time>2022-01-01T12:56:55Z</time>
      </trkpt>
      <trkpt lat="45.60092" lon="6.67106">
        <ele>1538.6</ele>
        <time>2022-01-01T12:56:56Z</time>
      </trkpt>
      <trkpt lat="45.60088" lon="6.67102">
        <ele>1538</ele>
        <time>2022-01-01T12:56:57Z</time>
      </trkpt>
      <trkpt lat="45.60084" lon="6.67102">
        <ele>1537.2</ele>
        <time>2022-01-01T12:56:58Z</time>
      </trkpt>
      <trkpt lat="45.60081" lon="6.67106">
        <ele>1535.6</ele>
        <time>2022-01-01T12:56:59Z</time>
      </trkpt>
      <trkpt lat="45.6008" lon="6.6711">
        <ele>1534.4</ele>
        <time>2022-01-01T12:57:00Z</time>
      </trkpt>
      <trkpt lat="45.60079" lon="6.67114">
        <ele>1533.4</ele>
        <time>2022-01-01T12:57:01Z</time>
      </trkpt>
      <trkpt lat="45.60076" lon="6.67123">
        <ele>1532</ele>
        <time>2022-01-01T12:57:03Z</time>
      </trkpt>
      <trkpt lat="45.60075" lon="6.67127">
        <ele>1531.4</ele>
        <time>2022-01-01T12:57:04Z</time>
      </trkpt>
      <trkpt lat="45.60074" lon="6.67131">
        <ele>1531</ele>
        <time>2022-01-01T12:57:05Z</time>
      </trkpt>
      <trkpt lat="45.60073" lon="6.67134">
        <ele>1530.6</ele>
        <time>2022-01-01T12:57:06Z</time>
      </trkpt>
      <trkpt lat="45.6007" lon="6.67136">
        <ele>1530</ele>
        <time>2022-01-01T12:57:08Z</time>
      </trkpt>
      <trkpt lat="45.60068" lon="6.67136">
        <ele>1529.6</ele>
        <time>2022-01-01T12:57:09Z</time>
      </trkpt>
      <trkpt lat="45.60062" lon="6.67133">
        <ele>1529</ele>
        <time>2022-01-01T12:57:11Z</time>
      </trkpt>
      <trkpt lat="45.60061" lon="6.6713">
        <ele>1528.8</ele>
        <time>2022-01-01T12:57:12Z</time>
      </trkpt>
      <trkpt lat="45.6006" lon="6.67128">
        <ele>1528.2</ele>
        <time>2022-01-01T12:57:13Z</time>
      </trkpt>
      <trkpt lat="45.60057" lon="6.6711">
        <ele>1527.2</ele>
        <time>2022-01-01T12:57:17Z</time>
      </trkpt>
      <trkpt lat="45.60056" lon="6.67103">
        <ele>1527</ele>
        <time>2022-01-01T12:57:18Z</time>
      </trkpt>
      <trkpt lat="45.60053" lon="6.67082">
        <ele>1526.2</ele>
        <time>2022-01-01T12:57:21Z</time>
      </trkpt>
      <trkpt lat="45.60049" lon="6.67066">
        <ele>1524.8</ele>
        <time>2022-01-01T12:57:23Z</time>
      </trkpt>
      <trkpt lat="45.60047" lon="6.67058">
        <ele>1524.4</ele>
        <time>2022-01-01T12:57:24Z</time>
      </trkpt>
      <trkpt lat="45.6004" lon="6.67044">
        <ele>1523.2</ele>
        <time>2022-01-01T12:57:26Z</time>
      </trkpt>
      <trkpt lat="45.60036" lon="6.67038">
        <ele>1522.8</ele>
        <time>2022-01-01T12:57:27Z</time>
      </trkpt>
      <trkpt lat="45.60027" lon="6.6703">
        <ele>1521.2</ele>
        <time>2022-01-01T12:57:29Z</time>
      </trkpt>
      <trkpt lat="45.60021" lon="6.67027">
        <ele>1520.6</ele>
        <time>2022-01-01T12:57:30Z</time>
      </trkpt>
      <trkpt lat="45.60014" lon="6.67025">
        <ele>1520</ele>
        <time>2022-01-01T12:57:31Z</time>
      </trkpt>
      <trkpt lat="45.60003" lon="6.67023">
        <ele>1519.2</ele>
        <time>2022-01-01T12:57:33Z</time>
      </trkpt>
      <trkpt lat="45.59997" lon="6.67022">
        <ele>1518.6</ele>
        <time>2022-01-01T12:57:34Z</time>
      </trkpt>
      <trkpt lat="45.5999" lon="6.67022">
        <ele>1518.2</ele>
        <time>2022-01-01T12:57:35Z</time>
      </trkpt>
      <trkpt lat="45.59982" lon="6.67021">
        <ele>1517.2</ele>
        <time>2022-01-01T12:57:36Z</time>
      </trkpt>
      <trkpt lat="45.59971" lon="6.67021">
        <ele>1516.2</ele>
        <time>2022-01-01T12:57:38Z</time>
      </trkpt>
      <trkpt lat="45.59965" lon="6.6702">
        <ele>1515</ele>
        <time>2022-01-01T12:57:39Z</time>
      </trkpt>
      <trkpt lat="45.59957" lon="6.67019">
        <ele>1514.6</ele>
        <time>2022-01-01T12:57:40Z</time>
      </trkpt>
      <trkpt lat="45.59951" lon="6.67018">
        <ele>1514.2</ele>
        <time>2022-01-01T12:57:41Z</time>
      </trkpt>
      <trkpt lat="45.59944" lon="6.67017">
        <ele>1513.6</ele>
        <time>2022-01-01T12:57:42Z</time>
      </trkpt>
      <trkpt lat="45.59939" lon="6.67015">
        <ele>1513</ele>
        <time>2022-01-01T12:57:43Z</time>
      </trkpt>
      <trkpt lat="45.59925" lon="6.67006">
        <ele>1512.2</ele>
        <time>2022-01-01T12:57:45Z</time>
      </trkpt>
      <trkpt lat="45.59919" lon="6.67001">
        <ele>1511.2</ele>
        <time>2022-01-01T12:57:46Z</time>
      </trkpt>
      <trkpt lat="45.59909" lon="6.6699">
        <ele>1509.8</ele>
        <time>2022-01-01T12:57:48Z</time>
      </trkpt>
      <trkpt lat="45.59902" lon="6.66982">
        <ele>1508.8</ele>
        <time>2022-01-01T12:57:49Z</time>
      </trkpt>
      <trkpt lat="45.59897" lon="6.66976">
        <ele>1508.2</ele>
        <time>2022-01-01T12:57:50Z</time>
      </trkpt>
      <trkpt lat="45.59892" lon="6.66968">
        <ele>1507.4</ele>
        <time>2022-01-01T12:57:51Z</time>
      </trkpt>
      <trkpt lat="45.59887" lon="6.66962">
        <ele>1507</ele>
        <time>2022-01-01T12:57:52Z</time>
      </trkpt>
      <trkpt lat="45.59877" lon="6.66952">
        <ele>1505.4</ele>
        <time>2022-01-01T12:57:54Z</time>
      </trkpt>
      <trkpt lat="45.59865" lon="6.66946">
        <ele>1504.4</ele>
        <time>2022-01-01T12:57:56Z</time>
      </trkpt>
      <trkpt lat="45.59858" lon="6.66944">
        <ele>1503.2</ele>
        <time>2022-01-01T12:57:57Z</time>
      </trkpt>
      <trkpt lat="45.59853" lon="6.66944">
        <ele>1502.4</ele>
        <time>2022-01-01T12:57:58Z</time>
      </trkpt>
      <trkpt lat="45.59847" lon="6.66943">
        <ele>1501.8</ele>
        <time>2022-01-01T12:57:59Z</time>
      </trkpt>
      <trkpt lat="45.5984" lon="6.66944">
        <ele>1501.2</ele>
        <time>2022-01-01T12:58:00Z</time>
      </trkpt>
      <trkpt lat="45.59833" lon="6.66944">
        <ele>1500.6</ele>
        <time>2022-01-01T12:58:01Z</time>
      </trkpt>
      <trkpt lat="45.59821" lon="6.66945">
        <ele>1499.4</ele>
        <time>2022-01-01T12:58:03Z</time>
      </trkpt>
      <trkpt lat="45.59808" lon="6.66948">
        <ele>1497.6</ele>
        <time>2022-01-01T12:58:05Z</time>
      </trkpt>
      <trkpt lat="45.59781" lon="6.66953">
        <ele>1496.2</ele>
        <time>2022-01-01T12:58:09Z</time>
      </trkpt>
      <trkpt lat="45.59775" lon="6.66953">
        <ele>1495.6</ele>
        <time>2022-01-01T12:58:10Z</time>
      </trkpt>
      <trkpt lat="45.59767" lon="6.66954">
        <ele>1494.6</ele>
        <time>2022-01-01T12:58:11Z</time>
      </trkpt>
      <trkpt lat="45.59755" lon="6.66951">
        <ele>1493.4</ele>
        <time>2022-01-01T12:58:13Z</time>
      </trkpt>
      <trkpt lat="45.59748" lon="6.66946">
        <ele>1492.6</ele>
        <time>2022-01-01T12:58:14Z</time>
      </trkpt>
      <trkpt lat="45.59743" lon="6.66939">
        <ele>1491.8</ele>
        <time>2022-01-01T12:58:15Z</time>
      </trkpt>
      <trkpt lat="45.59736" lon="6.66923">
        <ele>1490.6</ele>
        <time>2022-01-01T12:58:17Z</time>
      </trkpt>
      <trkpt lat="45.59734" lon="6.66901">
        <ele>1489.6</ele>
        <time>2022-01-01T12:58:19Z</time>
      </trkpt>
      <trkpt lat="45.59733" lon="6.66878">
        <ele>1488.8</ele>
        <time>2022-01-01T12:58:21Z</time>
      </trkpt>
      <trkpt lat="45.59732" lon="6.66859">
        <ele>1487.8</ele>
        <time>2022-01-01T12:58:23Z</time>
      </trkpt>
      <trkpt lat="45.59729" lon="6.66836">
        <ele>1486.2</ele>
        <time>2022-01-01T12:58:25Z</time>
      </trkpt>
      <trkpt lat="45.59726" lon="6.66827">
        <ele>1485.4</ele>
        <time>2022-01-01T12:58:26Z</time>
      </trkpt>
      <trkpt lat="45.59724" lon="6.66821">
        <ele>1484.2</ele>
        <time>2022-01-01T12:58:27Z</time>
      </trkpt>
      <trkpt lat="45.59714" lon="6.66807">
        <ele>1482.4</ele>
        <time>2022-01-01T12:58:29Z</time>
      </trkpt>
      <trkpt lat="45.59708" lon="6.66801">
        <ele>1481.4</ele>
        <time>2022-01-01T12:58:30Z</time>
      </trkpt>
      <trkpt lat="45.59697" lon="6.66791">
        <ele>1480</ele>
        <time>2022-01-01T12:58:32Z</time>
      </trkpt>
      <trkpt lat="45.5969" lon="6.66784">
        <ele>1478.8</ele>
        <time>2022-01-01T12:58:33Z</time>
      </trkpt>
      <trkpt lat="45.59677" lon="6.66774">
        <ele>1477.8</ele>
        <time>2022-01-01T12:58:35Z</time>
      </trkpt>
      <trkpt lat="45.59665" lon="6.66769">
        <ele>1476.6</ele>
        <time>2022-01-01T12:58:37Z</time>
      </trkpt>
      <trkpt lat="45.59652" lon="6.66766">
        <ele>1475</ele>
        <time>2022-01-01T12:58:39Z</time>
      </trkpt>
      <trkpt lat="45.59646" lon="6.66766">
        <ele>1474.4</ele>
        <time>2022-01-01T12:58:40Z</time>
      </trkpt>
      <trkpt lat="45.5964" lon="6.66767">
        <ele>1473.8</ele>
        <time>2022-01-01T12:58:41Z</time>
      </trkpt>
      <trkpt lat="45.59626" lon="6.6677">
        <ele>1472.4</ele>
        <time>2022-01-01T12:58:43Z</time>
      </trkpt>
      <trkpt lat="45.59613" lon="6.66772">
        <ele>1471.2</ele>
        <time>2022-01-01T12:58:45Z</time>
      </trkpt>
      <trkpt lat="45.59606" lon="6.66772">
        <ele>1470.8</ele>
        <time>2022-01-01T12:58:46Z</time>
      </trkpt>
      <trkpt lat="45.59599" lon="6.66773">
        <ele>1469.8</ele>
        <time>2022-01-01T12:58:47Z</time>
      </trkpt>
      <trkpt lat="45.59595" lon="6.66777">
        <ele>1469</ele>
        <time>2022-01-01T12:58:48Z</time>
      </trkpt>
      <trkpt lat="45.59594" lon="6.66782">
        <ele>1468</ele>
        <time>2022-01-01T12:58:49Z</time>
      </trkpt>
      <trkpt lat="45.596" lon="6.66793">
        <ele>1466.4</ele>
        <time>2022-01-01T12:58:51Z</time>
      </trkpt>
      <trkpt lat="45.59605" lon="6.66798">
        <ele>1465.8</ele>
        <time>2022-01-01T12:58:52Z</time>
      </trkpt>
      <trkpt lat="45.59614" lon="6.66808">
        <ele>1465.2</ele>
        <time>2022-01-01T12:58:54Z</time>
      </trkpt>
      <trkpt lat="45.59628" lon="6.66825">
        <ele>1463.8</ele>
        <time>2022-01-01T12:58:57Z</time>
      </trkpt>
      <trkpt lat="45.59634" lon="6.66843">
        <ele>1462.8</ele>
        <time>2022-01-01T12:58:59Z</time>
      </trkpt>
      <trkpt lat="45.59636" lon="6.66854">
        <ele>1462.6</ele>
        <time>2022-01-01T12:59:00Z</time>
      </trkpt>
      <trkpt lat="45.59636" lon="6.66865">
        <ele>1461.8</ele>
        <time>2022-01-01T12:59:01Z</time>
      </trkpt>
      <trkpt lat="45.59637" lon="6.66889">
        <ele>1460.4</ele>
        <time>2022-01-01T12:59:03Z</time>
      </trkpt>
      <trkpt lat="45.59636" lon="6.66902">
        <ele>1459.6</ele>
        <time>2022-01-01T12:59:04Z</time>
      </trkpt>
      <trkpt lat="45.59635" lon="6.66916">
        <ele>1459.2</ele>
        <time>2022-01-01T12:59:05Z</time>
      </trkpt>
      <trkpt lat="45.59633" lon="6.66942">
        <ele>1457.4</ele>
        <time>2022-01-01T12:59:07Z</time>
      </trkpt>
      <trkpt lat="45.59633" lon="6.66955">
        <ele>1456.6</ele>
        <time>2022-01-01T12:59:08Z</time>
      </trkpt>
      <trkpt lat="45.59635" lon="6.66967">
        <ele>1456.2</ele>
        <time>2022-01-01T12:59:09Z</time>
      </trkpt>
      <trkpt lat="45.59638" lon="6.66978">
        <ele>1455.4</ele>
        <time>2022-01-01T12:59:10Z</time>
      </trkpt>
      <trkpt lat="45.5964" lon="6.6699">
        <ele>1454.8</ele>
        <time>2022-01-01T12:59:11Z</time>
      </trkpt>
      <trkpt lat="45.5964" lon="6.67002">
        <ele>1454</ele>
        <time>2022-01-01T12:59:12Z</time>
      </trkpt>
      <trkpt lat="45.59637" lon="6.67012">
        <ele>1451.4</ele>
        <time>2022-01-01T12:59:13Z</time>
      </trkpt>
      <trkpt lat="45.59632" lon="6.6702">
        <ele>1448.8</ele>
        <time>2022-01-01T12:59:14Z</time>
      </trkpt>
      <trkpt lat="45.59626" lon="6.67023">
        <ele>1447.4</ele>
        <time>2022-01-01T12:59:15Z</time>
      </trkpt>
      <trkpt lat="45.5962" lon="6.67022">
        <ele>1446.6</ele>
        <time>2022-01-01T12:59:16Z</time>
      </trkpt>
      <trkpt lat="45.59613" lon="6.6702">
        <ele>1446.2</ele>
        <time>2022-01-01T12:59:17Z</time>
      </trkpt>
      <trkpt lat="45.59607" lon="6.67016">
        <ele>1446</ele>
        <time>2022-01-01T12:59:18Z</time>
      </trkpt>
      <trkpt lat="45.59595" lon="6.6701">
        <ele>1445.8</ele>
        <time>2022-01-01T12:59:20Z</time>
      </trkpt>
      <trkpt lat="45.59576" lon="6.67003">
        <ele>1445.6</ele>
        <time>2022-01-01T12:59:23Z</time>
      </trkpt>
      <trkpt lat="45.59562" lon="6.67004">
        <ele>1444.6</ele>
        <time>2022-01-01T12:59:25Z</time>
      </trkpt>
      <trkpt lat="45.59543" lon="6.67001">
        <ele>1443.4</ele>
        <time>2022-01-01T12:59:28Z</time>
      </trkpt>
      <trkpt lat="45.59536" lon="6.66999">
        <ele>1442.8</ele>
        <time>2022-01-01T12:59:29Z</time>
      </trkpt>
      <trkpt lat="45.59523" lon="6.66997">
        <ele>1442.2</ele>
        <time>2022-01-01T12:59:31Z</time>
      </trkpt>
      <trkpt lat="45.59505" lon="6.67002">
        <ele>1440.8</ele>
        <time>2022-01-01T12:59:34Z</time>
      </trkpt>
      <trkpt lat="45.59499" lon="6.67006">
        <ele>1440.2</ele>
        <time>2022-01-01T12:59:35Z</time>
      </trkpt>
      <trkpt lat="45.59494" lon="6.67011">
        <ele>1439.8</ele>
        <time>2022-01-01T12:59:36Z</time>
      </trkpt>
      <trkpt lat="45.59488" lon="6.67015">
        <ele>1439.4</ele>
        <time>2022-01-01T12:59:37Z</time>
      </trkpt>
      <trkpt lat="45.59477" lon="6.67025">
        <ele>1438.6</ele>
        <time>2022-01-01T12:59:39Z</time>
      </trkpt>
      <trkpt lat="45.59472" lon="6.6703">
        <ele>1438.6</ele>
        <time>2022-01-01T12:59:40Z</time>
      </trkpt>
      <trkpt lat="45.59467" lon="6.67035">
        <ele>1438.4</ele>
        <time>2022-01-01T12:59:41Z</time>
      </trkpt>
      <trkpt lat="45.59454" lon="6.6704">
        <ele>1437.8</ele>
        <time>2022-01-01T12:59:43Z</time>
      </trkpt>
      <trkpt lat="45.59448" lon="6.67042">
        <ele>1437</ele>
        <time>2022-01-01T12:59:44Z</time>
      </trkpt>
      <trkpt lat="45.59435" lon="6.67047">
        <ele>1435.8</ele>
        <time>2022-01-01T12:59:46Z</time>
      </trkpt>
      <trkpt lat="45.59429" lon="6.67051">
        <ele>1435.4</ele>
        <time>2022-01-01T12:59:47Z</time>
      </trkpt>
      <trkpt lat="45.59423" lon="6.67053">
        <ele>1435.2</ele>
        <time>2022-01-01T12:59:48Z</time>
      </trkpt>
      <trkpt lat="45.59418" lon="6.67057">
        <ele>1435.2</ele>
        <time>2022-01-01T12:59:49Z</time>
      </trkpt>
      <trkpt lat="45.59413" lon="6.6706">
        <ele>1435</ele>
        <time>2022-01-01T12:59:50Z</time>
      </trkpt>
      <trkpt lat="45.59408" lon="6.67063">
        <ele>1434.6</ele>
        <time>2022-01-01T12:59:51Z</time>
      </trkpt>
      <trkpt lat="45.59403" lon="6.67067">
        <ele>1434.2</ele>
        <time>2022-01-01T12:59:52Z</time>
      </trkpt>
      <trkpt lat="45.59394" lon="6.67074">
        <ele>1433.4</ele>
        <time>2022-01-01T12:59:54Z</time>
      </trkpt>
      <trkpt lat="45.59388" lon="6.67076">
        <ele>1432.8</ele>
        <time>2022-01-01T12:59:55Z</time>
      </trkpt>
      <trkpt lat="45.59385" lon="6.67076">
        <ele>1432.4</ele>
        <time>2022-01-01T12:59:56Z</time>
      </trkpt>
      <trkpt lat="45.59382" lon="6.67078">
        <ele>1431.6</ele>
        <time>2022-01-01T12:59:57Z</time>
      </trkpt>
      <trkpt lat="45.5938" lon="6.6708">
        <ele>1431.2</ele>
        <time>2022-01-01T12:59:58Z</time>
      </trkpt>
      <trkpt lat="45.59378" lon="6.67083">
        <ele>1430.6</ele>
        <time>2022-01-01T12:59:59Z</time>
      </trkpt>
      <trkpt lat="45.59376" lon="6.67085">
        <ele>1430.4</ele>
        <time>2022-01-01T13:00:00Z</time>
      </trkpt>
      <trkpt lat="45.59365" lon="6.67088">
        <ele>1430.4</ele>
        <time>2022-01-01T13:00:04Z</time>
      </trkpt>
      <trkpt lat="45.59346" lon="6.67087">
        <ele>1430.2</ele>
        <time>2022-01-01T13:00:10Z</time>
      </trkpt>
      <trkpt lat="45.59332" lon="6.67081">
        <ele>1430.2</ele>
        <time>2022-01-01T13:00:15Z</time>
      </trkpt>
      <trkpt lat="45.59312" lon="6.67077">
        <ele>1430</ele>
        <time>2022-01-01T13:00:21Z</time>
      </trkpt>
      <trkpt lat="45.59288" lon="6.67082">
        <ele>1430.6</ele>
        <time>2022-01-01T13:00:30Z</time>
      </trkpt>
      <trkpt lat="45.59272" lon="6.67078">
        <ele>1429.4</ele>
        <time>2022-01-01T13:00:36Z</time>
      </trkpt>
      <trkpt lat="45.59251" lon="6.67076">
        <ele>1429.6</ele>
        <time>2022-01-01T13:00:43Z</time>
      </trkpt>
      <trkpt lat="45.59241" lon="6.67078">
        <ele>1429.4</ele>
        <time>2022-01-01T13:00:46Z</time>
      </trkpt>
      <trkpt lat="45.59233" lon="6.67077">
        <ele>1429</ele>
        <time>2022-01-01T13:00:49Z</time>
      </trkpt>
      <trkpt lat="45.59222" lon="6.67084">
        <ele>1428.8</ele>
        <time>2022-01-01T13:00:54Z</time>
      </trkpt>
      <trkpt lat="45.59207" lon="6.67087">
        <ele>1428.4</ele>
        <time>2022-01-01T13:01:00Z</time>
      </trkpt>
      <trkpt lat="45.59205" lon="6.67087">
        <ele>1428.2</ele>
        <time>2022-01-01T13:01:01Z</time>
      </trkpt>
      <trkpt lat="45.59198" lon="6.67088">
        <ele>1428.2</ele>
        <time>2022-01-01T13:01:06Z</time>
      </trkpt>
      <trkpt lat="45.59197" lon="6.67088">
        <ele>1427.8</ele>
        <time>2022-01-01T13:01:09Z</time>
      </trkpt>
      <trkpt lat="45.59197" lon="6.67088">
        <ele>1427.4</ele>
        <time>2022-01-01T13:01:13Z</time>
      </trkpt>
      <trkpt lat="45.59198" lon="6.67086">
        <ele>1427.6</ele>
        <time>2022-01-01T13:01:21Z</time>
      </trkpt>
      <trkpt lat="45.59197" lon="6.67085">
        <ele>1427.2</ele>
        <time>2022-01-01T13:01:35Z</time>
      </trkpt>
      <trkpt lat="45.59194" lon="6.67093">
        <ele>1427.4</ele>
        <time>2022-01-01T13:02:11Z</time>
      </trkpt>
      <trkpt lat="45.59181" lon="6.67097">
        <ele>1427.2</ele>
        <time>2022-01-01T13:02:20Z</time>
      </trkpt>
      <trkpt lat="45.59173" lon="6.67097">
        <ele>1427.4</ele>
        <time>2022-01-01T13:02:28Z</time>
      </trkpt>
      <trkpt lat="45.59172" lon="6.67097">
        <ele>1427.4</ele>
        <time>2022-01-01T13:02:29Z</time>
      </trkpt>
      <trkpt lat="45.59163" lon="6.67095">
        <ele>1426.8</ele>
        <time>2022-01-01T13:02:36Z</time>
      </trkpt>
      <trkpt lat="45.59153" lon="6.67093">
        <ele>1426.2</ele>
        <time>2022-01-01T13:02:44Z</time>
      </trkpt>
      <trkpt lat="45.59152" lon="6.67092">
        <ele>1426.2</ele>
        <time>2022-01-01T13:02:45Z</time>
      </trkpt>
      <trkpt lat="45.59143" lon="6.67091">
        <ele>1426</ele>
        <time>2022-01-01T13:02:53Z</time>
      </trkpt>
      <trkpt lat="45.59139" lon="6.67091">
        <ele>1425.8</ele>
        <time>2022-01-01T13:02:56Z</time>
      </trkpt>
      <trkpt lat="45.59136" lon="6.67092">
        <ele>1425.8</ele>
        <time>2022-01-01T13:02:59Z</time>
      </trkpt>
      <trkpt lat="45.59131" lon="6.67092">
        <ele>1425.6</ele>
        <time>2022-01-01T13:03:03Z</time>
      </trkpt>
    </trkseg>
  </trk>
</gpx>